<?xml version="1.0" encoding="utf-8"?>
<gpx xmlns:xsi="http://www.w3.org/2001/XMLSchema-instance" xmlns:xsd="http://www.w3.org/2001/XMLSchema" version="1.1" creator="Shapelink.com" xmlns="http://www.topografix.com/GPX/1/1" xmlns:gpxtpx="http://www.garmin.com/xmlschemas/TrackPointExtension/v1">
  <metadata>
    <name>Sykling 23.55 km, 2016-04-30</name>
    <desc></desc>
    <author><name>Stein Falk-Larssen</name></author> 
    <time>1970-01-01T01:00:00Z</time>
  </metadata>
  <trk>
    <name>Sykling 23.55 km, 2016-04-30</name>
    <trkseg>
      <trkpt lat="63.41095083" lon="10.48061167">
        <ele>142.343</ele>
        <time>1970-01-01T01:00:00Z</time>
      </trkpt>
      <trkpt lat="63.4109485" lon="10.4807075">
        <ele>142.343</ele>
        <time>1970-01-01T01:00:00Z</time>
      </trkpt>
      <trkpt lat="63.41094717" lon="10.48080333">
        <ele>142.496</ele>
        <time>1970-01-01T01:00:00Z</time>
      </trkpt>
      <trkpt lat="63.41094633" lon="10.48090167">
        <ele>142.496</ele>
        <time>1970-01-01T01:00:00Z</time>
      </trkpt>
      <trkpt lat="63.410946" lon="10.4810035">
        <ele>142.496</ele>
        <time>1970-01-01T01:00:00Z</time>
      </trkpt>
      <trkpt lat="63.4109455" lon="10.48110767">
        <ele>142.496</ele>
        <time>1970-01-01T01:00:00Z</time>
      </trkpt>
      <trkpt lat="63.41094483" lon="10.48121283">
        <ele>142.496</ele>
        <time>1970-01-01T01:00:00Z</time>
      </trkpt>
      <trkpt lat="63.4109435" lon="10.48131917">
        <ele>142.496</ele>
        <time>1970-01-01T01:00:00Z</time>
      </trkpt>
      <trkpt lat="63.41094167" lon="10.48142767">
        <ele>142.496</ele>
        <time>1970-01-01T01:00:00Z</time>
      </trkpt>
      <trkpt lat="63.41093883" lon="10.48153883">
        <ele>142.496</ele>
        <time>1970-01-01T01:00:00Z</time>
      </trkpt>
      <trkpt lat="63.41093633" lon="10.4816515">
        <ele>142.496</ele>
        <time>1970-01-01T01:00:00Z</time>
      </trkpt>
      <trkpt lat="63.410935" lon="10.48176467">
        <ele>142.496</ele>
        <time>1970-01-01T01:00:00Z</time>
      </trkpt>
      <trkpt lat="63.41093483" lon="10.48187833">
        <ele>142.496</ele>
        <time>1970-01-01T01:00:00Z</time>
      </trkpt>
      <trkpt lat="63.41093483" lon="10.48199183">
        <ele>142.496</ele>
        <time>1970-01-01T01:00:00Z</time>
      </trkpt>
      <trkpt lat="63.410934" lon="10.482105">
        <ele>142.648</ele>
        <time>1970-01-01T01:00:00Z</time>
      </trkpt>
      <trkpt lat="63.4109325" lon="10.48221733">
        <ele>142.648</ele>
        <time>1970-01-01T01:00:00Z</time>
      </trkpt>
      <trkpt lat="63.41093117" lon="10.482329">
        <ele>142.648</ele>
        <time>1970-01-01T01:00:00Z</time>
      </trkpt>
      <trkpt lat="63.41092967" lon="10.48244083">
        <ele>142.648</ele>
        <time>1970-01-01T01:00:00Z</time>
      </trkpt>
      <trkpt lat="63.410928" lon="10.48255233">
        <ele>142.648</ele>
        <time>1970-01-01T01:00:00Z</time>
      </trkpt>
      <trkpt lat="63.41092583" lon="10.4826635">
        <ele>142.648</ele>
        <time>1970-01-01T01:00:00Z</time>
      </trkpt>
      <trkpt lat="63.41092367" lon="10.48277517">
        <ele>142.648</ele>
        <time>1970-01-01T01:00:00Z</time>
      </trkpt>
      <trkpt lat="63.4109215" lon="10.4828885">
        <ele>142.648</ele>
        <time>1970-01-01T01:00:00Z</time>
      </trkpt>
      <trkpt lat="63.41091967" lon="10.483003">
        <ele>142.648</ele>
        <time>1970-01-01T01:00:00Z</time>
      </trkpt>
      <trkpt lat="63.41091783" lon="10.4831185">
        <ele>142.648</ele>
        <time>1970-01-01T01:00:00Z</time>
      </trkpt>
      <trkpt lat="63.41091617" lon="10.483234">
        <ele>142.496</ele>
        <time>1970-01-01T01:00:00Z</time>
      </trkpt>
      <trkpt lat="63.41091483" lon="10.48335">
        <ele>142.496</ele>
        <time>1970-01-01T01:00:00Z</time>
      </trkpt>
      <trkpt lat="63.41091367" lon="10.48346633">
        <ele>142.496</ele>
        <time>1970-01-01T01:00:00Z</time>
      </trkpt>
      <trkpt lat="63.41091267" lon="10.483583">
        <ele>142.496</ele>
        <time>1970-01-01T01:00:00Z</time>
      </trkpt>
      <trkpt lat="63.41091083" lon="10.48369983">
        <ele>142.496</ele>
        <time>1970-01-01T01:00:00Z</time>
      </trkpt>
      <trkpt lat="63.41090883" lon="10.48381667">
        <ele>142.496</ele>
        <time>1970-01-01T01:00:00Z</time>
      </trkpt>
      <trkpt lat="63.41090667" lon="10.4839335">
        <ele>142.496</ele>
        <time>1970-01-01T01:00:00Z</time>
      </trkpt>
      <trkpt lat="63.41090467" lon="10.48405033">
        <ele>142.496</ele>
        <time>1970-01-01T01:00:00Z</time>
      </trkpt>
      <trkpt lat="63.41090367" lon="10.48416767">
        <ele>142.496</ele>
        <time>1970-01-01T01:00:00Z</time>
      </trkpt>
      <trkpt lat="63.41090217" lon="10.48428483">
        <ele>142.496</ele>
        <time>1970-01-01T01:00:00Z</time>
      </trkpt>
      <trkpt lat="63.410901" lon="10.484403">
        <ele>142.496</ele>
        <time>1970-01-01T01:00:00Z</time>
      </trkpt>
      <trkpt lat="63.41089883" lon="10.48452217">
        <ele>142.496</ele>
        <time>1970-01-01T01:00:00Z</time>
      </trkpt>
      <trkpt lat="63.41089667" lon="10.48464283">
        <ele>142.496</ele>
        <time>1970-01-01T01:00:00Z</time>
      </trkpt>
      <trkpt lat="63.41089417" lon="10.484764">
        <ele>142.496</ele>
        <time>1970-01-01T01:00:00Z</time>
      </trkpt>
      <trkpt lat="63.41089167" lon="10.484884">
        <ele>142.496</ele>
        <time>1970-01-01T01:00:00Z</time>
      </trkpt>
      <trkpt lat="63.410889" lon="10.48500117">
        <ele>142.496</ele>
        <time>1970-01-01T01:00:00Z</time>
      </trkpt>
      <trkpt lat="63.410887" lon="10.48511433">
        <ele>142.496</ele>
        <time>1970-01-01T01:00:00Z</time>
      </trkpt>
      <trkpt lat="63.41088683" lon="10.48522117">
        <ele>142.496</ele>
        <time>1970-01-01T01:00:00Z</time>
      </trkpt>
      <trkpt lat="63.4108885" lon="10.4853185">
        <ele>142.496</ele>
        <time>1970-01-01T01:00:00Z</time>
      </trkpt>
      <trkpt lat="63.41089183" lon="10.48540433">
        <ele>142.496</ele>
        <time>1970-01-01T01:00:00Z</time>
      </trkpt>
      <trkpt lat="63.41089567" lon="10.48548217">
        <ele>142.496</ele>
        <time>1970-01-01T01:00:00Z</time>
      </trkpt>
      <trkpt lat="63.410899" lon="10.48555633">
        <ele>142.496</ele>
        <time>1970-01-01T01:00:00Z</time>
      </trkpt>
      <trkpt lat="63.41090067" lon="10.48563233">
        <ele>142.496</ele>
        <time>1970-01-01T01:00:00Z</time>
      </trkpt>
      <trkpt lat="63.41090017" lon="10.48571217">
        <ele>142.496</ele>
        <time>1970-01-01T01:00:00Z</time>
      </trkpt>
      <trkpt lat="63.410899" lon="10.48579767">
        <ele>142.496</ele>
        <time>1970-01-01T01:00:00Z</time>
      </trkpt>
      <trkpt lat="63.41089717" lon="10.48588733">
        <ele>142.496</ele>
        <time>1970-01-01T01:00:00Z</time>
      </trkpt>
      <trkpt lat="63.4108955" lon="10.4859815">
        <ele>142.496</ele>
        <time>1970-01-01T01:00:00Z</time>
      </trkpt>
      <trkpt lat="63.41089333" lon="10.48607917">
        <ele>142.496</ele>
        <time>1970-01-01T01:00:00Z</time>
      </trkpt>
      <trkpt lat="63.41089167" lon="10.48618083">
        <ele>142.496</ele>
        <time>1970-01-01T01:00:00Z</time>
      </trkpt>
      <trkpt lat="63.4108905" lon="10.48628517">
        <ele>142.496</ele>
        <time>1970-01-01T01:00:00Z</time>
      </trkpt>
      <trkpt lat="63.41088933" lon="10.48639167">
        <ele>142.496</ele>
        <time>1970-01-01T01:00:00Z</time>
      </trkpt>
      <trkpt lat="63.41088817" lon="10.48649833">
        <ele>142.496</ele>
        <time>1970-01-01T01:00:00Z</time>
      </trkpt>
      <trkpt lat="63.410887" lon="10.48660433">
        <ele>142.496</ele>
        <time>1970-01-01T01:00:00Z</time>
      </trkpt>
      <trkpt lat="63.41088567" lon="10.48670883">
        <ele>142.496</ele>
        <time>1970-01-01T01:00:00Z</time>
      </trkpt>
      <trkpt lat="63.41088367" lon="10.48681267">
        <ele>142.343</ele>
        <time>1970-01-01T01:00:00Z</time>
      </trkpt>
      <trkpt lat="63.41088083" lon="10.4869155">
        <ele>142.343</ele>
        <time>1970-01-01T01:00:00Z</time>
      </trkpt>
      <trkpt lat="63.41087717" lon="10.48701533">
        <ele>142.343</ele>
        <time>1970-01-01T01:00:00Z</time>
      </trkpt>
      <trkpt lat="63.41087267" lon="10.48710917">
        <ele>142.343</ele>
        <time>1970-01-01T01:00:00Z</time>
      </trkpt>
      <trkpt lat="63.41086917" lon="10.4871975">
        <ele>142.343</ele>
        <time>1970-01-01T01:00:00Z</time>
      </trkpt>
      <trkpt lat="63.41086983" lon="10.48728333">
        <ele>142.343</ele>
        <time>1970-01-01T01:00:00Z</time>
      </trkpt>
      <trkpt lat="63.41087517" lon="10.4873705">
        <ele>142.343</ele>
        <time>1970-01-01T01:00:00Z</time>
      </trkpt>
      <trkpt lat="63.4108845" lon="10.48746067">
        <ele>142.343</ele>
        <time>1970-01-01T01:00:00Z</time>
      </trkpt>
      <trkpt lat="63.41089533" lon="10.487554">
        <ele>142.343</ele>
        <time>1970-01-01T01:00:00Z</time>
      </trkpt>
      <trkpt lat="63.41090733" lon="10.48764917">
        <ele>142.343</ele>
        <time>1970-01-01T01:00:00Z</time>
      </trkpt>
      <trkpt lat="63.41092067" lon="10.48774633">
        <ele>142.343</ele>
        <time>1970-01-01T01:00:00Z</time>
      </trkpt>
      <trkpt lat="63.41093517" lon="10.48784383">
        <ele>142.343</ele>
        <time>1970-01-01T01:00:00Z</time>
      </trkpt>
      <trkpt lat="63.4109505" lon="10.48794383">
        <ele>142.343</ele>
        <time>1970-01-01T01:00:00Z</time>
      </trkpt>
      <trkpt lat="63.41096667" lon="10.48804583">
        <ele>142.343</ele>
        <time>1970-01-01T01:00:00Z</time>
      </trkpt>
      <trkpt lat="63.41098367" lon="10.48815133">
        <ele>142.191</ele>
        <time>1970-01-01T01:00:00Z</time>
      </trkpt>
      <trkpt lat="63.41100217" lon="10.48825917">
        <ele>142.191</ele>
        <time>1970-01-01T01:00:00Z</time>
      </trkpt>
      <trkpt lat="63.41102167" lon="10.48836967">
        <ele>142.191</ele>
        <time>1970-01-01T01:00:00Z</time>
      </trkpt>
      <trkpt lat="63.411042" lon="10.488482">
        <ele>142.191</ele>
        <time>1970-01-01T01:00:00Z</time>
      </trkpt>
      <trkpt lat="63.41106217" lon="10.4885945">
        <ele>142.039</ele>
        <time>1970-01-01T01:00:00Z</time>
      </trkpt>
      <trkpt lat="63.41108133" lon="10.48870317">
        <ele>142.039</ele>
        <time>1970-01-01T01:00:00Z</time>
      </trkpt>
      <trkpt lat="63.41110017" lon="10.4888055">
        <ele>141.886</ele>
        <time>1970-01-01T01:00:00Z</time>
      </trkpt>
      <trkpt lat="63.411119" lon="10.48889983">
        <ele>141.886</ele>
        <time>1970-01-01T01:00:00Z</time>
      </trkpt>
      <trkpt lat="63.41113717" lon="10.48898417">
        <ele>141.734</ele>
        <time>1970-01-01T01:00:00Z</time>
      </trkpt>
      <trkpt lat="63.41114817" lon="10.48905683">
        <ele>141.734</ele>
        <time>1970-01-01T01:00:00Z</time>
      </trkpt>
      <trkpt lat="63.4111425" lon="10.48912333">
        <ele>141.581</ele>
        <time>1970-01-01T01:00:00Z</time>
      </trkpt>
      <trkpt lat="63.4111235" lon="10.4891755">
        <ele>141.581</ele>
        <time>1970-01-01T01:00:00Z</time>
      </trkpt>
      <trkpt lat="63.41110133" lon="10.48922067">
        <ele>141.429</ele>
        <time>1970-01-01T01:00:00Z</time>
      </trkpt>
      <trkpt lat="63.41108433" lon="10.48925683">
        <ele>141.429</ele>
        <time>1970-01-01T01:00:00Z</time>
      </trkpt>
      <trkpt lat="63.41106933" lon="10.489297">
        <ele>141.124</ele>
        <time>1970-01-01T01:00:00Z</time>
      </trkpt>
      <trkpt lat="63.41105183" lon="10.489336">
        <ele>141.124</ele>
        <time>1970-01-01T01:00:00Z</time>
      </trkpt>
      <trkpt lat="63.41102617" lon="10.48936133">
        <ele>140.972</ele>
        <time>1970-01-01T01:00:00Z</time>
      </trkpt>
      <trkpt lat="63.41098617" lon="10.4893745">
        <ele>140.972</ele>
        <time>1970-01-01T01:00:00Z</time>
      </trkpt>
      <trkpt lat="63.4109395" lon="10.4893865">
        <ele>140.819</ele>
        <time>1970-01-01T01:00:00Z</time>
      </trkpt>
      <trkpt lat="63.41089633" lon="10.48941033">
        <ele>140.819</ele>
        <time>1970-01-01T01:00:00Z</time>
      </trkpt>
      <trkpt lat="63.41086783" lon="10.4894555">
        <ele>140.515</ele>
        <time>1970-01-01T01:00:00Z</time>
      </trkpt>
      <trkpt lat="63.41084983" lon="10.48952033">
        <ele>140.515</ele>
        <time>1970-01-01T01:00:00Z</time>
      </trkpt>
      <trkpt lat="63.41083817" lon="10.48960167">
        <ele>140.362</ele>
        <time>1970-01-01T01:00:00Z</time>
      </trkpt>
      <trkpt lat="63.4108265" lon="10.48968633">
        <ele>140.362</ele>
        <time>1970-01-01T01:00:00Z</time>
      </trkpt>
      <trkpt lat="63.41081267" lon="10.489766">
        <ele>140.362</ele>
        <time>1970-01-01T01:00:00Z</time>
      </trkpt>
      <trkpt lat="63.41079783" lon="10.489844">
        <ele>140.362</ele>
        <time>1970-01-01T01:00:00Z</time>
      </trkpt>
      <trkpt lat="63.41078333" lon="10.48992117">
        <ele>140.21</ele>
        <time>1970-01-01T01:00:00Z</time>
      </trkpt>
      <trkpt lat="63.410768" lon="10.48999933">
        <ele>140.21</ele>
        <time>1970-01-01T01:00:00Z</time>
      </trkpt>
      <trkpt lat="63.41075083" lon="10.4900765">
        <ele>140.057</ele>
        <time>1970-01-01T01:00:00Z</time>
      </trkpt>
      <trkpt lat="63.41073317" lon="10.49015333">
        <ele>140.057</ele>
        <time>1970-01-01T01:00:00Z</time>
      </trkpt>
      <trkpt lat="63.410716" lon="10.49022933">
        <ele>140.057</ele>
        <time>1970-01-01T01:00:00Z</time>
      </trkpt>
      <trkpt lat="63.41069917" lon="10.4903045">
        <ele>140.057</ele>
        <time>1970-01-01T01:00:00Z</time>
      </trkpt>
      <trkpt lat="63.410681" lon="10.49037817">
        <ele>140.057</ele>
        <time>1970-01-01T01:00:00Z</time>
      </trkpt>
      <trkpt lat="63.41066117" lon="10.49045033">
        <ele>140.057</ele>
        <time>1970-01-01T01:00:00Z</time>
      </trkpt>
      <trkpt lat="63.4106395" lon="10.49051983">
        <ele>139.905</ele>
        <time>1970-01-01T01:00:00Z</time>
      </trkpt>
      <trkpt lat="63.41061733" lon="10.49058783">
        <ele>139.905</ele>
        <time>1970-01-01T01:00:00Z</time>
      </trkpt>
      <trkpt lat="63.41059383" lon="10.490654">
        <ele>139.905</ele>
        <time>1970-01-01T01:00:00Z</time>
      </trkpt>
      <trkpt lat="63.41056917" lon="10.49071867">
        <ele>139.905</ele>
        <time>1970-01-01T01:00:00Z</time>
      </trkpt>
      <trkpt lat="63.41054417" lon="10.49078333">
        <ele>139.905</ele>
        <time>1970-01-01T01:00:00Z</time>
      </trkpt>
      <trkpt lat="63.410519" lon="10.4908495">
        <ele>139.905</ele>
        <time>1970-01-01T01:00:00Z</time>
      </trkpt>
      <trkpt lat="63.41049333" lon="10.4909165">
        <ele>139.905</ele>
        <time>1970-01-01T01:00:00Z</time>
      </trkpt>
      <trkpt lat="63.41046617" lon="10.490982">
        <ele>139.905</ele>
        <time>1970-01-01T01:00:00Z</time>
      </trkpt>
      <trkpt lat="63.4104385" lon="10.49104483">
        <ele>139.905</ele>
        <time>1970-01-01T01:00:00Z</time>
      </trkpt>
      <trkpt lat="63.41041117" lon="10.491106">
        <ele>139.905</ele>
        <time>1970-01-01T01:00:00Z</time>
      </trkpt>
      <trkpt lat="63.410384" lon="10.49116633">
        <ele>139.905</ele>
        <time>1970-01-01T01:00:00Z</time>
      </trkpt>
      <trkpt lat="63.4103575" lon="10.49122683">
        <ele>139.905</ele>
        <time>1970-01-01T01:00:00Z</time>
      </trkpt>
      <trkpt lat="63.410332" lon="10.49128833">
        <ele>139.905</ele>
        <time>1970-01-01T01:00:00Z</time>
      </trkpt>
      <trkpt lat="63.41030917" lon="10.49135267">
        <ele>139.905</ele>
        <time>1970-01-01T01:00:00Z</time>
      </trkpt>
      <trkpt lat="63.41028817" lon="10.491418">
        <ele>140.057</ele>
        <time>1970-01-01T01:00:00Z</time>
      </trkpt>
      <trkpt lat="63.4102675" lon="10.49148417">
        <ele>140.057</ele>
        <time>1970-01-01T01:00:00Z</time>
      </trkpt>
      <trkpt lat="63.41024533" lon="10.49154983">
        <ele>140.057</ele>
        <time>1970-01-01T01:00:00Z</time>
      </trkpt>
      <trkpt lat="63.4102225" lon="10.49161717">
        <ele>140.057</ele>
        <time>1970-01-01T01:00:00Z</time>
      </trkpt>
      <trkpt lat="63.41019967" lon="10.491686">
        <ele>140.057</ele>
        <time>1970-01-01T01:00:00Z</time>
      </trkpt>
      <trkpt lat="63.410177" lon="10.49175667">
        <ele>140.057</ele>
        <time>1970-01-01T01:00:00Z</time>
      </trkpt>
      <trkpt lat="63.41015383" lon="10.49182733">
        <ele>140.057</ele>
        <time>1970-01-01T01:00:00Z</time>
      </trkpt>
      <trkpt lat="63.41013017" lon="10.49189783">
        <ele>140.057</ele>
        <time>1970-01-01T01:00:00Z</time>
      </trkpt>
      <trkpt lat="63.410106" lon="10.4919685">
        <ele>140.21</ele>
        <time>1970-01-01T01:00:00Z</time>
      </trkpt>
      <trkpt lat="63.41008133" lon="10.49204017">
        <ele>140.21</ele>
        <time>1970-01-01T01:00:00Z</time>
      </trkpt>
      <trkpt lat="63.41005617" lon="10.492113">
        <ele>140.21</ele>
        <time>1970-01-01T01:00:00Z</time>
      </trkpt>
      <trkpt lat="63.41003133" lon="10.49218717">
        <ele>140.21</ele>
        <time>1970-01-01T01:00:00Z</time>
      </trkpt>
      <trkpt lat="63.41000683" lon="10.49226317">
        <ele>140.21</ele>
        <time>1970-01-01T01:00:00Z</time>
      </trkpt>
      <trkpt lat="63.409982" lon="10.49234">
        <ele>140.21</ele>
        <time>1970-01-01T01:00:00Z</time>
      </trkpt>
      <trkpt lat="63.4099565" lon="10.49241733">
        <ele>140.362</ele>
        <time>1970-01-01T01:00:00Z</time>
      </trkpt>
      <trkpt lat="63.409931" lon="10.49249567">
        <ele>140.362</ele>
        <time>1970-01-01T01:00:00Z</time>
      </trkpt>
      <trkpt lat="63.409906" lon="10.49257533">
        <ele>140.362</ele>
        <time>1970-01-01T01:00:00Z</time>
      </trkpt>
      <trkpt lat="63.40988167" lon="10.4926555">
        <ele>140.362</ele>
        <time>1970-01-01T01:00:00Z</time>
      </trkpt>
      <trkpt lat="63.40985767" lon="10.4927365">
        <ele>140.515</ele>
        <time>1970-01-01T01:00:00Z</time>
      </trkpt>
      <trkpt lat="63.40983433" lon="10.49281817">
        <ele>140.515</ele>
        <time>1970-01-01T01:00:00Z</time>
      </trkpt>
      <trkpt lat="63.40981117" lon="10.49290167">
        <ele>140.515</ele>
        <time>1970-01-01T01:00:00Z</time>
      </trkpt>
      <trkpt lat="63.40978817" lon="10.4929865">
        <ele>140.515</ele>
        <time>1970-01-01T01:00:00Z</time>
      </trkpt>
      <trkpt lat="63.40976483" lon="10.49307267">
        <ele>140.667</ele>
        <time>1970-01-01T01:00:00Z</time>
      </trkpt>
      <trkpt lat="63.4097415" lon="10.49315983">
        <ele>140.667</ele>
        <time>1970-01-01T01:00:00Z</time>
      </trkpt>
      <trkpt lat="63.40971817" lon="10.49324817">
        <ele>140.667</ele>
        <time>1970-01-01T01:00:00Z</time>
      </trkpt>
      <trkpt lat="63.40969467" lon="10.49333717">
        <ele>140.667</ele>
        <time>1970-01-01T01:00:00Z</time>
      </trkpt>
      <trkpt lat="63.40967183" lon="10.49342733">
        <ele>140.819</ele>
        <time>1970-01-01T01:00:00Z</time>
      </trkpt>
      <trkpt lat="63.40964917" lon="10.49351817">
        <ele>140.819</ele>
        <time>1970-01-01T01:00:00Z</time>
      </trkpt>
      <trkpt lat="63.40962683" lon="10.4936095">
        <ele>140.819</ele>
        <time>1970-01-01T01:00:00Z</time>
      </trkpt>
      <trkpt lat="63.4096045" lon="10.4936995">
        <ele>140.819</ele>
        <time>1970-01-01T01:00:00Z</time>
      </trkpt>
      <trkpt lat="63.40958367" lon="10.49379033">
        <ele>140.972</ele>
        <time>1970-01-01T01:00:00Z</time>
      </trkpt>
      <trkpt lat="63.40956317" lon="10.49388133">
        <ele>140.972</ele>
        <time>1970-01-01T01:00:00Z</time>
      </trkpt>
      <trkpt lat="63.40954317" lon="10.49397167">
        <ele>141.124</ele>
        <time>1970-01-01T01:00:00Z</time>
      </trkpt>
      <trkpt lat="63.4095225" lon="10.49405967">
        <ele>141.124</ele>
        <time>1970-01-01T01:00:00Z</time>
      </trkpt>
      <trkpt lat="63.4095015" lon="10.494145">
        <ele>141.124</ele>
        <time>1970-01-01T01:00:00Z</time>
      </trkpt>
      <trkpt lat="63.40948133" lon="10.49422867">
        <ele>141.124</ele>
        <time>1970-01-01T01:00:00Z</time>
      </trkpt>
      <trkpt lat="63.40946183" lon="10.49431033">
        <ele>141.277</ele>
        <time>1970-01-01T01:00:00Z</time>
      </trkpt>
      <trkpt lat="63.40944417" lon="10.494391">
        <ele>141.277</ele>
        <time>1970-01-01T01:00:00Z</time>
      </trkpt>
      <trkpt lat="63.409427" lon="10.49447017">
        <ele>141.277</ele>
        <time>1970-01-01T01:00:00Z</time>
      </trkpt>
      <trkpt lat="63.4094105" lon="10.49454833">
        <ele>141.277</ele>
        <time>1970-01-01T01:00:00Z</time>
      </trkpt>
      <trkpt lat="63.409394" lon="10.49462483">
        <ele>141.429</ele>
        <time>1970-01-01T01:00:00Z</time>
      </trkpt>
      <trkpt lat="63.40937817" lon="10.49470083">
        <ele>141.429</ele>
        <time>1970-01-01T01:00:00Z</time>
      </trkpt>
      <trkpt lat="63.40936233" lon="10.49477717">
        <ele>141.429</ele>
        <time>1970-01-01T01:00:00Z</time>
      </trkpt>
      <trkpt lat="63.4093465" lon="10.4948555">
        <ele>141.429</ele>
        <time>1970-01-01T01:00:00Z</time>
      </trkpt>
      <trkpt lat="63.40932917" lon="10.49493517">
        <ele>141.581</ele>
        <time>1970-01-01T01:00:00Z</time>
      </trkpt>
      <trkpt lat="63.40931117" lon="10.49501717">
        <ele>141.581</ele>
        <time>1970-01-01T01:00:00Z</time>
      </trkpt>
      <trkpt lat="63.40929267" lon="10.49510117">
        <ele>141.581</ele>
        <time>1970-01-01T01:00:00Z</time>
      </trkpt>
      <trkpt lat="63.40927433" lon="10.49518683">
        <ele>141.581</ele>
        <time>1970-01-01T01:00:00Z</time>
      </trkpt>
      <trkpt lat="63.4092565" lon="10.4952715">
        <ele>141.734</ele>
        <time>1970-01-01T01:00:00Z</time>
      </trkpt>
      <trkpt lat="63.40923933" lon="10.49535417">
        <ele>141.734</ele>
        <time>1970-01-01T01:00:00Z</time>
      </trkpt>
      <trkpt lat="63.409223" lon="10.49543467">
        <ele>141.734</ele>
        <time>1970-01-01T01:00:00Z</time>
      </trkpt>
      <trkpt lat="63.409207" lon="10.49551333">
        <ele>141.734</ele>
        <time>1970-01-01T01:00:00Z</time>
      </trkpt>
      <trkpt lat="63.409191" lon="10.49559117">
        <ele>141.886</ele>
        <time>1970-01-01T01:00:00Z</time>
      </trkpt>
      <trkpt lat="63.4091745" lon="10.49566833">
        <ele>141.886</ele>
        <time>1970-01-01T01:00:00Z</time>
      </trkpt>
      <trkpt lat="63.40915833" lon="10.49574833">
        <ele>141.886</ele>
        <time>1970-01-01T01:00:00Z</time>
      </trkpt>
      <trkpt lat="63.40914283" lon="10.49583233">
        <ele>141.886</ele>
        <time>1970-01-01T01:00:00Z</time>
      </trkpt>
      <trkpt lat="63.40912717" lon="10.4959195">
        <ele>142.039</ele>
        <time>1970-01-01T01:00:00Z</time>
      </trkpt>
      <trkpt lat="63.40911067" lon="10.49600683">
        <ele>142.039</ele>
        <time>1970-01-01T01:00:00Z</time>
      </trkpt>
      <trkpt lat="63.40909283" lon="10.49609183">
        <ele>142.039</ele>
        <time>1970-01-01T01:00:00Z</time>
      </trkpt>
      <trkpt lat="63.40907467" lon="10.49617617">
        <ele>142.039</ele>
        <time>1970-01-01T01:00:00Z</time>
      </trkpt>
      <trkpt lat="63.409056" lon="10.496261">
        <ele>142.039</ele>
        <time>1970-01-01T01:00:00Z</time>
      </trkpt>
      <trkpt lat="63.40903633" lon="10.496348">
        <ele>142.039</ele>
        <time>1970-01-01T01:00:00Z</time>
      </trkpt>
      <trkpt lat="63.4090155" lon="10.49643717">
        <ele>142.191</ele>
        <time>1970-01-01T01:00:00Z</time>
      </trkpt>
      <trkpt lat="63.4089935" lon="10.49652783">
        <ele>142.191</ele>
        <time>1970-01-01T01:00:00Z</time>
      </trkpt>
      <trkpt lat="63.4089705" lon="10.49662067">
        <ele>142.191</ele>
        <time>1970-01-01T01:00:00Z</time>
      </trkpt>
      <trkpt lat="63.40894783" lon="10.496716">
        <ele>142.191</ele>
        <time>1970-01-01T01:00:00Z</time>
      </trkpt>
      <trkpt lat="63.4089255" lon="10.496814">
        <ele>142.191</ele>
        <time>1970-01-01T01:00:00Z</time>
      </trkpt>
      <trkpt lat="63.40890367" lon="10.49691417">
        <ele>142.191</ele>
        <time>1970-01-01T01:00:00Z</time>
      </trkpt>
      <trkpt lat="63.4088815" lon="10.49701533">
        <ele>142.191</ele>
        <time>1970-01-01T01:00:00Z</time>
      </trkpt>
      <trkpt lat="63.40885933" lon="10.4971175">
        <ele>142.191</ele>
        <time>1970-01-01T01:00:00Z</time>
      </trkpt>
      <trkpt lat="63.40883717" lon="10.4972205">
        <ele>142.343</ele>
        <time>1970-01-01T01:00:00Z</time>
      </trkpt>
      <trkpt lat="63.40881517" lon="10.49732433">
        <ele>142.343</ele>
        <time>1970-01-01T01:00:00Z</time>
      </trkpt>
      <trkpt lat="63.40879333" lon="10.49742883">
        <ele>142.343</ele>
        <time>1970-01-01T01:00:00Z</time>
      </trkpt>
      <trkpt lat="63.4087715" lon="10.49753317">
        <ele>142.343</ele>
        <time>1970-01-01T01:00:00Z</time>
      </trkpt>
      <trkpt lat="63.40874983" lon="10.497637">
        <ele>142.343</ele>
        <time>1970-01-01T01:00:00Z</time>
      </trkpt>
      <trkpt lat="63.40872833" lon="10.49773967">
        <ele>142.343</ele>
        <time>1970-01-01T01:00:00Z</time>
      </trkpt>
      <trkpt lat="63.40870667" lon="10.4978415">
        <ele>142.343</ele>
        <time>1970-01-01T01:00:00Z</time>
      </trkpt>
      <trkpt lat="63.408685" lon="10.49794283">
        <ele>142.343</ele>
        <time>1970-01-01T01:00:00Z</time>
      </trkpt>
      <trkpt lat="63.40866333" lon="10.49804517">
        <ele>142.343</ele>
        <time>1970-01-01T01:00:00Z</time>
      </trkpt>
      <trkpt lat="63.40864167" lon="10.49814783">
        <ele>142.343</ele>
        <time>1970-01-01T01:00:00Z</time>
      </trkpt>
      <trkpt lat="63.40861967" lon="10.4982505">
        <ele>142.343</ele>
        <time>1970-01-01T01:00:00Z</time>
      </trkpt>
      <trkpt lat="63.40859783" lon="10.49835183">
        <ele>142.343</ele>
        <time>1970-01-01T01:00:00Z</time>
      </trkpt>
      <trkpt lat="63.408576" lon="10.49845217">
        <ele>142.496</ele>
        <time>1970-01-01T01:00:00Z</time>
      </trkpt>
      <trkpt lat="63.40855483" lon="10.498551">
        <ele>142.496</ele>
        <time>1970-01-01T01:00:00Z</time>
      </trkpt>
      <trkpt lat="63.408534" lon="10.4986485">
        <ele>142.496</ele>
        <time>1970-01-01T01:00:00Z</time>
      </trkpt>
      <trkpt lat="63.40851417" lon="10.498745">
        <ele>142.496</ele>
        <time>1970-01-01T01:00:00Z</time>
      </trkpt>
      <trkpt lat="63.40849417" lon="10.49884133">
        <ele>142.496</ele>
        <time>1970-01-01T01:00:00Z</time>
      </trkpt>
      <trkpt lat="63.408474" lon="10.498937">
        <ele>142.496</ele>
        <time>1970-01-01T01:00:00Z</time>
      </trkpt>
      <trkpt lat="63.40845383" lon="10.4990325">
        <ele>142.496</ele>
        <time>1970-01-01T01:00:00Z</time>
      </trkpt>
      <trkpt lat="63.40843333" lon="10.49912733">
        <ele>142.496</ele>
        <time>1970-01-01T01:00:00Z</time>
      </trkpt>
      <trkpt lat="63.40841317" lon="10.49922283">
        <ele>142.496</ele>
        <time>1970-01-01T01:00:00Z</time>
      </trkpt>
      <trkpt lat="63.40839283" lon="10.4993195">
        <ele>142.496</ele>
        <time>1970-01-01T01:00:00Z</time>
      </trkpt>
      <trkpt lat="63.40837317" lon="10.49941783">
        <ele>142.496</ele>
        <time>1970-01-01T01:00:00Z</time>
      </trkpt>
      <trkpt lat="63.40835317" lon="10.49951717">
        <ele>142.496</ele>
        <time>1970-01-01T01:00:00Z</time>
      </trkpt>
      <trkpt lat="63.40833267" lon="10.49961633">
        <ele>142.496</ele>
        <time>1970-01-01T01:00:00Z</time>
      </trkpt>
      <trkpt lat="63.40831133" lon="10.49971533">
        <ele>142.496</ele>
        <time>1970-01-01T01:00:00Z</time>
      </trkpt>
      <trkpt lat="63.40829" lon="10.49981433">
        <ele>142.496</ele>
        <time>1970-01-01T01:00:00Z</time>
      </trkpt>
      <trkpt lat="63.40826883" lon="10.49991417">
        <ele>142.496</ele>
        <time>1970-01-01T01:00:00Z</time>
      </trkpt>
      <trkpt lat="63.40824817" lon="10.50001483">
        <ele>142.648</ele>
        <time>1970-01-01T01:00:00Z</time>
      </trkpt>
      <trkpt lat="63.40822767" lon="10.50011617">
        <ele>142.648</ele>
        <time>1970-01-01T01:00:00Z</time>
      </trkpt>
      <trkpt lat="63.40820667" lon="10.500217">
        <ele>142.648</ele>
        <time>1970-01-01T01:00:00Z</time>
      </trkpt>
      <trkpt lat="63.40818567" lon="10.50031733">
        <ele>142.648</ele>
        <time>1970-01-01T01:00:00Z</time>
      </trkpt>
      <trkpt lat="63.40816467" lon="10.50041683">
        <ele>142.648</ele>
        <time>1970-01-01T01:00:00Z</time>
      </trkpt>
      <trkpt lat="63.40814383" lon="10.50051583">
        <ele>142.648</ele>
        <time>1970-01-01T01:00:00Z</time>
      </trkpt>
      <trkpt lat="63.4081235" lon="10.50061467">
        <ele>142.648</ele>
        <time>1970-01-01T01:00:00Z</time>
      </trkpt>
      <trkpt lat="63.4081035" lon="10.500714">
        <ele>142.648</ele>
        <time>1970-01-01T01:00:00Z</time>
      </trkpt>
      <trkpt lat="63.40808433" lon="10.50081333">
        <ele>142.648</ele>
        <time>1970-01-01T01:00:00Z</time>
      </trkpt>
      <trkpt lat="63.40806517" lon="10.50091167">
        <ele>142.648</ele>
        <time>1970-01-01T01:00:00Z</time>
      </trkpt>
      <trkpt lat="63.40804567" lon="10.5010085">
        <ele>142.648</ele>
        <time>1970-01-01T01:00:00Z</time>
      </trkpt>
      <trkpt lat="63.40802533" lon="10.50110383">
        <ele>142.648</ele>
        <time>1970-01-01T01:00:00Z</time>
      </trkpt>
      <trkpt lat="63.40800483" lon="10.5011985">
        <ele>142.648</ele>
        <time>1970-01-01T01:00:00Z</time>
      </trkpt>
      <trkpt lat="63.4079845" lon="10.501293">
        <ele>142.648</ele>
        <time>1970-01-01T01:00:00Z</time>
      </trkpt>
      <trkpt lat="63.40796517" lon="10.501388">
        <ele>142.801</ele>
        <time>1970-01-01T01:00:00Z</time>
      </trkpt>
      <trkpt lat="63.40794633" lon="10.50148333">
        <ele>142.801</ele>
        <time>1970-01-01T01:00:00Z</time>
      </trkpt>
      <trkpt lat="63.407927" lon="10.50157783">
        <ele>142.801</ele>
        <time>1970-01-01T01:00:00Z</time>
      </trkpt>
      <trkpt lat="63.4079065" lon="10.501671">
        <ele>142.801</ele>
        <time>1970-01-01T01:00:00Z</time>
      </trkpt>
      <trkpt lat="63.40788583" lon="10.50176367">
        <ele>142.801</ele>
        <time>1970-01-01T01:00:00Z</time>
      </trkpt>
      <trkpt lat="63.40786583" lon="10.50185683">
        <ele>142.801</ele>
        <time>1970-01-01T01:00:00Z</time>
      </trkpt>
      <trkpt lat="63.40784667" lon="10.50195067">
        <ele>142.953</ele>
        <time>1970-01-01T01:00:00Z</time>
      </trkpt>
      <trkpt lat="63.40782733" lon="10.50204367">
        <ele>142.953</ele>
        <time>1970-01-01T01:00:00Z</time>
      </trkpt>
      <trkpt lat="63.40780783" lon="10.502135">
        <ele>142.953</ele>
        <time>1970-01-01T01:00:00Z</time>
      </trkpt>
      <trkpt lat="63.40778817" lon="10.502224">
        <ele>142.953</ele>
        <time>1970-01-01T01:00:00Z</time>
      </trkpt>
      <trkpt lat="63.407769" lon="10.5023105">
        <ele>143.105</ele>
        <time>1970-01-01T01:00:00Z</time>
      </trkpt>
      <trkpt lat="63.40775067" lon="10.50239567">
        <ele>143.105</ele>
        <time>1970-01-01T01:00:00Z</time>
      </trkpt>
      <trkpt lat="63.40773283" lon="10.50248033">
        <ele>143.105</ele>
        <time>1970-01-01T01:00:00Z</time>
      </trkpt>
      <trkpt lat="63.40771567" lon="10.50256517">
        <ele>143.105</ele>
        <time>1970-01-01T01:00:00Z</time>
      </trkpt>
      <trkpt lat="63.4076985" lon="10.5026505">
        <ele>143.258</ele>
        <time>1970-01-01T01:00:00Z</time>
      </trkpt>
      <trkpt lat="63.40768117" lon="10.50273567">
        <ele>143.258</ele>
        <time>1970-01-01T01:00:00Z</time>
      </trkpt>
      <trkpt lat="63.40766367" lon="10.50282133">
        <ele>143.41</ele>
        <time>1970-01-01T01:00:00Z</time>
      </trkpt>
      <trkpt lat="63.40764683" lon="10.50290767">
        <ele>143.41</ele>
        <time>1970-01-01T01:00:00Z</time>
      </trkpt>
      <trkpt lat="63.40763033" lon="10.50299383">
        <ele>143.41</ele>
        <time>1970-01-01T01:00:00Z</time>
      </trkpt>
      <trkpt lat="63.407614" lon="10.50308">
        <ele>143.41</ele>
        <time>1970-01-01T01:00:00Z</time>
      </trkpt>
      <trkpt lat="63.40759717" lon="10.50316517">
        <ele>143.563</ele>
        <time>1970-01-01T01:00:00Z</time>
      </trkpt>
      <trkpt lat="63.40757983" lon="10.50324933">
        <ele>143.563</ele>
        <time>1970-01-01T01:00:00Z</time>
      </trkpt>
      <trkpt lat="63.4075625" lon="10.503332">
        <ele>143.715</ele>
        <time>1970-01-01T01:00:00Z</time>
      </trkpt>
      <trkpt lat="63.40754567" lon="10.50341333">
        <ele>143.715</ele>
        <time>1970-01-01T01:00:00Z</time>
      </trkpt>
      <trkpt lat="63.40752917" lon="10.50349367">
        <ele>143.867</ele>
        <time>1970-01-01T01:00:00Z</time>
      </trkpt>
      <trkpt lat="63.40751233" lon="10.50357333">
        <ele>143.867</ele>
        <time>1970-01-01T01:00:00Z</time>
      </trkpt>
      <trkpt lat="63.4074955" lon="10.5036525">
        <ele>144.02</ele>
        <time>1970-01-01T01:00:00Z</time>
      </trkpt>
      <trkpt lat="63.40747883" lon="10.50373167">
        <ele>144.02</ele>
        <time>1970-01-01T01:00:00Z</time>
      </trkpt>
      <trkpt lat="63.4074625" lon="10.50381117">
        <ele>144.172</ele>
        <time>1970-01-01T01:00:00Z</time>
      </trkpt>
      <trkpt lat="63.407446" lon="10.50389033">
        <ele>144.172</ele>
        <time>1970-01-01T01:00:00Z</time>
      </trkpt>
      <trkpt lat="63.40742933" lon="10.50396917">
        <ele>144.325</ele>
        <time>1970-01-01T01:00:00Z</time>
      </trkpt>
      <trkpt lat="63.4074125" lon="10.50404767">
        <ele>144.325</ele>
        <time>1970-01-01T01:00:00Z</time>
      </trkpt>
      <trkpt lat="63.40739533" lon="10.50412567">
        <ele>144.477</ele>
        <time>1970-01-01T01:00:00Z</time>
      </trkpt>
      <trkpt lat="63.40737717" lon="10.50420267">
        <ele>144.477</ele>
        <time>1970-01-01T01:00:00Z</time>
      </trkpt>
      <trkpt lat="63.4073585" lon="10.50427867">
        <ele>144.629</ele>
        <time>1970-01-01T01:00:00Z</time>
      </trkpt>
      <trkpt lat="63.40733983" lon="10.50435467">
        <ele>144.629</ele>
        <time>1970-01-01T01:00:00Z</time>
      </trkpt>
      <trkpt lat="63.40732083" lon="10.50443067">
        <ele>144.782</ele>
        <time>1970-01-01T01:00:00Z</time>
      </trkpt>
      <trkpt lat="63.40730133" lon="10.50450617">
        <ele>144.782</ele>
        <time>1970-01-01T01:00:00Z</time>
      </trkpt>
      <trkpt lat="63.40728083" lon="10.50458017">
        <ele>144.934</ele>
        <time>1970-01-01T01:00:00Z</time>
      </trkpt>
      <trkpt lat="63.40725967" lon="10.50465317">
        <ele>144.934</ele>
        <time>1970-01-01T01:00:00Z</time>
      </trkpt>
      <trkpt lat="63.40723767" lon="10.504725">
        <ele>145.239</ele>
        <time>1970-01-01T01:00:00Z</time>
      </trkpt>
      <trkpt lat="63.4072145" lon="10.50479517">
        <ele>145.239</ele>
        <time>1970-01-01T01:00:00Z</time>
      </trkpt>
      <trkpt lat="63.40719033" lon="10.50486317">
        <ele>145.391</ele>
        <time>1970-01-01T01:00:00Z</time>
      </trkpt>
      <trkpt lat="63.40716583" lon="10.5049295">
        <ele>145.391</ele>
        <time>1970-01-01T01:00:00Z</time>
      </trkpt>
      <trkpt lat="63.4071415" lon="10.504995">
        <ele>145.544</ele>
        <time>1970-01-01T01:00:00Z</time>
      </trkpt>
      <trkpt lat="63.40711683" lon="10.50505883">
        <ele>145.544</ele>
        <time>1970-01-01T01:00:00Z</time>
      </trkpt>
      <trkpt lat="63.40709133" lon="10.50511933">
        <ele>145.696</ele>
        <time>1970-01-01T01:00:00Z</time>
      </trkpt>
      <trkpt lat="63.40706417" lon="10.50517633">
        <ele>145.696</ele>
        <time>1970-01-01T01:00:00Z</time>
      </trkpt>
      <trkpt lat="63.40703667" lon="10.505231">
        <ele>146.001</ele>
        <time>1970-01-01T01:00:00Z</time>
      </trkpt>
      <trkpt lat="63.407009" lon="10.50528433">
        <ele>146.001</ele>
        <time>1970-01-01T01:00:00Z</time>
      </trkpt>
      <trkpt lat="63.40698167" lon="10.50533667">
        <ele>146.153</ele>
        <time>1970-01-01T01:00:00Z</time>
      </trkpt>
      <trkpt lat="63.40695417" lon="10.505385">
        <ele>146.153</ele>
        <time>1970-01-01T01:00:00Z</time>
      </trkpt>
      <trkpt lat="63.406927" lon="10.50543033">
        <ele>146.458</ele>
        <time>1970-01-01T01:00:00Z</time>
      </trkpt>
      <trkpt lat="63.40689967" lon="10.50547333">
        <ele>146.458</ele>
        <time>1970-01-01T01:00:00Z</time>
      </trkpt>
      <trkpt lat="63.40687233" lon="10.5055155">
        <ele>146.611</ele>
        <time>1970-01-01T01:00:00Z</time>
      </trkpt>
      <trkpt lat="63.40684533" lon="10.50555783">
        <ele>146.611</ele>
        <time>1970-01-01T01:00:00Z</time>
      </trkpt>
      <trkpt lat="63.40681767" lon="10.505598">
        <ele>146.915</ele>
        <time>1970-01-01T01:00:00Z</time>
      </trkpt>
      <trkpt lat="63.4067895" lon="10.50563467">
        <ele>146.915</ele>
        <time>1970-01-01T01:00:00Z</time>
      </trkpt>
      <trkpt lat="63.40676033" lon="10.505666">
        <ele>147.22</ele>
        <time>1970-01-01T01:00:00Z</time>
      </trkpt>
      <trkpt lat="63.40673167" lon="10.50569417">
        <ele>147.22</ele>
        <time>1970-01-01T01:00:00Z</time>
      </trkpt>
      <trkpt lat="63.40670317" lon="10.5057215">
        <ele>147.525</ele>
        <time>1970-01-01T01:00:00Z</time>
      </trkpt>
      <trkpt lat="63.4066755" lon="10.50574867">
        <ele>147.525</ele>
        <time>1970-01-01T01:00:00Z</time>
      </trkpt>
      <trkpt lat="63.40664767" lon="10.50577433">
        <ele>147.83</ele>
        <time>1970-01-01T01:00:00Z</time>
      </trkpt>
      <trkpt lat="63.40662033" lon="10.50579833">
        <ele>147.83</ele>
        <time>1970-01-01T01:00:00Z</time>
      </trkpt>
      <trkpt lat="63.40659317" lon="10.5058195">
        <ele>148.135</ele>
        <time>1970-01-01T01:00:00Z</time>
      </trkpt>
      <trkpt lat="63.40656683" lon="10.5058395">
        <ele>148.135</ele>
        <time>1970-01-01T01:00:00Z</time>
      </trkpt>
      <trkpt lat="63.4065405" lon="10.50585833">
        <ele>148.439</ele>
        <time>1970-01-01T01:00:00Z</time>
      </trkpt>
      <trkpt lat="63.40651467" lon="10.5058775">
        <ele>148.439</ele>
        <time>1970-01-01T01:00:00Z</time>
      </trkpt>
      <trkpt lat="63.40648867" lon="10.5058965">
        <ele>148.744</ele>
        <time>1970-01-01T01:00:00Z</time>
      </trkpt>
      <trkpt lat="63.40646267" lon="10.50591433">
        <ele>148.744</ele>
        <time>1970-01-01T01:00:00Z</time>
      </trkpt>
      <trkpt lat="63.40643633" lon="10.505931">
        <ele>149.049</ele>
        <time>1970-01-01T01:00:00Z</time>
      </trkpt>
      <trkpt lat="63.40641" lon="10.50594633">
        <ele>149.049</ele>
        <time>1970-01-01T01:00:00Z</time>
      </trkpt>
      <trkpt lat="63.40638367" lon="10.50596133">
        <ele>149.354</ele>
        <time>1970-01-01T01:00:00Z</time>
      </trkpt>
      <trkpt lat="63.40635733" lon="10.50597617">
        <ele>149.354</ele>
        <time>1970-01-01T01:00:00Z</time>
      </trkpt>
      <trkpt lat="63.4063315" lon="10.5059905">
        <ele>149.811</ele>
        <time>1970-01-01T01:00:00Z</time>
      </trkpt>
      <trkpt lat="63.40630567" lon="10.50600533">
        <ele>149.811</ele>
        <time>1970-01-01T01:00:00Z</time>
      </trkpt>
      <trkpt lat="63.40627983" lon="10.506019">
        <ele>150.116</ele>
        <time>1970-01-01T01:00:00Z</time>
      </trkpt>
      <trkpt lat="63.40625383" lon="10.5060315">
        <ele>150.116</ele>
        <time>1970-01-01T01:00:00Z</time>
      </trkpt>
      <trkpt lat="63.40622817" lon="10.50604233">
        <ele>150.421</ele>
        <time>1970-01-01T01:00:00Z</time>
      </trkpt>
      <trkpt lat="63.4062025" lon="10.506053">
        <ele>150.421</ele>
        <time>1970-01-01T01:00:00Z</time>
      </trkpt>
      <trkpt lat="63.406177" lon="10.50606533">
        <ele>150.878</ele>
        <time>1970-01-01T01:00:00Z</time>
      </trkpt>
      <trkpt lat="63.40615117" lon="10.50607783">
        <ele>150.878</ele>
        <time>1970-01-01T01:00:00Z</time>
      </trkpt>
      <trkpt lat="63.406126" lon="10.50609067">
        <ele>151.183</ele>
        <time>1970-01-01T01:00:00Z</time>
      </trkpt>
      <trkpt lat="63.40610033" lon="10.50610367">
        <ele>151.183</ele>
        <time>1970-01-01T01:00:00Z</time>
      </trkpt>
      <trkpt lat="63.40607467" lon="10.50611583">
        <ele>151.64</ele>
        <time>1970-01-01T01:00:00Z</time>
      </trkpt>
      <trkpt lat="63.40604867" lon="10.50612683">
        <ele>151.64</ele>
        <time>1970-01-01T01:00:00Z</time>
      </trkpt>
      <trkpt lat="63.40602283" lon="10.50613517">
        <ele>152.097</ele>
        <time>1970-01-01T01:00:00Z</time>
      </trkpt>
      <trkpt lat="63.40599717" lon="10.50614367">
        <ele>152.097</ele>
        <time>1970-01-01T01:00:00Z</time>
      </trkpt>
      <trkpt lat="63.40597167" lon="10.506152">
        <ele>152.402</ele>
        <time>1970-01-01T01:00:00Z</time>
      </trkpt>
      <trkpt lat="63.40594617" lon="10.5061605">
        <ele>152.402</ele>
        <time>1970-01-01T01:00:00Z</time>
      </trkpt>
      <trkpt lat="63.4059205" lon="10.506168">
        <ele>152.859</ele>
        <time>1970-01-01T01:00:00Z</time>
      </trkpt>
      <trkpt lat="63.40589517" lon="10.5061765">
        <ele>152.859</ele>
        <time>1970-01-01T01:00:00Z</time>
      </trkpt>
      <trkpt lat="63.40587" lon="10.5061865">
        <ele>153.316</ele>
        <time>1970-01-01T01:00:00Z</time>
      </trkpt>
      <trkpt lat="63.40584483" lon="10.506197">
        <ele>153.316</ele>
        <time>1970-01-01T01:00:00Z</time>
      </trkpt>
      <trkpt lat="63.4058195" lon="10.50620767">
        <ele>153.773</ele>
        <time>1970-01-01T01:00:00Z</time>
      </trkpt>
      <trkpt lat="63.40579417" lon="10.50621783">
        <ele>153.773</ele>
        <time>1970-01-01T01:00:00Z</time>
      </trkpt>
      <trkpt lat="63.40576917" lon="10.5062285">
        <ele>154.078</ele>
        <time>1970-01-01T01:00:00Z</time>
      </trkpt>
      <trkpt lat="63.40574417" lon="10.50623767">
        <ele>154.078</ele>
        <time>1970-01-01T01:00:00Z</time>
      </trkpt>
      <trkpt lat="63.40572" lon="10.50624667">
        <ele>154.535</ele>
        <time>1970-01-01T01:00:00Z</time>
      </trkpt>
      <trkpt lat="63.40569583" lon="10.50625567">
        <ele>154.535</ele>
        <time>1970-01-01T01:00:00Z</time>
      </trkpt>
      <trkpt lat="63.40567117" lon="10.50626683">
        <ele>154.993</ele>
        <time>1970-01-01T01:00:00Z</time>
      </trkpt>
      <trkpt lat="63.4056455" lon="10.50627917">
        <ele>154.993</ele>
        <time>1970-01-01T01:00:00Z</time>
      </trkpt>
      <trkpt lat="63.40561983" lon="10.50629083">
        <ele>155.45</ele>
        <time>1970-01-01T01:00:00Z</time>
      </trkpt>
      <trkpt lat="63.40559467" lon="10.50630117">
        <ele>155.45</ele>
        <time>1970-01-01T01:00:00Z</time>
      </trkpt>
      <trkpt lat="63.40557" lon="10.50631083">
        <ele>155.907</ele>
        <time>1970-01-01T01:00:00Z</time>
      </trkpt>
      <trkpt lat="63.405545" lon="10.50632083">
        <ele>155.907</ele>
        <time>1970-01-01T01:00:00Z</time>
      </trkpt>
      <trkpt lat="63.40552017" lon="10.50633017">
        <ele>156.212</ele>
        <time>1970-01-01T01:00:00Z</time>
      </trkpt>
      <trkpt lat="63.40549533" lon="10.50634">
        <ele>156.212</ele>
        <time>1970-01-01T01:00:00Z</time>
      </trkpt>
      <trkpt lat="63.40547083" lon="10.50635">
        <ele>156.669</ele>
        <time>1970-01-01T01:00:00Z</time>
      </trkpt>
      <trkpt lat="63.405446" lon="10.50636117">
        <ele>156.669</ele>
        <time>1970-01-01T01:00:00Z</time>
      </trkpt>
      <trkpt lat="63.40542133" lon="10.506373">
        <ele>157.126</ele>
        <time>1970-01-01T01:00:00Z</time>
      </trkpt>
      <trkpt lat="63.40539667" lon="10.50638533">
        <ele>157.126</ele>
        <time>1970-01-01T01:00:00Z</time>
      </trkpt>
      <trkpt lat="63.4053725" lon="10.50639717">
        <ele>157.584</ele>
        <time>1970-01-01T01:00:00Z</time>
      </trkpt>
      <trkpt lat="63.405348" lon="10.50640867">
        <ele>157.584</ele>
        <time>1970-01-01T01:00:00Z</time>
      </trkpt>
      <trkpt lat="63.40532333" lon="10.50641833">
        <ele>158.041</ele>
        <time>1970-01-01T01:00:00Z</time>
      </trkpt>
      <trkpt lat="63.40529817" lon="10.50642833">
        <ele>158.041</ele>
        <time>1970-01-01T01:00:00Z</time>
      </trkpt>
      <trkpt lat="63.40527283" lon="10.50643767">
        <ele>158.65</ele>
        <time>1970-01-01T01:00:00Z</time>
      </trkpt>
      <trkpt lat="63.40524733" lon="10.50644817">
        <ele>158.65</ele>
        <time>1970-01-01T01:00:00Z</time>
      </trkpt>
      <trkpt lat="63.405222" lon="10.50645933">
        <ele>159.108</ele>
        <time>1970-01-01T01:00:00Z</time>
      </trkpt>
      <trkpt lat="63.40519667" lon="10.50647183">
        <ele>159.108</ele>
        <time>1970-01-01T01:00:00Z</time>
      </trkpt>
      <trkpt lat="63.40517167" lon="10.50648317">
        <ele>159.565</ele>
        <time>1970-01-01T01:00:00Z</time>
      </trkpt>
      <trkpt lat="63.40514683" lon="10.50649433">
        <ele>159.565</ele>
        <time>1970-01-01T01:00:00Z</time>
      </trkpt>
      <trkpt lat="63.40512217" lon="10.50650433">
        <ele>160.022</ele>
        <time>1970-01-01T01:00:00Z</time>
      </trkpt>
      <trkpt lat="63.40509717" lon="10.50651517">
        <ele>160.022</ele>
        <time>1970-01-01T01:00:00Z</time>
      </trkpt>
      <trkpt lat="63.40507233" lon="10.50652567">
        <ele>160.632</ele>
        <time>1970-01-01T01:00:00Z</time>
      </trkpt>
      <trkpt lat="63.40504817" lon="10.50653517">
        <ele>160.632</ele>
        <time>1970-01-01T01:00:00Z</time>
      </trkpt>
      <trkpt lat="63.405024" lon="10.50654583">
        <ele>161.089</ele>
        <time>1970-01-01T01:00:00Z</time>
      </trkpt>
      <trkpt lat="63.40499967" lon="10.50655517">
        <ele>161.089</ele>
        <time>1970-01-01T01:00:00Z</time>
      </trkpt>
      <trkpt lat="63.40497483" lon="10.50656467">
        <ele>161.546</ele>
        <time>1970-01-01T01:00:00Z</time>
      </trkpt>
      <trkpt lat="63.40495033" lon="10.506572">
        <ele>161.546</ele>
        <time>1970-01-01T01:00:00Z</time>
      </trkpt>
      <trkpt lat="63.40492633" lon="10.50657933">
        <ele>162.156</ele>
        <time>1970-01-01T01:00:00Z</time>
      </trkpt>
      <trkpt lat="63.40490233" lon="10.506587">
        <ele>162.156</ele>
        <time>1970-01-01T01:00:00Z</time>
      </trkpt>
      <trkpt lat="63.404879" lon="10.50659467">
        <ele>162.613</ele>
        <time>1970-01-01T01:00:00Z</time>
      </trkpt>
      <trkpt lat="63.40485583" lon="10.50660367">
        <ele>162.613</ele>
        <time>1970-01-01T01:00:00Z</time>
      </trkpt>
      <trkpt lat="63.40483317" lon="10.5066135">
        <ele>163.07</ele>
        <time>1970-01-01T01:00:00Z</time>
      </trkpt>
      <trkpt lat="63.40481" lon="10.50662467">
        <ele>163.07</ele>
        <time>1970-01-01T01:00:00Z</time>
      </trkpt>
      <trkpt lat="63.4047865" lon="10.50663683">
        <ele>163.527</ele>
        <time>1970-01-01T01:00:00Z</time>
      </trkpt>
      <trkpt lat="63.40476267" lon="10.5066505">
        <ele>163.527</ele>
        <time>1970-01-01T01:00:00Z</time>
      </trkpt>
      <trkpt lat="63.40473867" lon="10.50666333">
        <ele>164.137</ele>
        <time>1970-01-01T01:00:00Z</time>
      </trkpt>
      <trkpt lat="63.404715" lon="10.506675">
        <ele>164.137</ele>
        <time>1970-01-01T01:00:00Z</time>
      </trkpt>
      <trkpt lat="63.40469183" lon="10.5066875">
        <ele>164.594</ele>
        <time>1970-01-01T01:00:00Z</time>
      </trkpt>
      <trkpt lat="63.40466833" lon="10.50670283">
        <ele>164.594</ele>
        <time>1970-01-01T01:00:00Z</time>
      </trkpt>
      <trkpt lat="63.40464483" lon="10.50671917">
        <ele>165.051</ele>
        <time>1970-01-01T01:00:00Z</time>
      </trkpt>
      <trkpt lat="63.404621" lon="10.50673583">
        <ele>165.051</ele>
        <time>1970-01-01T01:00:00Z</time>
      </trkpt>
      <trkpt lat="63.4045975" lon="10.5067505">
        <ele>165.661</ele>
        <time>1970-01-01T01:00:00Z</time>
      </trkpt>
      <trkpt lat="63.404574" lon="10.506766">
        <ele>165.661</ele>
        <time>1970-01-01T01:00:00Z</time>
      </trkpt>
      <trkpt lat="63.40455117" lon="10.50678233">
        <ele>166.118</ele>
        <time>1970-01-01T01:00:00Z</time>
      </trkpt>
      <trkpt lat="63.40452867" lon="10.506801">
        <ele>166.118</ele>
        <time>1970-01-01T01:00:00Z</time>
      </trkpt>
      <trkpt lat="63.40450617" lon="10.50682183">
        <ele>166.728</ele>
        <time>1970-01-01T01:00:00Z</time>
      </trkpt>
      <trkpt lat="63.40448333" lon="10.506842">
        <ele>166.728</ele>
        <time>1970-01-01T01:00:00Z</time>
      </trkpt>
      <trkpt lat="63.40446017" lon="10.5068615">
        <ele>167.337</ele>
        <time>1970-01-01T01:00:00Z</time>
      </trkpt>
      <trkpt lat="63.404437" lon="10.506879">
        <ele>167.337</ele>
        <time>1970-01-01T01:00:00Z</time>
      </trkpt>
      <trkpt lat="63.40441483" lon="10.50689867">
        <ele>167.794</ele>
        <time>1970-01-01T01:00:00Z</time>
      </trkpt>
      <trkpt lat="63.40439233" lon="10.50691817">
        <ele>167.794</ele>
        <time>1970-01-01T01:00:00Z</time>
      </trkpt>
      <trkpt lat="63.40437" lon="10.50693667">
        <ele>168.404</ele>
        <time>1970-01-01T01:00:00Z</time>
      </trkpt>
      <trkpt lat="63.4043475" lon="10.50695367">
        <ele>168.404</ele>
        <time>1970-01-01T01:00:00Z</time>
      </trkpt>
      <trkpt lat="63.40432483" lon="10.50697417">
        <ele>169.014</ele>
        <time>1970-01-01T01:00:00Z</time>
      </trkpt>
      <trkpt lat="63.40430117" lon="10.50699583">
        <ele>169.014</ele>
        <time>1970-01-01T01:00:00Z</time>
      </trkpt>
      <trkpt lat="63.404277" lon="10.507018">
        <ele>169.623</ele>
        <time>1970-01-01T01:00:00Z</time>
      </trkpt>
      <trkpt lat="63.40425267" lon="10.50703683">
        <ele>169.623</ele>
        <time>1970-01-01T01:00:00Z</time>
      </trkpt>
      <trkpt lat="63.40422933" lon="10.50705783">
        <ele>170.233</ele>
        <time>1970-01-01T01:00:00Z</time>
      </trkpt>
      <trkpt lat="63.404206" lon="10.50707967">
        <ele>170.233</ele>
        <time>1970-01-01T01:00:00Z</time>
      </trkpt>
      <trkpt lat="63.404183" lon="10.507103">
        <ele>170.842</ele>
        <time>1970-01-01T01:00:00Z</time>
      </trkpt>
      <trkpt lat="63.40416017" lon="10.507126">
        <ele>170.842</ele>
        <time>1970-01-01T01:00:00Z</time>
      </trkpt>
      <trkpt lat="63.40413683" lon="10.50714917">
        <ele>171.3</ele>
        <time>1970-01-01T01:00:00Z</time>
      </trkpt>
      <trkpt lat="63.4041125" lon="10.507173">
        <ele>171.3</ele>
        <time>1970-01-01T01:00:00Z</time>
      </trkpt>
      <trkpt lat="63.40408767" lon="10.50719717">
        <ele>171.909</ele>
        <time>1970-01-01T01:00:00Z</time>
      </trkpt>
      <trkpt lat="63.40406333" lon="10.5072215">
        <ele>171.909</ele>
        <time>1970-01-01T01:00:00Z</time>
      </trkpt>
      <trkpt lat="63.4040395" lon="10.50724617">
        <ele>172.519</ele>
        <time>1970-01-01T01:00:00Z</time>
      </trkpt>
      <trkpt lat="63.40401567" lon="10.507272">
        <ele>172.519</ele>
        <time>1970-01-01T01:00:00Z</time>
      </trkpt>
      <trkpt lat="63.4039915" lon="10.50729917">
        <ele>172.976</ele>
        <time>1970-01-01T01:00:00Z</time>
      </trkpt>
      <trkpt lat="63.40396717" lon="10.50732717">
        <ele>172.976</ele>
        <time>1970-01-01T01:00:00Z</time>
      </trkpt>
      <trkpt lat="63.40394233" lon="10.50735467">
        <ele>173.586</ele>
        <time>1970-01-01T01:00:00Z</time>
      </trkpt>
      <trkpt lat="63.4039175" lon="10.50738167">
        <ele>173.586</ele>
        <time>1970-01-01T01:00:00Z</time>
      </trkpt>
      <trkpt lat="63.40389283" lon="10.50740983">
        <ele>174.043</ele>
        <time>1970-01-01T01:00:00Z</time>
      </trkpt>
      <trkpt lat="63.40386867" lon="10.50744">
        <ele>174.043</ele>
        <time>1970-01-01T01:00:00Z</time>
      </trkpt>
      <trkpt lat="63.403844" lon="10.50747033">
        <ele>174.5</ele>
        <time>1970-01-01T01:00:00Z</time>
      </trkpt>
      <trkpt lat="63.40381867" lon="10.5075005">
        <ele>174.5</ele>
        <time>1970-01-01T01:00:00Z</time>
      </trkpt>
      <trkpt lat="63.4037925" lon="10.50753133">
        <ele>174.957</ele>
        <time>1970-01-01T01:00:00Z</time>
      </trkpt>
      <trkpt lat="63.40376533" lon="10.5075635">
        <ele>174.957</ele>
        <time>1970-01-01T01:00:00Z</time>
      </trkpt>
      <trkpt lat="63.4037375" lon="10.50759567">
        <ele>175.415</ele>
        <time>1970-01-01T01:00:00Z</time>
      </trkpt>
      <trkpt lat="63.40370967" lon="10.50762767">
        <ele>175.415</ele>
        <time>1970-01-01T01:00:00Z</time>
      </trkpt>
      <trkpt lat="63.40368217" lon="10.50765967">
        <ele>175.719</ele>
        <time>1970-01-01T01:00:00Z</time>
      </trkpt>
      <trkpt lat="63.40365433" lon="10.507693">
        <ele>175.719</ele>
        <time>1970-01-01T01:00:00Z</time>
      </trkpt>
      <trkpt lat="63.40362567" lon="10.5077275">
        <ele>176.177</ele>
        <time>1970-01-01T01:00:00Z</time>
      </trkpt>
      <trkpt lat="63.40359617" lon="10.50776283">
        <ele>176.177</ele>
        <time>1970-01-01T01:00:00Z</time>
      </trkpt>
      <trkpt lat="63.403566" lon="10.50779833">
        <ele>176.481</ele>
        <time>1970-01-01T01:00:00Z</time>
      </trkpt>
      <trkpt lat="63.40353617" lon="10.507832">
        <ele>176.481</ele>
        <time>1970-01-01T01:00:00Z</time>
      </trkpt>
      <trkpt lat="63.403507" lon="10.50786467">
        <ele>176.786</ele>
        <time>1970-01-01T01:00:00Z</time>
      </trkpt>
      <trkpt lat="63.403479" lon="10.50789617">
        <ele>176.786</ele>
        <time>1970-01-01T01:00:00Z</time>
      </trkpt>
      <trkpt lat="63.40345233" lon="10.50792883">
        <ele>177.091</ele>
        <time>1970-01-01T01:00:00Z</time>
      </trkpt>
      <trkpt lat="63.40342633" lon="10.50796117">
        <ele>177.091</ele>
        <time>1970-01-01T01:00:00Z</time>
      </trkpt>
      <trkpt lat="63.4034005" lon="10.50799317">
        <ele>177.396</ele>
        <time>1970-01-01T01:00:00Z</time>
      </trkpt>
      <trkpt lat="63.40337433" lon="10.5080235">
        <ele>177.396</ele>
        <time>1970-01-01T01:00:00Z</time>
      </trkpt>
      <trkpt lat="63.403348" lon="10.50805483">
        <ele>177.701</ele>
        <time>1970-01-01T01:00:00Z</time>
      </trkpt>
      <trkpt lat="63.403321" lon="10.50808717">
        <ele>177.701</ele>
        <time>1970-01-01T01:00:00Z</time>
      </trkpt>
      <trkpt lat="63.40329283" lon="10.50812067">
        <ele>178.005</ele>
        <time>1970-01-01T01:00:00Z</time>
      </trkpt>
      <trkpt lat="63.40326383" lon="10.50815383">
        <ele>178.005</ele>
        <time>1970-01-01T01:00:00Z</time>
      </trkpt>
      <trkpt lat="63.40323467" lon="10.5081875">
        <ele>178.158</ele>
        <time>1970-01-01T01:00:00Z</time>
      </trkpt>
      <trkpt lat="63.40320567" lon="10.5082195">
        <ele>178.158</ele>
        <time>1970-01-01T01:00:00Z</time>
      </trkpt>
      <trkpt lat="63.403177" lon="10.50825">
        <ele>178.463</ele>
        <time>1970-01-01T01:00:00Z</time>
      </trkpt>
      <trkpt lat="63.40314817" lon="10.50827617">
        <ele>178.463</ele>
        <time>1970-01-01T01:00:00Z</time>
      </trkpt>
      <trkpt lat="63.40312017" lon="10.50829933">
        <ele>178.615</ele>
        <time>1970-01-01T01:00:00Z</time>
      </trkpt>
      <trkpt lat="63.403094" lon="10.50832033">
        <ele>178.615</ele>
        <time>1970-01-01T01:00:00Z</time>
      </trkpt>
      <trkpt lat="63.403071" lon="10.50833883">
        <ele>178.767</ele>
        <time>1970-01-01T01:00:00Z</time>
      </trkpt>
      <trkpt lat="63.40305067" lon="10.50835517">
        <ele>178.767</ele>
        <time>1970-01-01T01:00:00Z</time>
      </trkpt>
      <trkpt lat="63.4030335" lon="10.5083675">
        <ele>179.072</ele>
        <time>1970-01-01T01:00:00Z</time>
      </trkpt>
      <trkpt lat="63.40302183" lon="10.50837683">
        <ele>179.072</ele>
        <time>1970-01-01T01:00:00Z</time>
      </trkpt>
      <trkpt lat="63.40301617" lon="10.5083805">
        <ele>179.225</ele>
        <time>1970-01-01T01:00:00Z</time>
      </trkpt>
      <trkpt lat="63.40301533" lon="10.5083815">
        <ele>179.225</ele>
        <time>1970-01-01T01:00:00Z</time>
      </trkpt>
      <trkpt lat="63.403015" lon="10.50838183">
        <ele>179.377</ele>
        <time>1970-01-01T01:00:00Z</time>
      </trkpt>
      <trkpt lat="63.403015" lon="10.50838333">
        <ele>179.377</ele>
        <time>1970-01-01T01:00:00Z</time>
      </trkpt>
      <trkpt lat="63.4030145" lon="10.50838417">
        <ele>179.529</ele>
        <time>1970-01-01T01:00:00Z</time>
      </trkpt>
      <trkpt lat="63.40301433" lon="10.50838267">
        <ele>179.529</ele>
        <time>1970-01-01T01:00:00Z</time>
      </trkpt>
      <trkpt lat="63.40301467" lon="10.5083805">
        <ele>179.682</ele>
        <time>1970-01-01T01:00:00Z</time>
      </trkpt>
      <trkpt lat="63.40301533" lon="10.5083785">
        <ele>179.682</ele>
        <time>1970-01-01T01:00:00Z</time>
      </trkpt>
      <trkpt lat="63.403016" lon="10.50837717">
        <ele>179.834</ele>
        <time>1970-01-01T01:00:00Z</time>
      </trkpt>
      <trkpt lat="63.40301683" lon="10.50837483">
        <ele>179.834</ele>
        <time>1970-01-01T01:00:00Z</time>
      </trkpt>
      <trkpt lat="63.40301733" lon="10.50837183">
        <ele>179.987</ele>
        <time>1970-01-01T01:00:00Z</time>
      </trkpt>
      <trkpt lat="63.40301767" lon="10.50836967">
        <ele>179.987</ele>
        <time>1970-01-01T01:00:00Z</time>
      </trkpt>
      <trkpt lat="63.403016" lon="10.50836833">
        <ele>180.139</ele>
        <time>1970-01-01T01:00:00Z</time>
      </trkpt>
      <trkpt lat="63.40301567" lon="10.50837033">
        <ele>180.139</ele>
        <time>1970-01-01T01:00:00Z</time>
      </trkpt>
      <trkpt lat="63.4030155" lon="10.5083735">
        <ele>180.291</ele>
        <time>1970-01-01T01:00:00Z</time>
      </trkpt>
      <trkpt lat="63.40301617" lon="10.5083755">
        <ele>180.291</ele>
        <time>1970-01-01T01:00:00Z</time>
      </trkpt>
      <trkpt lat="63.4030155" lon="10.50837533">
        <ele>180.444</ele>
        <time>1970-01-01T01:00:00Z</time>
      </trkpt>
      <trkpt lat="63.40301517" lon="10.50837533">
        <ele>180.444</ele>
        <time>1970-01-01T01:00:00Z</time>
      </trkpt>
      <trkpt lat="63.4030155" lon="10.50837733">
        <ele>180.596</ele>
        <time>1970-01-01T01:00:00Z</time>
      </trkpt>
      <trkpt lat="63.40301583" lon="10.50837917">
        <ele>180.596</ele>
        <time>1970-01-01T01:00:00Z</time>
      </trkpt>
      <trkpt lat="63.403016" lon="10.50837967">
        <ele>180.596</ele>
        <time>1970-01-01T01:00:00Z</time>
      </trkpt>
      <trkpt lat="63.40301667" lon="10.50837967">
        <ele>180.596</ele>
        <time>1970-01-01T01:00:00Z</time>
      </trkpt>
      <trkpt lat="63.40301733" lon="10.50837967">
        <ele>180.749</ele>
        <time>1970-01-01T01:00:00Z</time>
      </trkpt>
      <trkpt lat="63.40301733" lon="10.50837983">
        <ele>180.749</ele>
        <time>1970-01-01T01:00:00Z</time>
      </trkpt>
      <trkpt lat="63.40301617" lon="10.50837983">
        <ele>180.901</ele>
        <time>1970-01-01T01:00:00Z</time>
      </trkpt>
      <trkpt lat="63.403015" lon="10.508381">
        <ele>180.901</ele>
        <time>1970-01-01T01:00:00Z</time>
      </trkpt>
      <trkpt lat="63.40301417" lon="10.50838217">
        <ele>180.901</ele>
        <time>1970-01-01T01:00:00Z</time>
      </trkpt>
      <trkpt lat="63.40301417" lon="10.50838283">
        <ele>180.901</ele>
        <time>1970-01-01T01:00:00Z</time>
      </trkpt>
      <trkpt lat="63.40301417" lon="10.508383">
        <ele>181.053</ele>
        <time>1970-01-01T01:00:00Z</time>
      </trkpt>
      <trkpt lat="63.4030145" lon="10.50838367">
        <ele>181.053</ele>
        <time>1970-01-01T01:00:00Z</time>
      </trkpt>
      <trkpt lat="63.403015" lon="10.5083835">
        <ele>181.206</ele>
        <time>1970-01-01T01:00:00Z</time>
      </trkpt>
      <trkpt lat="63.4030155" lon="10.50838333">
        <ele>181.206</ele>
        <time>1970-01-01T01:00:00Z</time>
      </trkpt>
      <trkpt lat="63.40301567" lon="10.508382">
        <ele>181.206</ele>
        <time>1970-01-01T01:00:00Z</time>
      </trkpt>
      <trkpt lat="63.40301683" lon="10.5083805">
        <ele>181.206</ele>
        <time>1970-01-01T01:00:00Z</time>
      </trkpt>
      <trkpt lat="63.4030175" lon="10.50837867">
        <ele>181.358</ele>
        <time>1970-01-01T01:00:00Z</time>
      </trkpt>
      <trkpt lat="63.40301817" lon="10.50837717">
        <ele>181.358</ele>
        <time>1970-01-01T01:00:00Z</time>
      </trkpt>
      <trkpt lat="63.40301817" lon="10.5083765">
        <ele>181.358</ele>
        <time>1970-01-01T01:00:00Z</time>
      </trkpt>
      <trkpt lat="63.40301817" lon="10.50837667">
        <ele>181.358</ele>
        <time>1970-01-01T01:00:00Z</time>
      </trkpt>
      <trkpt lat="63.40301833" lon="10.50837667">
        <ele>181.511</ele>
        <time>1970-01-01T01:00:00Z</time>
      </trkpt>
      <trkpt lat="63.40301817" lon="10.50837683">
        <ele>181.511</ele>
        <time>1970-01-01T01:00:00Z</time>
      </trkpt>
      <trkpt lat="63.403018" lon="10.508376">
        <ele>181.511</ele>
        <time>1970-01-01T01:00:00Z</time>
      </trkpt>
      <trkpt lat="63.4030175" lon="10.50837583">
        <ele>181.511</ele>
        <time>1970-01-01T01:00:00Z</time>
      </trkpt>
      <trkpt lat="63.403017" lon="10.50837583">
        <ele>181.663</ele>
        <time>1970-01-01T01:00:00Z</time>
      </trkpt>
      <trkpt lat="63.4030165" lon="10.50837533">
        <ele>181.663</ele>
        <time>1970-01-01T01:00:00Z</time>
      </trkpt>
      <trkpt lat="63.40301617" lon="10.50837433">
        <ele>181.663</ele>
        <time>1970-01-01T01:00:00Z</time>
      </trkpt>
      <trkpt lat="63.403016" lon="10.50837317">
        <ele>181.663</ele>
        <time>1970-01-01T01:00:00Z</time>
      </trkpt>
      <trkpt lat="63.40301617" lon="10.5083725">
        <ele>181.663</ele>
        <time>1970-01-01T01:00:00Z</time>
      </trkpt>
      <trkpt lat="63.40301617" lon="10.50837133">
        <ele>181.663</ele>
        <time>1970-01-01T01:00:00Z</time>
      </trkpt>
      <trkpt lat="63.40301583" lon="10.50837017">
        <ele>181.815</ele>
        <time>1970-01-01T01:00:00Z</time>
      </trkpt>
      <trkpt lat="63.4030155" lon="10.50836867">
        <ele>181.815</ele>
        <time>1970-01-01T01:00:00Z</time>
      </trkpt>
      <trkpt lat="63.403015" lon="10.5083675">
        <ele>181.815</ele>
        <time>1970-01-01T01:00:00Z</time>
      </trkpt>
      <trkpt lat="63.40301433" lon="10.50836517">
        <ele>181.815</ele>
        <time>1970-01-01T01:00:00Z</time>
      </trkpt>
      <trkpt lat="63.40301267" lon="10.5083645">
        <ele>181.815</ele>
        <time>1970-01-01T01:00:00Z</time>
      </trkpt>
      <trkpt lat="63.40301083" lon="10.50836567">
        <ele>181.815</ele>
        <time>1970-01-01T01:00:00Z</time>
      </trkpt>
      <trkpt lat="63.40300983" lon="10.508368">
        <ele>181.815</ele>
        <time>1970-01-01T01:00:00Z</time>
      </trkpt>
      <trkpt lat="63.40301067" lon="10.50837">
        <ele>181.815</ele>
        <time>1970-01-01T01:00:00Z</time>
      </trkpt>
      <trkpt lat="63.403011" lon="10.508371">
        <ele>181.968</ele>
        <time>1970-01-01T01:00:00Z</time>
      </trkpt>
      <trkpt lat="63.40301117" lon="10.50837183">
        <ele>181.968</ele>
        <time>1970-01-01T01:00:00Z</time>
      </trkpt>
      <trkpt lat="63.40301067" lon="10.5083735">
        <ele>181.968</ele>
        <time>1970-01-01T01:00:00Z</time>
      </trkpt>
      <trkpt lat="63.40301133" lon="10.50837517">
        <ele>181.968</ele>
        <time>1970-01-01T01:00:00Z</time>
      </trkpt>
      <trkpt lat="63.40301183" lon="10.50837767">
        <ele>181.968</ele>
        <time>1970-01-01T01:00:00Z</time>
      </trkpt>
      <trkpt lat="63.40301183" lon="10.508378">
        <ele>181.968</ele>
        <time>1970-01-01T01:00:00Z</time>
      </trkpt>
      <trkpt lat="63.40301167" lon="10.50837733">
        <ele>182.12</ele>
        <time>1970-01-01T01:00:00Z</time>
      </trkpt>
      <trkpt lat="63.40301167" lon="10.50837617">
        <ele>182.12</ele>
        <time>1970-01-01T01:00:00Z</time>
      </trkpt>
      <trkpt lat="63.40301133" lon="10.50837583">
        <ele>182.12</ele>
        <time>1970-01-01T01:00:00Z</time>
      </trkpt>
      <trkpt lat="63.40301083" lon="10.50837567">
        <ele>182.12</ele>
        <time>1970-01-01T01:00:00Z</time>
      </trkpt>
      <trkpt lat="63.4030105" lon="10.50837583">
        <ele>182.12</ele>
        <time>1970-01-01T01:00:00Z</time>
      </trkpt>
      <trkpt lat="63.40301133" lon="10.5083755">
        <ele>182.12</ele>
        <time>1970-01-01T01:00:00Z</time>
      </trkpt>
      <trkpt lat="63.40301217" lon="10.50837617">
        <ele>182.12</ele>
        <time>1970-01-01T01:00:00Z</time>
      </trkpt>
      <trkpt lat="63.40301283" lon="10.50837667">
        <ele>182.12</ele>
        <time>1970-01-01T01:00:00Z</time>
      </trkpt>
      <trkpt lat="63.40301283" lon="10.50837717">
        <ele>182.273</ele>
        <time>1970-01-01T01:00:00Z</time>
      </trkpt>
      <trkpt lat="63.403013" lon="10.50837717">
        <ele>182.273</ele>
        <time>1970-01-01T01:00:00Z</time>
      </trkpt>
      <trkpt lat="63.4030135" lon="10.50837717">
        <ele>182.273</ele>
        <time>1970-01-01T01:00:00Z</time>
      </trkpt>
      <trkpt lat="63.40301383" lon="10.50837833">
        <ele>182.273</ele>
        <time>1970-01-01T01:00:00Z</time>
      </trkpt>
      <trkpt lat="63.403014" lon="10.50837933">
        <ele>182.273</ele>
        <time>1970-01-01T01:00:00Z</time>
      </trkpt>
      <trkpt lat="63.4030135" lon="10.508381">
        <ele>182.273</ele>
        <time>1970-01-01T01:00:00Z</time>
      </trkpt>
      <trkpt lat="63.403013" lon="10.508383">
        <ele>182.425</ele>
        <time>1970-01-01T01:00:00Z</time>
      </trkpt>
      <trkpt lat="63.40301217" lon="10.5083845">
        <ele>182.425</ele>
        <time>1970-01-01T01:00:00Z</time>
      </trkpt>
      <trkpt lat="63.40301117" lon="10.5083855">
        <ele>182.425</ele>
        <time>1970-01-01T01:00:00Z</time>
      </trkpt>
      <trkpt lat="63.40301017" lon="10.508386">
        <ele>182.425</ele>
        <time>1970-01-01T01:00:00Z</time>
      </trkpt>
      <trkpt lat="63.40300883" lon="10.50838517">
        <ele>182.425</ele>
        <time>1970-01-01T01:00:00Z</time>
      </trkpt>
      <trkpt lat="63.40300783" lon="10.50838383">
        <ele>182.425</ele>
        <time>1970-01-01T01:00:00Z</time>
      </trkpt>
      <trkpt lat="63.40300683" lon="10.5083825">
        <ele>182.577</ele>
        <time>1970-01-01T01:00:00Z</time>
      </trkpt>
      <trkpt lat="63.40300633" lon="10.50838217">
        <ele>182.577</ele>
        <time>1970-01-01T01:00:00Z</time>
      </trkpt>
      <trkpt lat="63.4030055" lon="10.50838117">
        <ele>182.577</ele>
        <time>1970-01-01T01:00:00Z</time>
      </trkpt>
      <trkpt lat="63.403005" lon="10.50838033">
        <ele>182.577</ele>
        <time>1970-01-01T01:00:00Z</time>
      </trkpt>
      <trkpt lat="63.403005" lon="10.508379">
        <ele>182.577</ele>
        <time>1970-01-01T01:00:00Z</time>
      </trkpt>
      <trkpt lat="63.40300533" lon="10.50837883">
        <ele>182.577</ele>
        <time>1970-01-01T01:00:00Z</time>
      </trkpt>
      <trkpt lat="63.40300617" lon="10.5083795">
        <ele>182.577</ele>
        <time>1970-01-01T01:00:00Z</time>
      </trkpt>
      <trkpt lat="63.4030065" lon="10.508381">
        <ele>182.577</ele>
        <time>1970-01-01T01:00:00Z</time>
      </trkpt>
      <trkpt lat="63.40300717" lon="10.50838217">
        <ele>182.73</ele>
        <time>1970-01-01T01:00:00Z</time>
      </trkpt>
      <trkpt lat="63.403007" lon="10.50838333">
        <ele>182.73</ele>
        <time>1970-01-01T01:00:00Z</time>
      </trkpt>
      <trkpt lat="63.40300583" lon="10.5083825">
        <ele>182.73</ele>
        <time>1970-01-01T01:00:00Z</time>
      </trkpt>
      <trkpt lat="63.40300483" lon="10.50838083">
        <ele>182.73</ele>
        <time>1970-01-01T01:00:00Z</time>
      </trkpt>
      <trkpt lat="63.40300517" lon="10.5083775">
        <ele>182.73</ele>
        <time>1970-01-01T01:00:00Z</time>
      </trkpt>
      <trkpt lat="63.403006" lon="10.50837533">
        <ele>182.73</ele>
        <time>1970-01-01T01:00:00Z</time>
      </trkpt>
      <trkpt lat="63.40300667" lon="10.50837367">
        <ele>182.882</ele>
        <time>1970-01-01T01:00:00Z</time>
      </trkpt>
      <trkpt lat="63.40300617" lon="10.508373">
        <ele>182.882</ele>
        <time>1970-01-01T01:00:00Z</time>
      </trkpt>
      <trkpt lat="63.4030055" lon="10.50837267">
        <ele>182.882</ele>
        <time>1970-01-01T01:00:00Z</time>
      </trkpt>
      <trkpt lat="63.40300483" lon="10.50837217">
        <ele>182.882</ele>
        <time>1970-01-01T01:00:00Z</time>
      </trkpt>
      <trkpt lat="63.40300433" lon="10.50837167">
        <ele>182.882</ele>
        <time>1970-01-01T01:00:00Z</time>
      </trkpt>
      <trkpt lat="63.40300383" lon="10.5083715">
        <ele>182.882</ele>
        <time>1970-01-01T01:00:00Z</time>
      </trkpt>
      <trkpt lat="63.40300333" lon="10.5083715">
        <ele>182.882</ele>
        <time>1970-01-01T01:00:00Z</time>
      </trkpt>
      <trkpt lat="63.40300283" lon="10.50837117">
        <ele>182.882</ele>
        <time>1970-01-01T01:00:00Z</time>
      </trkpt>
      <trkpt lat="63.40300217" lon="10.50837033">
        <ele>183.035</ele>
        <time>1970-01-01T01:00:00Z</time>
      </trkpt>
      <trkpt lat="63.4030015" lon="10.50836917">
        <ele>183.035</ele>
        <time>1970-01-01T01:00:00Z</time>
      </trkpt>
      <trkpt lat="63.403001" lon="10.50836833">
        <ele>183.035</ele>
        <time>1970-01-01T01:00:00Z</time>
      </trkpt>
      <trkpt lat="63.40300083" lon="10.508368">
        <ele>183.035</ele>
        <time>1970-01-01T01:00:00Z</time>
      </trkpt>
      <trkpt lat="63.40300067" lon="10.50836817">
        <ele>183.035</ele>
        <time>1970-01-01T01:00:00Z</time>
      </trkpt>
      <trkpt lat="63.40300067" lon="10.50836867">
        <ele>183.035</ele>
        <time>1970-01-01T01:00:00Z</time>
      </trkpt>
      <trkpt lat="63.40300083" lon="10.50836917">
        <ele>183.035</ele>
        <time>1970-01-01T01:00:00Z</time>
      </trkpt>
      <trkpt lat="63.40300083" lon="10.50837033">
        <ele>183.035</ele>
        <time>1970-01-01T01:00:00Z</time>
      </trkpt>
      <trkpt lat="63.40300083" lon="10.5083715">
        <ele>183.187</ele>
        <time>1970-01-01T01:00:00Z</time>
      </trkpt>
      <trkpt lat="63.40300083" lon="10.50837217">
        <ele>183.187</ele>
        <time>1970-01-01T01:00:00Z</time>
      </trkpt>
      <trkpt lat="63.403001" lon="10.50837233">
        <ele>183.187</ele>
        <time>1970-01-01T01:00:00Z</time>
      </trkpt>
      <trkpt lat="63.40300133" lon="10.50837233">
        <ele>183.187</ele>
        <time>1970-01-01T01:00:00Z</time>
      </trkpt>
      <trkpt lat="63.40300167" lon="10.5083725">
        <ele>183.187</ele>
        <time>1970-01-01T01:00:00Z</time>
      </trkpt>
      <trkpt lat="63.40300217" lon="10.50837233">
        <ele>183.187</ele>
        <time>1970-01-01T01:00:00Z</time>
      </trkpt>
      <trkpt lat="63.40300167" lon="10.50837233">
        <ele>183.187</ele>
        <time>1970-01-01T01:00:00Z</time>
      </trkpt>
      <trkpt lat="63.40300017" lon="10.508373">
        <ele>183.187</ele>
        <time>1970-01-01T01:00:00Z</time>
      </trkpt>
      <trkpt lat="63.402997" lon="10.5083785">
        <ele>183.187</ele>
        <time>1970-01-01T01:00:00Z</time>
      </trkpt>
      <trkpt lat="63.40299133" lon="10.50839033">
        <ele>183.187</ele>
        <time>1970-01-01T01:00:00Z</time>
      </trkpt>
      <trkpt lat="63.4029835" lon="10.5084055">
        <ele>183.187</ele>
        <time>1970-01-01T01:00:00Z</time>
      </trkpt>
      <trkpt lat="63.40297467" lon="10.508422">
        <ele>183.187</ele>
        <time>1970-01-01T01:00:00Z</time>
      </trkpt>
      <trkpt lat="63.40296583" lon="10.50844017">
        <ele>183.339</ele>
        <time>1970-01-01T01:00:00Z</time>
      </trkpt>
      <trkpt lat="63.40295583" lon="10.50846217">
        <ele>183.339</ele>
        <time>1970-01-01T01:00:00Z</time>
      </trkpt>
      <trkpt lat="63.40294483" lon="10.50848567">
        <ele>183.339</ele>
        <time>1970-01-01T01:00:00Z</time>
      </trkpt>
      <trkpt lat="63.40293333" lon="10.50850917">
        <ele>183.339</ele>
        <time>1970-01-01T01:00:00Z</time>
      </trkpt>
      <trkpt lat="63.40292117" lon="10.50853167">
        <ele>183.339</ele>
        <time>1970-01-01T01:00:00Z</time>
      </trkpt>
      <trkpt lat="63.40290867" lon="10.508554">
        <ele>183.339</ele>
        <time>1970-01-01T01:00:00Z</time>
      </trkpt>
      <trkpt lat="63.40289633" lon="10.50857533">
        <ele>183.339</ele>
        <time>1970-01-01T01:00:00Z</time>
      </trkpt>
      <trkpt lat="63.40288483" lon="10.50859883">
        <ele>183.339</ele>
        <time>1970-01-01T01:00:00Z</time>
      </trkpt>
      <trkpt lat="63.4028725" lon="10.5086215">
        <ele>183.339</ele>
        <time>1970-01-01T01:00:00Z</time>
      </trkpt>
      <trkpt lat="63.40286117" lon="10.50865">
        <ele>183.339</ele>
        <time>1970-01-01T01:00:00Z</time>
      </trkpt>
      <trkpt lat="63.40285067" lon="10.50868117">
        <ele>183.339</ele>
        <time>1970-01-01T01:00:00Z</time>
      </trkpt>
      <trkpt lat="63.40284383" lon="10.50871783">
        <ele>183.339</ele>
        <time>1970-01-01T01:00:00Z</time>
      </trkpt>
      <trkpt lat="63.40284" lon="10.50875617">
        <ele>183.339</ele>
        <time>1970-01-01T01:00:00Z</time>
      </trkpt>
      <trkpt lat="63.4028385" lon="10.50879683">
        <ele>183.339</ele>
        <time>1970-01-01T01:00:00Z</time>
      </trkpt>
      <trkpt lat="63.402835" lon="10.50883833">
        <ele>183.339</ele>
        <time>1970-01-01T01:00:00Z</time>
      </trkpt>
      <trkpt lat="63.40282567" lon="10.50887333">
        <ele>183.339</ele>
        <time>1970-01-01T01:00:00Z</time>
      </trkpt>
      <trkpt lat="63.40281133" lon="10.50890033">
        <ele>183.339</ele>
        <time>1970-01-01T01:00:00Z</time>
      </trkpt>
      <trkpt lat="63.40279467" lon="10.50892">
        <ele>183.339</ele>
        <time>1970-01-01T01:00:00Z</time>
      </trkpt>
      <trkpt lat="63.402778" lon="10.508937">
        <ele>183.187</ele>
        <time>1970-01-01T01:00:00Z</time>
      </trkpt>
      <trkpt lat="63.40276067" lon="10.50895333">
        <ele>183.187</ele>
        <time>1970-01-01T01:00:00Z</time>
      </trkpt>
      <trkpt lat="63.40274217" lon="10.508974">
        <ele>183.187</ele>
        <time>1970-01-01T01:00:00Z</time>
      </trkpt>
      <trkpt lat="63.4027225" lon="10.50899733">
        <ele>183.187</ele>
        <time>1970-01-01T01:00:00Z</time>
      </trkpt>
      <trkpt lat="63.40270217" lon="10.509023">
        <ele>183.187</ele>
        <time>1970-01-01T01:00:00Z</time>
      </trkpt>
      <trkpt lat="63.40268083" lon="10.509048">
        <ele>183.187</ele>
        <time>1970-01-01T01:00:00Z</time>
      </trkpt>
      <trkpt lat="63.40265867" lon="10.509071">
        <ele>183.035</ele>
        <time>1970-01-01T01:00:00Z</time>
      </trkpt>
      <trkpt lat="63.40263617" lon="10.5090945">
        <ele>183.035</ele>
        <time>1970-01-01T01:00:00Z</time>
      </trkpt>
      <trkpt lat="63.40261367" lon="10.50911667">
        <ele>182.882</ele>
        <time>1970-01-01T01:00:00Z</time>
      </trkpt>
      <trkpt lat="63.40259083" lon="10.50914233">
        <ele>182.882</ele>
        <time>1970-01-01T01:00:00Z</time>
      </trkpt>
      <trkpt lat="63.40256683" lon="10.50916933">
        <ele>182.882</ele>
        <time>1970-01-01T01:00:00Z</time>
      </trkpt>
      <trkpt lat="63.40254333" lon="10.509197">
        <ele>182.882</ele>
        <time>1970-01-01T01:00:00Z</time>
      </trkpt>
      <trkpt lat="63.402522" lon="10.50922067">
        <ele>182.73</ele>
        <time>1970-01-01T01:00:00Z</time>
      </trkpt>
      <trkpt lat="63.402503" lon="10.50924083">
        <ele>182.73</ele>
        <time>1970-01-01T01:00:00Z</time>
      </trkpt>
      <trkpt lat="63.40248433" lon="10.50926283">
        <ele>182.577</ele>
        <time>1970-01-01T01:00:00Z</time>
      </trkpt>
      <trkpt lat="63.40246517" lon="10.50928817">
        <ele>182.577</ele>
        <time>1970-01-01T01:00:00Z</time>
      </trkpt>
      <trkpt lat="63.40244583" lon="10.509317">
        <ele>182.425</ele>
        <time>1970-01-01T01:00:00Z</time>
      </trkpt>
      <trkpt lat="63.4024275" lon="10.50934333">
        <ele>182.425</ele>
        <time>1970-01-01T01:00:00Z</time>
      </trkpt>
      <trkpt lat="63.40240867" lon="10.50936817">
        <ele>182.273</ele>
        <time>1970-01-01T01:00:00Z</time>
      </trkpt>
      <trkpt lat="63.40238933" lon="10.5093915">
        <ele>182.273</ele>
        <time>1970-01-01T01:00:00Z</time>
      </trkpt>
      <trkpt lat="63.40236833" lon="10.50941617">
        <ele>182.12</ele>
        <time>1970-01-01T01:00:00Z</time>
      </trkpt>
      <trkpt lat="63.40234733" lon="10.5094405">
        <ele>182.12</ele>
        <time>1970-01-01T01:00:00Z</time>
      </trkpt>
      <trkpt lat="63.40232617" lon="10.50946533">
        <ele>181.968</ele>
        <time>1970-01-01T01:00:00Z</time>
      </trkpt>
      <trkpt lat="63.4023055" lon="10.50949067">
        <ele>181.968</ele>
        <time>1970-01-01T01:00:00Z</time>
      </trkpt>
      <trkpt lat="63.402284" lon="10.50952">
        <ele>181.815</ele>
        <time>1970-01-01T01:00:00Z</time>
      </trkpt>
      <trkpt lat="63.40226133" lon="10.50955">
        <ele>181.815</ele>
        <time>1970-01-01T01:00:00Z</time>
      </trkpt>
      <trkpt lat="63.40223733" lon="10.50958133">
        <ele>181.663</ele>
        <time>1970-01-01T01:00:00Z</time>
      </trkpt>
      <trkpt lat="63.40221367" lon="10.50961117">
        <ele>181.663</ele>
        <time>1970-01-01T01:00:00Z</time>
      </trkpt>
      <trkpt lat="63.40219083" lon="10.5096405">
        <ele>181.511</ele>
        <time>1970-01-01T01:00:00Z</time>
      </trkpt>
      <trkpt lat="63.40216783" lon="10.5096675">
        <ele>181.511</ele>
        <time>1970-01-01T01:00:00Z</time>
      </trkpt>
      <trkpt lat="63.40214367" lon="10.50969683">
        <ele>181.358</ele>
        <time>1970-01-01T01:00:00Z</time>
      </trkpt>
      <trkpt lat="63.40211717" lon="10.50972967">
        <ele>181.358</ele>
        <time>1970-01-01T01:00:00Z</time>
      </trkpt>
      <trkpt lat="63.40208983" lon="10.50976633">
        <ele>181.206</ele>
        <time>1970-01-01T01:00:00Z</time>
      </trkpt>
      <trkpt lat="63.402062" lon="10.50980267">
        <ele>181.206</ele>
        <time>1970-01-01T01:00:00Z</time>
      </trkpt>
      <trkpt lat="63.40203433" lon="10.50983917">
        <ele>181.053</ele>
        <time>1970-01-01T01:00:00Z</time>
      </trkpt>
      <trkpt lat="63.40200533" lon="10.50987633">
        <ele>181.053</ele>
        <time>1970-01-01T01:00:00Z</time>
      </trkpt>
      <trkpt lat="63.40197567" lon="10.50991383">
        <ele>181.053</ele>
        <time>1970-01-01T01:00:00Z</time>
      </trkpt>
      <trkpt lat="63.40194533" lon="10.50995067">
        <ele>181.053</ele>
        <time>1970-01-01T01:00:00Z</time>
      </trkpt>
      <trkpt lat="63.40191633" lon="10.50998533">
        <ele>181.053</ele>
        <time>1970-01-01T01:00:00Z</time>
      </trkpt>
      <trkpt lat="63.40188667" lon="10.5100215">
        <ele>181.053</ele>
        <time>1970-01-01T01:00:00Z</time>
      </trkpt>
      <trkpt lat="63.401857" lon="10.51006">
        <ele>181.053</ele>
        <time>1970-01-01T01:00:00Z</time>
      </trkpt>
      <trkpt lat="63.40182683" lon="10.51010183">
        <ele>181.053</ele>
        <time>1970-01-01T01:00:00Z</time>
      </trkpt>
      <trkpt lat="63.40179717" lon="10.510144">
        <ele>181.053</ele>
        <time>1970-01-01T01:00:00Z</time>
      </trkpt>
      <trkpt lat="63.4017675" lon="10.51018867">
        <ele>181.053</ele>
        <time>1970-01-01T01:00:00Z</time>
      </trkpt>
      <trkpt lat="63.401738" lon="10.510235">
        <ele>180.901</ele>
        <time>1970-01-01T01:00:00Z</time>
      </trkpt>
      <trkpt lat="63.40171033" lon="10.51028667">
        <ele>180.901</ele>
        <time>1970-01-01T01:00:00Z</time>
      </trkpt>
      <trkpt lat="63.4016835" lon="10.51033917">
        <ele>180.901</ele>
        <time>1970-01-01T01:00:00Z</time>
      </trkpt>
      <trkpt lat="63.4016565" lon="10.51039417">
        <ele>180.901</ele>
        <time>1970-01-01T01:00:00Z</time>
      </trkpt>
      <trkpt lat="63.40162917" lon="10.51044817">
        <ele>180.901</ele>
        <time>1970-01-01T01:00:00Z</time>
      </trkpt>
      <trkpt lat="63.4016025" lon="10.51050117">
        <ele>180.901</ele>
        <time>1970-01-01T01:00:00Z</time>
      </trkpt>
      <trkpt lat="63.40157667" lon="10.51055333">
        <ele>180.901</ele>
        <time>1970-01-01T01:00:00Z</time>
      </trkpt>
      <trkpt lat="63.40155217" lon="10.5106075">
        <ele>180.901</ele>
        <time>1970-01-01T01:00:00Z</time>
      </trkpt>
      <trkpt lat="63.40152867" lon="10.51066533">
        <ele>180.901</ele>
        <time>1970-01-01T01:00:00Z</time>
      </trkpt>
      <trkpt lat="63.40150783" lon="10.51072383">
        <ele>180.901</ele>
        <time>1970-01-01T01:00:00Z</time>
      </trkpt>
      <trkpt lat="63.40148783" lon="10.51078083">
        <ele>180.901</ele>
        <time>1970-01-01T01:00:00Z</time>
      </trkpt>
      <trkpt lat="63.401469" lon="10.51083633">
        <ele>180.901</ele>
        <time>1970-01-01T01:00:00Z</time>
      </trkpt>
      <trkpt lat="63.40145" lon="10.5108945">
        <ele>180.901</ele>
        <time>1970-01-01T01:00:00Z</time>
      </trkpt>
      <trkpt lat="63.40143067" lon="10.5109545">
        <ele>180.901</ele>
        <time>1970-01-01T01:00:00Z</time>
      </trkpt>
      <trkpt lat="63.40141267" lon="10.5110195">
        <ele>180.901</ele>
        <time>1970-01-01T01:00:00Z</time>
      </trkpt>
      <trkpt lat="63.401395" lon="10.51108383">
        <ele>180.901</ele>
        <time>1970-01-01T01:00:00Z</time>
      </trkpt>
      <trkpt lat="63.40137833" lon="10.51114867">
        <ele>180.901</ele>
        <time>1970-01-01T01:00:00Z</time>
      </trkpt>
      <trkpt lat="63.40136117" lon="10.51121317">
        <ele>180.901</ele>
        <time>1970-01-01T01:00:00Z</time>
      </trkpt>
      <trkpt lat="63.40134583" lon="10.51127967">
        <ele>180.901</ele>
        <time>1970-01-01T01:00:00Z</time>
      </trkpt>
      <trkpt lat="63.40133233" lon="10.51134867">
        <ele>180.901</ele>
        <time>1970-01-01T01:00:00Z</time>
      </trkpt>
      <trkpt lat="63.40131967" lon="10.5114195">
        <ele>181.053</ele>
        <time>1970-01-01T01:00:00Z</time>
      </trkpt>
      <trkpt lat="63.40130783" lon="10.51149133">
        <ele>181.053</ele>
        <time>1970-01-01T01:00:00Z</time>
      </trkpt>
      <trkpt lat="63.40129633" lon="10.5115635">
        <ele>181.053</ele>
        <time>1970-01-01T01:00:00Z</time>
      </trkpt>
      <trkpt lat="63.401286" lon="10.51163667">
        <ele>181.053</ele>
        <time>1970-01-01T01:00:00Z</time>
      </trkpt>
      <trkpt lat="63.40127567" lon="10.51171283">
        <ele>181.053</ele>
        <time>1970-01-01T01:00:00Z</time>
      </trkpt>
      <trkpt lat="63.40126617" lon="10.51179167">
        <ele>181.053</ele>
        <time>1970-01-01T01:00:00Z</time>
      </trkpt>
      <trkpt lat="63.40125733" lon="10.5118715">
        <ele>181.206</ele>
        <time>1970-01-01T01:00:00Z</time>
      </trkpt>
      <trkpt lat="63.4012495" lon="10.51195">
        <ele>181.206</ele>
        <time>1970-01-01T01:00:00Z</time>
      </trkpt>
      <trkpt lat="63.40124233" lon="10.51202767">
        <ele>181.206</ele>
        <time>1970-01-01T01:00:00Z</time>
      </trkpt>
      <trkpt lat="63.40123667" lon="10.51210517">
        <ele>181.206</ele>
        <time>1970-01-01T01:00:00Z</time>
      </trkpt>
      <trkpt lat="63.40123267" lon="10.51218317">
        <ele>181.358</ele>
        <time>1970-01-01T01:00:00Z</time>
      </trkpt>
      <trkpt lat="63.40123067" lon="10.51226117">
        <ele>181.358</ele>
        <time>1970-01-01T01:00:00Z</time>
      </trkpt>
      <trkpt lat="63.4012305" lon="10.5123385">
        <ele>181.358</ele>
        <time>1970-01-01T01:00:00Z</time>
      </trkpt>
      <trkpt lat="63.40123183" lon="10.51241667">
        <ele>181.358</ele>
        <time>1970-01-01T01:00:00Z</time>
      </trkpt>
      <trkpt lat="63.401234" lon="10.512496">
        <ele>181.511</ele>
        <time>1970-01-01T01:00:00Z</time>
      </trkpt>
      <trkpt lat="63.40123733" lon="10.5125765">
        <ele>181.511</ele>
        <time>1970-01-01T01:00:00Z</time>
      </trkpt>
      <trkpt lat="63.40124167" lon="10.512658">
        <ele>181.511</ele>
        <time>1970-01-01T01:00:00Z</time>
      </trkpt>
      <trkpt lat="63.401247" lon="10.51274067">
        <ele>181.511</ele>
        <time>1970-01-01T01:00:00Z</time>
      </trkpt>
      <trkpt lat="63.40125083" lon="10.51282667">
        <ele>181.663</ele>
        <time>1970-01-01T01:00:00Z</time>
      </trkpt>
      <trkpt lat="63.4012535" lon="10.51291567">
        <ele>181.663</ele>
        <time>1970-01-01T01:00:00Z</time>
      </trkpt>
      <trkpt lat="63.4012555" lon="10.513007">
        <ele>181.663</ele>
        <time>1970-01-01T01:00:00Z</time>
      </trkpt>
      <trkpt lat="63.401258" lon="10.51309917">
        <ele>181.663</ele>
        <time>1970-01-01T01:00:00Z</time>
      </trkpt>
      <trkpt lat="63.40126217" lon="10.5131925">
        <ele>181.663</ele>
        <time>1970-01-01T01:00:00Z</time>
      </trkpt>
      <trkpt lat="63.401267" lon="10.51328683">
        <ele>181.663</ele>
        <time>1970-01-01T01:00:00Z</time>
      </trkpt>
      <trkpt lat="63.40127367" lon="10.51338383">
        <ele>181.815</ele>
        <time>1970-01-01T01:00:00Z</time>
      </trkpt>
      <trkpt lat="63.40127917" lon="10.51348217">
        <ele>181.815</ele>
        <time>1970-01-01T01:00:00Z</time>
      </trkpt>
      <trkpt lat="63.40128433" lon="10.51358267">
        <ele>181.815</ele>
        <time>1970-01-01T01:00:00Z</time>
      </trkpt>
      <trkpt lat="63.40128617" lon="10.51368083">
        <ele>181.815</ele>
        <time>1970-01-01T01:00:00Z</time>
      </trkpt>
      <trkpt lat="63.40128633" lon="10.51377667">
        <ele>181.815</ele>
        <time>1970-01-01T01:00:00Z</time>
      </trkpt>
      <trkpt lat="63.401284" lon="10.5138685">
        <ele>181.815</ele>
        <time>1970-01-01T01:00:00Z</time>
      </trkpt>
      <trkpt lat="63.401283" lon="10.5139585">
        <ele>181.815</ele>
        <time>1970-01-01T01:00:00Z</time>
      </trkpt>
      <trkpt lat="63.40128333" lon="10.514045">
        <ele>181.815</ele>
        <time>1970-01-01T01:00:00Z</time>
      </trkpt>
      <trkpt lat="63.40128583" lon="10.514129">
        <ele>181.815</ele>
        <time>1970-01-01T01:00:00Z</time>
      </trkpt>
      <trkpt lat="63.40128967" lon="10.51420883">
        <ele>181.815</ele>
        <time>1970-01-01T01:00:00Z</time>
      </trkpt>
      <trkpt lat="63.40129417" lon="10.51428483">
        <ele>181.815</ele>
        <time>1970-01-01T01:00:00Z</time>
      </trkpt>
      <trkpt lat="63.40129883" lon="10.51435633">
        <ele>181.815</ele>
        <time>1970-01-01T01:00:00Z</time>
      </trkpt>
      <trkpt lat="63.40130333" lon="10.51442317">
        <ele>181.815</ele>
        <time>1970-01-01T01:00:00Z</time>
      </trkpt>
      <trkpt lat="63.401308" lon="10.514485">
        <ele>181.815</ele>
        <time>1970-01-01T01:00:00Z</time>
      </trkpt>
      <trkpt lat="63.40131317" lon="10.514544">
        <ele>181.815</ele>
        <time>1970-01-01T01:00:00Z</time>
      </trkpt>
      <trkpt lat="63.4013175" lon="10.51460183">
        <ele>181.815</ele>
        <time>1970-01-01T01:00:00Z</time>
      </trkpt>
      <trkpt lat="63.40132117" lon="10.514658">
        <ele>181.815</ele>
        <time>1970-01-01T01:00:00Z</time>
      </trkpt>
      <trkpt lat="63.401323" lon="10.51471167">
        <ele>181.815</ele>
        <time>1970-01-01T01:00:00Z</time>
      </trkpt>
      <trkpt lat="63.4013215" lon="10.514764">
        <ele>181.968</ele>
        <time>1970-01-01T01:00:00Z</time>
      </trkpt>
      <trkpt lat="63.401316" lon="10.51481633">
        <ele>181.968</ele>
        <time>1970-01-01T01:00:00Z</time>
      </trkpt>
      <trkpt lat="63.401308" lon="10.514868">
        <ele>181.968</ele>
        <time>1970-01-01T01:00:00Z</time>
      </trkpt>
      <trkpt lat="63.40130083" lon="10.514921">
        <ele>181.968</ele>
        <time>1970-01-01T01:00:00Z</time>
      </trkpt>
      <trkpt lat="63.401296" lon="10.51498233">
        <ele>181.968</ele>
        <time>1970-01-01T01:00:00Z</time>
      </trkpt>
      <trkpt lat="63.40129383" lon="10.515053">
        <ele>181.968</ele>
        <time>1970-01-01T01:00:00Z</time>
      </trkpt>
      <trkpt lat="63.4012935" lon="10.515131">
        <ele>182.12</ele>
        <time>1970-01-01T01:00:00Z</time>
      </trkpt>
      <trkpt lat="63.40129433" lon="10.51521083">
        <ele>182.12</ele>
        <time>1970-01-01T01:00:00Z</time>
      </trkpt>
      <trkpt lat="63.40129667" lon="10.51529233">
        <ele>182.12</ele>
        <time>1970-01-01T01:00:00Z</time>
      </trkpt>
      <trkpt lat="63.40129983" lon="10.51537533">
        <ele>182.12</ele>
        <time>1970-01-01T01:00:00Z</time>
      </trkpt>
      <trkpt lat="63.40130317" lon="10.51545967">
        <ele>182.273</ele>
        <time>1970-01-01T01:00:00Z</time>
      </trkpt>
      <trkpt lat="63.40130683" lon="10.51554433">
        <ele>182.273</ele>
        <time>1970-01-01T01:00:00Z</time>
      </trkpt>
      <trkpt lat="63.40131083" lon="10.51562983">
        <ele>182.273</ele>
        <time>1970-01-01T01:00:00Z</time>
      </trkpt>
      <trkpt lat="63.4013145" lon="10.51571617">
        <ele>182.273</ele>
        <time>1970-01-01T01:00:00Z</time>
      </trkpt>
      <trkpt lat="63.40131733" lon="10.51580317">
        <ele>182.273</ele>
        <time>1970-01-01T01:00:00Z</time>
      </trkpt>
      <trkpt lat="63.40131867" lon="10.51589033">
        <ele>182.273</ele>
        <time>1970-01-01T01:00:00Z</time>
      </trkpt>
      <trkpt lat="63.401318" lon="10.51597733">
        <ele>182.425</ele>
        <time>1970-01-01T01:00:00Z</time>
      </trkpt>
      <trkpt lat="63.40131683" lon="10.51606417">
        <ele>182.425</ele>
        <time>1970-01-01T01:00:00Z</time>
      </trkpt>
      <trkpt lat="63.40131483" lon="10.5161515">
        <ele>182.577</ele>
        <time>1970-01-01T01:00:00Z</time>
      </trkpt>
      <trkpt lat="63.401312" lon="10.51623917">
        <ele>182.577</ele>
        <time>1970-01-01T01:00:00Z</time>
      </trkpt>
      <trkpt lat="63.40130683" lon="10.516325">
        <ele>182.577</ele>
        <time>1970-01-01T01:00:00Z</time>
      </trkpt>
      <trkpt lat="63.40129867" lon="10.51640717">
        <ele>182.577</ele>
        <time>1970-01-01T01:00:00Z</time>
      </trkpt>
      <trkpt lat="63.40128883" lon="10.51648467">
        <ele>182.73</ele>
        <time>1970-01-01T01:00:00Z</time>
      </trkpt>
      <trkpt lat="63.40127767" lon="10.51655833">
        <ele>182.73</ele>
        <time>1970-01-01T01:00:00Z</time>
      </trkpt>
      <trkpt lat="63.40126617" lon="10.516628">
        <ele>182.882</ele>
        <time>1970-01-01T01:00:00Z</time>
      </trkpt>
      <trkpt lat="63.401254" lon="10.5166935">
        <ele>182.882</ele>
        <time>1970-01-01T01:00:00Z</time>
      </trkpt>
      <trkpt lat="63.4012425" lon="10.5167535">
        <ele>183.035</ele>
        <time>1970-01-01T01:00:00Z</time>
      </trkpt>
      <trkpt lat="63.401231" lon="10.51681033">
        <ele>183.035</ele>
        <time>1970-01-01T01:00:00Z</time>
      </trkpt>
      <trkpt lat="63.401221" lon="10.51686533">
        <ele>183.187</ele>
        <time>1970-01-01T01:00:00Z</time>
      </trkpt>
      <trkpt lat="63.40121167" lon="10.51691967">
        <ele>183.187</ele>
        <time>1970-01-01T01:00:00Z</time>
      </trkpt>
      <trkpt lat="63.4012035" lon="10.51697333">
        <ele>183.339</ele>
        <time>1970-01-01T01:00:00Z</time>
      </trkpt>
      <trkpt lat="63.40119667" lon="10.51702433">
        <ele>183.339</ele>
        <time>1970-01-01T01:00:00Z</time>
      </trkpt>
      <trkpt lat="63.4011915" lon="10.51707517">
        <ele>183.644</ele>
        <time>1970-01-01T01:00:00Z</time>
      </trkpt>
      <trkpt lat="63.40118867" lon="10.517123">
        <ele>183.644</ele>
        <time>1970-01-01T01:00:00Z</time>
      </trkpt>
      <trkpt lat="63.4011855" lon="10.51717217">
        <ele>183.797</ele>
        <time>1970-01-01T01:00:00Z</time>
      </trkpt>
      <trkpt lat="63.401185" lon="10.517224">
        <ele>183.797</ele>
        <time>1970-01-01T01:00:00Z</time>
      </trkpt>
      <trkpt lat="63.40118833" lon="10.517287">
        <ele>184.101</ele>
        <time>1970-01-01T01:00:00Z</time>
      </trkpt>
      <trkpt lat="63.401196" lon="10.51735533">
        <ele>184.101</ele>
        <time>1970-01-01T01:00:00Z</time>
      </trkpt>
      <trkpt lat="63.40120367" lon="10.51742383">
        <ele>184.406</ele>
        <time>1970-01-01T01:00:00Z</time>
      </trkpt>
      <trkpt lat="63.4012095" lon="10.51748483">
        <ele>184.406</ele>
        <time>1970-01-01T01:00:00Z</time>
      </trkpt>
      <trkpt lat="63.40121517" lon="10.5175435">
        <ele>184.863</ele>
        <time>1970-01-01T01:00:00Z</time>
      </trkpt>
      <trkpt lat="63.401222" lon="10.51760283">
        <ele>184.863</ele>
        <time>1970-01-01T01:00:00Z</time>
      </trkpt>
      <trkpt lat="63.40123217" lon="10.51766133">
        <ele>185.168</ele>
        <time>1970-01-01T01:00:00Z</time>
      </trkpt>
      <trkpt lat="63.40124333" lon="10.5177215">
        <ele>185.168</ele>
        <time>1970-01-01T01:00:00Z</time>
      </trkpt>
      <trkpt lat="63.40125417" lon="10.51778433">
        <ele>185.625</ele>
        <time>1970-01-01T01:00:00Z</time>
      </trkpt>
      <trkpt lat="63.4012625" lon="10.51785167">
        <ele>185.625</ele>
        <time>1970-01-01T01:00:00Z</time>
      </trkpt>
      <trkpt lat="63.401269" lon="10.51792067">
        <ele>186.083</ele>
        <time>1970-01-01T01:00:00Z</time>
      </trkpt>
      <trkpt lat="63.40127567" lon="10.51799083">
        <ele>186.083</ele>
        <time>1970-01-01T01:00:00Z</time>
      </trkpt>
      <trkpt lat="63.40128333" lon="10.518065">
        <ele>186.54</ele>
        <time>1970-01-01T01:00:00Z</time>
      </trkpt>
      <trkpt lat="63.4012935" lon="10.51814367">
        <ele>186.54</ele>
        <time>1970-01-01T01:00:00Z</time>
      </trkpt>
      <trkpt lat="63.40130583" lon="10.518229">
        <ele>186.845</ele>
        <time>1970-01-01T01:00:00Z</time>
      </trkpt>
      <trkpt lat="63.40132067" lon="10.518321">
        <ele>186.845</ele>
        <time>1970-01-01T01:00:00Z</time>
      </trkpt>
      <trkpt lat="63.401337" lon="10.51842017">
        <ele>187.302</ele>
        <time>1970-01-01T01:00:00Z</time>
      </trkpt>
      <trkpt lat="63.40135417" lon="10.51852467">
        <ele>187.302</ele>
        <time>1970-01-01T01:00:00Z</time>
      </trkpt>
      <trkpt lat="63.40137167" lon="10.518636">
        <ele>187.607</ele>
        <time>1970-01-01T01:00:00Z</time>
      </trkpt>
      <trkpt lat="63.40138983" lon="10.51875383">
        <ele>187.607</ele>
        <time>1970-01-01T01:00:00Z</time>
      </trkpt>
      <trkpt lat="63.4014085" lon="10.518881">
        <ele>187.911</ele>
        <time>1970-01-01T01:00:00Z</time>
      </trkpt>
      <trkpt lat="63.40142917" lon="10.51901483">
        <ele>187.911</ele>
        <time>1970-01-01T01:00:00Z</time>
      </trkpt>
      <trkpt lat="63.40145133" lon="10.51915683">
        <ele>188.064</ele>
        <time>1970-01-01T01:00:00Z</time>
      </trkpt>
      <trkpt lat="63.40147683" lon="10.519308">
        <ele>188.064</ele>
        <time>1970-01-01T01:00:00Z</time>
      </trkpt>
      <trkpt lat="63.40150483" lon="10.5194675">
        <ele>188.216</ele>
        <time>1970-01-01T01:00:00Z</time>
      </trkpt>
      <trkpt lat="63.40153583" lon="10.51963517">
        <ele>188.216</ele>
        <time>1970-01-01T01:00:00Z</time>
      </trkpt>
      <trkpt lat="63.40156867" lon="10.51980767">
        <ele>188.369</ele>
        <time>1970-01-01T01:00:00Z</time>
      </trkpt>
      <trkpt lat="63.40160517" lon="10.519985">
        <ele>188.369</ele>
        <time>1970-01-01T01:00:00Z</time>
      </trkpt>
      <trkpt lat="63.40164483" lon="10.52016583">
        <ele>188.521</ele>
        <time>1970-01-01T01:00:00Z</time>
      </trkpt>
      <trkpt lat="63.40168833" lon="10.52035">
        <ele>188.521</ele>
        <time>1970-01-01T01:00:00Z</time>
      </trkpt>
      <trkpt lat="63.40173267" lon="10.520536">
        <ele>188.369</ele>
        <time>1970-01-01T01:00:00Z</time>
      </trkpt>
      <trkpt lat="63.40177783" lon="10.52072133">
        <ele>188.369</ele>
        <time>1970-01-01T01:00:00Z</time>
      </trkpt>
      <trkpt lat="63.401824" lon="10.52090467">
        <ele>188.369</ele>
        <time>1970-01-01T01:00:00Z</time>
      </trkpt>
      <trkpt lat="63.401872" lon="10.521087">
        <ele>188.369</ele>
        <time>1970-01-01T01:00:00Z</time>
      </trkpt>
      <trkpt lat="63.4019205" lon="10.5212725">
        <ele>188.216</ele>
        <time>1970-01-01T01:00:00Z</time>
      </trkpt>
      <trkpt lat="63.401967" lon="10.52146367">
        <ele>188.216</ele>
        <time>1970-01-01T01:00:00Z</time>
      </trkpt>
      <trkpt lat="63.40200667" lon="10.52166317">
        <ele>187.911</ele>
        <time>1970-01-01T01:00:00Z</time>
      </trkpt>
      <trkpt lat="63.40204217" lon="10.52186867">
        <ele>187.911</ele>
        <time>1970-01-01T01:00:00Z</time>
      </trkpt>
      <trkpt lat="63.40207283" lon="10.52207967">
        <ele>187.607</ele>
        <time>1970-01-01T01:00:00Z</time>
      </trkpt>
      <trkpt lat="63.4021015" lon="10.52229383">
        <ele>187.607</ele>
        <time>1970-01-01T01:00:00Z</time>
      </trkpt>
      <trkpt lat="63.40212533" lon="10.52250967">
        <ele>187.302</ele>
        <time>1970-01-01T01:00:00Z</time>
      </trkpt>
      <trkpt lat="63.40214067" lon="10.52272517">
        <ele>187.302</ele>
        <time>1970-01-01T01:00:00Z</time>
      </trkpt>
      <trkpt lat="63.4021495" lon="10.52293483">
        <ele>186.692</ele>
        <time>1970-01-01T01:00:00Z</time>
      </trkpt>
      <trkpt lat="63.40215267" lon="10.52313517">
        <ele>186.692</ele>
        <time>1970-01-01T01:00:00Z</time>
      </trkpt>
      <trkpt lat="63.40215317" lon="10.52332233">
        <ele>186.235</ele>
        <time>1970-01-01T01:00:00Z</time>
      </trkpt>
      <trkpt lat="63.4021505" lon="10.5234965">
        <ele>186.235</ele>
        <time>1970-01-01T01:00:00Z</time>
      </trkpt>
      <trkpt lat="63.40214633" lon="10.5236575">
        <ele>185.625</ele>
        <time>1970-01-01T01:00:00Z</time>
      </trkpt>
      <trkpt lat="63.40214167" lon="10.52380517">
        <ele>185.625</ele>
        <time>1970-01-01T01:00:00Z</time>
      </trkpt>
      <trkpt lat="63.40213533" lon="10.52393983">
        <ele>185.016</ele>
        <time>1970-01-01T01:00:00Z</time>
      </trkpt>
      <trkpt lat="63.40212183" lon="10.52406167">
        <ele>185.016</ele>
        <time>1970-01-01T01:00:00Z</time>
      </trkpt>
      <trkpt lat="63.40209533" lon="10.52416517">
        <ele>184.406</ele>
        <time>1970-01-01T01:00:00Z</time>
      </trkpt>
      <trkpt lat="63.4020595" lon="10.5242375">
        <ele>184.406</ele>
        <time>1970-01-01T01:00:00Z</time>
      </trkpt>
      <trkpt lat="63.4020165" lon="10.52427717">
        <ele>183.797</ele>
        <time>1970-01-01T01:00:00Z</time>
      </trkpt>
      <trkpt lat="63.40196367" lon="10.52428533">
        <ele>183.797</ele>
        <time>1970-01-01T01:00:00Z</time>
      </trkpt>
      <trkpt lat="63.4019015" lon="10.52428133">
        <ele>183.187</ele>
        <time>1970-01-01T01:00:00Z</time>
      </trkpt>
      <trkpt lat="63.4018315" lon="10.524269">
        <ele>183.187</ele>
        <time>1970-01-01T01:00:00Z</time>
      </trkpt>
      <trkpt lat="63.401762" lon="10.524253">
        <ele>182.577</ele>
        <time>1970-01-01T01:00:00Z</time>
      </trkpt>
      <trkpt lat="63.401691" lon="10.52422467">
        <ele>182.577</ele>
        <time>1970-01-01T01:00:00Z</time>
      </trkpt>
      <trkpt lat="63.40161733" lon="10.5241855">
        <ele>181.968</ele>
        <time>1970-01-01T01:00:00Z</time>
      </trkpt>
      <trkpt lat="63.40154083" lon="10.52413667">
        <ele>181.968</ele>
        <time>1970-01-01T01:00:00Z</time>
      </trkpt>
      <trkpt lat="63.4014605" lon="10.52408283">
        <ele>181.358</ele>
        <time>1970-01-01T01:00:00Z</time>
      </trkpt>
      <trkpt lat="63.4013765" lon="10.52402333">
        <ele>181.358</ele>
        <time>1970-01-01T01:00:00Z</time>
      </trkpt>
      <trkpt lat="63.401289" lon="10.52396133">
        <ele>180.749</ele>
        <time>1970-01-01T01:00:00Z</time>
      </trkpt>
      <trkpt lat="63.40119983" lon="10.523897">
        <ele>180.749</ele>
        <time>1970-01-01T01:00:00Z</time>
      </trkpt>
      <trkpt lat="63.401111" lon="10.52383133">
        <ele>180.139</ele>
        <time>1970-01-01T01:00:00Z</time>
      </trkpt>
      <trkpt lat="63.4010235" lon="10.52376417">
        <ele>180.139</ele>
        <time>1970-01-01T01:00:00Z</time>
      </trkpt>
      <trkpt lat="63.40093667" lon="10.523697">
        <ele>179.529</ele>
        <time>1970-01-01T01:00:00Z</time>
      </trkpt>
      <trkpt lat="63.40085017" lon="10.5236315">
        <ele>179.529</ele>
        <time>1970-01-01T01:00:00Z</time>
      </trkpt>
      <trkpt lat="63.4007645" lon="10.52356667">
        <ele>178.92</ele>
        <time>1970-01-01T01:00:00Z</time>
      </trkpt>
      <trkpt lat="63.4006795" lon="10.52350083">
        <ele>178.92</ele>
        <time>1970-01-01T01:00:00Z</time>
      </trkpt>
      <trkpt lat="63.40059533" lon="10.52343517">
        <ele>178.158</ele>
        <time>1970-01-01T01:00:00Z</time>
      </trkpt>
      <trkpt lat="63.4005115" lon="10.52337217">
        <ele>178.158</ele>
        <time>1970-01-01T01:00:00Z</time>
      </trkpt>
      <trkpt lat="63.40042833" lon="10.52331267">
        <ele>177.548</ele>
        <time>1970-01-01T01:00:00Z</time>
      </trkpt>
      <trkpt lat="63.40034583" lon="10.523256">
        <ele>177.548</ele>
        <time>1970-01-01T01:00:00Z</time>
      </trkpt>
      <trkpt lat="63.40026467" lon="10.52320333">
        <ele>176.939</ele>
        <time>1970-01-01T01:00:00Z</time>
      </trkpt>
      <trkpt lat="63.400186" lon="10.52315633">
        <ele>176.939</ele>
        <time>1970-01-01T01:00:00Z</time>
      </trkpt>
      <trkpt lat="63.40011017" lon="10.5231265">
        <ele>176.177</ele>
        <time>1970-01-01T01:00:00Z</time>
      </trkpt>
      <trkpt lat="63.4000365" lon="10.52312683">
        <ele>176.177</ele>
        <time>1970-01-01T01:00:00Z</time>
      </trkpt>
      <trkpt lat="63.39996583" lon="10.52315833">
        <ele>175.415</ele>
        <time>1970-01-01T01:00:00Z</time>
      </trkpt>
      <trkpt lat="63.39989483" lon="10.52325283">
        <ele>175.415</ele>
        <time>1970-01-01T01:00:00Z</time>
      </trkpt>
      <trkpt lat="63.399834" lon="10.52338883">
        <ele>174.805</ele>
        <time>1970-01-01T01:00:00Z</time>
      </trkpt>
      <trkpt lat="63.39978383" lon="10.5235695">
        <ele>174.805</ele>
        <time>1970-01-01T01:00:00Z</time>
      </trkpt>
      <trkpt lat="63.39974467" lon="10.5237435">
        <ele>174.195</ele>
        <time>1970-01-01T01:00:00Z</time>
      </trkpt>
      <trkpt lat="63.3997045" lon="10.52391883">
        <ele>174.195</ele>
        <time>1970-01-01T01:00:00Z</time>
      </trkpt>
      <trkpt lat="63.399655" lon="10.524081">
        <ele>173.586</ele>
        <time>1970-01-01T01:00:00Z</time>
      </trkpt>
      <trkpt lat="63.39959567" lon="10.52422917">
        <ele>173.586</ele>
        <time>1970-01-01T01:00:00Z</time>
      </trkpt>
      <trkpt lat="63.39952483" lon="10.52435267">
        <ele>172.976</ele>
        <time>1970-01-01T01:00:00Z</time>
      </trkpt>
      <trkpt lat="63.3994455" lon="10.52445117">
        <ele>172.976</ele>
        <time>1970-01-01T01:00:00Z</time>
      </trkpt>
      <trkpt lat="63.39936217" lon="10.5245245">
        <ele>172.366</ele>
        <time>1970-01-01T01:00:00Z</time>
      </trkpt>
      <trkpt lat="63.399279" lon="10.52457317">
        <ele>172.366</ele>
        <time>1970-01-01T01:00:00Z</time>
      </trkpt>
      <trkpt lat="63.3991975" lon="10.5246">
        <ele>171.757</ele>
        <time>1970-01-01T01:00:00Z</time>
      </trkpt>
      <trkpt lat="63.39912" lon="10.52460267">
        <ele>171.757</ele>
        <time>1970-01-01T01:00:00Z</time>
      </trkpt>
      <trkpt lat="63.39905633" lon="10.52458017">
        <ele>171.147</ele>
        <time>1970-01-01T01:00:00Z</time>
      </trkpt>
      <trkpt lat="63.39900083" lon="10.52454333">
        <ele>171.147</ele>
        <time>1970-01-01T01:00:00Z</time>
      </trkpt>
      <trkpt lat="63.3989535" lon="10.52449733">
        <ele>170.538</ele>
        <time>1970-01-01T01:00:00Z</time>
      </trkpt>
      <trkpt lat="63.39890367" lon="10.52445183">
        <ele>170.538</ele>
        <time>1970-01-01T01:00:00Z</time>
      </trkpt>
      <trkpt lat="63.3988595" lon="10.52439983">
        <ele>169.928</ele>
        <time>1970-01-01T01:00:00Z</time>
      </trkpt>
      <trkpt lat="63.3988175" lon="10.5243495">
        <ele>169.928</ele>
        <time>1970-01-01T01:00:00Z</time>
      </trkpt>
      <trkpt lat="63.39877667" lon="10.52430233">
        <ele>169.318</ele>
        <time>1970-01-01T01:00:00Z</time>
      </trkpt>
      <trkpt lat="63.39873633" lon="10.52425667">
        <ele>169.318</ele>
        <time>1970-01-01T01:00:00Z</time>
      </trkpt>
      <trkpt lat="63.39869667" lon="10.5242105">
        <ele>168.861</ele>
        <time>1970-01-01T01:00:00Z</time>
      </trkpt>
      <trkpt lat="63.39865717" lon="10.524164">
        <ele>168.861</ele>
        <time>1970-01-01T01:00:00Z</time>
      </trkpt>
      <trkpt lat="63.39861783" lon="10.5241195">
        <ele>168.252</ele>
        <time>1970-01-01T01:00:00Z</time>
      </trkpt>
      <trkpt lat="63.39857967" lon="10.52407417">
        <ele>168.252</ele>
        <time>1970-01-01T01:00:00Z</time>
      </trkpt>
      <trkpt lat="63.39854217" lon="10.52402733">
        <ele>167.794</ele>
        <time>1970-01-01T01:00:00Z</time>
      </trkpt>
      <trkpt lat="63.39850433" lon="10.52398067">
        <ele>167.794</ele>
        <time>1970-01-01T01:00:00Z</time>
      </trkpt>
      <trkpt lat="63.39846667" lon="10.52393617">
        <ele>167.337</ele>
        <time>1970-01-01T01:00:00Z</time>
      </trkpt>
      <trkpt lat="63.39842983" lon="10.523895">
        <ele>167.337</ele>
        <time>1970-01-01T01:00:00Z</time>
      </trkpt>
      <trkpt lat="63.39839483" lon="10.523856">
        <ele>167.032</ele>
        <time>1970-01-01T01:00:00Z</time>
      </trkpt>
      <trkpt lat="63.3983605" lon="10.52381983">
        <ele>167.032</ele>
        <time>1970-01-01T01:00:00Z</time>
      </trkpt>
      <trkpt lat="63.3983285" lon="10.52379083">
        <ele>166.728</ele>
        <time>1970-01-01T01:00:00Z</time>
      </trkpt>
      <trkpt lat="63.398298" lon="10.52376933">
        <ele>166.728</ele>
        <time>1970-01-01T01:00:00Z</time>
      </trkpt>
      <trkpt lat="63.398267" lon="10.5237545">
        <ele>166.575</ele>
        <time>1970-01-01T01:00:00Z</time>
      </trkpt>
      <trkpt lat="63.3982345" lon="10.5237405">
        <ele>166.575</ele>
        <time>1970-01-01T01:00:00Z</time>
      </trkpt>
      <trkpt lat="63.398201" lon="10.52373183">
        <ele>166.423</ele>
        <time>1970-01-01T01:00:00Z</time>
      </trkpt>
      <trkpt lat="63.39816783" lon="10.52373417">
        <ele>166.423</ele>
        <time>1970-01-01T01:00:00Z</time>
      </trkpt>
      <trkpt lat="63.39813667" lon="10.52375017">
        <ele>166.27</ele>
        <time>1970-01-01T01:00:00Z</time>
      </trkpt>
      <trkpt lat="63.398106" lon="10.523778">
        <ele>166.27</ele>
        <time>1970-01-01T01:00:00Z</time>
      </trkpt>
      <trkpt lat="63.39807617" lon="10.52381283">
        <ele>166.118</ele>
        <time>1970-01-01T01:00:00Z</time>
      </trkpt>
      <trkpt lat="63.3980455" lon="10.52385617">
        <ele>166.118</ele>
        <time>1970-01-01T01:00:00Z</time>
      </trkpt>
      <trkpt lat="63.39801533" lon="10.5239055">
        <ele>165.966</ele>
        <time>1970-01-01T01:00:00Z</time>
      </trkpt>
      <trkpt lat="63.39798467" lon="10.52395817">
        <ele>165.966</ele>
        <time>1970-01-01T01:00:00Z</time>
      </trkpt>
      <trkpt lat="63.39795333" lon="10.5240125">
        <ele>165.813</ele>
        <time>1970-01-01T01:00:00Z</time>
      </trkpt>
      <trkpt lat="63.39791933" lon="10.52406867">
        <ele>165.813</ele>
        <time>1970-01-01T01:00:00Z</time>
      </trkpt>
      <trkpt lat="63.397883" lon="10.52412483">
        <ele>165.661</ele>
        <time>1970-01-01T01:00:00Z</time>
      </trkpt>
      <trkpt lat="63.39784333" lon="10.524175">
        <ele>165.661</ele>
        <time>1970-01-01T01:00:00Z</time>
      </trkpt>
      <trkpt lat="63.3978005" lon="10.52421567">
        <ele>165.508</ele>
        <time>1970-01-01T01:00:00Z</time>
      </trkpt>
      <trkpt lat="63.39775583" lon="10.52424833">
        <ele>165.508</ele>
        <time>1970-01-01T01:00:00Z</time>
      </trkpt>
      <trkpt lat="63.39771267" lon="10.52427233">
        <ele>165.356</ele>
        <time>1970-01-01T01:00:00Z</time>
      </trkpt>
      <trkpt lat="63.39767167" lon="10.524292">
        <ele>165.356</ele>
        <time>1970-01-01T01:00:00Z</time>
      </trkpt>
      <trkpt lat="63.39763333" lon="10.52430767">
        <ele>165.356</ele>
        <time>1970-01-01T01:00:00Z</time>
      </trkpt>
      <trkpt lat="63.39759667" lon="10.52432567">
        <ele>165.356</ele>
        <time>1970-01-01T01:00:00Z</time>
      </trkpt>
      <trkpt lat="63.39756317" lon="10.52434433">
        <ele>165.356</ele>
        <time>1970-01-01T01:00:00Z</time>
      </trkpt>
      <trkpt lat="63.397532" lon="10.5243635">
        <ele>165.356</ele>
        <time>1970-01-01T01:00:00Z</time>
      </trkpt>
      <trkpt lat="63.39750117" lon="10.5243765">
        <ele>165.204</ele>
        <time>1970-01-01T01:00:00Z</time>
      </trkpt>
      <trkpt lat="63.397469" lon="10.524388">
        <ele>165.204</ele>
        <time>1970-01-01T01:00:00Z</time>
      </trkpt>
      <trkpt lat="63.39743417" lon="10.52439783">
        <ele>165.204</ele>
        <time>1970-01-01T01:00:00Z</time>
      </trkpt>
      <trkpt lat="63.39739567" lon="10.52440967">
        <ele>165.204</ele>
        <time>1970-01-01T01:00:00Z</time>
      </trkpt>
      <trkpt lat="63.397354" lon="10.52442117">
        <ele>165.204</ele>
        <time>1970-01-01T01:00:00Z</time>
      </trkpt>
      <trkpt lat="63.39730983" lon="10.52443417">
        <ele>165.204</ele>
        <time>1970-01-01T01:00:00Z</time>
      </trkpt>
      <trkpt lat="63.39726467" lon="10.52444967">
        <ele>165.204</ele>
        <time>1970-01-01T01:00:00Z</time>
      </trkpt>
      <trkpt lat="63.397217" lon="10.5244655">
        <ele>165.204</ele>
        <time>1970-01-01T01:00:00Z</time>
      </trkpt>
      <trkpt lat="63.39716683" lon="10.52448">
        <ele>165.051</ele>
        <time>1970-01-01T01:00:00Z</time>
      </trkpt>
      <trkpt lat="63.39711367" lon="10.52449383">
        <ele>165.051</ele>
        <time>1970-01-01T01:00:00Z</time>
      </trkpt>
      <trkpt lat="63.397058" lon="10.52450933">
        <ele>165.051</ele>
        <time>1970-01-01T01:00:00Z</time>
      </trkpt>
      <trkpt lat="63.39700017" lon="10.5245275">
        <ele>165.051</ele>
        <time>1970-01-01T01:00:00Z</time>
      </trkpt>
      <trkpt lat="63.39694" lon="10.524547">
        <ele>164.899</ele>
        <time>1970-01-01T01:00:00Z</time>
      </trkpt>
      <trkpt lat="63.39687733" lon="10.52456767">
        <ele>164.899</ele>
        <time>1970-01-01T01:00:00Z</time>
      </trkpt>
      <trkpt lat="63.3968125" lon="10.52459033">
        <ele>164.746</ele>
        <time>1970-01-01T01:00:00Z</time>
      </trkpt>
      <trkpt lat="63.39674667" lon="10.5246135">
        <ele>164.746</ele>
        <time>1970-01-01T01:00:00Z</time>
      </trkpt>
      <trkpt lat="63.39668017" lon="10.52463717">
        <ele>164.594</ele>
        <time>1970-01-01T01:00:00Z</time>
      </trkpt>
      <trkpt lat="63.39661283" lon="10.52465967">
        <ele>164.594</ele>
        <time>1970-01-01T01:00:00Z</time>
      </trkpt>
      <trkpt lat="63.39654583" lon="10.52468267">
        <ele>164.442</ele>
        <time>1970-01-01T01:00:00Z</time>
      </trkpt>
      <trkpt lat="63.3964795" lon="10.52470467">
        <ele>164.442</ele>
        <time>1970-01-01T01:00:00Z</time>
      </trkpt>
      <trkpt lat="63.3964145" lon="10.5247265">
        <ele>164.289</ele>
        <time>1970-01-01T01:00:00Z</time>
      </trkpt>
      <trkpt lat="63.3963505" lon="10.52474617">
        <ele>164.289</ele>
        <time>1970-01-01T01:00:00Z</time>
      </trkpt>
      <trkpt lat="63.39628733" lon="10.52476433">
        <ele>164.137</ele>
        <time>1970-01-01T01:00:00Z</time>
      </trkpt>
      <trkpt lat="63.39622567" lon="10.52478083">
        <ele>164.137</ele>
        <time>1970-01-01T01:00:00Z</time>
      </trkpt>
      <trkpt lat="63.39616583" lon="10.52479417">
        <ele>163.832</ele>
        <time>1970-01-01T01:00:00Z</time>
      </trkpt>
      <trkpt lat="63.396108" lon="10.524804">
        <ele>163.832</ele>
        <time>1970-01-01T01:00:00Z</time>
      </trkpt>
      <trkpt lat="63.39605117" lon="10.52481217">
        <ele>163.68</ele>
        <time>1970-01-01T01:00:00Z</time>
      </trkpt>
      <trkpt lat="63.395995" lon="10.52482283">
        <ele>163.68</ele>
        <time>1970-01-01T01:00:00Z</time>
      </trkpt>
      <trkpt lat="63.395939" lon="10.52483567">
        <ele>163.375</ele>
        <time>1970-01-01T01:00:00Z</time>
      </trkpt>
      <trkpt lat="63.39588483" lon="10.524849">
        <ele>163.375</ele>
        <time>1970-01-01T01:00:00Z</time>
      </trkpt>
      <trkpt lat="63.39583333" lon="10.524861">
        <ele>163.222</ele>
        <time>1970-01-01T01:00:00Z</time>
      </trkpt>
      <trkpt lat="63.39578467" lon="10.52487367">
        <ele>163.222</ele>
        <time>1970-01-01T01:00:00Z</time>
      </trkpt>
      <trkpt lat="63.39573883" lon="10.5248885">
        <ele>162.918</ele>
        <time>1970-01-01T01:00:00Z</time>
      </trkpt>
      <trkpt lat="63.3956985" lon="10.5249115">
        <ele>162.918</ele>
        <time>1970-01-01T01:00:00Z</time>
      </trkpt>
      <trkpt lat="63.39566117" lon="10.5249345">
        <ele>162.765</ele>
        <time>1970-01-01T01:00:00Z</time>
      </trkpt>
      <trkpt lat="63.39562483" lon="10.52495783">
        <ele>162.765</ele>
        <time>1970-01-01T01:00:00Z</time>
      </trkpt>
      <trkpt lat="63.3955865" lon="10.524974">
        <ele>162.46</ele>
        <time>1970-01-01T01:00:00Z</time>
      </trkpt>
      <trkpt lat="63.39555033" lon="10.52499417">
        <ele>162.46</ele>
        <time>1970-01-01T01:00:00Z</time>
      </trkpt>
      <trkpt lat="63.39551683" lon="10.525022">
        <ele>162.308</ele>
        <time>1970-01-01T01:00:00Z</time>
      </trkpt>
      <trkpt lat="63.39548367" lon="10.52505683">
        <ele>162.308</ele>
        <time>1970-01-01T01:00:00Z</time>
      </trkpt>
      <trkpt lat="63.3954505" lon="10.52509583">
        <ele>162.156</ele>
        <time>1970-01-01T01:00:00Z</time>
      </trkpt>
      <trkpt lat="63.39541767" lon="10.52513867">
        <ele>162.156</ele>
        <time>1970-01-01T01:00:00Z</time>
      </trkpt>
      <trkpt lat="63.3953885" lon="10.52519183">
        <ele>162.003</ele>
        <time>1970-01-01T01:00:00Z</time>
      </trkpt>
      <trkpt lat="63.39536183" lon="10.52525533">
        <ele>162.003</ele>
        <time>1970-01-01T01:00:00Z</time>
      </trkpt>
      <trkpt lat="63.3953385" lon="10.52532567">
        <ele>161.851</ele>
        <time>1970-01-01T01:00:00Z</time>
      </trkpt>
      <trkpt lat="63.39531767" lon="10.52539917">
        <ele>161.851</ele>
        <time>1970-01-01T01:00:00Z</time>
      </trkpt>
      <trkpt lat="63.3952985" lon="10.52547267">
        <ele>161.698</ele>
        <time>1970-01-01T01:00:00Z</time>
      </trkpt>
      <trkpt lat="63.39528" lon="10.525546">
        <ele>161.698</ele>
        <time>1970-01-01T01:00:00Z</time>
      </trkpt>
      <trkpt lat="63.39526083" lon="10.525619">
        <ele>161.546</ele>
        <time>1970-01-01T01:00:00Z</time>
      </trkpt>
      <trkpt lat="63.3952425" lon="10.52569417">
        <ele>161.546</ele>
        <time>1970-01-01T01:00:00Z</time>
      </trkpt>
      <trkpt lat="63.39522467" lon="10.52577117">
        <ele>161.546</ele>
        <time>1970-01-01T01:00:00Z</time>
      </trkpt>
      <trkpt lat="63.39520833" lon="10.52585">
        <ele>161.546</ele>
        <time>1970-01-01T01:00:00Z</time>
      </trkpt>
      <trkpt lat="63.395193" lon="10.52592983">
        <ele>161.394</ele>
        <time>1970-01-01T01:00:00Z</time>
      </trkpt>
      <trkpt lat="63.39517883" lon="10.52600833">
        <ele>161.394</ele>
        <time>1970-01-01T01:00:00Z</time>
      </trkpt>
      <trkpt lat="63.39516667" lon="10.52608667">
        <ele>161.241</ele>
        <time>1970-01-01T01:00:00Z</time>
      </trkpt>
      <trkpt lat="63.39515717" lon="10.52616567">
        <ele>161.241</ele>
        <time>1970-01-01T01:00:00Z</time>
      </trkpt>
      <trkpt lat="63.3951505" lon="10.52624633">
        <ele>161.241</ele>
        <time>1970-01-01T01:00:00Z</time>
      </trkpt>
      <trkpt lat="63.3951475" lon="10.52632767">
        <ele>161.241</ele>
        <time>1970-01-01T01:00:00Z</time>
      </trkpt>
      <trkpt lat="63.39514817" lon="10.52640883">
        <ele>161.089</ele>
        <time>1970-01-01T01:00:00Z</time>
      </trkpt>
      <trkpt lat="63.39515333" lon="10.52648983">
        <ele>161.089</ele>
        <time>1970-01-01T01:00:00Z</time>
      </trkpt>
      <trkpt lat="63.3951615" lon="10.52656967">
        <ele>161.089</ele>
        <time>1970-01-01T01:00:00Z</time>
      </trkpt>
      <trkpt lat="63.395172" lon="10.52664833">
        <ele>161.089</ele>
        <time>1970-01-01T01:00:00Z</time>
      </trkpt>
      <trkpt lat="63.395184" lon="10.526725">
        <ele>160.936</ele>
        <time>1970-01-01T01:00:00Z</time>
      </trkpt>
      <trkpt lat="63.395198" lon="10.52679983">
        <ele>160.936</ele>
        <time>1970-01-01T01:00:00Z</time>
      </trkpt>
      <trkpt lat="63.39521333" lon="10.52687267">
        <ele>160.936</ele>
        <time>1970-01-01T01:00:00Z</time>
      </trkpt>
      <trkpt lat="63.39523017" lon="10.526943">
        <ele>160.936</ele>
        <time>1970-01-01T01:00:00Z</time>
      </trkpt>
      <trkpt lat="63.39524833" lon="10.52701133">
        <ele>160.784</ele>
        <time>1970-01-01T01:00:00Z</time>
      </trkpt>
      <trkpt lat="63.395268" lon="10.52707733">
        <ele>160.784</ele>
        <time>1970-01-01T01:00:00Z</time>
      </trkpt>
      <trkpt lat="63.395289" lon="10.52714183">
        <ele>160.784</ele>
        <time>1970-01-01T01:00:00Z</time>
      </trkpt>
      <trkpt lat="63.3953115" lon="10.52720483">
        <ele>160.784</ele>
        <time>1970-01-01T01:00:00Z</time>
      </trkpt>
      <trkpt lat="63.3953345" lon="10.5272665">
        <ele>160.632</ele>
        <time>1970-01-01T01:00:00Z</time>
      </trkpt>
      <trkpt lat="63.39535783" lon="10.527328">
        <ele>160.632</ele>
        <time>1970-01-01T01:00:00Z</time>
      </trkpt>
      <trkpt lat="63.3953805" lon="10.52739033">
        <ele>160.632</ele>
        <time>1970-01-01T01:00:00Z</time>
      </trkpt>
      <trkpt lat="63.39540233" lon="10.527454">
        <ele>160.632</ele>
        <time>1970-01-01T01:00:00Z</time>
      </trkpt>
      <trkpt lat="63.395425" lon="10.5275175">
        <ele>160.632</ele>
        <time>1970-01-01T01:00:00Z</time>
      </trkpt>
      <trkpt lat="63.39544883" lon="10.52758067">
        <ele>160.632</ele>
        <time>1970-01-01T01:00:00Z</time>
      </trkpt>
      <trkpt lat="63.39547383" lon="10.52764267">
        <ele>160.479</ele>
        <time>1970-01-01T01:00:00Z</time>
      </trkpt>
      <trkpt lat="63.39549833" lon="10.52770517">
        <ele>160.479</ele>
        <time>1970-01-01T01:00:00Z</time>
      </trkpt>
      <trkpt lat="63.39552267" lon="10.527768">
        <ele>160.479</ele>
        <time>1970-01-01T01:00:00Z</time>
      </trkpt>
      <trkpt lat="63.39554717" lon="10.5278305">
        <ele>160.479</ele>
        <time>1970-01-01T01:00:00Z</time>
      </trkpt>
      <trkpt lat="63.3955715" lon="10.52789267">
        <ele>160.479</ele>
        <time>1970-01-01T01:00:00Z</time>
      </trkpt>
      <trkpt lat="63.39559567" lon="10.52795267">
        <ele>160.479</ele>
        <time>1970-01-01T01:00:00Z</time>
      </trkpt>
      <trkpt lat="63.39561833" lon="10.52801317">
        <ele>160.479</ele>
        <time>1970-01-01T01:00:00Z</time>
      </trkpt>
      <trkpt lat="63.39564067" lon="10.52807483">
        <ele>160.479</ele>
        <time>1970-01-01T01:00:00Z</time>
      </trkpt>
      <trkpt lat="63.39566217" lon="10.52813817">
        <ele>160.632</ele>
        <time>1970-01-01T01:00:00Z</time>
      </trkpt>
      <trkpt lat="63.39568383" lon="10.52820067">
        <ele>160.632</ele>
        <time>1970-01-01T01:00:00Z</time>
      </trkpt>
      <trkpt lat="63.39570517" lon="10.52826183">
        <ele>160.632</ele>
        <time>1970-01-01T01:00:00Z</time>
      </trkpt>
      <trkpt lat="63.39572883" lon="10.528323">
        <ele>160.632</ele>
        <time>1970-01-01T01:00:00Z</time>
      </trkpt>
      <trkpt lat="63.39575433" lon="10.52838567">
        <ele>160.784</ele>
        <time>1970-01-01T01:00:00Z</time>
      </trkpt>
      <trkpt lat="63.39578183" lon="10.528452">
        <ele>160.784</ele>
        <time>1970-01-01T01:00:00Z</time>
      </trkpt>
      <trkpt lat="63.395809" lon="10.52852283">
        <ele>160.936</ele>
        <time>1970-01-01T01:00:00Z</time>
      </trkpt>
      <trkpt lat="63.39583583" lon="10.528597">
        <ele>160.936</ele>
        <time>1970-01-01T01:00:00Z</time>
      </trkpt>
      <trkpt lat="63.39586083" lon="10.52867317">
        <ele>160.936</ele>
        <time>1970-01-01T01:00:00Z</time>
      </trkpt>
      <trkpt lat="63.39588533" lon="10.52875033">
        <ele>160.936</ele>
        <time>1970-01-01T01:00:00Z</time>
      </trkpt>
      <trkpt lat="63.39590933" lon="10.52883083">
        <ele>161.089</ele>
        <time>1970-01-01T01:00:00Z</time>
      </trkpt>
      <trkpt lat="63.3959335" lon="10.528914">
        <ele>161.089</ele>
        <time>1970-01-01T01:00:00Z</time>
      </trkpt>
      <trkpt lat="63.39595933" lon="10.528998">
        <ele>161.241</ele>
        <time>1970-01-01T01:00:00Z</time>
      </trkpt>
      <trkpt lat="63.39598733" lon="10.529082">
        <ele>161.241</ele>
        <time>1970-01-01T01:00:00Z</time>
      </trkpt>
      <trkpt lat="63.39601783" lon="10.52916383">
        <ele>161.394</ele>
        <time>1970-01-01T01:00:00Z</time>
      </trkpt>
      <trkpt lat="63.3960505" lon="10.5292435">
        <ele>161.394</ele>
        <time>1970-01-01T01:00:00Z</time>
      </trkpt>
      <trkpt lat="63.39608267" lon="10.52932367">
        <ele>161.546</ele>
        <time>1970-01-01T01:00:00Z</time>
      </trkpt>
      <trkpt lat="63.39611283" lon="10.52940483">
        <ele>161.546</ele>
        <time>1970-01-01T01:00:00Z</time>
      </trkpt>
      <trkpt lat="63.39613983" lon="10.52948733">
        <ele>161.698</ele>
        <time>1970-01-01T01:00:00Z</time>
      </trkpt>
      <trkpt lat="63.39616533" lon="10.52956767">
        <ele>161.698</ele>
        <time>1970-01-01T01:00:00Z</time>
      </trkpt>
      <trkpt lat="63.39619167" lon="10.52964517">
        <ele>162.003</ele>
        <time>1970-01-01T01:00:00Z</time>
      </trkpt>
      <trkpt lat="63.396217" lon="10.529721">
        <ele>162.003</ele>
        <time>1970-01-01T01:00:00Z</time>
      </trkpt>
      <trkpt lat="63.39624067" lon="10.52979667">
        <ele>162.156</ele>
        <time>1970-01-01T01:00:00Z</time>
      </trkpt>
      <trkpt lat="63.3962625" lon="10.529873">
        <ele>162.156</ele>
        <time>1970-01-01T01:00:00Z</time>
      </trkpt>
      <trkpt lat="63.39628433" lon="10.52994783">
        <ele>162.46</ele>
        <time>1970-01-01T01:00:00Z</time>
      </trkpt>
      <trkpt lat="63.39630517" lon="10.53002217">
        <ele>162.46</ele>
        <time>1970-01-01T01:00:00Z</time>
      </trkpt>
      <trkpt lat="63.39632533" lon="10.530096">
        <ele>162.765</ele>
        <time>1970-01-01T01:00:00Z</time>
      </trkpt>
      <trkpt lat="63.39634317" lon="10.530172">
        <ele>162.765</ele>
        <time>1970-01-01T01:00:00Z</time>
      </trkpt>
      <trkpt lat="63.39636" lon="10.53024867">
        <ele>163.07</ele>
        <time>1970-01-01T01:00:00Z</time>
      </trkpt>
      <trkpt lat="63.39637533" lon="10.53032683">
        <ele>163.07</ele>
        <time>1970-01-01T01:00:00Z</time>
      </trkpt>
      <trkpt lat="63.39638983" lon="10.53040633">
        <ele>163.375</ele>
        <time>1970-01-01T01:00:00Z</time>
      </trkpt>
      <trkpt lat="63.39640283" lon="10.53048717">
        <ele>163.375</ele>
        <time>1970-01-01T01:00:00Z</time>
      </trkpt>
      <trkpt lat="63.39641467" lon="10.53056817">
        <ele>163.527</ele>
        <time>1970-01-01T01:00:00Z</time>
      </trkpt>
      <trkpt lat="63.39642583" lon="10.53064883">
        <ele>163.527</ele>
        <time>1970-01-01T01:00:00Z</time>
      </trkpt>
      <trkpt lat="63.39643833" lon="10.53072733">
        <ele>163.832</ele>
        <time>1970-01-01T01:00:00Z</time>
      </trkpt>
      <trkpt lat="63.39645217" lon="10.530804">
        <ele>163.832</ele>
        <time>1970-01-01T01:00:00Z</time>
      </trkpt>
      <trkpt lat="63.39646683" lon="10.53087933">
        <ele>164.137</ele>
        <time>1970-01-01T01:00:00Z</time>
      </trkpt>
      <trkpt lat="63.396481" lon="10.5309545">
        <ele>164.137</ele>
        <time>1970-01-01T01:00:00Z</time>
      </trkpt>
      <trkpt lat="63.39649367" lon="10.53102983">
        <ele>164.289</ele>
        <time>1970-01-01T01:00:00Z</time>
      </trkpt>
      <trkpt lat="63.39650533" lon="10.53110467">
        <ele>164.289</ele>
        <time>1970-01-01T01:00:00Z</time>
      </trkpt>
      <trkpt lat="63.396517" lon="10.53117867">
        <ele>164.594</ele>
        <time>1970-01-01T01:00:00Z</time>
      </trkpt>
      <trkpt lat="63.39653" lon="10.5312515">
        <ele>164.594</ele>
        <time>1970-01-01T01:00:00Z</time>
      </trkpt>
      <trkpt lat="63.39654383" lon="10.53132367">
        <ele>164.899</ele>
        <time>1970-01-01T01:00:00Z</time>
      </trkpt>
      <trkpt lat="63.39655733" lon="10.53139667">
        <ele>164.899</ele>
        <time>1970-01-01T01:00:00Z</time>
      </trkpt>
      <trkpt lat="63.3965705" lon="10.531471">
        <ele>165.051</ele>
        <time>1970-01-01T01:00:00Z</time>
      </trkpt>
      <trkpt lat="63.39658617" lon="10.531544">
        <ele>165.051</ele>
        <time>1970-01-01T01:00:00Z</time>
      </trkpt>
      <trkpt lat="63.3966025" lon="10.5316155">
        <ele>165.356</ele>
        <time>1970-01-01T01:00:00Z</time>
      </trkpt>
      <trkpt lat="63.39661767" lon="10.5316855">
        <ele>165.356</ele>
        <time>1970-01-01T01:00:00Z</time>
      </trkpt>
      <trkpt lat="63.3966295" lon="10.53175517">
        <ele>165.661</ele>
        <time>1970-01-01T01:00:00Z</time>
      </trkpt>
      <trkpt lat="63.39664083" lon="10.53182367">
        <ele>165.661</ele>
        <time>1970-01-01T01:00:00Z</time>
      </trkpt>
      <trkpt lat="63.39665383" lon="10.53188933">
        <ele>165.966</ele>
        <time>1970-01-01T01:00:00Z</time>
      </trkpt>
      <trkpt lat="63.39666833" lon="10.53195217">
        <ele>165.966</ele>
        <time>1970-01-01T01:00:00Z</time>
      </trkpt>
      <trkpt lat="63.39668317" lon="10.532013">
        <ele>166.27</ele>
        <time>1970-01-01T01:00:00Z</time>
      </trkpt>
      <trkpt lat="63.39669717" lon="10.53207333">
        <ele>166.27</ele>
        <time>1970-01-01T01:00:00Z</time>
      </trkpt>
      <trkpt lat="63.39671067" lon="10.5321335">
        <ele>166.575</ele>
        <time>1970-01-01T01:00:00Z</time>
      </trkpt>
      <trkpt lat="63.3967245" lon="10.5321925">
        <ele>166.575</ele>
        <time>1970-01-01T01:00:00Z</time>
      </trkpt>
      <trkpt lat="63.39673883" lon="10.53225">
        <ele>166.88</ele>
        <time>1970-01-01T01:00:00Z</time>
      </trkpt>
      <trkpt lat="63.39675267" lon="10.53230517">
        <ele>166.88</ele>
        <time>1970-01-01T01:00:00Z</time>
      </trkpt>
      <trkpt lat="63.3967665" lon="10.53235767">
        <ele>167.185</ele>
        <time>1970-01-01T01:00:00Z</time>
      </trkpt>
      <trkpt lat="63.39678117" lon="10.53240633">
        <ele>167.185</ele>
        <time>1970-01-01T01:00:00Z</time>
      </trkpt>
      <trkpt lat="63.39679667" lon="10.53245383">
        <ele>167.49</ele>
        <time>1970-01-01T01:00:00Z</time>
      </trkpt>
      <trkpt lat="63.3968125" lon="10.53249967">
        <ele>167.49</ele>
        <time>1970-01-01T01:00:00Z</time>
      </trkpt>
      <trkpt lat="63.3968305" lon="10.532548">
        <ele>167.794</ele>
        <time>1970-01-01T01:00:00Z</time>
      </trkpt>
      <trkpt lat="63.39685033" lon="10.53259717">
        <ele>167.794</ele>
        <time>1970-01-01T01:00:00Z</time>
      </trkpt>
      <trkpt lat="63.3968705" lon="10.53265217">
        <ele>168.099</ele>
        <time>1970-01-01T01:00:00Z</time>
      </trkpt>
      <trkpt lat="63.396889" lon="10.53270883">
        <ele>168.099</ele>
        <time>1970-01-01T01:00:00Z</time>
      </trkpt>
      <trkpt lat="63.3969075" lon="10.532766">
        <ele>168.404</ele>
        <time>1970-01-01T01:00:00Z</time>
      </trkpt>
      <trkpt lat="63.396929" lon="10.53282083">
        <ele>168.404</ele>
        <time>1970-01-01T01:00:00Z</time>
      </trkpt>
      <trkpt lat="63.39695317" lon="10.53287583">
        <ele>168.709</ele>
        <time>1970-01-01T01:00:00Z</time>
      </trkpt>
      <trkpt lat="63.39697717" lon="10.5329365">
        <ele>168.709</ele>
        <time>1970-01-01T01:00:00Z</time>
      </trkpt>
      <trkpt lat="63.397" lon="10.53300383">
        <ele>169.014</ele>
        <time>1970-01-01T01:00:00Z</time>
      </trkpt>
      <trkpt lat="63.3970225" lon="10.5330745">
        <ele>169.014</ele>
        <time>1970-01-01T01:00:00Z</time>
      </trkpt>
      <trkpt lat="63.39704567" lon="10.533144">
        <ele>169.318</ele>
        <time>1970-01-01T01:00:00Z</time>
      </trkpt>
      <trkpt lat="63.397068" lon="10.53321167">
        <ele>169.318</ele>
        <time>1970-01-01T01:00:00Z</time>
      </trkpt>
      <trkpt lat="63.39708967" lon="10.5332805">
        <ele>169.776</ele>
        <time>1970-01-01T01:00:00Z</time>
      </trkpt>
      <trkpt lat="63.3971115" lon="10.53335067">
        <ele>169.776</ele>
        <time>1970-01-01T01:00:00Z</time>
      </trkpt>
      <trkpt lat="63.39713417" lon="10.533421">
        <ele>170.233</ele>
        <time>1970-01-01T01:00:00Z</time>
      </trkpt>
      <trkpt lat="63.3971565" lon="10.53349017">
        <ele>170.233</ele>
        <time>1970-01-01T01:00:00Z</time>
      </trkpt>
      <trkpt lat="63.39717733" lon="10.5335605">
        <ele>170.538</ele>
        <time>1970-01-01T01:00:00Z</time>
      </trkpt>
      <trkpt lat="63.39719717" lon="10.533632">
        <ele>170.538</ele>
        <time>1970-01-01T01:00:00Z</time>
      </trkpt>
      <trkpt lat="63.39721617" lon="10.53370583">
        <ele>170.995</ele>
        <time>1970-01-01T01:00:00Z</time>
      </trkpt>
      <trkpt lat="63.39723517" lon="10.53378183">
        <ele>170.995</ele>
        <time>1970-01-01T01:00:00Z</time>
      </trkpt>
      <trkpt lat="63.39725483" lon="10.53386133">
        <ele>171.452</ele>
        <time>1970-01-01T01:00:00Z</time>
      </trkpt>
      <trkpt lat="63.39727467" lon="10.53394567">
        <ele>171.452</ele>
        <time>1970-01-01T01:00:00Z</time>
      </trkpt>
      <trkpt lat="63.39729517" lon="10.53403633">
        <ele>171.909</ele>
        <time>1970-01-01T01:00:00Z</time>
      </trkpt>
      <trkpt lat="63.39731383" lon="10.53413533">
        <ele>171.909</ele>
        <time>1970-01-01T01:00:00Z</time>
      </trkpt>
      <trkpt lat="63.39733117" lon="10.53424167">
        <ele>172.366</ele>
        <time>1970-01-01T01:00:00Z</time>
      </trkpt>
      <trkpt lat="63.39734767" lon="10.53435167">
        <ele>172.366</ele>
        <time>1970-01-01T01:00:00Z</time>
      </trkpt>
      <trkpt lat="63.3973645" lon="10.53446233">
        <ele>172.671</ele>
        <time>1970-01-01T01:00:00Z</time>
      </trkpt>
      <trkpt lat="63.397381" lon="10.53457317">
        <ele>172.671</ele>
        <time>1970-01-01T01:00:00Z</time>
      </trkpt>
      <trkpt lat="63.3973965" lon="10.53468433">
        <ele>173.128</ele>
        <time>1970-01-01T01:00:00Z</time>
      </trkpt>
      <trkpt lat="63.3974105" lon="10.53479533">
        <ele>173.128</ele>
        <time>1970-01-01T01:00:00Z</time>
      </trkpt>
      <trkpt lat="63.397423" lon="10.534907">
        <ele>173.433</ele>
        <time>1970-01-01T01:00:00Z</time>
      </trkpt>
      <trkpt lat="63.397433" lon="10.5350205">
        <ele>173.433</ele>
        <time>1970-01-01T01:00:00Z</time>
      </trkpt>
      <trkpt lat="63.39744067" lon="10.53513533">
        <ele>173.738</ele>
        <time>1970-01-01T01:00:00Z</time>
      </trkpt>
      <trkpt lat="63.3974465" lon="10.53525117">
        <ele>173.738</ele>
        <time>1970-01-01T01:00:00Z</time>
      </trkpt>
      <trkpt lat="63.397451" lon="10.53536683">
        <ele>174.043</ele>
        <time>1970-01-01T01:00:00Z</time>
      </trkpt>
      <trkpt lat="63.3974525" lon="10.53548117">
        <ele>174.043</ele>
        <time>1970-01-01T01:00:00Z</time>
      </trkpt>
      <trkpt lat="63.39745133" lon="10.53559267">
        <ele>174.195</ele>
        <time>1970-01-01T01:00:00Z</time>
      </trkpt>
      <trkpt lat="63.39744783" lon="10.53570083">
        <ele>174.195</ele>
        <time>1970-01-01T01:00:00Z</time>
      </trkpt>
      <trkpt lat="63.397443" lon="10.53580733">
        <ele>174.5</ele>
        <time>1970-01-01T01:00:00Z</time>
      </trkpt>
      <trkpt lat="63.3974365" lon="10.535914">
        <ele>174.5</ele>
        <time>1970-01-01T01:00:00Z</time>
      </trkpt>
      <trkpt lat="63.39742817" lon="10.5360215">
        <ele>174.653</ele>
        <time>1970-01-01T01:00:00Z</time>
      </trkpt>
      <trkpt lat="63.39741917" lon="10.53612933">
        <ele>174.653</ele>
        <time>1970-01-01T01:00:00Z</time>
      </trkpt>
      <trkpt lat="63.39740983" lon="10.53623683">
        <ele>174.805</ele>
        <time>1970-01-01T01:00:00Z</time>
      </trkpt>
      <trkpt lat="63.39740067" lon="10.5363435">
        <ele>174.805</ele>
        <time>1970-01-01T01:00:00Z</time>
      </trkpt>
      <trkpt lat="63.3973915" lon="10.53644867">
        <ele>174.805</ele>
        <time>1970-01-01T01:00:00Z</time>
      </trkpt>
      <trkpt lat="63.39738083" lon="10.5365505">
        <ele>174.805</ele>
        <time>1970-01-01T01:00:00Z</time>
      </trkpt>
      <trkpt lat="63.39737017" lon="10.53664933">
        <ele>174.957</ele>
        <time>1970-01-01T01:00:00Z</time>
      </trkpt>
      <trkpt lat="63.39735967" lon="10.53674517">
        <ele>174.957</ele>
        <time>1970-01-01T01:00:00Z</time>
      </trkpt>
      <trkpt lat="63.39735117" lon="10.5368365">
        <ele>174.957</ele>
        <time>1970-01-01T01:00:00Z</time>
      </trkpt>
      <trkpt lat="63.39734483" lon="10.53692417">
        <ele>174.957</ele>
        <time>1970-01-01T01:00:00Z</time>
      </trkpt>
      <trkpt lat="63.3973405" lon="10.53701017">
        <ele>175.11</ele>
        <time>1970-01-01T01:00:00Z</time>
      </trkpt>
      <trkpt lat="63.397337" lon="10.53709533">
        <ele>175.11</ele>
        <time>1970-01-01T01:00:00Z</time>
      </trkpt>
      <trkpt lat="63.39733483" lon="10.53718033">
        <ele>175.11</ele>
        <time>1970-01-01T01:00:00Z</time>
      </trkpt>
      <trkpt lat="63.3973355" lon="10.53726517">
        <ele>175.11</ele>
        <time>1970-01-01T01:00:00Z</time>
      </trkpt>
      <trkpt lat="63.397341" lon="10.53735317">
        <ele>175.262</ele>
        <time>1970-01-01T01:00:00Z</time>
      </trkpt>
      <trkpt lat="63.397351" lon="10.53744317">
        <ele>175.262</ele>
        <time>1970-01-01T01:00:00Z</time>
      </trkpt>
      <trkpt lat="63.397365" lon="10.53753533">
        <ele>175.262</ele>
        <time>1970-01-01T01:00:00Z</time>
      </trkpt>
      <trkpt lat="63.397381" lon="10.5376295">
        <ele>175.262</ele>
        <time>1970-01-01T01:00:00Z</time>
      </trkpt>
      <trkpt lat="63.39739883" lon="10.53772833">
        <ele>175.415</ele>
        <time>1970-01-01T01:00:00Z</time>
      </trkpt>
      <trkpt lat="63.397419" lon="10.53783333">
        <ele>175.415</ele>
        <time>1970-01-01T01:00:00Z</time>
      </trkpt>
      <trkpt lat="63.39743817" lon="10.5379475">
        <ele>175.415</ele>
        <time>1970-01-01T01:00:00Z</time>
      </trkpt>
      <trkpt lat="63.397454" lon="10.53807317">
        <ele>175.415</ele>
        <time>1970-01-01T01:00:00Z</time>
      </trkpt>
      <trkpt lat="63.3974615" lon="10.538211">
        <ele>175.262</ele>
        <time>1970-01-01T01:00:00Z</time>
      </trkpt>
      <trkpt lat="63.39746333" lon="10.53835767">
        <ele>175.262</ele>
        <time>1970-01-01T01:00:00Z</time>
      </trkpt>
      <trkpt lat="63.3974565" lon="10.5385105">
        <ele>175.262</ele>
        <time>1970-01-01T01:00:00Z</time>
      </trkpt>
      <trkpt lat="63.39743633" lon="10.53866533">
        <ele>175.262</ele>
        <time>1970-01-01T01:00:00Z</time>
      </trkpt>
      <trkpt lat="63.39740667" lon="10.5388245">
        <ele>175.11</ele>
        <time>1970-01-01T01:00:00Z</time>
      </trkpt>
      <trkpt lat="63.39737317" lon="10.53898333">
        <ele>175.11</ele>
        <time>1970-01-01T01:00:00Z</time>
      </trkpt>
      <trkpt lat="63.39734517" lon="10.53914267">
        <ele>175.11</ele>
        <time>1970-01-01T01:00:00Z</time>
      </trkpt>
      <trkpt lat="63.39732233" lon="10.53930133">
        <ele>175.11</ele>
        <time>1970-01-01T01:00:00Z</time>
      </trkpt>
      <trkpt lat="63.397305" lon="10.539464">
        <ele>174.957</ele>
        <time>1970-01-01T01:00:00Z</time>
      </trkpt>
      <trkpt lat="63.397293" lon="10.5396315">
        <ele>174.957</ele>
        <time>1970-01-01T01:00:00Z</time>
      </trkpt>
      <trkpt lat="63.397286" lon="10.53979967">
        <ele>174.805</ele>
        <time>1970-01-01T01:00:00Z</time>
      </trkpt>
      <trkpt lat="63.39728767" lon="10.53996633">
        <ele>174.805</ele>
        <time>1970-01-01T01:00:00Z</time>
      </trkpt>
      <trkpt lat="63.39729467" lon="10.54013133">
        <ele>174.5</ele>
        <time>1970-01-01T01:00:00Z</time>
      </trkpt>
      <trkpt lat="63.397305" lon="10.5402945">
        <ele>174.5</ele>
        <time>1970-01-01T01:00:00Z</time>
      </trkpt>
      <trkpt lat="63.397315" lon="10.540454">
        <ele>174.348</ele>
        <time>1970-01-01T01:00:00Z</time>
      </trkpt>
      <trkpt lat="63.3973265" lon="10.54060883">
        <ele>174.348</ele>
        <time>1970-01-01T01:00:00Z</time>
      </trkpt>
      <trkpt lat="63.39733867" lon="10.5407615">
        <ele>174.043</ele>
        <time>1970-01-01T01:00:00Z</time>
      </trkpt>
      <trkpt lat="63.39735033" lon="10.54091417">
        <ele>174.043</ele>
        <time>1970-01-01T01:00:00Z</time>
      </trkpt>
      <trkpt lat="63.397363" lon="10.54106517">
        <ele>173.738</ele>
        <time>1970-01-01T01:00:00Z</time>
      </trkpt>
      <trkpt lat="63.397377" lon="10.54121517">
        <ele>173.738</ele>
        <time>1970-01-01T01:00:00Z</time>
      </trkpt>
      <trkpt lat="63.397391" lon="10.54136667">
        <ele>173.586</ele>
        <time>1970-01-01T01:00:00Z</time>
      </trkpt>
      <trkpt lat="63.39740667" lon="10.54152017">
        <ele>173.586</ele>
        <time>1970-01-01T01:00:00Z</time>
      </trkpt>
      <trkpt lat="63.397423" lon="10.54167667">
        <ele>173.281</ele>
        <time>1970-01-01T01:00:00Z</time>
      </trkpt>
      <trkpt lat="63.397443" lon="10.54183367">
        <ele>173.281</ele>
        <time>1970-01-01T01:00:00Z</time>
      </trkpt>
      <trkpt lat="63.39745967" lon="10.54199417">
        <ele>173.128</ele>
        <time>1970-01-01T01:00:00Z</time>
      </trkpt>
      <trkpt lat="63.3974715" lon="10.54215833">
        <ele>173.128</ele>
        <time>1970-01-01T01:00:00Z</time>
      </trkpt>
      <trkpt lat="63.39747667" lon="10.54232467">
        <ele>172.976</ele>
        <time>1970-01-01T01:00:00Z</time>
      </trkpt>
      <trkpt lat="63.397478" lon="10.542493">
        <ele>172.976</ele>
        <time>1970-01-01T01:00:00Z</time>
      </trkpt>
      <trkpt lat="63.39747633" lon="10.54266283">
        <ele>172.671</ele>
        <time>1970-01-01T01:00:00Z</time>
      </trkpt>
      <trkpt lat="63.39747217" lon="10.542835">
        <ele>172.671</ele>
        <time>1970-01-01T01:00:00Z</time>
      </trkpt>
      <trkpt lat="63.397466" lon="10.54300767">
        <ele>172.366</ele>
        <time>1970-01-01T01:00:00Z</time>
      </trkpt>
      <trkpt lat="63.39745833" lon="10.5431805">
        <ele>172.366</ele>
        <time>1970-01-01T01:00:00Z</time>
      </trkpt>
      <trkpt lat="63.39744717" lon="10.543354">
        <ele>172.062</ele>
        <time>1970-01-01T01:00:00Z</time>
      </trkpt>
      <trkpt lat="63.3974325" lon="10.54352933">
        <ele>172.062</ele>
        <time>1970-01-01T01:00:00Z</time>
      </trkpt>
      <trkpt lat="63.397414" lon="10.5437055">
        <ele>171.757</ele>
        <time>1970-01-01T01:00:00Z</time>
      </trkpt>
      <trkpt lat="63.39739117" lon="10.54388367">
        <ele>171.757</ele>
        <time>1970-01-01T01:00:00Z</time>
      </trkpt>
      <trkpt lat="63.39736333" lon="10.54406183">
        <ele>171.3</ele>
        <time>1970-01-01T01:00:00Z</time>
      </trkpt>
      <trkpt lat="63.39732983" lon="10.54423933">
        <ele>171.3</ele>
        <time>1970-01-01T01:00:00Z</time>
      </trkpt>
      <trkpt lat="63.3972895" lon="10.54441483">
        <ele>170.995</ele>
        <time>1970-01-01T01:00:00Z</time>
      </trkpt>
      <trkpt lat="63.397242" lon="10.54458783">
        <ele>170.995</ele>
        <time>1970-01-01T01:00:00Z</time>
      </trkpt>
      <trkpt lat="63.39718433" lon="10.54474817">
        <ele>170.538</ele>
        <time>1970-01-01T01:00:00Z</time>
      </trkpt>
      <trkpt lat="63.39711817" lon="10.5448925">
        <ele>170.538</ele>
        <time>1970-01-01T01:00:00Z</time>
      </trkpt>
      <trkpt lat="63.39704317" lon="10.54501533">
        <ele>170.08</ele>
        <time>1970-01-01T01:00:00Z</time>
      </trkpt>
      <trkpt lat="63.39696367" lon="10.54512283">
        <ele>170.08</ele>
        <time>1970-01-01T01:00:00Z</time>
      </trkpt>
      <trkpt lat="63.39688117" lon="10.54521167">
        <ele>169.623</ele>
        <time>1970-01-01T01:00:00Z</time>
      </trkpt>
      <trkpt lat="63.39679833" lon="10.545289">
        <ele>169.623</ele>
        <time>1970-01-01T01:00:00Z</time>
      </trkpt>
      <trkpt lat="63.39671683" lon="10.5453595">
        <ele>169.014</ele>
        <time>1970-01-01T01:00:00Z</time>
      </trkpt>
      <trkpt lat="63.396637" lon="10.54543033">
        <ele>169.014</ele>
        <time>1970-01-01T01:00:00Z</time>
      </trkpt>
      <trkpt lat="63.3965585" lon="10.54550067">
        <ele>168.556</ele>
        <time>1970-01-01T01:00:00Z</time>
      </trkpt>
      <trkpt lat="63.39648117" lon="10.54556917">
        <ele>168.556</ele>
        <time>1970-01-01T01:00:00Z</time>
      </trkpt>
      <trkpt lat="63.39640517" lon="10.54563533">
        <ele>168.099</ele>
        <time>1970-01-01T01:00:00Z</time>
      </trkpt>
      <trkpt lat="63.3963305" lon="10.54569867">
        <ele>168.099</ele>
        <time>1970-01-01T01:00:00Z</time>
      </trkpt>
      <trkpt lat="63.39625717" lon="10.54575933">
        <ele>167.642</ele>
        <time>1970-01-01T01:00:00Z</time>
      </trkpt>
      <trkpt lat="63.39618467" lon="10.545819">
        <ele>167.642</ele>
        <time>1970-01-01T01:00:00Z</time>
      </trkpt>
      <trkpt lat="63.39611283" lon="10.54587717">
        <ele>167.185</ele>
        <time>1970-01-01T01:00:00Z</time>
      </trkpt>
      <trkpt lat="63.39604317" lon="10.54593367">
        <ele>167.185</ele>
        <time>1970-01-01T01:00:00Z</time>
      </trkpt>
      <trkpt lat="63.39597617" lon="10.54598733">
        <ele>166.88</ele>
        <time>1970-01-01T01:00:00Z</time>
      </trkpt>
      <trkpt lat="63.395913" lon="10.54603783">
        <ele>166.88</ele>
        <time>1970-01-01T01:00:00Z</time>
      </trkpt>
      <trkpt lat="63.39585317" lon="10.54608467">
        <ele>166.423</ele>
        <time>1970-01-01T01:00:00Z</time>
      </trkpt>
      <trkpt lat="63.395797" lon="10.54612933">
        <ele>166.423</ele>
        <time>1970-01-01T01:00:00Z</time>
      </trkpt>
      <trkpt lat="63.39574433" lon="10.54617017">
        <ele>165.966</ele>
        <time>1970-01-01T01:00:00Z</time>
      </trkpt>
      <trkpt lat="63.39569467" lon="10.5462085">
        <ele>165.966</ele>
        <time>1970-01-01T01:00:00Z</time>
      </trkpt>
      <trkpt lat="63.39564717" lon="10.54624133">
        <ele>165.508</ele>
        <time>1970-01-01T01:00:00Z</time>
      </trkpt>
      <trkpt lat="63.39560133" lon="10.5462715">
        <ele>165.508</ele>
        <time>1970-01-01T01:00:00Z</time>
      </trkpt>
      <trkpt lat="63.395557" lon="10.54629917">
        <ele>165.204</ele>
        <time>1970-01-01T01:00:00Z</time>
      </trkpt>
      <trkpt lat="63.39551383" lon="10.54632383">
        <ele>165.204</ele>
        <time>1970-01-01T01:00:00Z</time>
      </trkpt>
      <trkpt lat="63.39547233" lon="10.5463445">
        <ele>164.746</ele>
        <time>1970-01-01T01:00:00Z</time>
      </trkpt>
      <trkpt lat="63.39543217" lon="10.54636067">
        <ele>164.746</ele>
        <time>1970-01-01T01:00:00Z</time>
      </trkpt>
      <trkpt lat="63.39539167" lon="10.54637033">
        <ele>164.442</ele>
        <time>1970-01-01T01:00:00Z</time>
      </trkpt>
      <trkpt lat="63.3953495" lon="10.5463715">
        <ele>164.442</ele>
        <time>1970-01-01T01:00:00Z</time>
      </trkpt>
      <trkpt lat="63.39530617" lon="10.54636717">
        <ele>163.984</ele>
        <time>1970-01-01T01:00:00Z</time>
      </trkpt>
      <trkpt lat="63.39526517" lon="10.5463575">
        <ele>163.984</ele>
        <time>1970-01-01T01:00:00Z</time>
      </trkpt>
      <trkpt lat="63.39522567" lon="10.5463445">
        <ele>163.68</ele>
        <time>1970-01-01T01:00:00Z</time>
      </trkpt>
      <trkpt lat="63.39518917" lon="10.546325">
        <ele>163.68</ele>
        <time>1970-01-01T01:00:00Z</time>
      </trkpt>
      <trkpt lat="63.39514867" lon="10.54628867">
        <ele>163.222</ele>
        <time>1970-01-01T01:00:00Z</time>
      </trkpt>
      <trkpt lat="63.39510683" lon="10.54624233">
        <ele>163.222</ele>
        <time>1970-01-01T01:00:00Z</time>
      </trkpt>
      <trkpt lat="63.39506233" lon="10.54619">
        <ele>162.918</ele>
        <time>1970-01-01T01:00:00Z</time>
      </trkpt>
      <trkpt lat="63.39501933" lon="10.54614683">
        <ele>162.918</ele>
        <time>1970-01-01T01:00:00Z</time>
      </trkpt>
      <trkpt lat="63.394977" lon="10.54610583">
        <ele>162.46</ele>
        <time>1970-01-01T01:00:00Z</time>
      </trkpt>
      <trkpt lat="63.39493533" lon="10.54606">
        <ele>162.46</ele>
        <time>1970-01-01T01:00:00Z</time>
      </trkpt>
      <trkpt lat="63.39489483" lon="10.54601067">
        <ele>162.156</ele>
        <time>1970-01-01T01:00:00Z</time>
      </trkpt>
      <trkpt lat="63.394855" lon="10.54596">
        <ele>162.156</ele>
        <time>1970-01-01T01:00:00Z</time>
      </trkpt>
      <trkpt lat="63.3948145" lon="10.54591183">
        <ele>161.851</ele>
        <time>1970-01-01T01:00:00Z</time>
      </trkpt>
      <trkpt lat="63.39477433" lon="10.54586467">
        <ele>161.851</ele>
        <time>1970-01-01T01:00:00Z</time>
      </trkpt>
      <trkpt lat="63.39473483" lon="10.545819">
        <ele>161.546</ele>
        <time>1970-01-01T01:00:00Z</time>
      </trkpt>
      <trkpt lat="63.39469483" lon="10.54577467">
        <ele>161.546</ele>
        <time>1970-01-01T01:00:00Z</time>
      </trkpt>
      <trkpt lat="63.3946535" lon="10.54572917">
        <ele>161.241</ele>
        <time>1970-01-01T01:00:00Z</time>
      </trkpt>
      <trkpt lat="63.39461067" lon="10.54568">
        <ele>161.241</ele>
        <time>1970-01-01T01:00:00Z</time>
      </trkpt>
      <trkpt lat="63.39456783" lon="10.54562667">
        <ele>160.936</ele>
        <time>1970-01-01T01:00:00Z</time>
      </trkpt>
      <trkpt lat="63.39452533" lon="10.54557233">
        <ele>160.936</ele>
        <time>1970-01-01T01:00:00Z</time>
      </trkpt>
      <trkpt lat="63.39448317" lon="10.54551967">
        <ele>160.784</ele>
        <time>1970-01-01T01:00:00Z</time>
      </trkpt>
      <trkpt lat="63.3944405" lon="10.54546783">
        <ele>160.784</ele>
        <time>1970-01-01T01:00:00Z</time>
      </trkpt>
      <trkpt lat="63.39439783" lon="10.545415">
        <ele>160.632</ele>
        <time>1970-01-01T01:00:00Z</time>
      </trkpt>
      <trkpt lat="63.394355" lon="10.54536067">
        <ele>160.632</ele>
        <time>1970-01-01T01:00:00Z</time>
      </trkpt>
      <trkpt lat="63.3943125" lon="10.5453065">
        <ele>160.479</ele>
        <time>1970-01-01T01:00:00Z</time>
      </trkpt>
      <trkpt lat="63.39426967" lon="10.54525467">
        <ele>160.479</ele>
        <time>1970-01-01T01:00:00Z</time>
      </trkpt>
      <trkpt lat="63.39422667" lon="10.54520333">
        <ele>160.174</ele>
        <time>1970-01-01T01:00:00Z</time>
      </trkpt>
      <trkpt lat="63.3941845" lon="10.5451505">
        <ele>160.174</ele>
        <time>1970-01-01T01:00:00Z</time>
      </trkpt>
      <trkpt lat="63.39414333" lon="10.54509517">
        <ele>160.022</ele>
        <time>1970-01-01T01:00:00Z</time>
      </trkpt>
      <trkpt lat="63.3941025" lon="10.5450405">
        <ele>160.022</ele>
        <time>1970-01-01T01:00:00Z</time>
      </trkpt>
      <trkpt lat="63.39406183" lon="10.5449875">
        <ele>159.87</ele>
        <time>1970-01-01T01:00:00Z</time>
      </trkpt>
      <trkpt lat="63.394021" lon="10.54493467">
        <ele>159.87</ele>
        <time>1970-01-01T01:00:00Z</time>
      </trkpt>
      <trkpt lat="63.39398017" lon="10.544881">
        <ele>159.717</ele>
        <time>1970-01-01T01:00:00Z</time>
      </trkpt>
      <trkpt lat="63.39393967" lon="10.54482717">
        <ele>159.717</ele>
        <time>1970-01-01T01:00:00Z</time>
      </trkpt>
      <trkpt lat="63.393899" lon="10.544775">
        <ele>159.565</ele>
        <time>1970-01-01T01:00:00Z</time>
      </trkpt>
      <trkpt lat="63.39385917" lon="10.54472383">
        <ele>159.565</ele>
        <time>1970-01-01T01:00:00Z</time>
      </trkpt>
      <trkpt lat="63.39381967" lon="10.5446735">
        <ele>159.412</ele>
        <time>1970-01-01T01:00:00Z</time>
      </trkpt>
      <trkpt lat="63.39378033" lon="10.544624">
        <ele>159.412</ele>
        <time>1970-01-01T01:00:00Z</time>
      </trkpt>
      <trkpt lat="63.39374083" lon="10.54457483">
        <ele>159.412</ele>
        <time>1970-01-01T01:00:00Z</time>
      </trkpt>
      <trkpt lat="63.393701" lon="10.54452533">
        <ele>159.412</ele>
        <time>1970-01-01T01:00:00Z</time>
      </trkpt>
      <trkpt lat="63.39366133" lon="10.544474">
        <ele>159.26</ele>
        <time>1970-01-01T01:00:00Z</time>
      </trkpt>
      <trkpt lat="63.39362167" lon="10.5444225">
        <ele>159.26</ele>
        <time>1970-01-01T01:00:00Z</time>
      </trkpt>
      <trkpt lat="63.39358217" lon="10.54437">
        <ele>159.26</ele>
        <time>1970-01-01T01:00:00Z</time>
      </trkpt>
      <trkpt lat="63.39354183" lon="10.544317">
        <ele>159.26</ele>
        <time>1970-01-01T01:00:00Z</time>
      </trkpt>
      <trkpt lat="63.393502" lon="10.54426233">
        <ele>159.108</ele>
        <time>1970-01-01T01:00:00Z</time>
      </trkpt>
      <trkpt lat="63.39346183" lon="10.54420717">
        <ele>159.108</ele>
        <time>1970-01-01T01:00:00Z</time>
      </trkpt>
      <trkpt lat="63.39342217" lon="10.54415017">
        <ele>159.108</ele>
        <time>1970-01-01T01:00:00Z</time>
      </trkpt>
      <trkpt lat="63.39338117" lon="10.54409183">
        <ele>159.108</ele>
        <time>1970-01-01T01:00:00Z</time>
      </trkpt>
      <trkpt lat="63.3933395" lon="10.54403133">
        <ele>158.955</ele>
        <time>1970-01-01T01:00:00Z</time>
      </trkpt>
      <trkpt lat="63.39329717" lon="10.54396917">
        <ele>158.955</ele>
        <time>1970-01-01T01:00:00Z</time>
      </trkpt>
      <trkpt lat="63.39325517" lon="10.54390617">
        <ele>158.955</ele>
        <time>1970-01-01T01:00:00Z</time>
      </trkpt>
      <trkpt lat="63.3932135" lon="10.5438425">
        <ele>158.955</ele>
        <time>1970-01-01T01:00:00Z</time>
      </trkpt>
      <trkpt lat="63.3931715" lon="10.54377783">
        <ele>158.955</ele>
        <time>1970-01-01T01:00:00Z</time>
      </trkpt>
      <trkpt lat="63.39312817" lon="10.54371017">
        <ele>158.955</ele>
        <time>1970-01-01T01:00:00Z</time>
      </trkpt>
      <trkpt lat="63.3930835" lon="10.54363933">
        <ele>158.955</ele>
        <time>1970-01-01T01:00:00Z</time>
      </trkpt>
      <trkpt lat="63.3930375" lon="10.5435655">
        <ele>158.955</ele>
        <time>1970-01-01T01:00:00Z</time>
      </trkpt>
      <trkpt lat="63.39299067" lon="10.54349">
        <ele>158.803</ele>
        <time>1970-01-01T01:00:00Z</time>
      </trkpt>
      <trkpt lat="63.392943" lon="10.5434135">
        <ele>158.803</ele>
        <time>1970-01-01T01:00:00Z</time>
      </trkpt>
      <trkpt lat="63.3928945" lon="10.54333717">
        <ele>158.803</ele>
        <time>1970-01-01T01:00:00Z</time>
      </trkpt>
      <trkpt lat="63.39284433" lon="10.54326233">
        <ele>158.803</ele>
        <time>1970-01-01T01:00:00Z</time>
      </trkpt>
      <trkpt lat="63.39279367" lon="10.54318917">
        <ele>158.65</ele>
        <time>1970-01-01T01:00:00Z</time>
      </trkpt>
      <trkpt lat="63.39274283" lon="10.54311783">
        <ele>158.65</ele>
        <time>1970-01-01T01:00:00Z</time>
      </trkpt>
      <trkpt lat="63.3926925" lon="10.54304967">
        <ele>158.65</ele>
        <time>1970-01-01T01:00:00Z</time>
      </trkpt>
      <trkpt lat="63.3926425" lon="10.54298217">
        <ele>158.65</ele>
        <time>1970-01-01T01:00:00Z</time>
      </trkpt>
      <trkpt lat="63.39259283" lon="10.54291717">
        <ele>158.498</ele>
        <time>1970-01-01T01:00:00Z</time>
      </trkpt>
      <trkpt lat="63.39254333" lon="10.54285283">
        <ele>158.498</ele>
        <time>1970-01-01T01:00:00Z</time>
      </trkpt>
      <trkpt lat="63.39249383" lon="10.54279117">
        <ele>158.346</ele>
        <time>1970-01-01T01:00:00Z</time>
      </trkpt>
      <trkpt lat="63.39244417" lon="10.54273117">
        <ele>158.346</ele>
        <time>1970-01-01T01:00:00Z</time>
      </trkpt>
      <trkpt lat="63.39239417" lon="10.54267367">
        <ele>158.346</ele>
        <time>1970-01-01T01:00:00Z</time>
      </trkpt>
      <trkpt lat="63.3923435" lon="10.54261933">
        <ele>158.346</ele>
        <time>1970-01-01T01:00:00Z</time>
      </trkpt>
      <trkpt lat="63.392293" lon="10.54256717">
        <ele>158.193</ele>
        <time>1970-01-01T01:00:00Z</time>
      </trkpt>
      <trkpt lat="63.39224283" lon="10.5425195">
        <ele>158.193</ele>
        <time>1970-01-01T01:00:00Z</time>
      </trkpt>
      <trkpt lat="63.392194" lon="10.54247817">
        <ele>158.041</ele>
        <time>1970-01-01T01:00:00Z</time>
      </trkpt>
      <trkpt lat="63.39214733" lon="10.542444">
        <ele>158.041</ele>
        <time>1970-01-01T01:00:00Z</time>
      </trkpt>
      <trkpt lat="63.39210333" lon="10.5424155">
        <ele>157.888</ele>
        <time>1970-01-01T01:00:00Z</time>
      </trkpt>
      <trkpt lat="63.3920615" lon="10.5423905">
        <ele>157.888</ele>
        <time>1970-01-01T01:00:00Z</time>
      </trkpt>
      <trkpt lat="63.392021" lon="10.54236867">
        <ele>157.736</ele>
        <time>1970-01-01T01:00:00Z</time>
      </trkpt>
      <trkpt lat="63.39198083" lon="10.54234783">
        <ele>157.736</ele>
        <time>1970-01-01T01:00:00Z</time>
      </trkpt>
      <trkpt lat="63.39194083" lon="10.54232833">
        <ele>157.584</ele>
        <time>1970-01-01T01:00:00Z</time>
      </trkpt>
      <trkpt lat="63.39190067" lon="10.54231033">
        <ele>157.584</ele>
        <time>1970-01-01T01:00:00Z</time>
      </trkpt>
      <trkpt lat="63.39186067" lon="10.54229567">
        <ele>157.431</ele>
        <time>1970-01-01T01:00:00Z</time>
      </trkpt>
      <trkpt lat="63.39182067" lon="10.54228383">
        <ele>157.431</ele>
        <time>1970-01-01T01:00:00Z</time>
      </trkpt>
      <trkpt lat="63.391781" lon="10.54227483">
        <ele>157.279</ele>
        <time>1970-01-01T01:00:00Z</time>
      </trkpt>
      <trkpt lat="63.391741" lon="10.54226883">
        <ele>157.279</ele>
        <time>1970-01-01T01:00:00Z</time>
      </trkpt>
      <trkpt lat="63.3917005" lon="10.54226417">
        <ele>157.126</ele>
        <time>1970-01-01T01:00:00Z</time>
      </trkpt>
      <trkpt lat="63.39165967" lon="10.54226033">
        <ele>157.126</ele>
        <time>1970-01-01T01:00:00Z</time>
      </trkpt>
      <trkpt lat="63.3916185" lon="10.542257">
        <ele>156.974</ele>
        <time>1970-01-01T01:00:00Z</time>
      </trkpt>
      <trkpt lat="63.391577" lon="10.5422555">
        <ele>156.974</ele>
        <time>1970-01-01T01:00:00Z</time>
      </trkpt>
      <trkpt lat="63.391535" lon="10.54225583">
        <ele>156.822</ele>
        <time>1970-01-01T01:00:00Z</time>
      </trkpt>
      <trkpt lat="63.39149283" lon="10.54225717">
        <ele>156.822</ele>
        <time>1970-01-01T01:00:00Z</time>
      </trkpt>
      <trkpt lat="63.3914505" lon="10.542258">
        <ele>156.669</ele>
        <time>1970-01-01T01:00:00Z</time>
      </trkpt>
      <trkpt lat="63.39140783" lon="10.54225783">
        <ele>156.669</ele>
        <time>1970-01-01T01:00:00Z</time>
      </trkpt>
      <trkpt lat="63.39136467" lon="10.5422565">
        <ele>156.517</ele>
        <time>1970-01-01T01:00:00Z</time>
      </trkpt>
      <trkpt lat="63.391321" lon="10.54225517">
        <ele>156.517</ele>
        <time>1970-01-01T01:00:00Z</time>
      </trkpt>
      <trkpt lat="63.391277" lon="10.54225283">
        <ele>156.364</ele>
        <time>1970-01-01T01:00:00Z</time>
      </trkpt>
      <trkpt lat="63.39123283" lon="10.54224917">
        <ele>156.364</ele>
        <time>1970-01-01T01:00:00Z</time>
      </trkpt>
      <trkpt lat="63.39118933" lon="10.54224433">
        <ele>156.364</ele>
        <time>1970-01-01T01:00:00Z</time>
      </trkpt>
      <trkpt lat="63.39114617" lon="10.54223967">
        <ele>156.364</ele>
        <time>1970-01-01T01:00:00Z</time>
      </trkpt>
      <trkpt lat="63.39110317" lon="10.5422335">
        <ele>156.212</ele>
        <time>1970-01-01T01:00:00Z</time>
      </trkpt>
      <trkpt lat="63.39105967" lon="10.54222533">
        <ele>156.212</ele>
        <time>1970-01-01T01:00:00Z</time>
      </trkpt>
      <trkpt lat="63.391016" lon="10.54221467">
        <ele>156.059</ele>
        <time>1970-01-01T01:00:00Z</time>
      </trkpt>
      <trkpt lat="63.39097233" lon="10.5422025">
        <ele>156.059</ele>
        <time>1970-01-01T01:00:00Z</time>
      </trkpt>
      <trkpt lat="63.39092867" lon="10.54218783">
        <ele>156.059</ele>
        <time>1970-01-01T01:00:00Z</time>
      </trkpt>
      <trkpt lat="63.39088533" lon="10.54217">
        <ele>156.059</ele>
        <time>1970-01-01T01:00:00Z</time>
      </trkpt>
      <trkpt lat="63.39084283" lon="10.54214983">
        <ele>155.907</ele>
        <time>1970-01-01T01:00:00Z</time>
      </trkpt>
      <trkpt lat="63.39080067" lon="10.54212917">
        <ele>155.907</ele>
        <time>1970-01-01T01:00:00Z</time>
      </trkpt>
      <trkpt lat="63.39075867" lon="10.54210883">
        <ele>155.907</ele>
        <time>1970-01-01T01:00:00Z</time>
      </trkpt>
      <trkpt lat="63.39071683" lon="10.5420865">
        <ele>155.907</ele>
        <time>1970-01-01T01:00:00Z</time>
      </trkpt>
      <trkpt lat="63.39067567" lon="10.5420615">
        <ele>155.755</ele>
        <time>1970-01-01T01:00:00Z</time>
      </trkpt>
      <trkpt lat="63.390635" lon="10.54203317">
        <ele>155.755</ele>
        <time>1970-01-01T01:00:00Z</time>
      </trkpt>
      <trkpt lat="63.39059517" lon="10.54200433">
        <ele>155.755</ele>
        <time>1970-01-01T01:00:00Z</time>
      </trkpt>
      <trkpt lat="63.390556" lon="10.54197383">
        <ele>155.755</ele>
        <time>1970-01-01T01:00:00Z</time>
      </trkpt>
      <trkpt lat="63.39051733" lon="10.54194333">
        <ele>155.755</ele>
        <time>1970-01-01T01:00:00Z</time>
      </trkpt>
      <trkpt lat="63.39047933" lon="10.541911">
        <ele>155.755</ele>
        <time>1970-01-01T01:00:00Z</time>
      </trkpt>
      <trkpt lat="63.39044133" lon="10.541878">
        <ele>155.755</ele>
        <time>1970-01-01T01:00:00Z</time>
      </trkpt>
      <trkpt lat="63.39040333" lon="10.54184417">
        <ele>155.755</ele>
        <time>1970-01-01T01:00:00Z</time>
      </trkpt>
      <trkpt lat="63.39036483" lon="10.54181117">
        <ele>155.755</ele>
        <time>1970-01-01T01:00:00Z</time>
      </trkpt>
      <trkpt lat="63.39032567" lon="10.54177967">
        <ele>155.755</ele>
        <time>1970-01-01T01:00:00Z</time>
      </trkpt>
      <trkpt lat="63.390286" lon="10.54174967">
        <ele>155.755</ele>
        <time>1970-01-01T01:00:00Z</time>
      </trkpt>
      <trkpt lat="63.39024583" lon="10.54172033">
        <ele>155.755</ele>
        <time>1970-01-01T01:00:00Z</time>
      </trkpt>
      <trkpt lat="63.3902055" lon="10.5416915">
        <ele>155.755</ele>
        <time>1970-01-01T01:00:00Z</time>
      </trkpt>
      <trkpt lat="63.3901655" lon="10.54166083">
        <ele>155.755</ele>
        <time>1970-01-01T01:00:00Z</time>
      </trkpt>
      <trkpt lat="63.39012617" lon="10.5416275">
        <ele>155.755</ele>
        <time>1970-01-01T01:00:00Z</time>
      </trkpt>
      <trkpt lat="63.39008733" lon="10.54159317">
        <ele>155.755</ele>
        <time>1970-01-01T01:00:00Z</time>
      </trkpt>
      <trkpt lat="63.39004867" lon="10.54156017">
        <ele>155.755</ele>
        <time>1970-01-01T01:00:00Z</time>
      </trkpt>
      <trkpt lat="63.39000917" lon="10.54153083">
        <ele>155.755</ele>
        <time>1970-01-01T01:00:00Z</time>
      </trkpt>
      <trkpt lat="63.38996933" lon="10.54150383">
        <ele>155.755</ele>
        <time>1970-01-01T01:00:00Z</time>
      </trkpt>
      <trkpt lat="63.38992967" lon="10.54147783">
        <ele>155.755</ele>
        <time>1970-01-01T01:00:00Z</time>
      </trkpt>
      <trkpt lat="63.38989" lon="10.54145483">
        <ele>155.907</ele>
        <time>1970-01-01T01:00:00Z</time>
      </trkpt>
      <trkpt lat="63.38985017" lon="10.54143333">
        <ele>155.907</ele>
        <time>1970-01-01T01:00:00Z</time>
      </trkpt>
      <trkpt lat="63.38980967" lon="10.54141483">
        <ele>155.907</ele>
        <time>1970-01-01T01:00:00Z</time>
      </trkpt>
      <trkpt lat="63.38976917" lon="10.541396">
        <ele>155.907</ele>
        <time>1970-01-01T01:00:00Z</time>
      </trkpt>
      <trkpt lat="63.389729" lon="10.5413775">
        <ele>155.907</ele>
        <time>1970-01-01T01:00:00Z</time>
      </trkpt>
      <trkpt lat="63.389689" lon="10.54135917">
        <ele>155.907</ele>
        <time>1970-01-01T01:00:00Z</time>
      </trkpt>
      <trkpt lat="63.389649" lon="10.541341">
        <ele>156.059</ele>
        <time>1970-01-01T01:00:00Z</time>
      </trkpt>
      <trkpt lat="63.38960883" lon="10.54132233">
        <ele>156.059</ele>
        <time>1970-01-01T01:00:00Z</time>
      </trkpt>
      <trkpt lat="63.3895685" lon="10.54130267">
        <ele>156.059</ele>
        <time>1970-01-01T01:00:00Z</time>
      </trkpt>
      <trkpt lat="63.38952867" lon="10.5412825">
        <ele>156.059</ele>
        <time>1970-01-01T01:00:00Z</time>
      </trkpt>
      <trkpt lat="63.38948933" lon="10.54126267">
        <ele>156.212</ele>
        <time>1970-01-01T01:00:00Z</time>
      </trkpt>
      <trkpt lat="63.3894505" lon="10.54124283">
        <ele>156.212</ele>
        <time>1970-01-01T01:00:00Z</time>
      </trkpt>
      <trkpt lat="63.38941133" lon="10.54122367">
        <ele>156.212</ele>
        <time>1970-01-01T01:00:00Z</time>
      </trkpt>
      <trkpt lat="63.38937183" lon="10.54120483">
        <ele>156.212</ele>
        <time>1970-01-01T01:00:00Z</time>
      </trkpt>
      <trkpt lat="63.38933233" lon="10.54118617">
        <ele>156.364</ele>
        <time>1970-01-01T01:00:00Z</time>
      </trkpt>
      <trkpt lat="63.389293" lon="10.541167">
        <ele>156.364</ele>
        <time>1970-01-01T01:00:00Z</time>
      </trkpt>
      <trkpt lat="63.389254" lon="10.54114767">
        <ele>156.517</ele>
        <time>1970-01-01T01:00:00Z</time>
      </trkpt>
      <trkpt lat="63.38921533" lon="10.54112767">
        <ele>156.517</ele>
        <time>1970-01-01T01:00:00Z</time>
      </trkpt>
      <trkpt lat="63.38917667" lon="10.54110733">
        <ele>156.517</ele>
        <time>1970-01-01T01:00:00Z</time>
      </trkpt>
      <trkpt lat="63.389138" lon="10.54108733">
        <ele>156.517</ele>
        <time>1970-01-01T01:00:00Z</time>
      </trkpt>
      <trkpt lat="63.38909867" lon="10.54106833">
        <ele>156.669</ele>
        <time>1970-01-01T01:00:00Z</time>
      </trkpt>
      <trkpt lat="63.38905867" lon="10.541049">
        <ele>156.669</ele>
        <time>1970-01-01T01:00:00Z</time>
      </trkpt>
      <trkpt lat="63.38901833" lon="10.54102867">
        <ele>156.669</ele>
        <time>1970-01-01T01:00:00Z</time>
      </trkpt>
      <trkpt lat="63.38897783" lon="10.54100833">
        <ele>156.669</ele>
        <time>1970-01-01T01:00:00Z</time>
      </trkpt>
      <trkpt lat="63.38893683" lon="10.540988">
        <ele>156.669</ele>
        <time>1970-01-01T01:00:00Z</time>
      </trkpt>
      <trkpt lat="63.38889583" lon="10.54096733">
        <ele>156.669</ele>
        <time>1970-01-01T01:00:00Z</time>
      </trkpt>
      <trkpt lat="63.38885433" lon="10.54094617">
        <ele>156.822</ele>
        <time>1970-01-01T01:00:00Z</time>
      </trkpt>
      <trkpt lat="63.38881283" lon="10.5409245">
        <ele>156.822</ele>
        <time>1970-01-01T01:00:00Z</time>
      </trkpt>
      <trkpt lat="63.38877117" lon="10.5409025">
        <ele>156.822</ele>
        <time>1970-01-01T01:00:00Z</time>
      </trkpt>
      <trkpt lat="63.38872967" lon="10.54088033">
        <ele>156.822</ele>
        <time>1970-01-01T01:00:00Z</time>
      </trkpt>
      <trkpt lat="63.38868883" lon="10.54085783">
        <ele>156.974</ele>
        <time>1970-01-01T01:00:00Z</time>
      </trkpt>
      <trkpt lat="63.3886485" lon="10.54083683">
        <ele>156.974</ele>
        <time>1970-01-01T01:00:00Z</time>
      </trkpt>
      <trkpt lat="63.3886085" lon="10.54081733">
        <ele>156.974</ele>
        <time>1970-01-01T01:00:00Z</time>
      </trkpt>
      <trkpt lat="63.38856867" lon="10.54079933">
        <ele>156.974</ele>
        <time>1970-01-01T01:00:00Z</time>
      </trkpt>
      <trkpt lat="63.38852917" lon="10.5407805">
        <ele>157.126</ele>
        <time>1970-01-01T01:00:00Z</time>
      </trkpt>
      <trkpt lat="63.38849017" lon="10.540761">
        <ele>157.126</ele>
        <time>1970-01-01T01:00:00Z</time>
      </trkpt>
      <trkpt lat="63.38845167" lon="10.54074">
        <ele>157.279</ele>
        <time>1970-01-01T01:00:00Z</time>
      </trkpt>
      <trkpt lat="63.38841367" lon="10.54071817">
        <ele>157.279</ele>
        <time>1970-01-01T01:00:00Z</time>
      </trkpt>
      <trkpt lat="63.38837583" lon="10.54069667">
        <ele>157.279</ele>
        <time>1970-01-01T01:00:00Z</time>
      </trkpt>
      <trkpt lat="63.38833817" lon="10.540677">
        <ele>157.279</ele>
        <time>1970-01-01T01:00:00Z</time>
      </trkpt>
      <trkpt lat="63.3883005" lon="10.5406595">
        <ele>157.431</ele>
        <time>1970-01-01T01:00:00Z</time>
      </trkpt>
      <trkpt lat="63.38826283" lon="10.540643">
        <ele>157.431</ele>
        <time>1970-01-01T01:00:00Z</time>
      </trkpt>
      <trkpt lat="63.38822517" lon="10.54062667">
        <ele>157.431</ele>
        <time>1970-01-01T01:00:00Z</time>
      </trkpt>
      <trkpt lat="63.388187" lon="10.5406105">
        <ele>157.431</ele>
        <time>1970-01-01T01:00:00Z</time>
      </trkpt>
      <trkpt lat="63.38814867" lon="10.54059467">
        <ele>157.584</ele>
        <time>1970-01-01T01:00:00Z</time>
      </trkpt>
      <trkpt lat="63.3881105" lon="10.5405795">
        <ele>157.584</ele>
        <time>1970-01-01T01:00:00Z</time>
      </trkpt>
      <trkpt lat="63.38807233" lon="10.54056483">
        <ele>157.736</ele>
        <time>1970-01-01T01:00:00Z</time>
      </trkpt>
      <trkpt lat="63.38803367" lon="10.54055133">
        <ele>157.736</ele>
        <time>1970-01-01T01:00:00Z</time>
      </trkpt>
      <trkpt lat="63.38799417" lon="10.54053983">
        <ele>157.736</ele>
        <time>1970-01-01T01:00:00Z</time>
      </trkpt>
      <trkpt lat="63.38795383" lon="10.54053033">
        <ele>157.736</ele>
        <time>1970-01-01T01:00:00Z</time>
      </trkpt>
      <trkpt lat="63.38791267" lon="10.54052267">
        <ele>157.888</ele>
        <time>1970-01-01T01:00:00Z</time>
      </trkpt>
      <trkpt lat="63.38787133" lon="10.54051617">
        <ele>157.888</ele>
        <time>1970-01-01T01:00:00Z</time>
      </trkpt>
      <trkpt lat="63.3878295" lon="10.54051033">
        <ele>158.041</ele>
        <time>1970-01-01T01:00:00Z</time>
      </trkpt>
      <trkpt lat="63.38778733" lon="10.5405035">
        <ele>158.041</ele>
        <time>1970-01-01T01:00:00Z</time>
      </trkpt>
      <trkpt lat="63.38774383" lon="10.540495">
        <ele>158.041</ele>
        <time>1970-01-01T01:00:00Z</time>
      </trkpt>
      <trkpt lat="63.38769933" lon="10.54048567">
        <ele>158.041</ele>
        <time>1970-01-01T01:00:00Z</time>
      </trkpt>
      <trkpt lat="63.38765367" lon="10.54047683">
        <ele>158.193</ele>
        <time>1970-01-01T01:00:00Z</time>
      </trkpt>
      <trkpt lat="63.387607" lon="10.540469">
        <ele>158.193</ele>
        <time>1970-01-01T01:00:00Z</time>
      </trkpt>
      <trkpt lat="63.38755983" lon="10.540462">
        <ele>158.193</ele>
        <time>1970-01-01T01:00:00Z</time>
      </trkpt>
      <trkpt lat="63.38751233" lon="10.540456">
        <ele>158.193</ele>
        <time>1970-01-01T01:00:00Z</time>
      </trkpt>
      <trkpt lat="63.38746467" lon="10.5404495">
        <ele>158.346</ele>
        <time>1970-01-01T01:00:00Z</time>
      </trkpt>
      <trkpt lat="63.38741733" lon="10.54044317">
        <ele>158.346</ele>
        <time>1970-01-01T01:00:00Z</time>
      </trkpt>
      <trkpt lat="63.38737067" lon="10.54043583">
        <ele>158.346</ele>
        <time>1970-01-01T01:00:00Z</time>
      </trkpt>
      <trkpt lat="63.3873245" lon="10.54042833">
        <ele>158.346</ele>
        <time>1970-01-01T01:00:00Z</time>
      </trkpt>
      <trkpt lat="63.38727817" lon="10.5404205">
        <ele>158.346</ele>
        <time>1970-01-01T01:00:00Z</time>
      </trkpt>
      <trkpt lat="63.38723183" lon="10.54041283">
        <ele>158.346</ele>
        <time>1970-01-01T01:00:00Z</time>
      </trkpt>
      <trkpt lat="63.38718533" lon="10.54040583">
        <ele>158.498</ele>
        <time>1970-01-01T01:00:00Z</time>
      </trkpt>
      <trkpt lat="63.38713883" lon="10.54039967">
        <ele>158.498</ele>
        <time>1970-01-01T01:00:00Z</time>
      </trkpt>
      <trkpt lat="63.38709217" lon="10.54039417">
        <ele>158.498</ele>
        <time>1970-01-01T01:00:00Z</time>
      </trkpt>
      <trkpt lat="63.3870455" lon="10.54038867">
        <ele>158.498</ele>
        <time>1970-01-01T01:00:00Z</time>
      </trkpt>
      <trkpt lat="63.3869995" lon="10.5403835">
        <ele>158.498</ele>
        <time>1970-01-01T01:00:00Z</time>
      </trkpt>
      <trkpt lat="63.386955" lon="10.54037633">
        <ele>158.498</ele>
        <time>1970-01-01T01:00:00Z</time>
      </trkpt>
      <trkpt lat="63.3869125" lon="10.54036867">
        <ele>158.65</ele>
        <time>1970-01-01T01:00:00Z</time>
      </trkpt>
      <trkpt lat="63.38687167" lon="10.5403625">
        <ele>158.65</ele>
        <time>1970-01-01T01:00:00Z</time>
      </trkpt>
      <trkpt lat="63.386833" lon="10.54035933">
        <ele>158.65</ele>
        <time>1970-01-01T01:00:00Z</time>
      </trkpt>
      <trkpt lat="63.3867965" lon="10.54035483">
        <ele>158.65</ele>
        <time>1970-01-01T01:00:00Z</time>
      </trkpt>
      <trkpt lat="63.386762" lon="10.5403475">
        <ele>158.65</ele>
        <time>1970-01-01T01:00:00Z</time>
      </trkpt>
      <trkpt lat="63.38672983" lon="10.54033867">
        <ele>158.65</ele>
        <time>1970-01-01T01:00:00Z</time>
      </trkpt>
      <trkpt lat="63.3867" lon="10.540332">
        <ele>158.65</ele>
        <time>1970-01-01T01:00:00Z</time>
      </trkpt>
      <trkpt lat="63.38667283" lon="10.540326">
        <ele>158.65</ele>
        <time>1970-01-01T01:00:00Z</time>
      </trkpt>
      <trkpt lat="63.38664817" lon="10.5403195">
        <ele>158.65</ele>
        <time>1970-01-01T01:00:00Z</time>
      </trkpt>
      <trkpt lat="63.38662617" lon="10.54031283">
        <ele>158.65</ele>
        <time>1970-01-01T01:00:00Z</time>
      </trkpt>
      <trkpt lat="63.38660667" lon="10.540309">
        <ele>158.65</ele>
        <time>1970-01-01T01:00:00Z</time>
      </trkpt>
      <trkpt lat="63.38658833" lon="10.54030683">
        <ele>158.65</ele>
        <time>1970-01-01T01:00:00Z</time>
      </trkpt>
      <trkpt lat="63.38657" lon="10.54030283">
        <ele>158.65</ele>
        <time>1970-01-01T01:00:00Z</time>
      </trkpt>
      <trkpt lat="63.38655067" lon="10.54029433">
        <ele>158.65</ele>
        <time>1970-01-01T01:00:00Z</time>
      </trkpt>
      <trkpt lat="63.3865305" lon="10.540285">
        <ele>158.65</ele>
        <time>1970-01-01T01:00:00Z</time>
      </trkpt>
      <trkpt lat="63.3865095" lon="10.54027533">
        <ele>158.65</ele>
        <time>1970-01-01T01:00:00Z</time>
      </trkpt>
      <trkpt lat="63.386487" lon="10.54026833">
        <ele>158.65</ele>
        <time>1970-01-01T01:00:00Z</time>
      </trkpt>
      <trkpt lat="63.386464" lon="10.54026">
        <ele>158.65</ele>
        <time>1970-01-01T01:00:00Z</time>
      </trkpt>
      <trkpt lat="63.386441" lon="10.5402525">
        <ele>158.65</ele>
        <time>1970-01-01T01:00:00Z</time>
      </trkpt>
      <trkpt lat="63.38641867" lon="10.54024417">
        <ele>158.65</ele>
        <time>1970-01-01T01:00:00Z</time>
      </trkpt>
      <trkpt lat="63.38639667" lon="10.54023583">
        <ele>158.65</ele>
        <time>1970-01-01T01:00:00Z</time>
      </trkpt>
      <trkpt lat="63.38637383" lon="10.54022583">
        <ele>158.65</ele>
        <time>1970-01-01T01:00:00Z</time>
      </trkpt>
      <trkpt lat="63.38635" lon="10.54021467">
        <ele>158.803</ele>
        <time>1970-01-01T01:00:00Z</time>
      </trkpt>
      <trkpt lat="63.38632583" lon="10.54020233">
        <ele>158.803</ele>
        <time>1970-01-01T01:00:00Z</time>
      </trkpt>
      <trkpt lat="63.38630117" lon="10.54018933">
        <ele>158.803</ele>
        <time>1970-01-01T01:00:00Z</time>
      </trkpt>
      <trkpt lat="63.38627617" lon="10.54017617">
        <ele>158.803</ele>
        <time>1970-01-01T01:00:00Z</time>
      </trkpt>
      <trkpt lat="63.3862505" lon="10.540164">
        <ele>158.803</ele>
        <time>1970-01-01T01:00:00Z</time>
      </trkpt>
      <trkpt lat="63.38622433" lon="10.5401525">
        <ele>158.803</ele>
        <time>1970-01-01T01:00:00Z</time>
      </trkpt>
      <trkpt lat="63.38619767" lon="10.54014017">
        <ele>158.803</ele>
        <time>1970-01-01T01:00:00Z</time>
      </trkpt>
      <trkpt lat="63.386171" lon="10.54012717">
        <ele>158.803</ele>
        <time>1970-01-01T01:00:00Z</time>
      </trkpt>
      <trkpt lat="63.3861445" lon="10.540112">
        <ele>158.803</ele>
        <time>1970-01-01T01:00:00Z</time>
      </trkpt>
      <trkpt lat="63.386118" lon="10.54009667">
        <ele>158.803</ele>
        <time>1970-01-01T01:00:00Z</time>
      </trkpt>
      <trkpt lat="63.38609217" lon="10.54008067">
        <ele>158.803</ele>
        <time>1970-01-01T01:00:00Z</time>
      </trkpt>
      <trkpt lat="63.38606733" lon="10.54006717">
        <ele>158.803</ele>
        <time>1970-01-01T01:00:00Z</time>
      </trkpt>
      <trkpt lat="63.38604383" lon="10.54005483">
        <ele>158.803</ele>
        <time>1970-01-01T01:00:00Z</time>
      </trkpt>
      <trkpt lat="63.38602133" lon="10.54004417">
        <ele>158.803</ele>
        <time>1970-01-01T01:00:00Z</time>
      </trkpt>
      <trkpt lat="63.38599883" lon="10.54003283">
        <ele>158.955</ele>
        <time>1970-01-01T01:00:00Z</time>
      </trkpt>
      <trkpt lat="63.38597617" lon="10.540021">
        <ele>158.955</ele>
        <time>1970-01-01T01:00:00Z</time>
      </trkpt>
      <trkpt lat="63.385953" lon="10.540007">
        <ele>158.955</ele>
        <time>1970-01-01T01:00:00Z</time>
      </trkpt>
      <trkpt lat="63.38592983" lon="10.539993">
        <ele>158.955</ele>
        <time>1970-01-01T01:00:00Z</time>
      </trkpt>
      <trkpt lat="63.38590683" lon="10.53997817">
        <ele>158.955</ele>
        <time>1970-01-01T01:00:00Z</time>
      </trkpt>
      <trkpt lat="63.3858845" lon="10.5399655">
        <ele>158.955</ele>
        <time>1970-01-01T01:00:00Z</time>
      </trkpt>
      <trkpt lat="63.38586267" lon="10.539954">
        <ele>158.955</ele>
        <time>1970-01-01T01:00:00Z</time>
      </trkpt>
      <trkpt lat="63.38584083" lon="10.53994167">
        <ele>158.955</ele>
        <time>1970-01-01T01:00:00Z</time>
      </trkpt>
      <trkpt lat="63.38581817" lon="10.53992817">
        <ele>158.955</ele>
        <time>1970-01-01T01:00:00Z</time>
      </trkpt>
      <trkpt lat="63.38579467" lon="10.53991433">
        <ele>158.955</ele>
        <time>1970-01-01T01:00:00Z</time>
      </trkpt>
      <trkpt lat="63.38577033" lon="10.53990183">
        <ele>159.108</ele>
        <time>1970-01-01T01:00:00Z</time>
      </trkpt>
      <trkpt lat="63.38574533" lon="10.53988833">
        <ele>159.108</ele>
        <time>1970-01-01T01:00:00Z</time>
      </trkpt>
      <trkpt lat="63.38572033" lon="10.539874">
        <ele>159.108</ele>
        <time>1970-01-01T01:00:00Z</time>
      </trkpt>
      <trkpt lat="63.38569517" lon="10.53985983">
        <ele>159.108</ele>
        <time>1970-01-01T01:00:00Z</time>
      </trkpt>
      <trkpt lat="63.38567033" lon="10.53984567">
        <ele>159.108</ele>
        <time>1970-01-01T01:00:00Z</time>
      </trkpt>
      <trkpt lat="63.38564567" lon="10.53983083">
        <ele>159.108</ele>
        <time>1970-01-01T01:00:00Z</time>
      </trkpt>
      <trkpt lat="63.38562083" lon="10.53981483">
        <ele>159.108</ele>
        <time>1970-01-01T01:00:00Z</time>
      </trkpt>
      <trkpt lat="63.38559567" lon="10.539799">
        <ele>159.108</ele>
        <time>1970-01-01T01:00:00Z</time>
      </trkpt>
      <trkpt lat="63.38557033" lon="10.53978367">
        <ele>159.108</ele>
        <time>1970-01-01T01:00:00Z</time>
      </trkpt>
      <trkpt lat="63.38554517" lon="10.539768">
        <ele>159.108</ele>
        <time>1970-01-01T01:00:00Z</time>
      </trkpt>
      <trkpt lat="63.38552017" lon="10.539753">
        <ele>159.108</ele>
        <time>1970-01-01T01:00:00Z</time>
      </trkpt>
      <trkpt lat="63.38549567" lon="10.539739">
        <ele>159.108</ele>
        <time>1970-01-01T01:00:00Z</time>
      </trkpt>
      <trkpt lat="63.38547117" lon="10.53972883">
        <ele>159.108</ele>
        <time>1970-01-01T01:00:00Z</time>
      </trkpt>
      <trkpt lat="63.3854465" lon="10.53972067">
        <ele>159.108</ele>
        <time>1970-01-01T01:00:00Z</time>
      </trkpt>
      <trkpt lat="63.38542167" lon="10.53971333">
        <ele>159.108</ele>
        <time>1970-01-01T01:00:00Z</time>
      </trkpt>
      <trkpt lat="63.38539667" lon="10.5397035">
        <ele>159.108</ele>
        <time>1970-01-01T01:00:00Z</time>
      </trkpt>
      <trkpt lat="63.38537117" lon="10.53969133">
        <ele>159.108</ele>
        <time>1970-01-01T01:00:00Z</time>
      </trkpt>
      <trkpt lat="63.38534483" lon="10.53967567">
        <ele>159.108</ele>
        <time>1970-01-01T01:00:00Z</time>
      </trkpt>
      <trkpt lat="63.385317" lon="10.53965833">
        <ele>159.108</ele>
        <time>1970-01-01T01:00:00Z</time>
      </trkpt>
      <trkpt lat="63.38528767" lon="10.53963983">
        <ele>159.108</ele>
        <time>1970-01-01T01:00:00Z</time>
      </trkpt>
      <trkpt lat="63.38525667" lon="10.53962217">
        <ele>159.108</ele>
        <time>1970-01-01T01:00:00Z</time>
      </trkpt>
      <trkpt lat="63.38522433" lon="10.539606">
        <ele>159.108</ele>
        <time>1970-01-01T01:00:00Z</time>
      </trkpt>
      <trkpt lat="63.38519067" lon="10.53959217">
        <ele>159.108</ele>
        <time>1970-01-01T01:00:00Z</time>
      </trkpt>
      <trkpt lat="63.385156" lon="10.53957883">
        <ele>159.108</ele>
        <time>1970-01-01T01:00:00Z</time>
      </trkpt>
      <trkpt lat="63.38512067" lon="10.53956483">
        <ele>159.108</ele>
        <time>1970-01-01T01:00:00Z</time>
      </trkpt>
      <trkpt lat="63.38508467" lon="10.53954933">
        <ele>159.108</ele>
        <time>1970-01-01T01:00:00Z</time>
      </trkpt>
      <trkpt lat="63.385048" lon="10.539534">
        <ele>158.955</ele>
        <time>1970-01-01T01:00:00Z</time>
      </trkpt>
      <trkpt lat="63.38501067" lon="10.53951933">
        <ele>158.955</ele>
        <time>1970-01-01T01:00:00Z</time>
      </trkpt>
      <trkpt lat="63.38497267" lon="10.5395055">
        <ele>158.955</ele>
        <time>1970-01-01T01:00:00Z</time>
      </trkpt>
      <trkpt lat="63.38493433" lon="10.53949133">
        <ele>158.955</ele>
        <time>1970-01-01T01:00:00Z</time>
      </trkpt>
      <trkpt lat="63.38489583" lon="10.539477">
        <ele>158.955</ele>
        <time>1970-01-01T01:00:00Z</time>
      </trkpt>
      <trkpt lat="63.38485733" lon="10.5394615">
        <ele>158.955</ele>
        <time>1970-01-01T01:00:00Z</time>
      </trkpt>
      <trkpt lat="63.3848185" lon="10.53944783">
        <ele>158.955</ele>
        <time>1970-01-01T01:00:00Z</time>
      </trkpt>
      <trkpt lat="63.38477883" lon="10.53943583">
        <ele>158.955</ele>
        <time>1970-01-01T01:00:00Z</time>
      </trkpt>
      <trkpt lat="63.3847385" lon="10.53942533">
        <ele>158.955</ele>
        <time>1970-01-01T01:00:00Z</time>
      </trkpt>
      <trkpt lat="63.3846975" lon="10.5394135">
        <ele>158.955</ele>
        <time>1970-01-01T01:00:00Z</time>
      </trkpt>
      <trkpt lat="63.38465583" lon="10.53940117">
        <ele>158.955</ele>
        <time>1970-01-01T01:00:00Z</time>
      </trkpt>
      <trkpt lat="63.38461367" lon="10.53938733">
        <ele>158.955</ele>
        <time>1970-01-01T01:00:00Z</time>
      </trkpt>
      <trkpt lat="63.38457067" lon="10.53937217">
        <ele>158.955</ele>
        <time>1970-01-01T01:00:00Z</time>
      </trkpt>
      <trkpt lat="63.38452667" lon="10.53935583">
        <ele>158.955</ele>
        <time>1970-01-01T01:00:00Z</time>
      </trkpt>
      <trkpt lat="63.38448183" lon="10.53934083">
        <ele>158.955</ele>
        <time>1970-01-01T01:00:00Z</time>
      </trkpt>
      <trkpt lat="63.38443667" lon="10.53932683">
        <ele>158.955</ele>
        <time>1970-01-01T01:00:00Z</time>
      </trkpt>
      <trkpt lat="63.3843915" lon="10.53931267">
        <ele>158.955</ele>
        <time>1970-01-01T01:00:00Z</time>
      </trkpt>
      <trkpt lat="63.38434633" lon="10.539299">
        <ele>158.955</ele>
        <time>1970-01-01T01:00:00Z</time>
      </trkpt>
      <trkpt lat="63.38430133" lon="10.53928583">
        <ele>158.803</ele>
        <time>1970-01-01T01:00:00Z</time>
      </trkpt>
      <trkpt lat="63.38425617" lon="10.5392735">
        <ele>158.803</ele>
        <time>1970-01-01T01:00:00Z</time>
      </trkpt>
      <trkpt lat="63.38421067" lon="10.539261">
        <ele>158.803</ele>
        <time>1970-01-01T01:00:00Z</time>
      </trkpt>
      <trkpt lat="63.38416483" lon="10.53924917">
        <ele>158.803</ele>
        <time>1970-01-01T01:00:00Z</time>
      </trkpt>
      <trkpt lat="63.38411867" lon="10.53923767">
        <ele>158.803</ele>
        <time>1970-01-01T01:00:00Z</time>
      </trkpt>
      <trkpt lat="63.3840725" lon="10.5392265">
        <ele>158.803</ele>
        <time>1970-01-01T01:00:00Z</time>
      </trkpt>
      <trkpt lat="63.38402633" lon="10.53921467">
        <ele>158.65</ele>
        <time>1970-01-01T01:00:00Z</time>
      </trkpt>
      <trkpt lat="63.3839805" lon="10.53920283">
        <ele>158.65</ele>
        <time>1970-01-01T01:00:00Z</time>
      </trkpt>
      <trkpt lat="63.38393467" lon="10.53919017">
        <ele>158.65</ele>
        <time>1970-01-01T01:00:00Z</time>
      </trkpt>
      <trkpt lat="63.3838885" lon="10.5391775">
        <ele>158.65</ele>
        <time>1970-01-01T01:00:00Z</time>
      </trkpt>
      <trkpt lat="63.38384233" lon="10.5391655">
        <ele>158.65</ele>
        <time>1970-01-01T01:00:00Z</time>
      </trkpt>
      <trkpt lat="63.38379683" lon="10.53915417">
        <ele>158.65</ele>
        <time>1970-01-01T01:00:00Z</time>
      </trkpt>
      <trkpt lat="63.38375233" lon="10.53914217">
        <ele>158.498</ele>
        <time>1970-01-01T01:00:00Z</time>
      </trkpt>
      <trkpt lat="63.38370817" lon="10.53913033">
        <ele>158.498</ele>
        <time>1970-01-01T01:00:00Z</time>
      </trkpt>
      <trkpt lat="63.38366433" lon="10.53911917">
        <ele>158.498</ele>
        <time>1970-01-01T01:00:00Z</time>
      </trkpt>
      <trkpt lat="63.38362067" lon="10.53910883">
        <ele>158.498</ele>
        <time>1970-01-01T01:00:00Z</time>
      </trkpt>
      <trkpt lat="63.3835775" lon="10.53909817">
        <ele>158.498</ele>
        <time>1970-01-01T01:00:00Z</time>
      </trkpt>
      <trkpt lat="63.3835345" lon="10.53908717">
        <ele>158.498</ele>
        <time>1970-01-01T01:00:00Z</time>
      </trkpt>
      <trkpt lat="63.3834915" lon="10.53907667">
        <ele>158.498</ele>
        <time>1970-01-01T01:00:00Z</time>
      </trkpt>
      <trkpt lat="63.38344817" lon="10.53906667">
        <ele>158.498</ele>
        <time>1970-01-01T01:00:00Z</time>
      </trkpt>
      <trkpt lat="63.38340433" lon="10.539057">
        <ele>158.346</ele>
        <time>1970-01-01T01:00:00Z</time>
      </trkpt>
      <trkpt lat="63.38335983" lon="10.53904767">
        <ele>158.346</ele>
        <time>1970-01-01T01:00:00Z</time>
      </trkpt>
      <trkpt lat="63.38331483" lon="10.5390375">
        <ele>158.346</ele>
        <time>1970-01-01T01:00:00Z</time>
      </trkpt>
      <trkpt lat="63.38326967" lon="10.539026">
        <ele>158.346</ele>
        <time>1970-01-01T01:00:00Z</time>
      </trkpt>
      <trkpt lat="63.38322417" lon="10.53901433">
        <ele>158.346</ele>
        <time>1970-01-01T01:00:00Z</time>
      </trkpt>
      <trkpt lat="63.38317817" lon="10.539005">
        <ele>158.346</ele>
        <time>1970-01-01T01:00:00Z</time>
      </trkpt>
      <trkpt lat="63.38313167" lon="10.53899817">
        <ele>158.346</ele>
        <time>1970-01-01T01:00:00Z</time>
      </trkpt>
      <trkpt lat="63.38308533" lon="10.53899183">
        <ele>158.346</ele>
        <time>1970-01-01T01:00:00Z</time>
      </trkpt>
      <trkpt lat="63.3830395" lon="10.53898417">
        <ele>158.193</ele>
        <time>1970-01-01T01:00:00Z</time>
      </trkpt>
      <trkpt lat="63.382994" lon="10.53897517">
        <ele>158.193</ele>
        <time>1970-01-01T01:00:00Z</time>
      </trkpt>
      <trkpt lat="63.38294883" lon="10.53896583">
        <ele>158.193</ele>
        <time>1970-01-01T01:00:00Z</time>
      </trkpt>
      <trkpt lat="63.382904" lon="10.53895683">
        <ele>158.193</ele>
        <time>1970-01-01T01:00:00Z</time>
      </trkpt>
      <trkpt lat="63.38285917" lon="10.538948">
        <ele>158.193</ele>
        <time>1970-01-01T01:00:00Z</time>
      </trkpt>
      <trkpt lat="63.38281417" lon="10.53893783">
        <ele>158.193</ele>
        <time>1970-01-01T01:00:00Z</time>
      </trkpt>
      <trkpt lat="63.3827695" lon="10.5389235">
        <ele>158.193</ele>
        <time>1970-01-01T01:00:00Z</time>
      </trkpt>
      <trkpt lat="63.38272483" lon="10.53890717">
        <ele>158.193</ele>
        <time>1970-01-01T01:00:00Z</time>
      </trkpt>
      <trkpt lat="63.38267983" lon="10.5388925">
        <ele>158.193</ele>
        <time>1970-01-01T01:00:00Z</time>
      </trkpt>
      <trkpt lat="63.382634" lon="10.538883">
        <ele>158.193</ele>
        <time>1970-01-01T01:00:00Z</time>
      </trkpt>
      <trkpt lat="63.3825875" lon="10.53887717">
        <ele>158.041</ele>
        <time>1970-01-01T01:00:00Z</time>
      </trkpt>
      <trkpt lat="63.38254067" lon="10.538873">
        <ele>158.041</ele>
        <time>1970-01-01T01:00:00Z</time>
      </trkpt>
      <trkpt lat="63.382494" lon="10.5388685">
        <ele>158.041</ele>
        <time>1970-01-01T01:00:00Z</time>
      </trkpt>
      <trkpt lat="63.3824475" lon="10.53886317">
        <ele>158.041</ele>
        <time>1970-01-01T01:00:00Z</time>
      </trkpt>
      <trkpt lat="63.38240067" lon="10.53885683">
        <ele>158.041</ele>
        <time>1970-01-01T01:00:00Z</time>
      </trkpt>
      <trkpt lat="63.38235367" lon="10.53884917">
        <ele>158.041</ele>
        <time>1970-01-01T01:00:00Z</time>
      </trkpt>
      <trkpt lat="63.38230633" lon="10.53884283">
        <ele>158.041</ele>
        <time>1970-01-01T01:00:00Z</time>
      </trkpt>
      <trkpt lat="63.38225933" lon="10.53883767">
        <ele>158.041</ele>
        <time>1970-01-01T01:00:00Z</time>
      </trkpt>
      <trkpt lat="63.38221217" lon="10.53883433">
        <ele>157.888</ele>
        <time>1970-01-01T01:00:00Z</time>
      </trkpt>
      <trkpt lat="63.382165" lon="10.53883">
        <ele>157.888</ele>
        <time>1970-01-01T01:00:00Z</time>
      </trkpt>
      <trkpt lat="63.38211783" lon="10.53882483">
        <ele>157.888</ele>
        <time>1970-01-01T01:00:00Z</time>
      </trkpt>
      <trkpt lat="63.38207067" lon="10.5388185">
        <ele>157.888</ele>
        <time>1970-01-01T01:00:00Z</time>
      </trkpt>
      <trkpt lat="63.3820235" lon="10.53881283">
        <ele>157.736</ele>
        <time>1970-01-01T01:00:00Z</time>
      </trkpt>
      <trkpt lat="63.38197617" lon="10.53880783">
        <ele>157.736</ele>
        <time>1970-01-01T01:00:00Z</time>
      </trkpt>
      <trkpt lat="63.3819285" lon="10.538804">
        <ele>157.736</ele>
        <time>1970-01-01T01:00:00Z</time>
      </trkpt>
      <trkpt lat="63.3818805" lon="10.53880067">
        <ele>157.736</ele>
        <time>1970-01-01T01:00:00Z</time>
      </trkpt>
      <trkpt lat="63.38183183" lon="10.53879733">
        <ele>157.736</ele>
        <time>1970-01-01T01:00:00Z</time>
      </trkpt>
      <trkpt lat="63.3817825" lon="10.53879417">
        <ele>157.736</ele>
        <time>1970-01-01T01:00:00Z</time>
      </trkpt>
      <trkpt lat="63.38173233" lon="10.5387905">
        <ele>157.584</ele>
        <time>1970-01-01T01:00:00Z</time>
      </trkpt>
      <trkpt lat="63.38168083" lon="10.53878633">
        <ele>157.584</ele>
        <time>1970-01-01T01:00:00Z</time>
      </trkpt>
      <trkpt lat="63.38162817" lon="10.53878183">
        <ele>157.584</ele>
        <time>1970-01-01T01:00:00Z</time>
      </trkpt>
      <trkpt lat="63.3815745" lon="10.5387775">
        <ele>157.584</ele>
        <time>1970-01-01T01:00:00Z</time>
      </trkpt>
      <trkpt lat="63.38151967" lon="10.53877317">
        <ele>157.431</ele>
        <time>1970-01-01T01:00:00Z</time>
      </trkpt>
      <trkpt lat="63.381464" lon="10.53876833">
        <ele>157.431</ele>
        <time>1970-01-01T01:00:00Z</time>
      </trkpt>
      <trkpt lat="63.3814075" lon="10.538763">
        <ele>157.431</ele>
        <time>1970-01-01T01:00:00Z</time>
      </trkpt>
      <trkpt lat="63.38135033" lon="10.53875817">
        <ele>157.431</ele>
        <time>1970-01-01T01:00:00Z</time>
      </trkpt>
      <trkpt lat="63.38129283" lon="10.53875433">
        <ele>157.279</ele>
        <time>1970-01-01T01:00:00Z</time>
      </trkpt>
      <trkpt lat="63.381235" lon="10.538751">
        <ele>157.279</ele>
        <time>1970-01-01T01:00:00Z</time>
      </trkpt>
      <trkpt lat="63.381177" lon="10.538748">
        <ele>157.126</ele>
        <time>1970-01-01T01:00:00Z</time>
      </trkpt>
      <trkpt lat="63.38111933" lon="10.5387455">
        <ele>157.126</ele>
        <time>1970-01-01T01:00:00Z</time>
      </trkpt>
      <trkpt lat="63.38106167" lon="10.53874267">
        <ele>157.126</ele>
        <time>1970-01-01T01:00:00Z</time>
      </trkpt>
      <trkpt lat="63.38100417" lon="10.53873917">
        <ele>157.126</ele>
        <time>1970-01-01T01:00:00Z</time>
      </trkpt>
      <trkpt lat="63.3809465" lon="10.53873533">
        <ele>156.974</ele>
        <time>1970-01-01T01:00:00Z</time>
      </trkpt>
      <trkpt lat="63.38088883" lon="10.53873267">
        <ele>156.974</ele>
        <time>1970-01-01T01:00:00Z</time>
      </trkpt>
      <trkpt lat="63.38083133" lon="10.5387315">
        <ele>156.822</ele>
        <time>1970-01-01T01:00:00Z</time>
      </trkpt>
      <trkpt lat="63.38077417" lon="10.53873033">
        <ele>156.822</ele>
        <time>1970-01-01T01:00:00Z</time>
      </trkpt>
      <trkpt lat="63.38071767" lon="10.538729">
        <ele>156.669</ele>
        <time>1970-01-01T01:00:00Z</time>
      </trkpt>
      <trkpt lat="63.38066183" lon="10.5387255">
        <ele>156.669</ele>
        <time>1970-01-01T01:00:00Z</time>
      </trkpt>
      <trkpt lat="63.3806065" lon="10.53872133">
        <ele>156.669</ele>
        <time>1970-01-01T01:00:00Z</time>
      </trkpt>
      <trkpt lat="63.3805515" lon="10.538717">
        <ele>156.669</ele>
        <time>1970-01-01T01:00:00Z</time>
      </trkpt>
      <trkpt lat="63.380497" lon="10.53871467">
        <ele>156.517</ele>
        <time>1970-01-01T01:00:00Z</time>
      </trkpt>
      <trkpt lat="63.38044267" lon="10.53871433">
        <ele>156.517</ele>
        <time>1970-01-01T01:00:00Z</time>
      </trkpt>
      <trkpt lat="63.38038917" lon="10.53871367">
        <ele>156.364</ele>
        <time>1970-01-01T01:00:00Z</time>
      </trkpt>
      <trkpt lat="63.380336" lon="10.53871217">
        <ele>156.364</ele>
        <time>1970-01-01T01:00:00Z</time>
      </trkpt>
      <trkpt lat="63.38028333" lon="10.53871017">
        <ele>156.212</ele>
        <time>1970-01-01T01:00:00Z</time>
      </trkpt>
      <trkpt lat="63.38023067" lon="10.53870933">
        <ele>156.212</ele>
        <time>1970-01-01T01:00:00Z</time>
      </trkpt>
      <trkpt lat="63.38017733" lon="10.5387085">
        <ele>156.059</ele>
        <time>1970-01-01T01:00:00Z</time>
      </trkpt>
      <trkpt lat="63.38012333" lon="10.5387065">
        <ele>156.059</ele>
        <time>1970-01-01T01:00:00Z</time>
      </trkpt>
      <trkpt lat="63.38006883" lon="10.53870367">
        <ele>155.907</ele>
        <time>1970-01-01T01:00:00Z</time>
      </trkpt>
      <trkpt lat="63.38001417" lon="10.538701">
        <ele>155.907</ele>
        <time>1970-01-01T01:00:00Z</time>
      </trkpt>
      <trkpt lat="63.37995933" lon="10.5386995">
        <ele>155.755</ele>
        <time>1970-01-01T01:00:00Z</time>
      </trkpt>
      <trkpt lat="63.37990483" lon="10.53869783">
        <ele>155.755</ele>
        <time>1970-01-01T01:00:00Z</time>
      </trkpt>
      <trkpt lat="63.3798505" lon="10.5386955">
        <ele>155.602</ele>
        <time>1970-01-01T01:00:00Z</time>
      </trkpt>
      <trkpt lat="63.37979683" lon="10.5386915">
        <ele>155.602</ele>
        <time>1970-01-01T01:00:00Z</time>
      </trkpt>
      <trkpt lat="63.37974367" lon="10.53868617">
        <ele>155.45</ele>
        <time>1970-01-01T01:00:00Z</time>
      </trkpt>
      <trkpt lat="63.379691" lon="10.53868">
        <ele>155.45</ele>
        <time>1970-01-01T01:00:00Z</time>
      </trkpt>
      <trkpt lat="63.3796385" lon="10.53867367">
        <ele>155.297</ele>
        <time>1970-01-01T01:00:00Z</time>
      </trkpt>
      <trkpt lat="63.3795865" lon="10.53866783">
        <ele>155.297</ele>
        <time>1970-01-01T01:00:00Z</time>
      </trkpt>
      <trkpt lat="63.3795355" lon="10.53866167">
        <ele>155.145</ele>
        <time>1970-01-01T01:00:00Z</time>
      </trkpt>
      <trkpt lat="63.37948583" lon="10.5386555">
        <ele>155.145</ele>
        <time>1970-01-01T01:00:00Z</time>
      </trkpt>
      <trkpt lat="63.3794375" lon="10.538649">
        <ele>154.993</ele>
        <time>1970-01-01T01:00:00Z</time>
      </trkpt>
      <trkpt lat="63.37939067" lon="10.53864183">
        <ele>154.993</ele>
        <time>1970-01-01T01:00:00Z</time>
      </trkpt>
      <trkpt lat="63.37934533" lon="10.538633">
        <ele>154.84</ele>
        <time>1970-01-01T01:00:00Z</time>
      </trkpt>
      <trkpt lat="63.3793015" lon="10.53862267">
        <ele>154.84</ele>
        <time>1970-01-01T01:00:00Z</time>
      </trkpt>
      <trkpt lat="63.379259" lon="10.53861283">
        <ele>154.688</ele>
        <time>1970-01-01T01:00:00Z</time>
      </trkpt>
      <trkpt lat="63.379217" lon="10.538605">
        <ele>154.688</ele>
        <time>1970-01-01T01:00:00Z</time>
      </trkpt>
      <trkpt lat="63.37917567" lon="10.53859833">
        <ele>154.535</ele>
        <time>1970-01-01T01:00:00Z</time>
      </trkpt>
      <trkpt lat="63.379135" lon="10.53858917">
        <ele>154.535</ele>
        <time>1970-01-01T01:00:00Z</time>
      </trkpt>
      <trkpt lat="63.37909533" lon="10.53857733">
        <ele>154.535</ele>
        <time>1970-01-01T01:00:00Z</time>
      </trkpt>
      <trkpt lat="63.37905667" lon="10.538563">
        <ele>154.535</ele>
        <time>1970-01-01T01:00:00Z</time>
      </trkpt>
      <trkpt lat="63.379019" lon="10.53854767">
        <ele>154.383</ele>
        <time>1970-01-01T01:00:00Z</time>
      </trkpt>
      <trkpt lat="63.37898217" lon="10.538532">
        <ele>154.383</ele>
        <time>1970-01-01T01:00:00Z</time>
      </trkpt>
      <trkpt lat="63.37894617" lon="10.53851667">
        <ele>154.231</ele>
        <time>1970-01-01T01:00:00Z</time>
      </trkpt>
      <trkpt lat="63.3789105" lon="10.53850267">
        <ele>154.231</ele>
        <time>1970-01-01T01:00:00Z</time>
      </trkpt>
      <trkpt lat="63.378875" lon="10.53848883">
        <ele>154.231</ele>
        <time>1970-01-01T01:00:00Z</time>
      </trkpt>
      <trkpt lat="63.37884" lon="10.53847483">
        <ele>154.231</ele>
        <time>1970-01-01T01:00:00Z</time>
      </trkpt>
      <trkpt lat="63.3788055" lon="10.53846067">
        <ele>154.231</ele>
        <time>1970-01-01T01:00:00Z</time>
      </trkpt>
      <trkpt lat="63.37877133" lon="10.538446">
        <ele>154.231</ele>
        <time>1970-01-01T01:00:00Z</time>
      </trkpt>
      <trkpt lat="63.3787365" lon="10.538432">
        <ele>154.231</ele>
        <time>1970-01-01T01:00:00Z</time>
      </trkpt>
      <trkpt lat="63.37870167" lon="10.538419">
        <ele>154.231</ele>
        <time>1970-01-01T01:00:00Z</time>
      </trkpt>
      <trkpt lat="63.37866683" lon="10.53840917">
        <ele>154.078</ele>
        <time>1970-01-01T01:00:00Z</time>
      </trkpt>
      <trkpt lat="63.37863267" lon="10.53840083">
        <ele>154.078</ele>
        <time>1970-01-01T01:00:00Z</time>
      </trkpt>
      <trkpt lat="63.37859833" lon="10.53839333">
        <ele>154.078</ele>
        <time>1970-01-01T01:00:00Z</time>
      </trkpt>
      <trkpt lat="63.37856433" lon="10.53838733">
        <ele>154.078</ele>
        <time>1970-01-01T01:00:00Z</time>
      </trkpt>
      <trkpt lat="63.37853" lon="10.53838517">
        <ele>154.078</ele>
        <time>1970-01-01T01:00:00Z</time>
      </trkpt>
      <trkpt lat="63.37849583" lon="10.5383855">
        <ele>154.078</ele>
        <time>1970-01-01T01:00:00Z</time>
      </trkpt>
      <trkpt lat="63.37846217" lon="10.53838817">
        <ele>154.078</ele>
        <time>1970-01-01T01:00:00Z</time>
      </trkpt>
      <trkpt lat="63.378429" lon="10.53839333">
        <ele>154.078</ele>
        <time>1970-01-01T01:00:00Z</time>
      </trkpt>
      <trkpt lat="63.37839583" lon="10.53840217">
        <ele>154.231</ele>
        <time>1970-01-01T01:00:00Z</time>
      </trkpt>
      <trkpt lat="63.37836283" lon="10.538413">
        <ele>154.231</ele>
        <time>1970-01-01T01:00:00Z</time>
      </trkpt>
      <trkpt lat="63.37832983" lon="10.53842567">
        <ele>154.231</ele>
        <time>1970-01-01T01:00:00Z</time>
      </trkpt>
      <trkpt lat="63.37829683" lon="10.5384405">
        <ele>154.231</ele>
        <time>1970-01-01T01:00:00Z</time>
      </trkpt>
      <trkpt lat="63.37826417" lon="10.538457">
        <ele>154.231</ele>
        <time>1970-01-01T01:00:00Z</time>
      </trkpt>
      <trkpt lat="63.37823183" lon="10.53847467">
        <ele>154.231</ele>
        <time>1970-01-01T01:00:00Z</time>
      </trkpt>
      <trkpt lat="63.37819983" lon="10.5384935">
        <ele>154.231</ele>
        <time>1970-01-01T01:00:00Z</time>
      </trkpt>
      <trkpt lat="63.378168" lon="10.53851483">
        <ele>154.231</ele>
        <time>1970-01-01T01:00:00Z</time>
      </trkpt>
      <trkpt lat="63.3781365" lon="10.53853883">
        <ele>154.383</ele>
        <time>1970-01-01T01:00:00Z</time>
      </trkpt>
      <trkpt lat="63.3781055" lon="10.538565">
        <ele>154.383</ele>
        <time>1970-01-01T01:00:00Z</time>
      </trkpt>
      <trkpt lat="63.37807467" lon="10.53859317">
        <ele>154.383</ele>
        <time>1970-01-01T01:00:00Z</time>
      </trkpt>
      <trkpt lat="63.37804383" lon="10.53862233">
        <ele>154.383</ele>
        <time>1970-01-01T01:00:00Z</time>
      </trkpt>
      <trkpt lat="63.37801317" lon="10.538651">
        <ele>154.535</ele>
        <time>1970-01-01T01:00:00Z</time>
      </trkpt>
      <trkpt lat="63.37798233" lon="10.53867733">
        <ele>154.535</ele>
        <time>1970-01-01T01:00:00Z</time>
      </trkpt>
      <trkpt lat="63.377952" lon="10.53870233">
        <ele>154.535</ele>
        <time>1970-01-01T01:00:00Z</time>
      </trkpt>
      <trkpt lat="63.37792183" lon="10.538728">
        <ele>154.535</ele>
        <time>1970-01-01T01:00:00Z</time>
      </trkpt>
      <trkpt lat="63.37789217" lon="10.53875517">
        <ele>154.688</ele>
        <time>1970-01-01T01:00:00Z</time>
      </trkpt>
      <trkpt lat="63.3778625" lon="10.53878433">
        <ele>154.688</ele>
        <time>1970-01-01T01:00:00Z</time>
      </trkpt>
      <trkpt lat="63.37783283" lon="10.538814">
        <ele>154.84</ele>
        <time>1970-01-01T01:00:00Z</time>
      </trkpt>
      <trkpt lat="63.37780283" lon="10.53884333">
        <ele>154.84</ele>
        <time>1970-01-01T01:00:00Z</time>
      </trkpt>
      <trkpt lat="63.377773" lon="10.53887033">
        <ele>154.84</ele>
        <time>1970-01-01T01:00:00Z</time>
      </trkpt>
      <trkpt lat="63.37774317" lon="10.53889617">
        <ele>154.84</ele>
        <time>1970-01-01T01:00:00Z</time>
      </trkpt>
      <trkpt lat="63.3777135" lon="10.53892183">
        <ele>154.993</ele>
        <time>1970-01-01T01:00:00Z</time>
      </trkpt>
      <trkpt lat="63.37768383" lon="10.53894817">
        <ele>154.993</ele>
        <time>1970-01-01T01:00:00Z</time>
      </trkpt>
      <trkpt lat="63.377654" lon="10.538975">
        <ele>155.145</ele>
        <time>1970-01-01T01:00:00Z</time>
      </trkpt>
      <trkpt lat="63.377624" lon="10.53900183">
        <ele>155.145</ele>
        <time>1970-01-01T01:00:00Z</time>
      </trkpt>
      <trkpt lat="63.3775935" lon="10.53902783">
        <ele>155.297</ele>
        <time>1970-01-01T01:00:00Z</time>
      </trkpt>
      <trkpt lat="63.37756267" lon="10.53905283">
        <ele>155.297</ele>
        <time>1970-01-01T01:00:00Z</time>
      </trkpt>
      <trkpt lat="63.37753183" lon="10.53907733">
        <ele>155.45</ele>
        <time>1970-01-01T01:00:00Z</time>
      </trkpt>
      <trkpt lat="63.37750133" lon="10.53910217">
        <ele>155.45</ele>
        <time>1970-01-01T01:00:00Z</time>
      </trkpt>
      <trkpt lat="63.377471" lon="10.5391265">
        <ele>155.45</ele>
        <time>1970-01-01T01:00:00Z</time>
      </trkpt>
      <trkpt lat="63.3774405" lon="10.53914883">
        <ele>155.45</ele>
        <time>1970-01-01T01:00:00Z</time>
      </trkpt>
      <trkpt lat="63.3774095" lon="10.53916983">
        <ele>155.602</ele>
        <time>1970-01-01T01:00:00Z</time>
      </trkpt>
      <trkpt lat="63.3773785" lon="10.53919117">
        <ele>155.602</ele>
        <time>1970-01-01T01:00:00Z</time>
      </trkpt>
      <trkpt lat="63.37734767" lon="10.53921283">
        <ele>155.755</ele>
        <time>1970-01-01T01:00:00Z</time>
      </trkpt>
      <trkpt lat="63.3773165" lon="10.5392335">
        <ele>155.755</ele>
        <time>1970-01-01T01:00:00Z</time>
      </trkpt>
      <trkpt lat="63.37728517" lon="10.5392535">
        <ele>156.059</ele>
        <time>1970-01-01T01:00:00Z</time>
      </trkpt>
      <trkpt lat="63.37725383" lon="10.539275">
        <ele>156.059</ele>
        <time>1970-01-01T01:00:00Z</time>
      </trkpt>
      <trkpt lat="63.37722233" lon="10.53929817">
        <ele>156.212</ele>
        <time>1970-01-01T01:00:00Z</time>
      </trkpt>
      <trkpt lat="63.37719083" lon="10.53932167">
        <ele>156.212</ele>
        <time>1970-01-01T01:00:00Z</time>
      </trkpt>
      <trkpt lat="63.3771595" lon="10.5393445">
        <ele>156.364</ele>
        <time>1970-01-01T01:00:00Z</time>
      </trkpt>
      <trkpt lat="63.377128" lon="10.53936633">
        <ele>156.364</ele>
        <time>1970-01-01T01:00:00Z</time>
      </trkpt>
      <trkpt lat="63.37709667" lon="10.53938767">
        <ele>156.517</ele>
        <time>1970-01-01T01:00:00Z</time>
      </trkpt>
      <trkpt lat="63.3770655" lon="10.53940883">
        <ele>156.517</ele>
        <time>1970-01-01T01:00:00Z</time>
      </trkpt>
      <trkpt lat="63.37703433" lon="10.539429">
        <ele>156.669</ele>
        <time>1970-01-01T01:00:00Z</time>
      </trkpt>
      <trkpt lat="63.3770035" lon="10.539449">
        <ele>156.669</ele>
        <time>1970-01-01T01:00:00Z</time>
      </trkpt>
      <trkpt lat="63.37697267" lon="10.53946967">
        <ele>156.822</ele>
        <time>1970-01-01T01:00:00Z</time>
      </trkpt>
      <trkpt lat="63.37694167" lon="10.53949117">
        <ele>156.822</ele>
        <time>1970-01-01T01:00:00Z</time>
      </trkpt>
      <trkpt lat="63.37691033" lon="10.53951333">
        <ele>156.974</ele>
        <time>1970-01-01T01:00:00Z</time>
      </trkpt>
      <trkpt lat="63.37687883" lon="10.53953667">
        <ele>156.974</ele>
        <time>1970-01-01T01:00:00Z</time>
      </trkpt>
      <trkpt lat="63.376847" lon="10.53956133">
        <ele>157.126</ele>
        <time>1970-01-01T01:00:00Z</time>
      </trkpt>
      <trkpt lat="63.376815" lon="10.53958517">
        <ele>157.126</ele>
        <time>1970-01-01T01:00:00Z</time>
      </trkpt>
      <trkpt lat="63.376783" lon="10.53960717">
        <ele>157.279</ele>
        <time>1970-01-01T01:00:00Z</time>
      </trkpt>
      <trkpt lat="63.376751" lon="10.53962967">
        <ele>157.279</ele>
        <time>1970-01-01T01:00:00Z</time>
      </trkpt>
      <trkpt lat="63.37671933" lon="10.5396535">
        <ele>157.431</ele>
        <time>1970-01-01T01:00:00Z</time>
      </trkpt>
      <trkpt lat="63.37668833" lon="10.53967783">
        <ele>157.431</ele>
        <time>1970-01-01T01:00:00Z</time>
      </trkpt>
      <trkpt lat="63.3766575" lon="10.53970083">
        <ele>157.736</ele>
        <time>1970-01-01T01:00:00Z</time>
      </trkpt>
      <trkpt lat="63.376627" lon="10.53972317">
        <ele>157.736</ele>
        <time>1970-01-01T01:00:00Z</time>
      </trkpt>
      <trkpt lat="63.37659667" lon="10.53974683">
        <ele>157.888</ele>
        <time>1970-01-01T01:00:00Z</time>
      </trkpt>
      <trkpt lat="63.37656617" lon="10.53977167">
        <ele>157.888</ele>
        <time>1970-01-01T01:00:00Z</time>
      </trkpt>
      <trkpt lat="63.3765355" lon="10.539796">
        <ele>158.041</ele>
        <time>1970-01-01T01:00:00Z</time>
      </trkpt>
      <trkpt lat="63.3765045" lon="10.53981983">
        <ele>158.041</ele>
        <time>1970-01-01T01:00:00Z</time>
      </trkpt>
      <trkpt lat="63.37647333" lon="10.53984267">
        <ele>158.346</ele>
        <time>1970-01-01T01:00:00Z</time>
      </trkpt>
      <trkpt lat="63.37644183" lon="10.539865">
        <ele>158.346</ele>
        <time>1970-01-01T01:00:00Z</time>
      </trkpt>
      <trkpt lat="63.3764105" lon="10.53988667">
        <ele>158.498</ele>
        <time>1970-01-01T01:00:00Z</time>
      </trkpt>
      <trkpt lat="63.37637917" lon="10.53991">
        <ele>158.498</ele>
        <time>1970-01-01T01:00:00Z</time>
      </trkpt>
      <trkpt lat="63.376348" lon="10.53993517">
        <ele>158.65</ele>
        <time>1970-01-01T01:00:00Z</time>
      </trkpt>
      <trkpt lat="63.3763165" lon="10.539961">
        <ele>158.65</ele>
        <time>1970-01-01T01:00:00Z</time>
      </trkpt>
      <trkpt lat="63.37628483" lon="10.539985">
        <ele>158.955</ele>
        <time>1970-01-01T01:00:00Z</time>
      </trkpt>
      <trkpt lat="63.376253" lon="10.540008">
        <ele>158.955</ele>
        <time>1970-01-01T01:00:00Z</time>
      </trkpt>
      <trkpt lat="63.3762215" lon="10.5400305">
        <ele>159.108</ele>
        <time>1970-01-01T01:00:00Z</time>
      </trkpt>
      <trkpt lat="63.37619017" lon="10.54005283">
        <ele>159.108</ele>
        <time>1970-01-01T01:00:00Z</time>
      </trkpt>
      <trkpt lat="63.376159" lon="10.5400755">
        <ele>159.412</ele>
        <time>1970-01-01T01:00:00Z</time>
      </trkpt>
      <trkpt lat="63.3761275" lon="10.54009867">
        <ele>159.412</ele>
        <time>1970-01-01T01:00:00Z</time>
      </trkpt>
      <trkpt lat="63.3760955" lon="10.5401225">
        <ele>159.717</ele>
        <time>1970-01-01T01:00:00Z</time>
      </trkpt>
      <trkpt lat="63.37606333" lon="10.54014683">
        <ele>159.717</ele>
        <time>1970-01-01T01:00:00Z</time>
      </trkpt>
      <trkpt lat="63.37603117" lon="10.540173">
        <ele>159.87</ele>
        <time>1970-01-01T01:00:00Z</time>
      </trkpt>
      <trkpt lat="63.3759995" lon="10.54019917">
        <ele>159.87</ele>
        <time>1970-01-01T01:00:00Z</time>
      </trkpt>
      <trkpt lat="63.37596867" lon="10.5402275">
        <ele>160.174</ele>
        <time>1970-01-01T01:00:00Z</time>
      </trkpt>
      <trkpt lat="63.3759385" lon="10.54025667">
        <ele>160.174</ele>
        <time>1970-01-01T01:00:00Z</time>
      </trkpt>
      <trkpt lat="63.37590883" lon="10.54028883">
        <ele>160.327</ele>
        <time>1970-01-01T01:00:00Z</time>
      </trkpt>
      <trkpt lat="63.37587917" lon="10.5403215">
        <ele>160.327</ele>
        <time>1970-01-01T01:00:00Z</time>
      </trkpt>
      <trkpt lat="63.37584917" lon="10.54035533">
        <ele>160.632</ele>
        <time>1970-01-01T01:00:00Z</time>
      </trkpt>
      <trkpt lat="63.37581933" lon="10.54038917">
        <ele>160.632</ele>
        <time>1970-01-01T01:00:00Z</time>
      </trkpt>
      <trkpt lat="63.37578933" lon="10.54042383">
        <ele>160.784</ele>
        <time>1970-01-01T01:00:00Z</time>
      </trkpt>
      <trkpt lat="63.37575917" lon="10.540459">
        <ele>160.784</ele>
        <time>1970-01-01T01:00:00Z</time>
      </trkpt>
      <trkpt lat="63.37572683" lon="10.5404985">
        <ele>161.089</ele>
        <time>1970-01-01T01:00:00Z</time>
      </trkpt>
      <trkpt lat="63.37569333" lon="10.54053917">
        <ele>161.089</ele>
        <time>1970-01-01T01:00:00Z</time>
      </trkpt>
      <trkpt lat="63.3756585" lon="10.540579">
        <ele>161.241</ele>
        <time>1970-01-01T01:00:00Z</time>
      </trkpt>
      <trkpt lat="63.37562333" lon="10.54061633">
        <ele>161.241</ele>
        <time>1970-01-01T01:00:00Z</time>
      </trkpt>
      <trkpt lat="63.3755865" lon="10.54065483">
        <ele>161.394</ele>
        <time>1970-01-01T01:00:00Z</time>
      </trkpt>
      <trkpt lat="63.37554817" lon="10.54069633">
        <ele>161.394</ele>
        <time>1970-01-01T01:00:00Z</time>
      </trkpt>
      <trkpt lat="63.375508" lon="10.54074167">
        <ele>161.698</ele>
        <time>1970-01-01T01:00:00Z</time>
      </trkpt>
      <trkpt lat="63.37546567" lon="10.54079067">
        <ele>161.698</ele>
        <time>1970-01-01T01:00:00Z</time>
      </trkpt>
      <trkpt lat="63.375421" lon="10.54083967">
        <ele>161.851</ele>
        <time>1970-01-01T01:00:00Z</time>
      </trkpt>
      <trkpt lat="63.37537417" lon="10.54088867">
        <ele>161.851</ele>
        <time>1970-01-01T01:00:00Z</time>
      </trkpt>
      <trkpt lat="63.37532517" lon="10.540935">
        <ele>162.003</ele>
        <time>1970-01-01T01:00:00Z</time>
      </trkpt>
      <trkpt lat="63.375274" lon="10.54097983">
        <ele>162.003</ele>
        <time>1970-01-01T01:00:00Z</time>
      </trkpt>
      <trkpt lat="63.37522083" lon="10.54102017">
        <ele>162.003</ele>
        <time>1970-01-01T01:00:00Z</time>
      </trkpt>
      <trkpt lat="63.37516567" lon="10.54105417">
        <ele>162.003</ele>
        <time>1970-01-01T01:00:00Z</time>
      </trkpt>
      <trkpt lat="63.37510883" lon="10.54107883">
        <ele>162.156</ele>
        <time>1970-01-01T01:00:00Z</time>
      </trkpt>
      <trkpt lat="63.375051" lon="10.54109433">
        <ele>162.156</ele>
        <time>1970-01-01T01:00:00Z</time>
      </trkpt>
      <trkpt lat="63.37499267" lon="10.54110367">
        <ele>162.308</ele>
        <time>1970-01-01T01:00:00Z</time>
      </trkpt>
      <trkpt lat="63.374935" lon="10.54110767">
        <ele>162.308</ele>
        <time>1970-01-01T01:00:00Z</time>
      </trkpt>
      <trkpt lat="63.3748785" lon="10.54110467">
        <ele>162.308</ele>
        <time>1970-01-01T01:00:00Z</time>
      </trkpt>
      <trkpt lat="63.374823" lon="10.541092">
        <ele>162.308</ele>
        <time>1970-01-01T01:00:00Z</time>
      </trkpt>
      <trkpt lat="63.37476833" lon="10.54107367">
        <ele>162.46</ele>
        <time>1970-01-01T01:00:00Z</time>
      </trkpt>
      <trkpt lat="63.37471383" lon="10.54105317">
        <ele>162.46</ele>
        <time>1970-01-01T01:00:00Z</time>
      </trkpt>
      <trkpt lat="63.37465983" lon="10.541034">
        <ele>162.46</ele>
        <time>1970-01-01T01:00:00Z</time>
      </trkpt>
      <trkpt lat="63.3746065" lon="10.5410145">
        <ele>162.46</ele>
        <time>1970-01-01T01:00:00Z</time>
      </trkpt>
      <trkpt lat="63.37455383" lon="10.5409915">
        <ele>162.46</ele>
        <time>1970-01-01T01:00:00Z</time>
      </trkpt>
      <trkpt lat="63.37450167" lon="10.54096467">
        <ele>162.46</ele>
        <time>1970-01-01T01:00:00Z</time>
      </trkpt>
      <trkpt lat="63.3744505" lon="10.5409345">
        <ele>162.46</ele>
        <time>1970-01-01T01:00:00Z</time>
      </trkpt>
      <trkpt lat="63.37440033" lon="10.54090233">
        <ele>162.46</ele>
        <time>1970-01-01T01:00:00Z</time>
      </trkpt>
      <trkpt lat="63.3743515" lon="10.54086817">
        <ele>162.613</ele>
        <time>1970-01-01T01:00:00Z</time>
      </trkpt>
      <trkpt lat="63.37430367" lon="10.54083133">
        <ele>162.613</ele>
        <time>1970-01-01T01:00:00Z</time>
      </trkpt>
      <trkpt lat="63.3742565" lon="10.54079433">
        <ele>162.613</ele>
        <time>1970-01-01T01:00:00Z</time>
      </trkpt>
      <trkpt lat="63.37420933" lon="10.54075583">
        <ele>162.613</ele>
        <time>1970-01-01T01:00:00Z</time>
      </trkpt>
      <trkpt lat="63.37416283" lon="10.54071533">
        <ele>162.613</ele>
        <time>1970-01-01T01:00:00Z</time>
      </trkpt>
      <trkpt lat="63.37411683" lon="10.54067217">
        <ele>162.613</ele>
        <time>1970-01-01T01:00:00Z</time>
      </trkpt>
      <trkpt lat="63.37407183" lon="10.54062717">
        <ele>162.613</ele>
        <time>1970-01-01T01:00:00Z</time>
      </trkpt>
      <trkpt lat="63.37402817" lon="10.54058083">
        <ele>162.613</ele>
        <time>1970-01-01T01:00:00Z</time>
      </trkpt>
      <trkpt lat="63.37398617" lon="10.54053267">
        <ele>162.613</ele>
        <time>1970-01-01T01:00:00Z</time>
      </trkpt>
      <trkpt lat="63.37394533" lon="10.5404825">
        <ele>162.613</ele>
        <time>1970-01-01T01:00:00Z</time>
      </trkpt>
      <trkpt lat="63.37390483" lon="10.54042983">
        <ele>162.613</ele>
        <time>1970-01-01T01:00:00Z</time>
      </trkpt>
      <trkpt lat="63.37386467" lon="10.54037483">
        <ele>162.613</ele>
        <time>1970-01-01T01:00:00Z</time>
      </trkpt>
      <trkpt lat="63.373825" lon="10.54031717">
        <ele>162.765</ele>
        <time>1970-01-01T01:00:00Z</time>
      </trkpt>
      <trkpt lat="63.37378617" lon="10.54025683">
        <ele>162.765</ele>
        <time>1970-01-01T01:00:00Z</time>
      </trkpt>
      <trkpt lat="63.3737485" lon="10.5401945">
        <ele>162.765</ele>
        <time>1970-01-01T01:00:00Z</time>
      </trkpt>
      <trkpt lat="63.37371233" lon="10.54013033">
        <ele>162.765</ele>
        <time>1970-01-01T01:00:00Z</time>
      </trkpt>
      <trkpt lat="63.373677" lon="10.54006433">
        <ele>162.765</ele>
        <time>1970-01-01T01:00:00Z</time>
      </trkpt>
      <trkpt lat="63.37364317" lon="10.53999583">
        <ele>162.765</ele>
        <time>1970-01-01T01:00:00Z</time>
      </trkpt>
      <trkpt lat="63.3736105" lon="10.53992467">
        <ele>162.918</ele>
        <time>1970-01-01T01:00:00Z</time>
      </trkpt>
      <trkpt lat="63.37357933" lon="10.53985083">
        <ele>162.918</ele>
        <time>1970-01-01T01:00:00Z</time>
      </trkpt>
      <trkpt lat="63.3735495" lon="10.53977667">
        <ele>162.918</ele>
        <time>1970-01-01T01:00:00Z</time>
      </trkpt>
      <trkpt lat="63.37352133" lon="10.539703">
        <ele>162.918</ele>
        <time>1970-01-01T01:00:00Z</time>
      </trkpt>
      <trkpt lat="63.37349417" lon="10.53963033">
        <ele>163.07</ele>
        <time>1970-01-01T01:00:00Z</time>
      </trkpt>
      <trkpt lat="63.37346733" lon="10.5395585">
        <ele>163.07</ele>
        <time>1970-01-01T01:00:00Z</time>
      </trkpt>
      <trkpt lat="63.373441" lon="10.53948717">
        <ele>163.07</ele>
        <time>1970-01-01T01:00:00Z</time>
      </trkpt>
      <trkpt lat="63.37341483" lon="10.53941617">
        <ele>163.07</ele>
        <time>1970-01-01T01:00:00Z</time>
      </trkpt>
      <trkpt lat="63.37338983" lon="10.53934433">
        <ele>163.222</ele>
        <time>1970-01-01T01:00:00Z</time>
      </trkpt>
      <trkpt lat="63.3733655" lon="10.53927183">
        <ele>163.222</ele>
        <time>1970-01-01T01:00:00Z</time>
      </trkpt>
      <trkpt lat="63.3733415" lon="10.53919883">
        <ele>163.222</ele>
        <time>1970-01-01T01:00:00Z</time>
      </trkpt>
      <trkpt lat="63.37331667" lon="10.53912633">
        <ele>163.222</ele>
        <time>1970-01-01T01:00:00Z</time>
      </trkpt>
      <trkpt lat="63.37329083" lon="10.53905383">
        <ele>163.375</ele>
        <time>1970-01-01T01:00:00Z</time>
      </trkpt>
      <trkpt lat="63.37326417" lon="10.53897983">
        <ele>163.375</ele>
        <time>1970-01-01T01:00:00Z</time>
      </trkpt>
      <trkpt lat="63.37323667" lon="10.53890433">
        <ele>163.375</ele>
        <time>1970-01-01T01:00:00Z</time>
      </trkpt>
      <trkpt lat="63.373207" lon="10.53882767">
        <ele>163.375</ele>
        <time>1970-01-01T01:00:00Z</time>
      </trkpt>
      <trkpt lat="63.37317517" lon="10.53875017">
        <ele>163.527</ele>
        <time>1970-01-01T01:00:00Z</time>
      </trkpt>
      <trkpt lat="63.37314167" lon="10.53867017">
        <ele>163.527</ele>
        <time>1970-01-01T01:00:00Z</time>
      </trkpt>
      <trkpt lat="63.37310667" lon="10.53858867">
        <ele>163.527</ele>
        <time>1970-01-01T01:00:00Z</time>
      </trkpt>
      <trkpt lat="63.37306983" lon="10.538506">
        <ele>163.527</ele>
        <time>1970-01-01T01:00:00Z</time>
      </trkpt>
      <trkpt lat="63.37303067" lon="10.5384235">
        <ele>163.527</ele>
        <time>1970-01-01T01:00:00Z</time>
      </trkpt>
      <trkpt lat="63.3729895" lon="10.53834233">
        <ele>163.527</ele>
        <time>1970-01-01T01:00:00Z</time>
      </trkpt>
      <trkpt lat="63.372947" lon="10.53826233">
        <ele>163.68</ele>
        <time>1970-01-01T01:00:00Z</time>
      </trkpt>
      <trkpt lat="63.372904" lon="10.53818333">
        <ele>163.68</ele>
        <time>1970-01-01T01:00:00Z</time>
      </trkpt>
      <trkpt lat="63.37286067" lon="10.53810317">
        <ele>163.68</ele>
        <time>1970-01-01T01:00:00Z</time>
      </trkpt>
      <trkpt lat="63.37281717" lon="10.53802017">
        <ele>163.68</ele>
        <time>1970-01-01T01:00:00Z</time>
      </trkpt>
      <trkpt lat="63.37277367" lon="10.537932">
        <ele>163.68</ele>
        <time>1970-01-01T01:00:00Z</time>
      </trkpt>
      <trkpt lat="63.372731" lon="10.53783517">
        <ele>163.68</ele>
        <time>1970-01-01T01:00:00Z</time>
      </trkpt>
      <trkpt lat="63.372689" lon="10.53772817">
        <ele>163.68</ele>
        <time>1970-01-01T01:00:00Z</time>
      </trkpt>
      <trkpt lat="63.37264767" lon="10.53760883">
        <ele>163.68</ele>
        <time>1970-01-01T01:00:00Z</time>
      </trkpt>
      <trkpt lat="63.37260733" lon="10.5374785">
        <ele>163.527</ele>
        <time>1970-01-01T01:00:00Z</time>
      </trkpt>
      <trkpt lat="63.37256817" lon="10.53733783">
        <ele>163.527</ele>
        <time>1970-01-01T01:00:00Z</time>
      </trkpt>
      <trkpt lat="63.37252917" lon="10.537188">
        <ele>163.527</ele>
        <time>1970-01-01T01:00:00Z</time>
      </trkpt>
      <trkpt lat="63.37248883" lon="10.5370295">
        <ele>163.527</ele>
        <time>1970-01-01T01:00:00Z</time>
      </trkpt>
      <trkpt lat="63.37244583" lon="10.53686317">
        <ele>163.375</ele>
        <time>1970-01-01T01:00:00Z</time>
      </trkpt>
      <trkpt lat="63.3723995" lon="10.53668967">
        <ele>163.375</ele>
        <time>1970-01-01T01:00:00Z</time>
      </trkpt>
      <trkpt lat="63.37235" lon="10.53651033">
        <ele>163.222</ele>
        <time>1970-01-01T01:00:00Z</time>
      </trkpt>
      <trkpt lat="63.372297" lon="10.536327">
        <ele>163.222</ele>
        <time>1970-01-01T01:00:00Z</time>
      </trkpt>
      <trkpt lat="63.37224033" lon="10.53614217">
        <ele>162.918</ele>
        <time>1970-01-01T01:00:00Z</time>
      </trkpt>
      <trkpt lat="63.37217933" lon="10.53595667">
        <ele>162.918</ele>
        <time>1970-01-01T01:00:00Z</time>
      </trkpt>
      <trkpt lat="63.37211333" lon="10.53577417">
        <ele>162.613</ele>
        <time>1970-01-01T01:00:00Z</time>
      </trkpt>
      <trkpt lat="63.37204317" lon="10.53559783">
        <ele>162.613</ele>
        <time>1970-01-01T01:00:00Z</time>
      </trkpt>
      <trkpt lat="63.37197" lon="10.53543433">
        <ele>162.308</ele>
        <time>1970-01-01T01:00:00Z</time>
      </trkpt>
      <trkpt lat="63.371898" lon="10.53528583">
        <ele>162.308</ele>
        <time>1970-01-01T01:00:00Z</time>
      </trkpt>
      <trkpt lat="63.37183017" lon="10.53515467">
        <ele>162.003</ele>
        <time>1970-01-01T01:00:00Z</time>
      </trkpt>
      <trkpt lat="63.37176883" lon="10.53504133">
        <ele>162.003</ele>
        <time>1970-01-01T01:00:00Z</time>
      </trkpt>
      <trkpt lat="63.37171317" lon="10.534944">
        <ele>161.698</ele>
        <time>1970-01-01T01:00:00Z</time>
      </trkpt>
      <trkpt lat="63.3716625" lon="10.53486083">
        <ele>161.698</ele>
        <time>1970-01-01T01:00:00Z</time>
      </trkpt>
      <trkpt lat="63.371616" lon="10.53478783">
        <ele>161.241</ele>
        <time>1970-01-01T01:00:00Z</time>
      </trkpt>
      <trkpt lat="63.37157383" lon="10.53472467">
        <ele>161.241</ele>
        <time>1970-01-01T01:00:00Z</time>
      </trkpt>
      <trkpt lat="63.37153567" lon="10.53466917">
        <ele>160.936</ele>
        <time>1970-01-01T01:00:00Z</time>
      </trkpt>
      <trkpt lat="63.3715005" lon="10.534621">
        <ele>160.936</ele>
        <time>1970-01-01T01:00:00Z</time>
      </trkpt>
      <trkpt lat="63.37146833" lon="10.534578">
        <ele>160.632</ele>
        <time>1970-01-01T01:00:00Z</time>
      </trkpt>
      <trkpt lat="63.37143833" lon="10.53453933">
        <ele>160.632</ele>
        <time>1970-01-01T01:00:00Z</time>
      </trkpt>
      <trkpt lat="63.37140967" lon="10.534502">
        <ele>160.479</ele>
        <time>1970-01-01T01:00:00Z</time>
      </trkpt>
      <trkpt lat="63.3713815" lon="10.53446633">
        <ele>160.479</ele>
        <time>1970-01-01T01:00:00Z</time>
      </trkpt>
      <trkpt lat="63.37135383" lon="10.53442917">
        <ele>160.174</ele>
        <time>1970-01-01T01:00:00Z</time>
      </trkpt>
      <trkpt lat="63.37132667" lon="10.53439083">
        <ele>160.174</ele>
        <time>1970-01-01T01:00:00Z</time>
      </trkpt>
      <trkpt lat="63.3713" lon="10.53435133">
        <ele>160.022</ele>
        <time>1970-01-01T01:00:00Z</time>
      </trkpt>
      <trkpt lat="63.37127283" lon="10.53431367">
        <ele>160.022</ele>
        <time>1970-01-01T01:00:00Z</time>
      </trkpt>
      <trkpt lat="63.37124533" lon="10.53427683">
        <ele>159.87</ele>
        <time>1970-01-01T01:00:00Z</time>
      </trkpt>
      <trkpt lat="63.371217" lon="10.53424067">
        <ele>159.87</ele>
        <time>1970-01-01T01:00:00Z</time>
      </trkpt>
      <trkpt lat="63.371189" lon="10.5342015">
        <ele>159.717</ele>
        <time>1970-01-01T01:00:00Z</time>
      </trkpt>
      <trkpt lat="63.37116167" lon="10.53415917">
        <ele>159.717</ele>
        <time>1970-01-01T01:00:00Z</time>
      </trkpt>
      <trkpt lat="63.3711355" lon="10.534115">
        <ele>159.717</ele>
        <time>1970-01-01T01:00:00Z</time>
      </trkpt>
      <trkpt lat="63.371109" lon="10.53407283">
        <ele>159.717</ele>
        <time>1970-01-01T01:00:00Z</time>
      </trkpt>
      <trkpt lat="63.37108217" lon="10.53403283">
        <ele>159.565</ele>
        <time>1970-01-01T01:00:00Z</time>
      </trkpt>
      <trkpt lat="63.37105483" lon="10.5339945">
        <ele>159.565</ele>
        <time>1970-01-01T01:00:00Z</time>
      </trkpt>
      <trkpt lat="63.3710275" lon="10.53395533">
        <ele>159.565</ele>
        <time>1970-01-01T01:00:00Z</time>
      </trkpt>
      <trkpt lat="63.37100033" lon="10.53391567">
        <ele>159.565</ele>
        <time>1970-01-01T01:00:00Z</time>
      </trkpt>
      <trkpt lat="63.37097333" lon="10.5338755">
        <ele>159.565</ele>
        <time>1970-01-01T01:00:00Z</time>
      </trkpt>
      <trkpt lat="63.37094667" lon="10.53383533">
        <ele>159.565</ele>
        <time>1970-01-01T01:00:00Z</time>
      </trkpt>
      <trkpt lat="63.37092017" lon="10.53379617">
        <ele>159.565</ele>
        <time>1970-01-01T01:00:00Z</time>
      </trkpt>
      <trkpt lat="63.3708935" lon="10.5337585">
        <ele>159.565</ele>
        <time>1970-01-01T01:00:00Z</time>
      </trkpt>
      <trkpt lat="63.3708665" lon="10.533721">
        <ele>159.565</ele>
        <time>1970-01-01T01:00:00Z</time>
      </trkpt>
      <trkpt lat="63.37083967" lon="10.5336825">
        <ele>159.565</ele>
        <time>1970-01-01T01:00:00Z</time>
      </trkpt>
      <trkpt lat="63.37081267" lon="10.533642">
        <ele>159.565</ele>
        <time>1970-01-01T01:00:00Z</time>
      </trkpt>
      <trkpt lat="63.37078617" lon="10.5336">
        <ele>159.565</ele>
        <time>1970-01-01T01:00:00Z</time>
      </trkpt>
      <trkpt lat="63.37076" lon="10.5335575">
        <ele>159.565</ele>
        <time>1970-01-01T01:00:00Z</time>
      </trkpt>
      <trkpt lat="63.37073383" lon="10.53351467">
        <ele>159.565</ele>
        <time>1970-01-01T01:00:00Z</time>
      </trkpt>
      <trkpt lat="63.370707" lon="10.5334735">
        <ele>159.717</ele>
        <time>1970-01-01T01:00:00Z</time>
      </trkpt>
      <trkpt lat="63.37067917" lon="10.53343367">
        <ele>159.717</ele>
        <time>1970-01-01T01:00:00Z</time>
      </trkpt>
      <trkpt lat="63.37065083" lon="10.533395">
        <ele>159.717</ele>
        <time>1970-01-01T01:00:00Z</time>
      </trkpt>
      <trkpt lat="63.3706225" lon="10.53335617">
        <ele>159.717</ele>
        <time>1970-01-01T01:00:00Z</time>
      </trkpt>
      <trkpt lat="63.3705945" lon="10.533318">
        <ele>159.87</ele>
        <time>1970-01-01T01:00:00Z</time>
      </trkpt>
      <trkpt lat="63.3705675" lon="10.5332815">
        <ele>159.87</ele>
        <time>1970-01-01T01:00:00Z</time>
      </trkpt>
      <trkpt lat="63.37054033" lon="10.53325167">
        <ele>159.87</ele>
        <time>1970-01-01T01:00:00Z</time>
      </trkpt>
      <trkpt lat="63.3705135" lon="10.53322767">
        <ele>159.87</ele>
        <time>1970-01-01T01:00:00Z</time>
      </trkpt>
      <trkpt lat="63.37048733" lon="10.53320617">
        <ele>160.022</ele>
        <time>1970-01-01T01:00:00Z</time>
      </trkpt>
      <trkpt lat="63.37046317" lon="10.53318317">
        <ele>160.022</ele>
        <time>1970-01-01T01:00:00Z</time>
      </trkpt>
      <trkpt lat="63.37044033" lon="10.533155">
        <ele>160.174</ele>
        <time>1970-01-01T01:00:00Z</time>
      </trkpt>
      <trkpt lat="63.37041883" lon="10.53312217">
        <ele>160.174</ele>
        <time>1970-01-01T01:00:00Z</time>
      </trkpt>
      <trkpt lat="63.3703975" lon="10.53308617">
        <ele>160.327</ele>
        <time>1970-01-01T01:00:00Z</time>
      </trkpt>
      <trkpt lat="63.370376" lon="10.53305033">
        <ele>160.327</ele>
        <time>1970-01-01T01:00:00Z</time>
      </trkpt>
      <trkpt lat="63.37035183" lon="10.53301667">
        <ele>160.479</ele>
        <time>1970-01-01T01:00:00Z</time>
      </trkpt>
      <trkpt lat="63.37032533" lon="10.53298033">
        <ele>160.479</ele>
        <time>1970-01-01T01:00:00Z</time>
      </trkpt>
      <trkpt lat="63.370298" lon="10.53294233">
        <ele>160.632</ele>
        <time>1970-01-01T01:00:00Z</time>
      </trkpt>
      <trkpt lat="63.37027133" lon="10.53290267">
        <ele>160.632</ele>
        <time>1970-01-01T01:00:00Z</time>
      </trkpt>
      <trkpt lat="63.37024517" lon="10.5328625">
        <ele>160.784</ele>
        <time>1970-01-01T01:00:00Z</time>
      </trkpt>
      <trkpt lat="63.37021883" lon="10.53281967">
        <ele>160.784</ele>
        <time>1970-01-01T01:00:00Z</time>
      </trkpt>
      <trkpt lat="63.37019217" lon="10.53277567">
        <ele>160.784</ele>
        <time>1970-01-01T01:00:00Z</time>
      </trkpt>
      <trkpt lat="63.370165" lon="10.53273067">
        <ele>160.784</ele>
        <time>1970-01-01T01:00:00Z</time>
      </trkpt>
      <trkpt lat="63.37013683" lon="10.532687">
        <ele>160.936</ele>
        <time>1970-01-01T01:00:00Z</time>
      </trkpt>
      <trkpt lat="63.37010817" lon="10.5326425">
        <ele>160.936</ele>
        <time>1970-01-01T01:00:00Z</time>
      </trkpt>
      <trkpt lat="63.37007883" lon="10.53259767">
        <ele>161.089</ele>
        <time>1970-01-01T01:00:00Z</time>
      </trkpt>
      <trkpt lat="63.37004983" lon="10.532551">
        <ele>161.089</ele>
        <time>1970-01-01T01:00:00Z</time>
      </trkpt>
      <trkpt lat="63.37002083" lon="10.532505">
        <ele>161.089</ele>
        <time>1970-01-01T01:00:00Z</time>
      </trkpt>
      <trkpt lat="63.369992" lon="10.5324595">
        <ele>161.089</ele>
        <time>1970-01-01T01:00:00Z</time>
      </trkpt>
      <trkpt lat="63.3699635" lon="10.532415">
        <ele>161.241</ele>
        <time>1970-01-01T01:00:00Z</time>
      </trkpt>
      <trkpt lat="63.3699355" lon="10.53237083">
        <ele>161.241</ele>
        <time>1970-01-01T01:00:00Z</time>
      </trkpt>
      <trkpt lat="63.36990817" lon="10.53232633">
        <ele>161.241</ele>
        <time>1970-01-01T01:00:00Z</time>
      </trkpt>
      <trkpt lat="63.36988133" lon="10.53228233">
        <ele>161.241</ele>
        <time>1970-01-01T01:00:00Z</time>
      </trkpt>
      <trkpt lat="63.36985433" lon="10.5322385">
        <ele>161.394</ele>
        <time>1970-01-01T01:00:00Z</time>
      </trkpt>
      <trkpt lat="63.369827" lon="10.53219433">
        <ele>161.394</ele>
        <time>1970-01-01T01:00:00Z</time>
      </trkpt>
      <trkpt lat="63.369798" lon="10.53214917">
        <ele>161.546</ele>
        <time>1970-01-01T01:00:00Z</time>
      </trkpt>
      <trkpt lat="63.36976733" lon="10.5321015">
        <ele>161.546</ele>
        <time>1970-01-01T01:00:00Z</time>
      </trkpt>
      <trkpt lat="63.36973433" lon="10.53205183">
        <ele>161.546</ele>
        <time>1970-01-01T01:00:00Z</time>
      </trkpt>
      <trkpt lat="63.3697" lon="10.531999">
        <ele>161.546</ele>
        <time>1970-01-01T01:00:00Z</time>
      </trkpt>
      <trkpt lat="63.36966467" lon="10.53194383">
        <ele>161.698</ele>
        <time>1970-01-01T01:00:00Z</time>
      </trkpt>
      <trkpt lat="63.36962883" lon="10.531887">
        <ele>161.698</ele>
        <time>1970-01-01T01:00:00Z</time>
      </trkpt>
      <trkpt lat="63.369593" lon="10.53183033">
        <ele>161.698</ele>
        <time>1970-01-01T01:00:00Z</time>
      </trkpt>
      <trkpt lat="63.36955783" lon="10.53177317">
        <ele>161.698</ele>
        <time>1970-01-01T01:00:00Z</time>
      </trkpt>
      <trkpt lat="63.36952217" lon="10.53171817">
        <ele>161.698</ele>
        <time>1970-01-01T01:00:00Z</time>
      </trkpt>
      <trkpt lat="63.36948617" lon="10.53166417">
        <ele>161.698</ele>
        <time>1970-01-01T01:00:00Z</time>
      </trkpt>
      <trkpt lat="63.36945033" lon="10.53161033">
        <ele>161.851</ele>
        <time>1970-01-01T01:00:00Z</time>
      </trkpt>
      <trkpt lat="63.36941517" lon="10.53155533">
        <ele>161.851</ele>
        <time>1970-01-01T01:00:00Z</time>
      </trkpt>
      <trkpt lat="63.36938017" lon="10.5315005">
        <ele>161.851</ele>
        <time>1970-01-01T01:00:00Z</time>
      </trkpt>
      <trkpt lat="63.36934467" lon="10.5314475">
        <ele>161.851</ele>
        <time>1970-01-01T01:00:00Z</time>
      </trkpt>
      <trkpt lat="63.369309" lon="10.531395">
        <ele>161.851</ele>
        <time>1970-01-01T01:00:00Z</time>
      </trkpt>
      <trkpt lat="63.3692735" lon="10.53134183">
        <ele>161.851</ele>
        <time>1970-01-01T01:00:00Z</time>
      </trkpt>
      <trkpt lat="63.3692385" lon="10.531287">
        <ele>161.851</ele>
        <time>1970-01-01T01:00:00Z</time>
      </trkpt>
      <trkpt lat="63.3692035" lon="10.5312315">
        <ele>161.851</ele>
        <time>1970-01-01T01:00:00Z</time>
      </trkpt>
      <trkpt lat="63.36916733" lon="10.5311755">
        <ele>162.003</ele>
        <time>1970-01-01T01:00:00Z</time>
      </trkpt>
      <trkpt lat="63.36912967" lon="10.53112">
        <ele>162.003</ele>
        <time>1970-01-01T01:00:00Z</time>
      </trkpt>
      <trkpt lat="63.3690915" lon="10.53106333">
        <ele>162.003</ele>
        <time>1970-01-01T01:00:00Z</time>
      </trkpt>
      <trkpt lat="63.3690535" lon="10.53100467">
        <ele>162.003</ele>
        <time>1970-01-01T01:00:00Z</time>
      </trkpt>
      <trkpt lat="63.36901583" lon="10.53094367">
        <ele>162.003</ele>
        <time>1970-01-01T01:00:00Z</time>
      </trkpt>
      <trkpt lat="63.36897733" lon="10.53088233">
        <ele>162.003</ele>
        <time>1970-01-01T01:00:00Z</time>
      </trkpt>
      <trkpt lat="63.36893767" lon="10.53082133">
        <ele>162.003</ele>
        <time>1970-01-01T01:00:00Z</time>
      </trkpt>
      <trkpt lat="63.36889667" lon="10.53075983">
        <ele>162.003</ele>
        <time>1970-01-01T01:00:00Z</time>
      </trkpt>
      <trkpt lat="63.36885433" lon="10.53069617">
        <ele>162.003</ele>
        <time>1970-01-01T01:00:00Z</time>
      </trkpt>
      <trkpt lat="63.36881117" lon="10.53062883">
        <ele>162.003</ele>
        <time>1970-01-01T01:00:00Z</time>
      </trkpt>
      <trkpt lat="63.36876667" lon="10.53055883">
        <ele>162.003</ele>
        <time>1970-01-01T01:00:00Z</time>
      </trkpt>
      <trkpt lat="63.36872083" lon="10.53048633">
        <ele>162.003</ele>
        <time>1970-01-01T01:00:00Z</time>
      </trkpt>
      <trkpt lat="63.36867383" lon="10.53041217">
        <ele>162.003</ele>
        <time>1970-01-01T01:00:00Z</time>
      </trkpt>
      <trkpt lat="63.36862683" lon="10.53033683">
        <ele>162.003</ele>
        <time>1970-01-01T01:00:00Z</time>
      </trkpt>
      <trkpt lat="63.36858" lon="10.53026217">
        <ele>161.851</ele>
        <time>1970-01-01T01:00:00Z</time>
      </trkpt>
      <trkpt lat="63.36853417" lon="10.53019017">
        <ele>161.851</ele>
        <time>1970-01-01T01:00:00Z</time>
      </trkpt>
      <trkpt lat="63.36848967" lon="10.53012183">
        <ele>161.851</ele>
        <time>1970-01-01T01:00:00Z</time>
      </trkpt>
      <trkpt lat="63.368447" lon="10.53005567">
        <ele>161.851</ele>
        <time>1970-01-01T01:00:00Z</time>
      </trkpt>
      <trkpt lat="63.36840583" lon="10.529991">
        <ele>161.698</ele>
        <time>1970-01-01T01:00:00Z</time>
      </trkpt>
      <trkpt lat="63.36836583" lon="10.5299285">
        <ele>161.698</ele>
        <time>1970-01-01T01:00:00Z</time>
      </trkpt>
      <trkpt lat="63.36832667" lon="10.529869">
        <ele>161.698</ele>
        <time>1970-01-01T01:00:00Z</time>
      </trkpt>
      <trkpt lat="63.3682885" lon="10.52981167">
        <ele>161.698</ele>
        <time>1970-01-01T01:00:00Z</time>
      </trkpt>
      <trkpt lat="63.3682515" lon="10.52975483">
        <ele>161.546</ele>
        <time>1970-01-01T01:00:00Z</time>
      </trkpt>
      <trkpt lat="63.368215" lon="10.52969817">
        <ele>161.546</ele>
        <time>1970-01-01T01:00:00Z</time>
      </trkpt>
      <trkpt lat="63.3681785" lon="10.52964217">
        <ele>161.546</ele>
        <time>1970-01-01T01:00:00Z</time>
      </trkpt>
      <trkpt lat="63.36814217" lon="10.52958767">
        <ele>161.546</ele>
        <time>1970-01-01T01:00:00Z</time>
      </trkpt>
      <trkpt lat="63.3681065" lon="10.5295335">
        <ele>161.546</ele>
        <time>1970-01-01T01:00:00Z</time>
      </trkpt>
      <trkpt lat="63.36807167" lon="10.5294805">
        <ele>161.546</ele>
        <time>1970-01-01T01:00:00Z</time>
      </trkpt>
      <trkpt lat="63.36803783" lon="10.52942833">
        <ele>161.394</ele>
        <time>1970-01-01T01:00:00Z</time>
      </trkpt>
      <trkpt lat="63.3680045" lon="10.529378">
        <ele>161.394</ele>
        <time>1970-01-01T01:00:00Z</time>
      </trkpt>
      <trkpt lat="63.36797183" lon="10.52932883">
        <ele>161.394</ele>
        <time>1970-01-01T01:00:00Z</time>
      </trkpt>
      <trkpt lat="63.36793967" lon="10.52928">
        <ele>161.394</ele>
        <time>1970-01-01T01:00:00Z</time>
      </trkpt>
      <trkpt lat="63.36790767" lon="10.52923133">
        <ele>161.394</ele>
        <time>1970-01-01T01:00:00Z</time>
      </trkpt>
      <trkpt lat="63.36787583" lon="10.52918267">
        <ele>161.394</ele>
        <time>1970-01-01T01:00:00Z</time>
      </trkpt>
      <trkpt lat="63.36784433" lon="10.52913467">
        <ele>161.394</ele>
        <time>1970-01-01T01:00:00Z</time>
      </trkpt>
      <trkpt lat="63.36781317" lon="10.5290875">
        <ele>161.394</ele>
        <time>1970-01-01T01:00:00Z</time>
      </trkpt>
      <trkpt lat="63.36778217" lon="10.52904067">
        <ele>161.394</ele>
        <time>1970-01-01T01:00:00Z</time>
      </trkpt>
      <trkpt lat="63.36775167" lon="10.52899367">
        <ele>161.394</ele>
        <time>1970-01-01T01:00:00Z</time>
      </trkpt>
      <trkpt lat="63.3677215" lon="10.528946">
        <ele>161.394</ele>
        <time>1970-01-01T01:00:00Z</time>
      </trkpt>
      <trkpt lat="63.36769183" lon="10.52889767">
        <ele>161.394</ele>
        <time>1970-01-01T01:00:00Z</time>
      </trkpt>
      <trkpt lat="63.36766217" lon="10.52884967">
        <ele>161.394</ele>
        <time>1970-01-01T01:00:00Z</time>
      </trkpt>
      <trkpt lat="63.36763267" lon="10.52880283">
        <ele>161.394</ele>
        <time>1970-01-01T01:00:00Z</time>
      </trkpt>
      <trkpt lat="63.36760317" lon="10.52875667">
        <ele>161.394</ele>
        <time>1970-01-01T01:00:00Z</time>
      </trkpt>
      <trkpt lat="63.3675735" lon="10.528711">
        <ele>161.394</ele>
        <time>1970-01-01T01:00:00Z</time>
      </trkpt>
      <trkpt lat="63.36754333" lon="10.5286655">
        <ele>161.546</ele>
        <time>1970-01-01T01:00:00Z</time>
      </trkpt>
      <trkpt lat="63.36751283" lon="10.52861933">
        <ele>161.546</ele>
        <time>1970-01-01T01:00:00Z</time>
      </trkpt>
      <trkpt lat="63.36748167" lon="10.52857217">
        <ele>161.546</ele>
        <time>1970-01-01T01:00:00Z</time>
      </trkpt>
      <trkpt lat="63.36745033" lon="10.52852383">
        <ele>161.546</ele>
        <time>1970-01-01T01:00:00Z</time>
      </trkpt>
      <trkpt lat="63.36741817" lon="10.52847517">
        <ele>161.546</ele>
        <time>1970-01-01T01:00:00Z</time>
      </trkpt>
      <trkpt lat="63.367386" lon="10.52842617">
        <ele>161.546</ele>
        <time>1970-01-01T01:00:00Z</time>
      </trkpt>
      <trkpt lat="63.36735367" lon="10.52837717">
        <ele>161.698</ele>
        <time>1970-01-01T01:00:00Z</time>
      </trkpt>
      <trkpt lat="63.3673215" lon="10.52832867">
        <ele>161.698</ele>
        <time>1970-01-01T01:00:00Z</time>
      </trkpt>
      <trkpt lat="63.36728933" lon="10.52828">
        <ele>161.698</ele>
        <time>1970-01-01T01:00:00Z</time>
      </trkpt>
      <trkpt lat="63.367257" lon="10.5282305">
        <ele>161.698</ele>
        <time>1970-01-01T01:00:00Z</time>
      </trkpt>
      <trkpt lat="63.36722483" lon="10.52818067">
        <ele>161.698</ele>
        <time>1970-01-01T01:00:00Z</time>
      </trkpt>
      <trkpt lat="63.36719233" lon="10.52813133">
        <ele>161.698</ele>
        <time>1970-01-01T01:00:00Z</time>
      </trkpt>
      <trkpt lat="63.36715967" lon="10.528083">
        <ele>161.698</ele>
        <time>1970-01-01T01:00:00Z</time>
      </trkpt>
      <trkpt lat="63.36712683" lon="10.52803483">
        <ele>161.698</ele>
        <time>1970-01-01T01:00:00Z</time>
      </trkpt>
      <trkpt lat="63.36709433" lon="10.52798533">
        <ele>161.851</ele>
        <time>1970-01-01T01:00:00Z</time>
      </trkpt>
      <trkpt lat="63.36706233" lon="10.52793483">
        <ele>161.851</ele>
        <time>1970-01-01T01:00:00Z</time>
      </trkpt>
      <trkpt lat="63.3670305" lon="10.52788467">
        <ele>161.851</ele>
        <time>1970-01-01T01:00:00Z</time>
      </trkpt>
      <trkpt lat="63.36699917" lon="10.52783533">
        <ele>161.851</ele>
        <time>1970-01-01T01:00:00Z</time>
      </trkpt>
      <trkpt lat="63.366968" lon="10.5277865">
        <ele>161.851</ele>
        <time>1970-01-01T01:00:00Z</time>
      </trkpt>
      <trkpt lat="63.366937" lon="10.52773867">
        <ele>161.851</ele>
        <time>1970-01-01T01:00:00Z</time>
      </trkpt>
      <trkpt lat="63.3669055" lon="10.5276915">
        <ele>162.003</ele>
        <time>1970-01-01T01:00:00Z</time>
      </trkpt>
      <trkpt lat="63.36687383" lon="10.52764533">
        <ele>162.003</ele>
        <time>1970-01-01T01:00:00Z</time>
      </trkpt>
      <trkpt lat="63.36684233" lon="10.52759933">
        <ele>162.003</ele>
        <time>1970-01-01T01:00:00Z</time>
      </trkpt>
      <trkpt lat="63.366811" lon="10.527553">
        <ele>162.003</ele>
        <time>1970-01-01T01:00:00Z</time>
      </trkpt>
      <trkpt lat="63.36677983" lon="10.52750617">
        <ele>162.003</ele>
        <time>1970-01-01T01:00:00Z</time>
      </trkpt>
      <trkpt lat="63.3667485" lon="10.52745817">
        <ele>162.003</ele>
        <time>1970-01-01T01:00:00Z</time>
      </trkpt>
      <trkpt lat="63.36671717" lon="10.52741033">
        <ele>162.156</ele>
        <time>1970-01-01T01:00:00Z</time>
      </trkpt>
      <trkpt lat="63.36668567" lon="10.52736183">
        <ele>162.156</ele>
        <time>1970-01-01T01:00:00Z</time>
      </trkpt>
      <trkpt lat="63.36665417" lon="10.52731383">
        <ele>162.156</ele>
        <time>1970-01-01T01:00:00Z</time>
      </trkpt>
      <trkpt lat="63.3666225" lon="10.527266">
        <ele>162.156</ele>
        <time>1970-01-01T01:00:00Z</time>
      </trkpt>
      <trkpt lat="63.366591" lon="10.52721883">
        <ele>162.308</ele>
        <time>1970-01-01T01:00:00Z</time>
      </trkpt>
      <trkpt lat="63.36655967" lon="10.52717017">
        <ele>162.308</ele>
        <time>1970-01-01T01:00:00Z</time>
      </trkpt>
      <trkpt lat="63.36652917" lon="10.52712033">
        <ele>162.46</ele>
        <time>1970-01-01T01:00:00Z</time>
      </trkpt>
      <trkpt lat="63.36649917" lon="10.5270705">
        <ele>162.46</ele>
        <time>1970-01-01T01:00:00Z</time>
      </trkpt>
      <trkpt lat="63.36646933" lon="10.5270225">
        <ele>162.46</ele>
        <time>1970-01-01T01:00:00Z</time>
      </trkpt>
      <trkpt lat="63.3664395" lon="10.52697633">
        <ele>162.46</ele>
        <time>1970-01-01T01:00:00Z</time>
      </trkpt>
      <trkpt lat="63.36641017" lon="10.52692983">
        <ele>162.613</ele>
        <time>1970-01-01T01:00:00Z</time>
      </trkpt>
      <trkpt lat="63.36638133" lon="10.52688367">
        <ele>162.613</ele>
        <time>1970-01-01T01:00:00Z</time>
      </trkpt>
      <trkpt lat="63.36635367" lon="10.52683683">
        <ele>162.765</ele>
        <time>1970-01-01T01:00:00Z</time>
      </trkpt>
      <trkpt lat="63.36632633" lon="10.52679233">
        <ele>162.765</ele>
        <time>1970-01-01T01:00:00Z</time>
      </trkpt>
      <trkpt lat="63.3663" lon="10.526749">
        <ele>162.765</ele>
        <time>1970-01-01T01:00:00Z</time>
      </trkpt>
      <trkpt lat="63.36627417" lon="10.52670783">
        <ele>162.765</ele>
        <time>1970-01-01T01:00:00Z</time>
      </trkpt>
      <trkpt lat="63.3662495" lon="10.5266675">
        <ele>162.918</ele>
        <time>1970-01-01T01:00:00Z</time>
      </trkpt>
      <trkpt lat="63.36622467" lon="10.52662817">
        <ele>162.918</ele>
        <time>1970-01-01T01:00:00Z</time>
      </trkpt>
      <trkpt lat="63.3662" lon="10.52658933">
        <ele>163.07</ele>
        <time>1970-01-01T01:00:00Z</time>
      </trkpt>
      <trkpt lat="63.36617533" lon="10.52655117">
        <ele>163.07</ele>
        <time>1970-01-01T01:00:00Z</time>
      </trkpt>
      <trkpt lat="63.3661505" lon="10.52651367">
        <ele>163.222</ele>
        <time>1970-01-01T01:00:00Z</time>
      </trkpt>
      <trkpt lat="63.36612483" lon="10.52647717">
        <ele>163.222</ele>
        <time>1970-01-01T01:00:00Z</time>
      </trkpt>
      <trkpt lat="63.36609783" lon="10.52644017">
        <ele>163.375</ele>
        <time>1970-01-01T01:00:00Z</time>
      </trkpt>
      <trkpt lat="63.36607033" lon="10.52640033">
        <ele>163.375</ele>
        <time>1970-01-01T01:00:00Z</time>
      </trkpt>
      <trkpt lat="63.3660425" lon="10.52635767">
        <ele>163.527</ele>
        <time>1970-01-01T01:00:00Z</time>
      </trkpt>
      <trkpt lat="63.3660145" lon="10.52631417">
        <ele>163.527</ele>
        <time>1970-01-01T01:00:00Z</time>
      </trkpt>
      <trkpt lat="63.36598583" lon="10.52627167">
        <ele>163.68</ele>
        <time>1970-01-01T01:00:00Z</time>
      </trkpt>
      <trkpt lat="63.36595633" lon="10.52622983">
        <ele>163.68</ele>
        <time>1970-01-01T01:00:00Z</time>
      </trkpt>
      <trkpt lat="63.3659265" lon="10.52618617">
        <ele>163.832</ele>
        <time>1970-01-01T01:00:00Z</time>
      </trkpt>
      <trkpt lat="63.36589683" lon="10.52613967">
        <ele>163.832</ele>
        <time>1970-01-01T01:00:00Z</time>
      </trkpt>
      <trkpt lat="63.36586717" lon="10.5260915">
        <ele>163.984</ele>
        <time>1970-01-01T01:00:00Z</time>
      </trkpt>
      <trkpt lat="63.365837" lon="10.52604517">
        <ele>163.984</ele>
        <time>1970-01-01T01:00:00Z</time>
      </trkpt>
      <trkpt lat="63.36580633" lon="10.52599933">
        <ele>164.137</ele>
        <time>1970-01-01T01:00:00Z</time>
      </trkpt>
      <trkpt lat="63.3657755" lon="10.52595483">
        <ele>164.137</ele>
        <time>1970-01-01T01:00:00Z</time>
      </trkpt>
      <trkpt lat="63.36574517" lon="10.5259095">
        <ele>164.289</ele>
        <time>1970-01-01T01:00:00Z</time>
      </trkpt>
      <trkpt lat="63.3657145" lon="10.52586517">
        <ele>164.289</ele>
        <time>1970-01-01T01:00:00Z</time>
      </trkpt>
      <trkpt lat="63.36568367" lon="10.5258205">
        <ele>164.289</ele>
        <time>1970-01-01T01:00:00Z</time>
      </trkpt>
      <trkpt lat="63.3656525" lon="10.525775">
        <ele>164.289</ele>
        <time>1970-01-01T01:00:00Z</time>
      </trkpt>
      <trkpt lat="63.3656215" lon="10.52572833">
        <ele>164.442</ele>
        <time>1970-01-01T01:00:00Z</time>
      </trkpt>
      <trkpt lat="63.3655905" lon="10.52568133">
        <ele>164.442</ele>
        <time>1970-01-01T01:00:00Z</time>
      </trkpt>
      <trkpt lat="63.3655595" lon="10.52563517">
        <ele>164.594</ele>
        <time>1970-01-01T01:00:00Z</time>
      </trkpt>
      <trkpt lat="63.3655285" lon="10.5255895">
        <ele>164.594</ele>
        <time>1970-01-01T01:00:00Z</time>
      </trkpt>
      <trkpt lat="63.36549767" lon="10.525544">
        <ele>164.594</ele>
        <time>1970-01-01T01:00:00Z</time>
      </trkpt>
      <trkpt lat="63.36546667" lon="10.525499">
        <ele>164.594</ele>
        <time>1970-01-01T01:00:00Z</time>
      </trkpt>
      <trkpt lat="63.3654355" lon="10.52545433">
        <ele>164.746</ele>
        <time>1970-01-01T01:00:00Z</time>
      </trkpt>
      <trkpt lat="63.365404" lon="10.52541">
        <ele>164.746</ele>
        <time>1970-01-01T01:00:00Z</time>
      </trkpt>
      <trkpt lat="63.36537233" lon="10.52536583">
        <ele>164.746</ele>
        <time>1970-01-01T01:00:00Z</time>
      </trkpt>
      <trkpt lat="63.36534033" lon="10.52532117">
        <ele>164.746</ele>
        <time>1970-01-01T01:00:00Z</time>
      </trkpt>
      <trkpt lat="63.3653085" lon="10.52527617">
        <ele>164.899</ele>
        <time>1970-01-01T01:00:00Z</time>
      </trkpt>
      <trkpt lat="63.365277" lon="10.52523033">
        <ele>164.899</ele>
        <time>1970-01-01T01:00:00Z</time>
      </trkpt>
      <trkpt lat="63.36524583" lon="10.5251855">
        <ele>164.899</ele>
        <time>1970-01-01T01:00:00Z</time>
      </trkpt>
      <trkpt lat="63.3652145" lon="10.525141">
        <ele>164.899</ele>
        <time>1970-01-01T01:00:00Z</time>
      </trkpt>
      <trkpt lat="63.36518333" lon="10.52509667">
        <ele>165.051</ele>
        <time>1970-01-01T01:00:00Z</time>
      </trkpt>
      <trkpt lat="63.36515167" lon="10.52505183">
        <ele>165.051</ele>
        <time>1970-01-01T01:00:00Z</time>
      </trkpt>
      <trkpt lat="63.36511967" lon="10.5250075">
        <ele>165.051</ele>
        <time>1970-01-01T01:00:00Z</time>
      </trkpt>
      <trkpt lat="63.36508733" lon="10.52496283">
        <ele>165.051</ele>
        <time>1970-01-01T01:00:00Z</time>
      </trkpt>
      <trkpt lat="63.36505517" lon="10.52491717">
        <ele>165.204</ele>
        <time>1970-01-01T01:00:00Z</time>
      </trkpt>
      <trkpt lat="63.36502333" lon="10.52487067">
        <ele>165.204</ele>
        <time>1970-01-01T01:00:00Z</time>
      </trkpt>
      <trkpt lat="63.36499167" lon="10.52482517">
        <ele>165.204</ele>
        <time>1970-01-01T01:00:00Z</time>
      </trkpt>
      <trkpt lat="63.3649605" lon="10.52478033">
        <ele>165.204</ele>
        <time>1970-01-01T01:00:00Z</time>
      </trkpt>
      <trkpt lat="63.36492983" lon="10.5247365">
        <ele>165.204</ele>
        <time>1970-01-01T01:00:00Z</time>
      </trkpt>
      <trkpt lat="63.3648995" lon="10.5246945">
        <ele>165.204</ele>
        <time>1970-01-01T01:00:00Z</time>
      </trkpt>
      <trkpt lat="63.36486933" lon="10.52465417">
        <ele>165.356</ele>
        <time>1970-01-01T01:00:00Z</time>
      </trkpt>
      <trkpt lat="63.3648395" lon="10.5246155">
        <ele>165.356</ele>
        <time>1970-01-01T01:00:00Z</time>
      </trkpt>
      <trkpt lat="63.36481083" lon="10.5245755">
        <ele>165.356</ele>
        <time>1970-01-01T01:00:00Z</time>
      </trkpt>
      <trkpt lat="63.36478267" lon="10.5245365">
        <ele>165.356</ele>
        <time>1970-01-01T01:00:00Z</time>
      </trkpt>
      <trkpt lat="63.3647545" lon="10.52449733">
        <ele>165.508</ele>
        <time>1970-01-01T01:00:00Z</time>
      </trkpt>
      <trkpt lat="63.36472583" lon="10.52445883">
        <ele>165.508</ele>
        <time>1970-01-01T01:00:00Z</time>
      </trkpt>
      <trkpt lat="63.364697" lon="10.52442067">
        <ele>165.508</ele>
        <time>1970-01-01T01:00:00Z</time>
      </trkpt>
      <trkpt lat="63.36466783" lon="10.5243825">
        <ele>165.508</ele>
        <time>1970-01-01T01:00:00Z</time>
      </trkpt>
      <trkpt lat="63.364639" lon="10.52434483">
        <ele>165.661</ele>
        <time>1970-01-01T01:00:00Z</time>
      </trkpt>
      <trkpt lat="63.36461033" lon="10.52430717">
        <ele>165.661</ele>
        <time>1970-01-01T01:00:00Z</time>
      </trkpt>
      <trkpt lat="63.364582" lon="10.5242695">
        <ele>165.661</ele>
        <time>1970-01-01T01:00:00Z</time>
      </trkpt>
      <trkpt lat="63.364554" lon="10.5242305">
        <ele>165.661</ele>
        <time>1970-01-01T01:00:00Z</time>
      </trkpt>
      <trkpt lat="63.36452617" lon="10.52419017">
        <ele>165.813</ele>
        <time>1970-01-01T01:00:00Z</time>
      </trkpt>
      <trkpt lat="63.3644985" lon="10.52414933">
        <ele>165.813</ele>
        <time>1970-01-01T01:00:00Z</time>
      </trkpt>
      <trkpt lat="63.36447033" lon="10.52411117">
        <ele>165.966</ele>
        <time>1970-01-01T01:00:00Z</time>
      </trkpt>
      <trkpt lat="63.36444217" lon="10.524074">
        <ele>165.966</ele>
        <time>1970-01-01T01:00:00Z</time>
      </trkpt>
      <trkpt lat="63.36441417" lon="10.52403683">
        <ele>166.118</ele>
        <time>1970-01-01T01:00:00Z</time>
      </trkpt>
      <trkpt lat="63.36438617" lon="10.523998">
        <ele>166.118</ele>
        <time>1970-01-01T01:00:00Z</time>
      </trkpt>
      <trkpt lat="63.3643585" lon="10.52395817">
        <ele>166.118</ele>
        <time>1970-01-01T01:00:00Z</time>
      </trkpt>
      <trkpt lat="63.364331" lon="10.523919">
        <ele>166.118</ele>
        <time>1970-01-01T01:00:00Z</time>
      </trkpt>
      <trkpt lat="63.36430433" lon="10.52387967">
        <ele>166.423</ele>
        <time>1970-01-01T01:00:00Z</time>
      </trkpt>
      <trkpt lat="63.36427717" lon="10.5238415">
        <ele>166.423</ele>
        <time>1970-01-01T01:00:00Z</time>
      </trkpt>
      <trkpt lat="63.3642495" lon="10.5238045">
        <ele>166.575</ele>
        <time>1970-01-01T01:00:00Z</time>
      </trkpt>
      <trkpt lat="63.364221" lon="10.52376767">
        <ele>166.575</ele>
        <time>1970-01-01T01:00:00Z</time>
      </trkpt>
      <trkpt lat="63.36419217" lon="10.52373017">
        <ele>166.728</ele>
        <time>1970-01-01T01:00:00Z</time>
      </trkpt>
      <trkpt lat="63.3641635" lon="10.523691">
        <ele>166.728</ele>
        <time>1970-01-01T01:00:00Z</time>
      </trkpt>
      <trkpt lat="63.3641345" lon="10.52365217">
        <ele>166.88</ele>
        <time>1970-01-01T01:00:00Z</time>
      </trkpt>
      <trkpt lat="63.36410533" lon="10.52361367">
        <ele>166.88</ele>
        <time>1970-01-01T01:00:00Z</time>
      </trkpt>
      <trkpt lat="63.36407617" lon="10.52357533">
        <ele>167.032</ele>
        <time>1970-01-01T01:00:00Z</time>
      </trkpt>
      <trkpt lat="63.3640475" lon="10.52353583">
        <ele>167.032</ele>
        <time>1970-01-01T01:00:00Z</time>
      </trkpt>
      <trkpt lat="63.36401917" lon="10.52349683">
        <ele>167.185</ele>
        <time>1970-01-01T01:00:00Z</time>
      </trkpt>
      <trkpt lat="63.363991" lon="10.52345683">
        <ele>167.185</ele>
        <time>1970-01-01T01:00:00Z</time>
      </trkpt>
      <trkpt lat="63.36396267" lon="10.52341733">
        <ele>167.49</ele>
        <time>1970-01-01T01:00:00Z</time>
      </trkpt>
      <trkpt lat="63.36393417" lon="10.523377">
        <ele>167.49</ele>
        <time>1970-01-01T01:00:00Z</time>
      </trkpt>
      <trkpt lat="63.3639055" lon="10.52333783">
        <ele>167.642</ele>
        <time>1970-01-01T01:00:00Z</time>
      </trkpt>
      <trkpt lat="63.363877" lon="10.523299">
        <ele>167.642</ele>
        <time>1970-01-01T01:00:00Z</time>
      </trkpt>
      <trkpt lat="63.36384833" lon="10.5232615">
        <ele>167.794</ele>
        <time>1970-01-01T01:00:00Z</time>
      </trkpt>
      <trkpt lat="63.36382" lon="10.5232245">
        <ele>167.794</ele>
        <time>1970-01-01T01:00:00Z</time>
      </trkpt>
      <trkpt lat="63.36379133" lon="10.52318867">
        <ele>167.947</ele>
        <time>1970-01-01T01:00:00Z</time>
      </trkpt>
      <trkpt lat="63.3637625" lon="10.52315267">
        <ele>167.947</ele>
        <time>1970-01-01T01:00:00Z</time>
      </trkpt>
      <trkpt lat="63.36373317" lon="10.5231165">
        <ele>168.099</ele>
        <time>1970-01-01T01:00:00Z</time>
      </trkpt>
      <trkpt lat="63.36370367" lon="10.523079">
        <ele>168.099</ele>
        <time>1970-01-01T01:00:00Z</time>
      </trkpt>
      <trkpt lat="63.3636745" lon="10.52303917">
        <ele>168.252</ele>
        <time>1970-01-01T01:00:00Z</time>
      </trkpt>
      <trkpt lat="63.36364533" lon="10.52299867">
        <ele>168.252</ele>
        <time>1970-01-01T01:00:00Z</time>
      </trkpt>
      <trkpt lat="63.3636165" lon="10.522958">
        <ele>168.404</ele>
        <time>1970-01-01T01:00:00Z</time>
      </trkpt>
      <trkpt lat="63.36358733" lon="10.52291867">
        <ele>168.404</ele>
        <time>1970-01-01T01:00:00Z</time>
      </trkpt>
      <trkpt lat="63.36355767" lon="10.52287933">
        <ele>168.556</ele>
        <time>1970-01-01T01:00:00Z</time>
      </trkpt>
      <trkpt lat="63.363528" lon="10.52283967">
        <ele>168.556</ele>
        <time>1970-01-01T01:00:00Z</time>
      </trkpt>
      <trkpt lat="63.36349833" lon="10.52279917">
        <ele>168.709</ele>
        <time>1970-01-01T01:00:00Z</time>
      </trkpt>
      <trkpt lat="63.36346883" lon="10.5227585">
        <ele>168.709</ele>
        <time>1970-01-01T01:00:00Z</time>
      </trkpt>
      <trkpt lat="63.36343917" lon="10.52271817">
        <ele>168.861</ele>
        <time>1970-01-01T01:00:00Z</time>
      </trkpt>
      <trkpt lat="63.3634095" lon="10.52267683">
        <ele>168.861</ele>
        <time>1970-01-01T01:00:00Z</time>
      </trkpt>
      <trkpt lat="63.3633795" lon="10.5226355">
        <ele>169.014</ele>
        <time>1970-01-01T01:00:00Z</time>
      </trkpt>
      <trkpt lat="63.36334967" lon="10.52259383">
        <ele>169.014</ele>
        <time>1970-01-01T01:00:00Z</time>
      </trkpt>
      <trkpt lat="63.36331967" lon="10.52255283">
        <ele>169.166</ele>
        <time>1970-01-01T01:00:00Z</time>
      </trkpt>
      <trkpt lat="63.36328983" lon="10.5225115">
        <ele>169.166</ele>
        <time>1970-01-01T01:00:00Z</time>
      </trkpt>
      <trkpt lat="63.36326" lon="10.52247083">
        <ele>169.166</ele>
        <time>1970-01-01T01:00:00Z</time>
      </trkpt>
      <trkpt lat="63.36323" lon="10.522431">
        <ele>169.166</ele>
        <time>1970-01-01T01:00:00Z</time>
      </trkpt>
      <trkpt lat="63.3632" lon="10.5223915">
        <ele>169.318</ele>
        <time>1970-01-01T01:00:00Z</time>
      </trkpt>
      <trkpt lat="63.36317033" lon="10.52235183">
        <ele>169.318</ele>
        <time>1970-01-01T01:00:00Z</time>
      </trkpt>
      <trkpt lat="63.363141" lon="10.52231183">
        <ele>169.471</ele>
        <time>1970-01-01T01:00:00Z</time>
      </trkpt>
      <trkpt lat="63.36311167" lon="10.52227133">
        <ele>169.471</ele>
        <time>1970-01-01T01:00:00Z</time>
      </trkpt>
      <trkpt lat="63.36308217" lon="10.52223067">
        <ele>169.623</ele>
        <time>1970-01-01T01:00:00Z</time>
      </trkpt>
      <trkpt lat="63.36305233" lon="10.52219133">
        <ele>169.623</ele>
        <time>1970-01-01T01:00:00Z</time>
      </trkpt>
      <trkpt lat="63.3630225" lon="10.52215283">
        <ele>169.776</ele>
        <time>1970-01-01T01:00:00Z</time>
      </trkpt>
      <trkpt lat="63.3629935" lon="10.52211433">
        <ele>169.776</ele>
        <time>1970-01-01T01:00:00Z</time>
      </trkpt>
      <trkpt lat="63.36296483" lon="10.52207417">
        <ele>169.776</ele>
        <time>1970-01-01T01:00:00Z</time>
      </trkpt>
      <trkpt lat="63.3629365" lon="10.522034">
        <ele>169.776</ele>
        <time>1970-01-01T01:00:00Z</time>
      </trkpt>
      <trkpt lat="63.36290817" lon="10.52199383">
        <ele>169.928</ele>
        <time>1970-01-01T01:00:00Z</time>
      </trkpt>
      <trkpt lat="63.36288017" lon="10.52195467">
        <ele>169.928</ele>
        <time>1970-01-01T01:00:00Z</time>
      </trkpt>
      <trkpt lat="63.36285183" lon="10.52191533">
        <ele>170.08</ele>
        <time>1970-01-01T01:00:00Z</time>
      </trkpt>
      <trkpt lat="63.362824" lon="10.52187583">
        <ele>170.08</ele>
        <time>1970-01-01T01:00:00Z</time>
      </trkpt>
      <trkpt lat="63.36279617" lon="10.521836">
        <ele>170.233</ele>
        <time>1970-01-01T01:00:00Z</time>
      </trkpt>
      <trkpt lat="63.36276867" lon="10.52179583">
        <ele>170.233</ele>
        <time>1970-01-01T01:00:00Z</time>
      </trkpt>
      <trkpt lat="63.36274133" lon="10.52175567">
        <ele>170.385</ele>
        <time>1970-01-01T01:00:00Z</time>
      </trkpt>
      <trkpt lat="63.362714" lon="10.52171533">
        <ele>170.385</ele>
        <time>1970-01-01T01:00:00Z</time>
      </trkpt>
      <trkpt lat="63.36268683" lon="10.52167383">
        <ele>170.538</ele>
        <time>1970-01-01T01:00:00Z</time>
      </trkpt>
      <trkpt lat="63.3626595" lon="10.52163133">
        <ele>170.538</ele>
        <time>1970-01-01T01:00:00Z</time>
      </trkpt>
      <trkpt lat="63.36263233" lon="10.52158817">
        <ele>170.69</ele>
        <time>1970-01-01T01:00:00Z</time>
      </trkpt>
      <trkpt lat="63.36260533" lon="10.521546">
        <ele>170.69</ele>
        <time>1970-01-01T01:00:00Z</time>
      </trkpt>
      <trkpt lat="63.36257783" lon="10.521505">
        <ele>170.842</ele>
        <time>1970-01-01T01:00:00Z</time>
      </trkpt>
      <trkpt lat="63.3625505" lon="10.52146433">
        <ele>170.842</ele>
        <time>1970-01-01T01:00:00Z</time>
      </trkpt>
      <trkpt lat="63.36252267" lon="10.52142333">
        <ele>170.995</ele>
        <time>1970-01-01T01:00:00Z</time>
      </trkpt>
      <trkpt lat="63.36249517" lon="10.521381">
        <ele>170.995</ele>
        <time>1970-01-01T01:00:00Z</time>
      </trkpt>
      <trkpt lat="63.3624675" lon="10.52133783">
        <ele>171.147</ele>
        <time>1970-01-01T01:00:00Z</time>
      </trkpt>
      <trkpt lat="63.36244" lon="10.52129483">
        <ele>171.147</ele>
        <time>1970-01-01T01:00:00Z</time>
      </trkpt>
      <trkpt lat="63.36241267" lon="10.52125167">
        <ele>171.3</ele>
        <time>1970-01-01T01:00:00Z</time>
      </trkpt>
      <trkpt lat="63.362385" lon="10.52120933">
        <ele>171.3</ele>
        <time>1970-01-01T01:00:00Z</time>
      </trkpt>
      <trkpt lat="63.36235733" lon="10.52116733">
        <ele>171.452</ele>
        <time>1970-01-01T01:00:00Z</time>
      </trkpt>
      <trkpt lat="63.3623295" lon="10.52112683">
        <ele>171.452</ele>
        <time>1970-01-01T01:00:00Z</time>
      </trkpt>
      <trkpt lat="63.362302" lon="10.52108767">
        <ele>171.604</ele>
        <time>1970-01-01T01:00:00Z</time>
      </trkpt>
      <trkpt lat="63.36227467" lon="10.52104917">
        <ele>171.604</ele>
        <time>1970-01-01T01:00:00Z</time>
      </trkpt>
      <trkpt lat="63.36224767" lon="10.5210115">
        <ele>171.757</ele>
        <time>1970-01-01T01:00:00Z</time>
      </trkpt>
      <trkpt lat="63.36222117" lon="10.520974">
        <ele>171.757</ele>
        <time>1970-01-01T01:00:00Z</time>
      </trkpt>
      <trkpt lat="63.36219567" lon="10.520937">
        <ele>171.909</ele>
        <time>1970-01-01T01:00:00Z</time>
      </trkpt>
      <trkpt lat="63.362171" lon="10.52089933">
        <ele>171.909</ele>
        <time>1970-01-01T01:00:00Z</time>
      </trkpt>
      <trkpt lat="63.362147" lon="10.520861">
        <ele>172.062</ele>
        <time>1970-01-01T01:00:00Z</time>
      </trkpt>
      <trkpt lat="63.36212267" lon="10.520823">
        <ele>172.062</ele>
        <time>1970-01-01T01:00:00Z</time>
      </trkpt>
      <trkpt lat="63.3620985" lon="10.52078417">
        <ele>172.214</ele>
        <time>1970-01-01T01:00:00Z</time>
      </trkpt>
      <trkpt lat="63.3620745" lon="10.52074483">
        <ele>172.214</ele>
        <time>1970-01-01T01:00:00Z</time>
      </trkpt>
      <trkpt lat="63.36205183" lon="10.52070417">
        <ele>172.366</ele>
        <time>1970-01-01T01:00:00Z</time>
      </trkpt>
      <trkpt lat="63.36202883" lon="10.5206655">
        <ele>172.366</ele>
        <time>1970-01-01T01:00:00Z</time>
      </trkpt>
      <trkpt lat="63.36200567" lon="10.5206295">
        <ele>172.671</ele>
        <time>1970-01-01T01:00:00Z</time>
      </trkpt>
      <trkpt lat="63.36198183" lon="10.52059467">
        <ele>172.671</ele>
        <time>1970-01-01T01:00:00Z</time>
      </trkpt>
      <trkpt lat="63.36195833" lon="10.52056">
        <ele>172.824</ele>
        <time>1970-01-01T01:00:00Z</time>
      </trkpt>
      <trkpt lat="63.36193567" lon="10.52052333">
        <ele>172.824</ele>
        <time>1970-01-01T01:00:00Z</time>
      </trkpt>
      <trkpt lat="63.36191317" lon="10.52048767">
        <ele>172.976</ele>
        <time>1970-01-01T01:00:00Z</time>
      </trkpt>
      <trkpt lat="63.36189083" lon="10.5204515">
        <ele>172.976</ele>
        <time>1970-01-01T01:00:00Z</time>
      </trkpt>
      <trkpt lat="63.36186883" lon="10.520416">
        <ele>173.281</ele>
        <time>1970-01-01T01:00:00Z</time>
      </trkpt>
      <trkpt lat="63.3618465" lon="10.52038083">
        <ele>173.281</ele>
        <time>1970-01-01T01:00:00Z</time>
      </trkpt>
      <trkpt lat="63.361824" lon="10.52034617">
        <ele>173.433</ele>
        <time>1970-01-01T01:00:00Z</time>
      </trkpt>
      <trkpt lat="63.36180067" lon="10.52031367">
        <ele>173.433</ele>
        <time>1970-01-01T01:00:00Z</time>
      </trkpt>
      <trkpt lat="63.36177733" lon="10.52028083">
        <ele>173.738</ele>
        <time>1970-01-01T01:00:00Z</time>
      </trkpt>
      <trkpt lat="63.36175383" lon="10.5202475">
        <ele>173.738</ele>
        <time>1970-01-01T01:00:00Z</time>
      </trkpt>
      <trkpt lat="63.3617305" lon="10.520211">
        <ele>173.891</ele>
        <time>1970-01-01T01:00:00Z</time>
      </trkpt>
      <trkpt lat="63.361708" lon="10.520171">
        <ele>173.891</ele>
        <time>1970-01-01T01:00:00Z</time>
      </trkpt>
      <trkpt lat="63.3616855" lon="10.5201295">
        <ele>174.195</ele>
        <time>1970-01-01T01:00:00Z</time>
      </trkpt>
      <trkpt lat="63.361663" lon="10.52008833">
        <ele>174.195</ele>
        <time>1970-01-01T01:00:00Z</time>
      </trkpt>
      <trkpt lat="63.36164017" lon="10.520049">
        <ele>174.5</ele>
        <time>1970-01-01T01:00:00Z</time>
      </trkpt>
      <trkpt lat="63.36161783" lon="10.52001083">
        <ele>174.5</ele>
        <time>1970-01-01T01:00:00Z</time>
      </trkpt>
      <trkpt lat="63.36159533" lon="10.51997283">
        <ele>174.653</ele>
        <time>1970-01-01T01:00:00Z</time>
      </trkpt>
      <trkpt lat="63.36157317" lon="10.51993417">
        <ele>174.653</ele>
        <time>1970-01-01T01:00:00Z</time>
      </trkpt>
      <trkpt lat="63.36155083" lon="10.51989483">
        <ele>174.957</ele>
        <time>1970-01-01T01:00:00Z</time>
      </trkpt>
      <trkpt lat="63.36152833" lon="10.5198555">
        <ele>174.957</ele>
        <time>1970-01-01T01:00:00Z</time>
      </trkpt>
      <trkpt lat="63.36150617" lon="10.51981733">
        <ele>175.11</ele>
        <time>1970-01-01T01:00:00Z</time>
      </trkpt>
      <trkpt lat="63.36148417" lon="10.51978033">
        <ele>175.11</ele>
        <time>1970-01-01T01:00:00Z</time>
      </trkpt>
      <trkpt lat="63.36146317" lon="10.5197415">
        <ele>175.415</ele>
        <time>1970-01-01T01:00:00Z</time>
      </trkpt>
      <trkpt lat="63.36144167" lon="10.5197005">
        <ele>175.415</ele>
        <time>1970-01-01T01:00:00Z</time>
      </trkpt>
      <trkpt lat="63.36141983" lon="10.51965583">
        <ele>175.567</ele>
        <time>1970-01-01T01:00:00Z</time>
      </trkpt>
      <trkpt lat="63.36139667" lon="10.51960983">
        <ele>175.567</ele>
        <time>1970-01-01T01:00:00Z</time>
      </trkpt>
      <trkpt lat="63.36137183" lon="10.51956433">
        <ele>175.872</ele>
        <time>1970-01-01T01:00:00Z</time>
      </trkpt>
      <trkpt lat="63.36134567" lon="10.51951933">
        <ele>175.872</ele>
        <time>1970-01-01T01:00:00Z</time>
      </trkpt>
      <trkpt lat="63.36131917" lon="10.51947367">
        <ele>176.024</ele>
        <time>1970-01-01T01:00:00Z</time>
      </trkpt>
      <trkpt lat="63.36129267" lon="10.51942617">
        <ele>176.024</ele>
        <time>1970-01-01T01:00:00Z</time>
      </trkpt>
      <trkpt lat="63.36126617" lon="10.51937683">
        <ele>176.329</ele>
        <time>1970-01-01T01:00:00Z</time>
      </trkpt>
      <trkpt lat="63.361239" lon="10.519327">
        <ele>176.329</ele>
        <time>1970-01-01T01:00:00Z</time>
      </trkpt>
      <trkpt lat="63.36121183" lon="10.5192765">
        <ele>176.481</ele>
        <time>1970-01-01T01:00:00Z</time>
      </trkpt>
      <trkpt lat="63.3611845" lon="10.5192255">
        <ele>176.481</ele>
        <time>1970-01-01T01:00:00Z</time>
      </trkpt>
      <trkpt lat="63.361157" lon="10.519174">
        <ele>176.786</ele>
        <time>1970-01-01T01:00:00Z</time>
      </trkpt>
      <trkpt lat="63.36112983" lon="10.51912033">
        <ele>176.786</ele>
        <time>1970-01-01T01:00:00Z</time>
      </trkpt>
      <trkpt lat="63.36110317" lon="10.51906567">
        <ele>176.939</ele>
        <time>1970-01-01T01:00:00Z</time>
      </trkpt>
      <trkpt lat="63.36107733" lon="10.51901017">
        <ele>176.939</ele>
        <time>1970-01-01T01:00:00Z</time>
      </trkpt>
      <trkpt lat="63.3610515" lon="10.51895633">
        <ele>177.091</ele>
        <time>1970-01-01T01:00:00Z</time>
      </trkpt>
      <trkpt lat="63.36102567" lon="10.518904">
        <ele>177.091</ele>
        <time>1970-01-01T01:00:00Z</time>
      </trkpt>
      <trkpt lat="63.36099983" lon="10.518853">
        <ele>177.396</ele>
        <time>1970-01-01T01:00:00Z</time>
      </trkpt>
      <trkpt lat="63.360974" lon="10.51880183">
        <ele>177.396</ele>
        <time>1970-01-01T01:00:00Z</time>
      </trkpt>
      <trkpt lat="63.3609485" lon="10.51874967">
        <ele>177.548</ele>
        <time>1970-01-01T01:00:00Z</time>
      </trkpt>
      <trkpt lat="63.36092267" lon="10.51869817">
        <ele>177.548</ele>
        <time>1970-01-01T01:00:00Z</time>
      </trkpt>
      <trkpt lat="63.36089733" lon="10.51864783">
        <ele>177.853</ele>
        <time>1970-01-01T01:00:00Z</time>
      </trkpt>
      <trkpt lat="63.36087183" lon="10.5185985">
        <ele>177.853</ele>
        <time>1970-01-01T01:00:00Z</time>
      </trkpt>
      <trkpt lat="63.360847" lon="10.51854867">
        <ele>178.005</ele>
        <time>1970-01-01T01:00:00Z</time>
      </trkpt>
      <trkpt lat="63.360822" lon="10.5184995">
        <ele>178.005</ele>
        <time>1970-01-01T01:00:00Z</time>
      </trkpt>
      <trkpt lat="63.36079683" lon="10.51845033">
        <ele>178.31</ele>
        <time>1970-01-01T01:00:00Z</time>
      </trkpt>
      <trkpt lat="63.36077233" lon="10.51839983">
        <ele>178.31</ele>
        <time>1970-01-01T01:00:00Z</time>
      </trkpt>
      <trkpt lat="63.3607485" lon="10.5183475">
        <ele>178.463</ele>
        <time>1970-01-01T01:00:00Z</time>
      </trkpt>
      <trkpt lat="63.3607245" lon="10.518295">
        <ele>178.463</ele>
        <time>1970-01-01T01:00:00Z</time>
      </trkpt>
      <trkpt lat="63.3606995" lon="10.51824233">
        <ele>178.767</ele>
        <time>1970-01-01T01:00:00Z</time>
      </trkpt>
      <trkpt lat="63.36067433" lon="10.5181885">
        <ele>178.767</ele>
        <time>1970-01-01T01:00:00Z</time>
      </trkpt>
      <trkpt lat="63.360649" lon="10.51813333">
        <ele>178.92</ele>
        <time>1970-01-01T01:00:00Z</time>
      </trkpt>
      <trkpt lat="63.36062317" lon="10.5180765">
        <ele>178.92</ele>
        <time>1970-01-01T01:00:00Z</time>
      </trkpt>
      <trkpt lat="63.36059767" lon="10.51801817">
        <ele>179.225</ele>
        <time>1970-01-01T01:00:00Z</time>
      </trkpt>
      <trkpt lat="63.36057083" lon="10.51796">
        <ele>179.225</ele>
        <time>1970-01-01T01:00:00Z</time>
      </trkpt>
      <trkpt lat="63.36054467" lon="10.5179015">
        <ele>179.377</ele>
        <time>1970-01-01T01:00:00Z</time>
      </trkpt>
      <trkpt lat="63.360518" lon="10.51784283">
        <ele>179.377</ele>
        <time>1970-01-01T01:00:00Z</time>
      </trkpt>
      <trkpt lat="63.360492" lon="10.517783">
        <ele>179.682</ele>
        <time>1970-01-01T01:00:00Z</time>
      </trkpt>
      <trkpt lat="63.36046533" lon="10.51772333">
        <ele>179.682</ele>
        <time>1970-01-01T01:00:00Z</time>
      </trkpt>
      <trkpt lat="63.360438" lon="10.517664">
        <ele>179.987</ele>
        <time>1970-01-01T01:00:00Z</time>
      </trkpt>
      <trkpt lat="63.36041" lon="10.51760433">
        <ele>179.987</ele>
        <time>1970-01-01T01:00:00Z</time>
      </trkpt>
      <trkpt lat="63.360382" lon="10.517544">
        <ele>180.139</ele>
        <time>1970-01-01T01:00:00Z</time>
      </trkpt>
      <trkpt lat="63.36035367" lon="10.51748417">
        <ele>180.139</ele>
        <time>1970-01-01T01:00:00Z</time>
      </trkpt>
      <trkpt lat="63.36032567" lon="10.51742483">
        <ele>180.444</ele>
        <time>1970-01-01T01:00:00Z</time>
      </trkpt>
      <trkpt lat="63.36029867" lon="10.51736617">
        <ele>180.444</ele>
        <time>1970-01-01T01:00:00Z</time>
      </trkpt>
      <trkpt lat="63.36027233" lon="10.51730733">
        <ele>180.596</ele>
        <time>1970-01-01T01:00:00Z</time>
      </trkpt>
      <trkpt lat="63.36024617" lon="10.51724967">
        <ele>180.596</ele>
        <time>1970-01-01T01:00:00Z</time>
      </trkpt>
      <trkpt lat="63.36021967" lon="10.51719167">
        <ele>180.901</ele>
        <time>1970-01-01T01:00:00Z</time>
      </trkpt>
      <trkpt lat="63.3601925" lon="10.5171325">
        <ele>180.901</ele>
        <time>1970-01-01T01:00:00Z</time>
      </trkpt>
      <trkpt lat="63.36016483" lon="10.51707083">
        <ele>181.053</ele>
        <time>1970-01-01T01:00:00Z</time>
      </trkpt>
      <trkpt lat="63.36013617" lon="10.51700783">
        <ele>181.053</ele>
        <time>1970-01-01T01:00:00Z</time>
      </trkpt>
      <trkpt lat="63.360107" lon="10.51694383">
        <ele>181.206</ele>
        <time>1970-01-01T01:00:00Z</time>
      </trkpt>
      <trkpt lat="63.3600775" lon="10.51687933">
        <ele>181.206</ele>
        <time>1970-01-01T01:00:00Z</time>
      </trkpt>
      <trkpt lat="63.36004767" lon="10.5168155">
        <ele>181.358</ele>
        <time>1970-01-01T01:00:00Z</time>
      </trkpt>
      <trkpt lat="63.36001717" lon="10.51675217">
        <ele>181.358</ele>
        <time>1970-01-01T01:00:00Z</time>
      </trkpt>
      <trkpt lat="63.3599865" lon="10.51668917">
        <ele>181.663</ele>
        <time>1970-01-01T01:00:00Z</time>
      </trkpt>
      <trkpt lat="63.35995633" lon="10.516626">
        <ele>181.663</ele>
        <time>1970-01-01T01:00:00Z</time>
      </trkpt>
      <trkpt lat="63.35992767" lon="10.51656167">
        <ele>181.815</ele>
        <time>1970-01-01T01:00:00Z</time>
      </trkpt>
      <trkpt lat="63.3598995" lon="10.51649683">
        <ele>181.815</ele>
        <time>1970-01-01T01:00:00Z</time>
      </trkpt>
      <trkpt lat="63.359871" lon="10.51643233">
        <ele>181.968</ele>
        <time>1970-01-01T01:00:00Z</time>
      </trkpt>
      <trkpt lat="63.35984283" lon="10.51636767">
        <ele>181.968</ele>
        <time>1970-01-01T01:00:00Z</time>
      </trkpt>
      <trkpt lat="63.35981433" lon="10.516304">
        <ele>182.12</ele>
        <time>1970-01-01T01:00:00Z</time>
      </trkpt>
      <trkpt lat="63.35978633" lon="10.516241">
        <ele>182.12</ele>
        <time>1970-01-01T01:00:00Z</time>
      </trkpt>
      <trkpt lat="63.35975733" lon="10.51618017">
        <ele>182.273</ele>
        <time>1970-01-01T01:00:00Z</time>
      </trkpt>
      <trkpt lat="63.359729" lon="10.5161195">
        <ele>182.273</ele>
        <time>1970-01-01T01:00:00Z</time>
      </trkpt>
      <trkpt lat="63.35970067" lon="10.51606">
        <ele>182.425</ele>
        <time>1970-01-01T01:00:00Z</time>
      </trkpt>
      <trkpt lat="63.35967267" lon="10.51600133">
        <ele>182.425</ele>
        <time>1970-01-01T01:00:00Z</time>
      </trkpt>
      <trkpt lat="63.3596435" lon="10.51594367">
        <ele>182.577</ele>
        <time>1970-01-01T01:00:00Z</time>
      </trkpt>
      <trkpt lat="63.35961417" lon="10.51588517">
        <ele>182.577</ele>
        <time>1970-01-01T01:00:00Z</time>
      </trkpt>
      <trkpt lat="63.359584" lon="10.5158265">
        <ele>182.73</ele>
        <time>1970-01-01T01:00:00Z</time>
      </trkpt>
      <trkpt lat="63.35955367" lon="10.51576767">
        <ele>182.73</ele>
        <time>1970-01-01T01:00:00Z</time>
      </trkpt>
      <trkpt lat="63.35952317" lon="10.515708">
        <ele>182.882</ele>
        <time>1970-01-01T01:00:00Z</time>
      </trkpt>
      <trkpt lat="63.359493" lon="10.51564667">
        <ele>182.882</ele>
        <time>1970-01-01T01:00:00Z</time>
      </trkpt>
      <trkpt lat="63.359463" lon="10.51558433">
        <ele>183.035</ele>
        <time>1970-01-01T01:00:00Z</time>
      </trkpt>
      <trkpt lat="63.35943267" lon="10.51552217">
        <ele>183.035</ele>
        <time>1970-01-01T01:00:00Z</time>
      </trkpt>
      <trkpt lat="63.35940233" lon="10.5154605">
        <ele>183.035</ele>
        <time>1970-01-01T01:00:00Z</time>
      </trkpt>
      <trkpt lat="63.35937167" lon="10.515399">
        <ele>183.035</ele>
        <time>1970-01-01T01:00:00Z</time>
      </trkpt>
      <trkpt lat="63.359341" lon="10.515338">
        <ele>183.187</ele>
        <time>1970-01-01T01:00:00Z</time>
      </trkpt>
      <trkpt lat="63.359311" lon="10.51527683">
        <ele>183.187</ele>
        <time>1970-01-01T01:00:00Z</time>
      </trkpt>
      <trkpt lat="63.35928167" lon="10.51521667">
        <ele>183.339</ele>
        <time>1970-01-01T01:00:00Z</time>
      </trkpt>
      <trkpt lat="63.359254" lon="10.51515717">
        <ele>183.339</ele>
        <time>1970-01-01T01:00:00Z</time>
      </trkpt>
      <trkpt lat="63.35922667" lon="10.51509933">
        <ele>183.492</ele>
        <time>1970-01-01T01:00:00Z</time>
      </trkpt>
      <trkpt lat="63.35920017" lon="10.51504217">
        <ele>183.492</ele>
        <time>1970-01-01T01:00:00Z</time>
      </trkpt>
      <trkpt lat="63.35917367" lon="10.514986">
        <ele>183.492</ele>
        <time>1970-01-01T01:00:00Z</time>
      </trkpt>
      <trkpt lat="63.35914767" lon="10.51493133">
        <ele>183.492</ele>
        <time>1970-01-01T01:00:00Z</time>
      </trkpt>
      <trkpt lat="63.35912233" lon="10.51487883">
        <ele>183.644</ele>
        <time>1970-01-01T01:00:00Z</time>
      </trkpt>
      <trkpt lat="63.359098" lon="10.51482817">
        <ele>183.644</ele>
        <time>1970-01-01T01:00:00Z</time>
      </trkpt>
      <trkpt lat="63.3590745" lon="10.51477917">
        <ele>183.644</ele>
        <time>1970-01-01T01:00:00Z</time>
      </trkpt>
      <trkpt lat="63.35905183" lon="10.514731">
        <ele>183.644</ele>
        <time>1970-01-01T01:00:00Z</time>
      </trkpt>
      <trkpt lat="63.35903" lon="10.5146845">
        <ele>183.797</ele>
        <time>1970-01-01T01:00:00Z</time>
      </trkpt>
      <trkpt lat="63.359009" lon="10.51463967">
        <ele>183.797</ele>
        <time>1970-01-01T01:00:00Z</time>
      </trkpt>
      <trkpt lat="63.3589885" lon="10.51459733">
        <ele>183.797</ele>
        <time>1970-01-01T01:00:00Z</time>
      </trkpt>
      <trkpt lat="63.358969" lon="10.5145565">
        <ele>183.797</ele>
        <time>1970-01-01T01:00:00Z</time>
      </trkpt>
      <trkpt lat="63.35895" lon="10.514518">
        <ele>183.949</ele>
        <time>1970-01-01T01:00:00Z</time>
      </trkpt>
      <trkpt lat="63.35893167" lon="10.51448117">
        <ele>183.949</ele>
        <time>1970-01-01T01:00:00Z</time>
      </trkpt>
      <trkpt lat="63.35891417" lon="10.51444567">
        <ele>183.949</ele>
        <time>1970-01-01T01:00:00Z</time>
      </trkpt>
      <trkpt lat="63.358898" lon="10.514413">
        <ele>183.949</ele>
        <time>1970-01-01T01:00:00Z</time>
      </trkpt>
      <trkpt lat="63.35888383" lon="10.51438317">
        <ele>184.101</ele>
        <time>1970-01-01T01:00:00Z</time>
      </trkpt>
      <trkpt lat="63.35887133" lon="10.5143565">
        <ele>184.101</ele>
        <time>1970-01-01T01:00:00Z</time>
      </trkpt>
      <trkpt lat="63.35886" lon="10.51433183">
        <ele>184.101</ele>
        <time>1970-01-01T01:00:00Z</time>
      </trkpt>
      <trkpt lat="63.35884917" lon="10.514308">
        <ele>184.101</ele>
        <time>1970-01-01T01:00:00Z</time>
      </trkpt>
      <trkpt lat="63.35883933" lon="10.514286">
        <ele>184.101</ele>
        <time>1970-01-01T01:00:00Z</time>
      </trkpt>
      <trkpt lat="63.35883017" lon="10.51426383">
        <ele>184.101</ele>
        <time>1970-01-01T01:00:00Z</time>
      </trkpt>
      <trkpt lat="63.358822" lon="10.514243">
        <ele>184.254</ele>
        <time>1970-01-01T01:00:00Z</time>
      </trkpt>
      <trkpt lat="63.35881383" lon="10.51422233">
        <ele>184.254</ele>
        <time>1970-01-01T01:00:00Z</time>
      </trkpt>
      <trkpt lat="63.358806" lon="10.51420383">
        <ele>184.254</ele>
        <time>1970-01-01T01:00:00Z</time>
      </trkpt>
      <trkpt lat="63.35879767" lon="10.51418517">
        <ele>184.254</ele>
        <time>1970-01-01T01:00:00Z</time>
      </trkpt>
      <trkpt lat="63.35878883" lon="10.51416667">
        <ele>184.406</ele>
        <time>1970-01-01T01:00:00Z</time>
      </trkpt>
      <trkpt lat="63.3587795" lon="10.51414717">
        <ele>184.406</ele>
        <time>1970-01-01T01:00:00Z</time>
      </trkpt>
      <trkpt lat="63.35877033" lon="10.5141275">
        <ele>184.406</ele>
        <time>1970-01-01T01:00:00Z</time>
      </trkpt>
      <trkpt lat="63.35876083" lon="10.51410883">
        <ele>184.406</ele>
        <time>1970-01-01T01:00:00Z</time>
      </trkpt>
      <trkpt lat="63.35875267" lon="10.51409033">
        <ele>184.406</ele>
        <time>1970-01-01T01:00:00Z</time>
      </trkpt>
      <trkpt lat="63.35874583" lon="10.51407467">
        <ele>184.406</ele>
        <time>1970-01-01T01:00:00Z</time>
      </trkpt>
      <trkpt lat="63.35874183" lon="10.5140635">
        <ele>184.559</ele>
        <time>1970-01-01T01:00:00Z</time>
      </trkpt>
      <trkpt lat="63.35874" lon="10.514059">
        <ele>184.559</ele>
        <time>1970-01-01T01:00:00Z</time>
      </trkpt>
      <trkpt lat="63.35874033" lon="10.51406">
        <ele>184.559</ele>
        <time>1970-01-01T01:00:00Z</time>
      </trkpt>
      <trkpt lat="63.35874117" lon="10.51406167">
        <ele>184.559</ele>
        <time>1970-01-01T01:00:00Z</time>
      </trkpt>
      <trkpt lat="63.35874217" lon="10.5140635">
        <ele>184.559</ele>
        <time>1970-01-01T01:00:00Z</time>
      </trkpt>
      <trkpt lat="63.35874217" lon="10.51406433">
        <ele>184.559</ele>
        <time>1970-01-01T01:00:00Z</time>
      </trkpt>
      <trkpt lat="63.35874117" lon="10.51406333">
        <ele>184.559</ele>
        <time>1970-01-01T01:00:00Z</time>
      </trkpt>
      <trkpt lat="63.35874" lon="10.51406333">
        <ele>184.559</ele>
        <time>1970-01-01T01:00:00Z</time>
      </trkpt>
      <trkpt lat="63.35873883" lon="10.514063">
        <ele>184.559</ele>
        <time>1970-01-01T01:00:00Z</time>
      </trkpt>
      <trkpt lat="63.3587385" lon="10.51406467">
        <ele>184.559</ele>
        <time>1970-01-01T01:00:00Z</time>
      </trkpt>
      <trkpt lat="63.35873817" lon="10.51406433">
        <ele>184.559</ele>
        <time>1970-01-01T01:00:00Z</time>
      </trkpt>
      <trkpt lat="63.35873817" lon="10.51406417">
        <ele>184.559</ele>
        <time>1970-01-01T01:00:00Z</time>
      </trkpt>
      <trkpt lat="63.35873817" lon="10.51406417">
        <ele>184.559</ele>
        <time>1970-01-01T01:00:00Z</time>
      </trkpt>
      <trkpt lat="63.35873833" lon="10.51406417">
        <ele>184.559</ele>
        <time>1970-01-01T01:00:00Z</time>
      </trkpt>
      <trkpt lat="63.35873833" lon="10.514064">
        <ele>184.559</ele>
        <time>1970-01-01T01:00:00Z</time>
      </trkpt>
      <trkpt lat="63.35873867" lon="10.51406383">
        <ele>184.559</ele>
        <time>1970-01-01T01:00:00Z</time>
      </trkpt>
      <trkpt lat="63.35873883" lon="10.5140635">
        <ele>184.711</ele>
        <time>1970-01-01T01:00:00Z</time>
      </trkpt>
      <trkpt lat="63.35873933" lon="10.5140635">
        <ele>184.711</ele>
        <time>1970-01-01T01:00:00Z</time>
      </trkpt>
      <trkpt lat="63.35873967" lon="10.5140635">
        <ele>184.711</ele>
        <time>1970-01-01T01:00:00Z</time>
      </trkpt>
      <trkpt lat="63.35874017" lon="10.51406367">
        <ele>184.711</ele>
        <time>1970-01-01T01:00:00Z</time>
      </trkpt>
      <trkpt lat="63.3587405" lon="10.51406383">
        <ele>184.711</ele>
        <time>1970-01-01T01:00:00Z</time>
      </trkpt>
      <trkpt lat="63.35874083" lon="10.51406383">
        <ele>184.711</ele>
        <time>1970-01-01T01:00:00Z</time>
      </trkpt>
      <trkpt lat="63.35874117" lon="10.51406383">
        <ele>184.711</ele>
        <time>1970-01-01T01:00:00Z</time>
      </trkpt>
      <trkpt lat="63.3587415" lon="10.51406383">
        <ele>184.711</ele>
        <time>1970-01-01T01:00:00Z</time>
      </trkpt>
      <trkpt lat="63.3587415" lon="10.51406383">
        <ele>184.711</ele>
        <time>1970-01-01T01:00:00Z</time>
      </trkpt>
      <trkpt lat="63.35873967" lon="10.5140615">
        <ele>184.711</ele>
        <time>1970-01-01T01:00:00Z</time>
      </trkpt>
      <trkpt lat="63.35873467" lon="10.51405533">
        <ele>184.711</ele>
        <time>1970-01-01T01:00:00Z</time>
      </trkpt>
      <trkpt lat="63.35872733" lon="10.51404533">
        <ele>184.711</ele>
        <time>1970-01-01T01:00:00Z</time>
      </trkpt>
      <trkpt lat="63.35871933" lon="10.5140325">
        <ele>184.711</ele>
        <time>1970-01-01T01:00:00Z</time>
      </trkpt>
      <trkpt lat="63.35871117" lon="10.514018">
        <ele>184.711</ele>
        <time>1970-01-01T01:00:00Z</time>
      </trkpt>
      <trkpt lat="63.358701" lon="10.51399967">
        <ele>184.711</ele>
        <time>1970-01-01T01:00:00Z</time>
      </trkpt>
      <trkpt lat="63.35868817" lon="10.51397867">
        <ele>184.711</ele>
        <time>1970-01-01T01:00:00Z</time>
      </trkpt>
      <trkpt lat="63.35867233" lon="10.51395483">
        <ele>184.711</ele>
        <time>1970-01-01T01:00:00Z</time>
      </trkpt>
      <trkpt lat="63.3586545" lon="10.51392767">
        <ele>184.711</ele>
        <time>1970-01-01T01:00:00Z</time>
      </trkpt>
      <trkpt lat="63.35863433" lon="10.51389567">
        <ele>184.711</ele>
        <time>1970-01-01T01:00:00Z</time>
      </trkpt>
      <trkpt lat="63.35861283" lon="10.51385817">
        <ele>184.711</ele>
        <time>1970-01-01T01:00:00Z</time>
      </trkpt>
      <trkpt lat="63.35859033" lon="10.5138165">
        <ele>184.711</ele>
        <time>1970-01-01T01:00:00Z</time>
      </trkpt>
      <trkpt lat="63.35856783" lon="10.513774">
        <ele>184.711</ele>
        <time>1970-01-01T01:00:00Z</time>
      </trkpt>
      <trkpt lat="63.35854567" lon="10.51373183">
        <ele>184.711</ele>
        <time>1970-01-01T01:00:00Z</time>
      </trkpt>
      <trkpt lat="63.35852317" lon="10.51369033">
        <ele>184.711</ele>
        <time>1970-01-01T01:00:00Z</time>
      </trkpt>
      <trkpt lat="63.35849983" lon="10.51364733">
        <ele>184.711</ele>
        <time>1970-01-01T01:00:00Z</time>
      </trkpt>
      <trkpt lat="63.3584755" lon="10.5136015">
        <ele>184.711</ele>
        <time>1970-01-01T01:00:00Z</time>
      </trkpt>
      <trkpt lat="63.35845033" lon="10.51355267">
        <ele>184.711</ele>
        <time>1970-01-01T01:00:00Z</time>
      </trkpt>
      <trkpt lat="63.35842433" lon="10.51350083">
        <ele>184.711</ele>
        <time>1970-01-01T01:00:00Z</time>
      </trkpt>
      <trkpt lat="63.35839767" lon="10.51344617">
        <ele>184.711</ele>
        <time>1970-01-01T01:00:00Z</time>
      </trkpt>
      <trkpt lat="63.35836983" lon="10.5133905">
        <ele>184.711</ele>
        <time>1970-01-01T01:00:00Z</time>
      </trkpt>
      <trkpt lat="63.35834133" lon="10.51333467">
        <ele>184.711</ele>
        <time>1970-01-01T01:00:00Z</time>
      </trkpt>
      <trkpt lat="63.35831233" lon="10.51327883">
        <ele>184.711</ele>
        <time>1970-01-01T01:00:00Z</time>
      </trkpt>
      <trkpt lat="63.35828333" lon="10.5132215">
        <ele>184.863</ele>
        <time>1970-01-01T01:00:00Z</time>
      </trkpt>
      <trkpt lat="63.35825417" lon="10.51316317">
        <ele>184.863</ele>
        <time>1970-01-01T01:00:00Z</time>
      </trkpt>
      <trkpt lat="63.358225" lon="10.5131045">
        <ele>184.863</ele>
        <time>1970-01-01T01:00:00Z</time>
      </trkpt>
      <trkpt lat="63.35819617" lon="10.51304817">
        <ele>184.863</ele>
        <time>1970-01-01T01:00:00Z</time>
      </trkpt>
      <trkpt lat="63.35816733" lon="10.51299367">
        <ele>184.863</ele>
        <time>1970-01-01T01:00:00Z</time>
      </trkpt>
      <trkpt lat="63.35813917" lon="10.51294067">
        <ele>184.863</ele>
        <time>1970-01-01T01:00:00Z</time>
      </trkpt>
      <trkpt lat="63.35811083" lon="10.5128885">
        <ele>184.863</ele>
        <time>1970-01-01T01:00:00Z</time>
      </trkpt>
      <trkpt lat="63.35808267" lon="10.51283617">
        <ele>184.863</ele>
        <time>1970-01-01T01:00:00Z</time>
      </trkpt>
      <trkpt lat="63.35805483" lon="10.51278417">
        <ele>185.016</ele>
        <time>1970-01-01T01:00:00Z</time>
      </trkpt>
      <trkpt lat="63.35802783" lon="10.512732">
        <ele>185.016</ele>
        <time>1970-01-01T01:00:00Z</time>
      </trkpt>
      <trkpt lat="63.35800117" lon="10.51268167">
        <ele>185.016</ele>
        <time>1970-01-01T01:00:00Z</time>
      </trkpt>
      <trkpt lat="63.35797433" lon="10.51263383">
        <ele>185.016</ele>
        <time>1970-01-01T01:00:00Z</time>
      </trkpt>
      <trkpt lat="63.35794733" lon="10.5125885">
        <ele>185.168</ele>
        <time>1970-01-01T01:00:00Z</time>
      </trkpt>
      <trkpt lat="63.3579205" lon="10.51254517">
        <ele>185.168</ele>
        <time>1970-01-01T01:00:00Z</time>
      </trkpt>
      <trkpt lat="63.3578935" lon="10.5125015">
        <ele>185.168</ele>
        <time>1970-01-01T01:00:00Z</time>
      </trkpt>
      <trkpt lat="63.35786617" lon="10.5124575">
        <ele>185.168</ele>
        <time>1970-01-01T01:00:00Z</time>
      </trkpt>
      <trkpt lat="63.35783867" lon="10.512412">
        <ele>185.321</ele>
        <time>1970-01-01T01:00:00Z</time>
      </trkpt>
      <trkpt lat="63.35781083" lon="10.51236567">
        <ele>185.321</ele>
        <time>1970-01-01T01:00:00Z</time>
      </trkpt>
      <trkpt lat="63.35778233" lon="10.51231967">
        <ele>185.473</ele>
        <time>1970-01-01T01:00:00Z</time>
      </trkpt>
      <trkpt lat="63.35775383" lon="10.51227367">
        <ele>185.473</ele>
        <time>1970-01-01T01:00:00Z</time>
      </trkpt>
      <trkpt lat="63.35772467" lon="10.51222917">
        <ele>185.473</ele>
        <time>1970-01-01T01:00:00Z</time>
      </trkpt>
      <trkpt lat="63.35769583" lon="10.51218383">
        <ele>185.473</ele>
        <time>1970-01-01T01:00:00Z</time>
      </trkpt>
      <trkpt lat="63.35766583" lon="10.51213967">
        <ele>185.625</ele>
        <time>1970-01-01T01:00:00Z</time>
      </trkpt>
      <trkpt lat="63.35763567" lon="10.512093">
        <ele>185.625</ele>
        <time>1970-01-01T01:00:00Z</time>
      </trkpt>
      <trkpt lat="63.35760483" lon="10.512045">
        <ele>185.778</ele>
        <time>1970-01-01T01:00:00Z</time>
      </trkpt>
      <trkpt lat="63.35757383" lon="10.511994">
        <ele>185.778</ele>
        <time>1970-01-01T01:00:00Z</time>
      </trkpt>
      <trkpt lat="63.35754133" lon="10.51194117">
        <ele>185.93</ele>
        <time>1970-01-01T01:00:00Z</time>
      </trkpt>
      <trkpt lat="63.35750733" lon="10.511885">
        <ele>185.93</ele>
        <time>1970-01-01T01:00:00Z</time>
      </trkpt>
      <trkpt lat="63.3574715" lon="10.51182533">
        <ele>186.083</ele>
        <time>1970-01-01T01:00:00Z</time>
      </trkpt>
      <trkpt lat="63.357435" lon="10.51176383">
        <ele>186.083</ele>
        <time>1970-01-01T01:00:00Z</time>
      </trkpt>
      <trkpt lat="63.35739667" lon="10.51170067">
        <ele>186.083</ele>
        <time>1970-01-01T01:00:00Z</time>
      </trkpt>
      <trkpt lat="63.3573565" lon="10.51163617">
        <ele>186.083</ele>
        <time>1970-01-01T01:00:00Z</time>
      </trkpt>
      <trkpt lat="63.357314" lon="10.51156833">
        <ele>186.235</ele>
        <time>1970-01-01T01:00:00Z</time>
      </trkpt>
      <trkpt lat="63.35727033" lon="10.51149483">
        <ele>186.235</ele>
        <time>1970-01-01T01:00:00Z</time>
      </trkpt>
      <trkpt lat="63.35722583" lon="10.51141467">
        <ele>186.387</ele>
        <time>1970-01-01T01:00:00Z</time>
      </trkpt>
      <trkpt lat="63.35717983" lon="10.51133">
        <ele>186.387</ele>
        <time>1970-01-01T01:00:00Z</time>
      </trkpt>
      <trkpt lat="63.35713183" lon="10.511244">
        <ele>186.387</ele>
        <time>1970-01-01T01:00:00Z</time>
      </trkpt>
      <trkpt lat="63.357081" lon="10.51115867">
        <ele>186.387</ele>
        <time>1970-01-01T01:00:00Z</time>
      </trkpt>
      <trkpt lat="63.3570285" lon="10.5110735">
        <ele>186.387</ele>
        <time>1970-01-01T01:00:00Z</time>
      </trkpt>
      <trkpt lat="63.3569735" lon="10.510987">
        <ele>186.387</ele>
        <time>1970-01-01T01:00:00Z</time>
      </trkpt>
      <trkpt lat="63.356917" lon="10.510898">
        <ele>186.387</ele>
        <time>1970-01-01T01:00:00Z</time>
      </trkpt>
      <trkpt lat="63.3568595" lon="10.51080517">
        <ele>186.387</ele>
        <time>1970-01-01T01:00:00Z</time>
      </trkpt>
      <trkpt lat="63.35680167" lon="10.51071083">
        <ele>186.387</ele>
        <time>1970-01-01T01:00:00Z</time>
      </trkpt>
      <trkpt lat="63.356744" lon="10.51061483">
        <ele>186.387</ele>
        <time>1970-01-01T01:00:00Z</time>
      </trkpt>
      <trkpt lat="63.3566865" lon="10.51051883">
        <ele>186.387</ele>
        <time>1970-01-01T01:00:00Z</time>
      </trkpt>
      <trkpt lat="63.35662967" lon="10.5104245">
        <ele>186.387</ele>
        <time>1970-01-01T01:00:00Z</time>
      </trkpt>
      <trkpt lat="63.3565735" lon="10.51033383">
        <ele>186.235</ele>
        <time>1970-01-01T01:00:00Z</time>
      </trkpt>
      <trkpt lat="63.35651833" lon="10.51024717">
        <ele>186.235</ele>
        <time>1970-01-01T01:00:00Z</time>
      </trkpt>
      <trkpt lat="63.35646517" lon="10.51016317">
        <ele>186.235</ele>
        <time>1970-01-01T01:00:00Z</time>
      </trkpt>
      <trkpt lat="63.356413" lon="10.510083">
        <ele>186.235</ele>
        <time>1970-01-01T01:00:00Z</time>
      </trkpt>
      <trkpt lat="63.356362" lon="10.51000617">
        <ele>186.083</ele>
        <time>1970-01-01T01:00:00Z</time>
      </trkpt>
      <trkpt lat="63.35631133" lon="10.509933">
        <ele>186.083</ele>
        <time>1970-01-01T01:00:00Z</time>
      </trkpt>
      <trkpt lat="63.35626133" lon="10.50985983">
        <ele>186.083</ele>
        <time>1970-01-01T01:00:00Z</time>
      </trkpt>
      <trkpt lat="63.35621183" lon="10.50978583">
        <ele>186.083</ele>
        <time>1970-01-01T01:00:00Z</time>
      </trkpt>
      <trkpt lat="63.35616317" lon="10.50970817">
        <ele>186.083</ele>
        <time>1970-01-01T01:00:00Z</time>
      </trkpt>
      <trkpt lat="63.3561145" lon="10.50962717">
        <ele>186.083</ele>
        <time>1970-01-01T01:00:00Z</time>
      </trkpt>
      <trkpt lat="63.35606583" lon="10.5095445">
        <ele>185.93</ele>
        <time>1970-01-01T01:00:00Z</time>
      </trkpt>
      <trkpt lat="63.35601667" lon="10.50946183">
        <ele>185.93</ele>
        <time>1970-01-01T01:00:00Z</time>
      </trkpt>
      <trkpt lat="63.35596733" lon="10.50937983">
        <ele>185.93</ele>
        <time>1970-01-01T01:00:00Z</time>
      </trkpt>
      <trkpt lat="63.35591717" lon="10.5092975">
        <ele>185.93</ele>
        <time>1970-01-01T01:00:00Z</time>
      </trkpt>
      <trkpt lat="63.35586617" lon="10.50921533">
        <ele>185.778</ele>
        <time>1970-01-01T01:00:00Z</time>
      </trkpt>
      <trkpt lat="63.35581367" lon="10.50913483">
        <ele>185.778</ele>
        <time>1970-01-01T01:00:00Z</time>
      </trkpt>
      <trkpt lat="63.3557615" lon="10.509055">
        <ele>185.778</ele>
        <time>1970-01-01T01:00:00Z</time>
      </trkpt>
      <trkpt lat="63.3557095" lon="10.508975">
        <ele>185.778</ele>
        <time>1970-01-01T01:00:00Z</time>
      </trkpt>
      <trkpt lat="63.35565817" lon="10.50889417">
        <ele>185.778</ele>
        <time>1970-01-01T01:00:00Z</time>
      </trkpt>
      <trkpt lat="63.355607" lon="10.5088135">
        <ele>185.778</ele>
        <time>1970-01-01T01:00:00Z</time>
      </trkpt>
      <trkpt lat="63.355556" lon="10.508733">
        <ele>185.625</ele>
        <time>1970-01-01T01:00:00Z</time>
      </trkpt>
      <trkpt lat="63.35550483" lon="10.50865217">
        <ele>185.625</ele>
        <time>1970-01-01T01:00:00Z</time>
      </trkpt>
      <trkpt lat="63.3554525" lon="10.50856967">
        <ele>185.625</ele>
        <time>1970-01-01T01:00:00Z</time>
      </trkpt>
      <trkpt lat="63.35539917" lon="10.50848433">
        <ele>185.625</ele>
        <time>1970-01-01T01:00:00Z</time>
      </trkpt>
      <trkpt lat="63.3553445" lon="10.50839517">
        <ele>185.473</ele>
        <time>1970-01-01T01:00:00Z</time>
      </trkpt>
      <trkpt lat="63.35528833" lon="10.5083035">
        <ele>185.473</ele>
        <time>1970-01-01T01:00:00Z</time>
      </trkpt>
      <trkpt lat="63.35523017" lon="10.50820917">
        <ele>185.321</ele>
        <time>1970-01-01T01:00:00Z</time>
      </trkpt>
      <trkpt lat="63.35517117" lon="10.50811217">
        <ele>185.321</ele>
        <time>1970-01-01T01:00:00Z</time>
      </trkpt>
      <trkpt lat="63.355112" lon="10.50801217">
        <ele>185.321</ele>
        <time>1970-01-01T01:00:00Z</time>
      </trkpt>
      <trkpt lat="63.35505367" lon="10.50791067">
        <ele>185.321</ele>
        <time>1970-01-01T01:00:00Z</time>
      </trkpt>
      <trkpt lat="63.354996" lon="10.5078095">
        <ele>185.168</ele>
        <time>1970-01-01T01:00:00Z</time>
      </trkpt>
      <trkpt lat="63.35493917" lon="10.5077095">
        <ele>185.168</ele>
        <time>1970-01-01T01:00:00Z</time>
      </trkpt>
      <trkpt lat="63.35488333" lon="10.50760933">
        <ele>185.016</ele>
        <time>1970-01-01T01:00:00Z</time>
      </trkpt>
      <trkpt lat="63.35482883" lon="10.50750783">
        <ele>185.016</ele>
        <time>1970-01-01T01:00:00Z</time>
      </trkpt>
      <trkpt lat="63.35477533" lon="10.5074045">
        <ele>184.863</ele>
        <time>1970-01-01T01:00:00Z</time>
      </trkpt>
      <trkpt lat="63.354722" lon="10.50730033">
        <ele>184.863</ele>
        <time>1970-01-01T01:00:00Z</time>
      </trkpt>
      <trkpt lat="63.35466867" lon="10.50719567">
        <ele>184.559</ele>
        <time>1970-01-01T01:00:00Z</time>
      </trkpt>
      <trkpt lat="63.35461483" lon="10.50709067">
        <ele>184.559</ele>
        <time>1970-01-01T01:00:00Z</time>
      </trkpt>
      <trkpt lat="63.3545605" lon="10.50698467">
        <ele>184.406</ele>
        <time>1970-01-01T01:00:00Z</time>
      </trkpt>
      <trkpt lat="63.35450567" lon="10.50687783">
        <ele>184.406</ele>
        <time>1970-01-01T01:00:00Z</time>
      </trkpt>
      <trkpt lat="63.35445083" lon="10.50677">
        <ele>184.254</ele>
        <time>1970-01-01T01:00:00Z</time>
      </trkpt>
      <trkpt lat="63.35439667" lon="10.5066615">
        <ele>184.254</ele>
        <time>1970-01-01T01:00:00Z</time>
      </trkpt>
      <trkpt lat="63.3543435" lon="10.50655183">
        <ele>184.101</ele>
        <time>1970-01-01T01:00:00Z</time>
      </trkpt>
      <trkpt lat="63.354291" lon="10.50644067">
        <ele>184.101</ele>
        <time>1970-01-01T01:00:00Z</time>
      </trkpt>
      <trkpt lat="63.35423933" lon="10.50632667">
        <ele>183.797</ele>
        <time>1970-01-01T01:00:00Z</time>
      </trkpt>
      <trkpt lat="63.35418833" lon="10.50620833">
        <ele>183.797</ele>
        <time>1970-01-01T01:00:00Z</time>
      </trkpt>
      <trkpt lat="63.3541385" lon="10.50608433">
        <ele>183.644</ele>
        <time>1970-01-01T01:00:00Z</time>
      </trkpt>
      <trkpt lat="63.35409" lon="10.50595533">
        <ele>183.644</ele>
        <time>1970-01-01T01:00:00Z</time>
      </trkpt>
      <trkpt lat="63.35404333" lon="10.50582333">
        <ele>183.339</ele>
        <time>1970-01-01T01:00:00Z</time>
      </trkpt>
      <trkpt lat="63.35399867" lon="10.50569117">
        <ele>183.339</ele>
        <time>1970-01-01T01:00:00Z</time>
      </trkpt>
      <trkpt lat="63.35395567" lon="10.50555983">
        <ele>183.187</ele>
        <time>1970-01-01T01:00:00Z</time>
      </trkpt>
      <trkpt lat="63.35391333" lon="10.50542967">
        <ele>183.187</ele>
        <time>1970-01-01T01:00:00Z</time>
      </trkpt>
      <trkpt lat="63.3538705" lon="10.50530033">
        <ele>182.882</ele>
        <time>1970-01-01T01:00:00Z</time>
      </trkpt>
      <trkpt lat="63.3538275" lon="10.50517117">
        <ele>182.882</ele>
        <time>1970-01-01T01:00:00Z</time>
      </trkpt>
      <trkpt lat="63.35378417" lon="10.505041">
        <ele>182.73</ele>
        <time>1970-01-01T01:00:00Z</time>
      </trkpt>
      <trkpt lat="63.35374033" lon="10.5049105">
        <ele>182.73</ele>
        <time>1970-01-01T01:00:00Z</time>
      </trkpt>
      <trkpt lat="63.35369567" lon="10.50477967">
        <ele>182.577</ele>
        <time>1970-01-01T01:00:00Z</time>
      </trkpt>
      <trkpt lat="63.35365033" lon="10.50464917">
        <ele>182.577</ele>
        <time>1970-01-01T01:00:00Z</time>
      </trkpt>
      <trkpt lat="63.353604" lon="10.504518">
        <ele>182.273</ele>
        <time>1970-01-01T01:00:00Z</time>
      </trkpt>
      <trkpt lat="63.35355667" lon="10.50438667">
        <ele>182.273</ele>
        <time>1970-01-01T01:00:00Z</time>
      </trkpt>
      <trkpt lat="63.35350783" lon="10.50425433">
        <ele>182.12</ele>
        <time>1970-01-01T01:00:00Z</time>
      </trkpt>
      <trkpt lat="63.35345783" lon="10.50412">
        <ele>182.12</ele>
        <time>1970-01-01T01:00:00Z</time>
      </trkpt>
      <trkpt lat="63.35340683" lon="10.50398283">
        <ele>181.815</ele>
        <time>1970-01-01T01:00:00Z</time>
      </trkpt>
      <trkpt lat="63.35335483" lon="10.5038425">
        <ele>181.815</ele>
        <time>1970-01-01T01:00:00Z</time>
      </trkpt>
      <trkpt lat="63.35330117" lon="10.50369933">
        <ele>181.663</ele>
        <time>1970-01-01T01:00:00Z</time>
      </trkpt>
      <trkpt lat="63.35324633" lon="10.50355317">
        <ele>181.663</ele>
        <time>1970-01-01T01:00:00Z</time>
      </trkpt>
      <trkpt lat="63.35319067" lon="10.50340383">
        <ele>181.358</ele>
        <time>1970-01-01T01:00:00Z</time>
      </trkpt>
      <trkpt lat="63.3531345" lon="10.50325167">
        <ele>181.358</ele>
        <time>1970-01-01T01:00:00Z</time>
      </trkpt>
      <trkpt lat="63.3530775" lon="10.50309783">
        <ele>181.053</ele>
        <time>1970-01-01T01:00:00Z</time>
      </trkpt>
      <trkpt lat="63.35301967" lon="10.50294367">
        <ele>181.053</ele>
        <time>1970-01-01T01:00:00Z</time>
      </trkpt>
      <trkpt lat="63.35296083" lon="10.50279067">
        <ele>180.749</ele>
        <time>1970-01-01T01:00:00Z</time>
      </trkpt>
      <trkpt lat="63.35290117" lon="10.50263967">
        <ele>180.749</ele>
        <time>1970-01-01T01:00:00Z</time>
      </trkpt>
      <trkpt lat="63.35284017" lon="10.5024915">
        <ele>180.444</ele>
        <time>1970-01-01T01:00:00Z</time>
      </trkpt>
      <trkpt lat="63.35277717" lon="10.50234683">
        <ele>180.444</ele>
        <time>1970-01-01T01:00:00Z</time>
      </trkpt>
      <trkpt lat="63.35271233" lon="10.50220633">
        <ele>180.139</ele>
        <time>1970-01-01T01:00:00Z</time>
      </trkpt>
      <trkpt lat="63.35264567" lon="10.5020705">
        <ele>180.139</ele>
        <time>1970-01-01T01:00:00Z</time>
      </trkpt>
      <trkpt lat="63.35257783" lon="10.50193967">
        <ele>179.834</ele>
        <time>1970-01-01T01:00:00Z</time>
      </trkpt>
      <trkpt lat="63.35250867" lon="10.50181367">
        <ele>179.834</ele>
        <time>1970-01-01T01:00:00Z</time>
      </trkpt>
      <trkpt lat="63.35243767" lon="10.50169283">
        <ele>179.377</ele>
        <time>1970-01-01T01:00:00Z</time>
      </trkpt>
      <trkpt lat="63.3523655" lon="10.50157533">
        <ele>179.377</ele>
        <time>1970-01-01T01:00:00Z</time>
      </trkpt>
      <trkpt lat="63.35229283" lon="10.50145967">
        <ele>179.072</ele>
        <time>1970-01-01T01:00:00Z</time>
      </trkpt>
      <trkpt lat="63.35222033" lon="10.50134617">
        <ele>179.072</ele>
        <time>1970-01-01T01:00:00Z</time>
      </trkpt>
      <trkpt lat="63.35214817" lon="10.50123483">
        <ele>178.615</ele>
        <time>1970-01-01T01:00:00Z</time>
      </trkpt>
      <trkpt lat="63.352076" lon="10.50112417">
        <ele>178.615</ele>
        <time>1970-01-01T01:00:00Z</time>
      </trkpt>
      <trkpt lat="63.35200433" lon="10.50101183">
        <ele>178.31</ele>
        <time>1970-01-01T01:00:00Z</time>
      </trkpt>
      <trkpt lat="63.35193317" lon="10.50089633">
        <ele>178.31</ele>
        <time>1970-01-01T01:00:00Z</time>
      </trkpt>
      <trkpt lat="63.3518635" lon="10.50077767">
        <ele>178.005</ele>
        <time>1970-01-01T01:00:00Z</time>
      </trkpt>
      <trkpt lat="63.35179567" lon="10.50065667">
        <ele>178.005</ele>
        <time>1970-01-01T01:00:00Z</time>
      </trkpt>
      <trkpt lat="63.35173017" lon="10.500534">
        <ele>177.548</ele>
        <time>1970-01-01T01:00:00Z</time>
      </trkpt>
      <trkpt lat="63.35166683" lon="10.50041017">
        <ele>177.548</ele>
        <time>1970-01-01T01:00:00Z</time>
      </trkpt>
      <trkpt lat="63.35160617" lon="10.500285">
        <ele>177.243</ele>
        <time>1970-01-01T01:00:00Z</time>
      </trkpt>
      <trkpt lat="63.35154767" lon="10.50015933">
        <ele>177.243</ele>
        <time>1970-01-01T01:00:00Z</time>
      </trkpt>
      <trkpt lat="63.35149117" lon="10.5000335">
        <ele>176.939</ele>
        <time>1970-01-01T01:00:00Z</time>
      </trkpt>
      <trkpt lat="63.35143633" lon="10.4999085">
        <ele>176.939</ele>
        <time>1970-01-01T01:00:00Z</time>
      </trkpt>
      <trkpt lat="63.351383" lon="10.499785">
        <ele>176.634</ele>
        <time>1970-01-01T01:00:00Z</time>
      </trkpt>
      <trkpt lat="63.35133017" lon="10.49966283">
        <ele>176.634</ele>
        <time>1970-01-01T01:00:00Z</time>
      </trkpt>
      <trkpt lat="63.35127767" lon="10.499541">
        <ele>176.177</ele>
        <time>1970-01-01T01:00:00Z</time>
      </trkpt>
      <trkpt lat="63.35122483" lon="10.49941933">
        <ele>176.177</ele>
        <time>1970-01-01T01:00:00Z</time>
      </trkpt>
      <trkpt lat="63.35117183" lon="10.49929767">
        <ele>175.872</ele>
        <time>1970-01-01T01:00:00Z</time>
      </trkpt>
      <trkpt lat="63.35111867" lon="10.49917583">
        <ele>175.872</ele>
        <time>1970-01-01T01:00:00Z</time>
      </trkpt>
      <trkpt lat="63.3510655" lon="10.499054">
        <ele>175.567</ele>
        <time>1970-01-01T01:00:00Z</time>
      </trkpt>
      <trkpt lat="63.351012" lon="10.498932">
        <ele>175.567</ele>
        <time>1970-01-01T01:00:00Z</time>
      </trkpt>
      <trkpt lat="63.35095817" lon="10.49881133">
        <ele>175.415</ele>
        <time>1970-01-01T01:00:00Z</time>
      </trkpt>
      <trkpt lat="63.35090317" lon="10.49869083">
        <ele>175.415</ele>
        <time>1970-01-01T01:00:00Z</time>
      </trkpt>
      <trkpt lat="63.3508465" lon="10.49856983">
        <ele>175.11</ele>
        <time>1970-01-01T01:00:00Z</time>
      </trkpt>
      <trkpt lat="63.35078833" lon="10.49844767">
        <ele>175.11</ele>
        <time>1970-01-01T01:00:00Z</time>
      </trkpt>
      <trkpt lat="63.35072883" lon="10.49832517">
        <ele>174.805</ele>
        <time>1970-01-01T01:00:00Z</time>
      </trkpt>
      <trkpt lat="63.35066867" lon="10.49820483">
        <ele>174.805</ele>
        <time>1970-01-01T01:00:00Z</time>
      </trkpt>
      <trkpt lat="63.35060817" lon="10.49808533">
        <ele>174.348</ele>
        <time>1970-01-01T01:00:00Z</time>
      </trkpt>
      <trkpt lat="63.35054717" lon="10.49796767">
        <ele>174.348</ele>
        <time>1970-01-01T01:00:00Z</time>
      </trkpt>
      <trkpt lat="63.35048567" lon="10.497851">
        <ele>174.043</ele>
        <time>1970-01-01T01:00:00Z</time>
      </trkpt>
      <trkpt lat="63.35042183" lon="10.49773667">
        <ele>174.043</ele>
        <time>1970-01-01T01:00:00Z</time>
      </trkpt>
      <trkpt lat="63.35035467" lon="10.49762433">
        <ele>173.738</ele>
        <time>1970-01-01T01:00:00Z</time>
      </trkpt>
      <trkpt lat="63.35028383" lon="10.4975145">
        <ele>173.738</ele>
        <time>1970-01-01T01:00:00Z</time>
      </trkpt>
      <trkpt lat="63.35020917" lon="10.49740617">
        <ele>173.281</ele>
        <time>1970-01-01T01:00:00Z</time>
      </trkpt>
      <trkpt lat="63.35013233" lon="10.49729817">
        <ele>173.281</ele>
        <time>1970-01-01T01:00:00Z</time>
      </trkpt>
      <trkpt lat="63.35005333" lon="10.497189">
        <ele>172.976</ele>
        <time>1970-01-01T01:00:00Z</time>
      </trkpt>
      <trkpt lat="63.34997367" lon="10.49707617">
        <ele>172.976</ele>
        <time>1970-01-01T01:00:00Z</time>
      </trkpt>
      <trkpt lat="63.34989467" lon="10.49695783">
        <ele>172.519</ele>
        <time>1970-01-01T01:00:00Z</time>
      </trkpt>
      <trkpt lat="63.34981883" lon="10.49683317">
        <ele>172.519</ele>
        <time>1970-01-01T01:00:00Z</time>
      </trkpt>
      <trkpt lat="63.34974717" lon="10.49670633">
        <ele>172.062</ele>
        <time>1970-01-01T01:00:00Z</time>
      </trkpt>
      <trkpt lat="63.34968" lon="10.496581">
        <ele>172.062</ele>
        <time>1970-01-01T01:00:00Z</time>
      </trkpt>
      <trkpt lat="63.349617" lon="10.49646067">
        <ele>171.452</ele>
        <time>1970-01-01T01:00:00Z</time>
      </trkpt>
      <trkpt lat="63.34955883" lon="10.49634833">
        <ele>171.452</ele>
        <time>1970-01-01T01:00:00Z</time>
      </trkpt>
      <trkpt lat="63.34950867" lon="10.49624317">
        <ele>170.995</ele>
        <time>1970-01-01T01:00:00Z</time>
      </trkpt>
      <trkpt lat="63.3494665" lon="10.49613767">
        <ele>170.995</ele>
        <time>1970-01-01T01:00:00Z</time>
      </trkpt>
      <trkpt lat="63.3494355" lon="10.4960215">
        <ele>170.385</ele>
        <time>1970-01-01T01:00:00Z</time>
      </trkpt>
      <trkpt lat="63.34941767" lon="10.49589283">
        <ele>170.385</ele>
        <time>1970-01-01T01:00:00Z</time>
      </trkpt>
      <trkpt lat="63.34941683" lon="10.49575817">
        <ele>169.928</ele>
        <time>1970-01-01T01:00:00Z</time>
      </trkpt>
      <trkpt lat="63.349427" lon="10.49562683">
        <ele>169.928</ele>
        <time>1970-01-01T01:00:00Z</time>
      </trkpt>
      <trkpt lat="63.3494415" lon="10.49550417">
        <ele>169.318</ele>
        <time>1970-01-01T01:00:00Z</time>
      </trkpt>
      <trkpt lat="63.34945483" lon="10.49538933">
        <ele>169.318</ele>
        <time>1970-01-01T01:00:00Z</time>
      </trkpt>
      <trkpt lat="63.34946783" lon="10.4952805">
        <ele>168.861</ele>
        <time>1970-01-01T01:00:00Z</time>
      </trkpt>
      <trkpt lat="63.34947917" lon="10.49517517">
        <ele>168.861</ele>
        <time>1970-01-01T01:00:00Z</time>
      </trkpt>
      <trkpt lat="63.34948967" lon="10.49507367">
        <ele>168.404</ele>
        <time>1970-01-01T01:00:00Z</time>
      </trkpt>
      <trkpt lat="63.34949967" lon="10.4949755">
        <ele>168.404</ele>
        <time>1970-01-01T01:00:00Z</time>
      </trkpt>
      <trkpt lat="63.34950983" lon="10.49487967">
        <ele>167.794</ele>
        <time>1970-01-01T01:00:00Z</time>
      </trkpt>
      <trkpt lat="63.34951983" lon="10.49478483">
        <ele>167.794</ele>
        <time>1970-01-01T01:00:00Z</time>
      </trkpt>
      <trkpt lat="63.34952917" lon="10.494691">
        <ele>167.49</ele>
        <time>1970-01-01T01:00:00Z</time>
      </trkpt>
      <trkpt lat="63.349538" lon="10.49459817">
        <ele>167.49</ele>
        <time>1970-01-01T01:00:00Z</time>
      </trkpt>
      <trkpt lat="63.349547" lon="10.49450667">
        <ele>167.032</ele>
        <time>1970-01-01T01:00:00Z</time>
      </trkpt>
      <trkpt lat="63.34955617" lon="10.49441583">
        <ele>167.032</ele>
        <time>1970-01-01T01:00:00Z</time>
      </trkpt>
      <trkpt lat="63.34956533" lon="10.49432567">
        <ele>166.575</ele>
        <time>1970-01-01T01:00:00Z</time>
      </trkpt>
      <trkpt lat="63.3495745" lon="10.49423683">
        <ele>166.575</ele>
        <time>1970-01-01T01:00:00Z</time>
      </trkpt>
      <trkpt lat="63.34958317" lon="10.494149">
        <ele>166.27</ele>
        <time>1970-01-01T01:00:00Z</time>
      </trkpt>
      <trkpt lat="63.34959217" lon="10.49406233">
        <ele>166.27</ele>
        <time>1970-01-01T01:00:00Z</time>
      </trkpt>
      <trkpt lat="63.34960017" lon="10.4939755">
        <ele>165.813</ele>
        <time>1970-01-01T01:00:00Z</time>
      </trkpt>
      <trkpt lat="63.34960933" lon="10.49388967">
        <ele>165.813</ele>
        <time>1970-01-01T01:00:00Z</time>
      </trkpt>
      <trkpt lat="63.349618" lon="10.4938045">
        <ele>165.508</ele>
        <time>1970-01-01T01:00:00Z</time>
      </trkpt>
      <trkpt lat="63.34962767" lon="10.49372117">
        <ele>165.508</ele>
        <time>1970-01-01T01:00:00Z</time>
      </trkpt>
      <trkpt lat="63.34963683" lon="10.49363867">
        <ele>165.204</ele>
        <time>1970-01-01T01:00:00Z</time>
      </trkpt>
      <trkpt lat="63.3496455" lon="10.49355683">
        <ele>165.204</ele>
        <time>1970-01-01T01:00:00Z</time>
      </trkpt>
      <trkpt lat="63.3496535" lon="10.493476">
        <ele>165.051</ele>
        <time>1970-01-01T01:00:00Z</time>
      </trkpt>
      <trkpt lat="63.3496605" lon="10.49339467">
        <ele>165.051</ele>
        <time>1970-01-01T01:00:00Z</time>
      </trkpt>
      <trkpt lat="63.349667" lon="10.49331383">
        <ele>164.746</ele>
        <time>1970-01-01T01:00:00Z</time>
      </trkpt>
      <trkpt lat="63.34967333" lon="10.4932325">
        <ele>164.746</ele>
        <time>1970-01-01T01:00:00Z</time>
      </trkpt>
      <trkpt lat="63.349679" lon="10.49315283">
        <ele>164.594</ele>
        <time>1970-01-01T01:00:00Z</time>
      </trkpt>
      <trkpt lat="63.349684" lon="10.49307233">
        <ele>164.594</ele>
        <time>1970-01-01T01:00:00Z</time>
      </trkpt>
      <trkpt lat="63.34968833" lon="10.49299067">
        <ele>164.442</ele>
        <time>1970-01-01T01:00:00Z</time>
      </trkpt>
      <trkpt lat="63.34969317" lon="10.49290767">
        <ele>164.442</ele>
        <time>1970-01-01T01:00:00Z</time>
      </trkpt>
      <trkpt lat="63.34969933" lon="10.4928255">
        <ele>164.289</ele>
        <time>1970-01-01T01:00:00Z</time>
      </trkpt>
      <trkpt lat="63.34970583" lon="10.49274467">
        <ele>164.289</ele>
        <time>1970-01-01T01:00:00Z</time>
      </trkpt>
      <trkpt lat="63.34971167" lon="10.4926635">
        <ele>164.137</ele>
        <time>1970-01-01T01:00:00Z</time>
      </trkpt>
      <trkpt lat="63.3497155" lon="10.492582">
        <ele>164.137</ele>
        <time>1970-01-01T01:00:00Z</time>
      </trkpt>
      <trkpt lat="63.34971833" lon="10.4924995">
        <ele>164.137</ele>
        <time>1970-01-01T01:00:00Z</time>
      </trkpt>
      <trkpt lat="63.34972133" lon="10.49241683">
        <ele>164.137</ele>
        <time>1970-01-01T01:00:00Z</time>
      </trkpt>
      <trkpt lat="63.34972483" lon="10.4923335">
        <ele>163.984</ele>
        <time>1970-01-01T01:00:00Z</time>
      </trkpt>
      <trkpt lat="63.3497285" lon="10.49224983">
        <ele>163.984</ele>
        <time>1970-01-01T01:00:00Z</time>
      </trkpt>
      <trkpt lat="63.34973183" lon="10.4921655">
        <ele>163.984</ele>
        <time>1970-01-01T01:00:00Z</time>
      </trkpt>
      <trkpt lat="63.349735" lon="10.49208067">
        <ele>163.984</ele>
        <time>1970-01-01T01:00:00Z</time>
      </trkpt>
      <trkpt lat="63.34973783" lon="10.49199617">
        <ele>163.984</ele>
        <time>1970-01-01T01:00:00Z</time>
      </trkpt>
      <trkpt lat="63.34974067" lon="10.49191167">
        <ele>163.984</ele>
        <time>1970-01-01T01:00:00Z</time>
      </trkpt>
      <trkpt lat="63.349744" lon="10.4918285">
        <ele>163.984</ele>
        <time>1970-01-01T01:00:00Z</time>
      </trkpt>
      <trkpt lat="63.34974683" lon="10.49174533">
        <ele>163.984</ele>
        <time>1970-01-01T01:00:00Z</time>
      </trkpt>
      <trkpt lat="63.34974917" lon="10.49166333">
        <ele>163.984</ele>
        <time>1970-01-01T01:00:00Z</time>
      </trkpt>
      <trkpt lat="63.34974983" lon="10.4915815">
        <ele>163.984</ele>
        <time>1970-01-01T01:00:00Z</time>
      </trkpt>
      <trkpt lat="63.34975033" lon="10.49150083">
        <ele>163.984</ele>
        <time>1970-01-01T01:00:00Z</time>
      </trkpt>
      <trkpt lat="63.3497505" lon="10.49142067">
        <ele>163.984</ele>
        <time>1970-01-01T01:00:00Z</time>
      </trkpt>
      <trkpt lat="63.34975233" lon="10.49134017">
        <ele>163.984</ele>
        <time>1970-01-01T01:00:00Z</time>
      </trkpt>
      <trkpt lat="63.34975583" lon="10.49125917">
        <ele>163.984</ele>
        <time>1970-01-01T01:00:00Z</time>
      </trkpt>
      <trkpt lat="63.3497615" lon="10.49117733">
        <ele>163.984</ele>
        <time>1970-01-01T01:00:00Z</time>
      </trkpt>
      <trkpt lat="63.34976817" lon="10.49109517">
        <ele>163.984</ele>
        <time>1970-01-01T01:00:00Z</time>
      </trkpt>
      <trkpt lat="63.349776" lon="10.49101233">
        <ele>163.984</ele>
        <time>1970-01-01T01:00:00Z</time>
      </trkpt>
      <trkpt lat="63.3497825" lon="10.4909255">
        <ele>163.984</ele>
        <time>1970-01-01T01:00:00Z</time>
      </trkpt>
      <trkpt lat="63.34978683" lon="10.490836">
        <ele>164.137</ele>
        <time>1970-01-01T01:00:00Z</time>
      </trkpt>
      <trkpt lat="63.34978983" lon="10.49074517">
        <ele>164.137</ele>
        <time>1970-01-01T01:00:00Z</time>
      </trkpt>
      <trkpt lat="63.34979233" lon="10.49065733">
        <ele>164.137</ele>
        <time>1970-01-01T01:00:00Z</time>
      </trkpt>
      <trkpt lat="63.34979333" lon="10.49057167">
        <ele>164.137</ele>
        <time>1970-01-01T01:00:00Z</time>
      </trkpt>
      <trkpt lat="63.34979167" lon="10.490487">
        <ele>164.137</ele>
        <time>1970-01-01T01:00:00Z</time>
      </trkpt>
      <trkpt lat="63.34978783" lon="10.49040333">
        <ele>164.137</ele>
        <time>1970-01-01T01:00:00Z</time>
      </trkpt>
      <trkpt lat="63.3497825" lon="10.49032017">
        <ele>164.289</ele>
        <time>1970-01-01T01:00:00Z</time>
      </trkpt>
      <trkpt lat="63.34977533" lon="10.490237">
        <ele>164.289</ele>
        <time>1970-01-01T01:00:00Z</time>
      </trkpt>
      <trkpt lat="63.3497655" lon="10.4901535">
        <ele>164.289</ele>
        <time>1970-01-01T01:00:00Z</time>
      </trkpt>
      <trkpt lat="63.349753" lon="10.49006883">
        <ele>164.289</ele>
        <time>1970-01-01T01:00:00Z</time>
      </trkpt>
      <trkpt lat="63.34973817" lon="10.4899825">
        <ele>164.289</ele>
        <time>1970-01-01T01:00:00Z</time>
      </trkpt>
      <trkpt lat="63.349721" lon="10.4898945">
        <ele>164.289</ele>
        <time>1970-01-01T01:00:00Z</time>
      </trkpt>
      <trkpt lat="63.34970133" lon="10.48980433">
        <ele>164.442</ele>
        <time>1970-01-01T01:00:00Z</time>
      </trkpt>
      <trkpt lat="63.34967933" lon="10.48971183">
        <ele>164.442</ele>
        <time>1970-01-01T01:00:00Z</time>
      </trkpt>
      <trkpt lat="63.34965617" lon="10.48961617">
        <ele>164.442</ele>
        <time>1970-01-01T01:00:00Z</time>
      </trkpt>
      <trkpt lat="63.3496325" lon="10.48951817">
        <ele>164.442</ele>
        <time>1970-01-01T01:00:00Z</time>
      </trkpt>
      <trkpt lat="63.349608" lon="10.48941833">
        <ele>164.442</ele>
        <time>1970-01-01T01:00:00Z</time>
      </trkpt>
      <trkpt lat="63.34958283" lon="10.48931717">
        <ele>164.442</ele>
        <time>1970-01-01T01:00:00Z</time>
      </trkpt>
      <trkpt lat="63.34955667" lon="10.48921483">
        <ele>164.442</ele>
        <time>1970-01-01T01:00:00Z</time>
      </trkpt>
      <trkpt lat="63.34953" lon="10.48911117">
        <ele>164.442</ele>
        <time>1970-01-01T01:00:00Z</time>
      </trkpt>
      <trkpt lat="63.34950367" lon="10.4890055">
        <ele>164.442</ele>
        <time>1970-01-01T01:00:00Z</time>
      </trkpt>
      <trkpt lat="63.349478" lon="10.48889767">
        <ele>164.442</ele>
        <time>1970-01-01T01:00:00Z</time>
      </trkpt>
      <trkpt lat="63.34945283" lon="10.48878767">
        <ele>164.442</ele>
        <time>1970-01-01T01:00:00Z</time>
      </trkpt>
      <trkpt lat="63.349428" lon="10.488676">
        <ele>164.442</ele>
        <time>1970-01-01T01:00:00Z</time>
      </trkpt>
      <trkpt lat="63.34940417" lon="10.48856317">
        <ele>164.442</ele>
        <time>1970-01-01T01:00:00Z</time>
      </trkpt>
      <trkpt lat="63.34938217" lon="10.48844967">
        <ele>164.442</ele>
        <time>1970-01-01T01:00:00Z</time>
      </trkpt>
      <trkpt lat="63.34936233" lon="10.488336">
        <ele>164.442</ele>
        <time>1970-01-01T01:00:00Z</time>
      </trkpt>
      <trkpt lat="63.3493445" lon="10.48822233">
        <ele>164.442</ele>
        <time>1970-01-01T01:00:00Z</time>
      </trkpt>
      <trkpt lat="63.34932867" lon="10.488109">
        <ele>164.442</ele>
        <time>1970-01-01T01:00:00Z</time>
      </trkpt>
      <trkpt lat="63.34931517" lon="10.48799667">
        <ele>164.442</ele>
        <time>1970-01-01T01:00:00Z</time>
      </trkpt>
      <trkpt lat="63.34930417" lon="10.48788567">
        <ele>164.442</ele>
        <time>1970-01-01T01:00:00Z</time>
      </trkpt>
      <trkpt lat="63.3492955" lon="10.487776">
        <ele>164.442</ele>
        <time>1970-01-01T01:00:00Z</time>
      </trkpt>
      <trkpt lat="63.34928883" lon="10.487669">
        <ele>164.442</ele>
        <time>1970-01-01T01:00:00Z</time>
      </trkpt>
      <trkpt lat="63.34928433" lon="10.48756417">
        <ele>164.442</ele>
        <time>1970-01-01T01:00:00Z</time>
      </trkpt>
      <trkpt lat="63.34928117" lon="10.4874615">
        <ele>164.442</ele>
        <time>1970-01-01T01:00:00Z</time>
      </trkpt>
      <trkpt lat="63.34928067" lon="10.48736067">
        <ele>164.442</ele>
        <time>1970-01-01T01:00:00Z</time>
      </trkpt>
      <trkpt lat="63.34928167" lon="10.48726217">
        <ele>164.442</ele>
        <time>1970-01-01T01:00:00Z</time>
      </trkpt>
      <trkpt lat="63.34928467" lon="10.487166">
        <ele>164.442</ele>
        <time>1970-01-01T01:00:00Z</time>
      </trkpt>
      <trkpt lat="63.34928833" lon="10.48707167">
        <ele>164.442</ele>
        <time>1970-01-01T01:00:00Z</time>
      </trkpt>
      <trkpt lat="63.34929233" lon="10.48697883">
        <ele>164.442</ele>
        <time>1970-01-01T01:00:00Z</time>
      </trkpt>
      <trkpt lat="63.34929717" lon="10.48688683">
        <ele>164.442</ele>
        <time>1970-01-01T01:00:00Z</time>
      </trkpt>
      <trkpt lat="63.34930317" lon="10.4867955">
        <ele>164.442</ele>
        <time>1970-01-01T01:00:00Z</time>
      </trkpt>
      <trkpt lat="63.34931033" lon="10.48670433">
        <ele>164.442</ele>
        <time>1970-01-01T01:00:00Z</time>
      </trkpt>
      <trkpt lat="63.3493175" lon="10.4866125">
        <ele>164.442</ele>
        <time>1970-01-01T01:00:00Z</time>
      </trkpt>
      <trkpt lat="63.3493245" lon="10.486521">
        <ele>164.442</ele>
        <time>1970-01-01T01:00:00Z</time>
      </trkpt>
      <trkpt lat="63.349331" lon="10.486429">
        <ele>164.442</ele>
        <time>1970-01-01T01:00:00Z</time>
      </trkpt>
      <trkpt lat="63.3493375" lon="10.4863375">
        <ele>164.442</ele>
        <time>1970-01-01T01:00:00Z</time>
      </trkpt>
      <trkpt lat="63.34934417" lon="10.48624567">
        <ele>164.442</ele>
        <time>1970-01-01T01:00:00Z</time>
      </trkpt>
      <trkpt lat="63.349351" lon="10.486155">
        <ele>164.594</ele>
        <time>1970-01-01T01:00:00Z</time>
      </trkpt>
      <trkpt lat="63.349358" lon="10.486065">
        <ele>164.594</ele>
        <time>1970-01-01T01:00:00Z</time>
      </trkpt>
      <trkpt lat="63.3493645" lon="10.4859755">
        <ele>164.594</ele>
        <time>1970-01-01T01:00:00Z</time>
      </trkpt>
      <trkpt lat="63.34937" lon="10.4858865">
        <ele>164.594</ele>
        <time>1970-01-01T01:00:00Z</time>
      </trkpt>
      <trkpt lat="63.3493735" lon="10.485796">
        <ele>164.594</ele>
        <time>1970-01-01T01:00:00Z</time>
      </trkpt>
      <trkpt lat="63.34937533" lon="10.4857055">
        <ele>164.594</ele>
        <time>1970-01-01T01:00:00Z</time>
      </trkpt>
      <trkpt lat="63.3493755" lon="10.48561467">
        <ele>164.746</ele>
        <time>1970-01-01T01:00:00Z</time>
      </trkpt>
      <trkpt lat="63.34937417" lon="10.48552567">
        <ele>164.746</ele>
        <time>1970-01-01T01:00:00Z</time>
      </trkpt>
      <trkpt lat="63.34936983" lon="10.48543617">
        <ele>164.746</ele>
        <time>1970-01-01T01:00:00Z</time>
      </trkpt>
      <trkpt lat="63.34936267" lon="10.48534567">
        <ele>164.746</ele>
        <time>1970-01-01T01:00:00Z</time>
      </trkpt>
      <trkpt lat="63.349353" lon="10.48525333">
        <ele>164.899</ele>
        <time>1970-01-01T01:00:00Z</time>
      </trkpt>
      <trkpt lat="63.3493405" lon="10.4851595">
        <ele>164.899</ele>
        <time>1970-01-01T01:00:00Z</time>
      </trkpt>
      <trkpt lat="63.3493255" lon="10.48506367">
        <ele>164.899</ele>
        <time>1970-01-01T01:00:00Z</time>
      </trkpt>
      <trkpt lat="63.3493075" lon="10.484966">
        <ele>164.899</ele>
        <time>1970-01-01T01:00:00Z</time>
      </trkpt>
      <trkpt lat="63.34928533" lon="10.484869">
        <ele>165.051</ele>
        <time>1970-01-01T01:00:00Z</time>
      </trkpt>
      <trkpt lat="63.34925633" lon="10.48477417">
        <ele>165.051</ele>
        <time>1970-01-01T01:00:00Z</time>
      </trkpt>
      <trkpt lat="63.34922067" lon="10.48468083">
        <ele>165.051</ele>
        <time>1970-01-01T01:00:00Z</time>
      </trkpt>
      <trkpt lat="63.349181" lon="10.48458783">
        <ele>165.051</ele>
        <time>1970-01-01T01:00:00Z</time>
      </trkpt>
      <trkpt lat="63.34914117" lon="10.48449817">
        <ele>165.051</ele>
        <time>1970-01-01T01:00:00Z</time>
      </trkpt>
      <trkpt lat="63.34910067" lon="10.484415">
        <ele>165.051</ele>
        <time>1970-01-01T01:00:00Z</time>
      </trkpt>
      <trkpt lat="63.34906017" lon="10.48434067">
        <ele>165.051</ele>
        <time>1970-01-01T01:00:00Z</time>
      </trkpt>
      <trkpt lat="63.34902017" lon="10.48427483">
        <ele>165.051</ele>
        <time>1970-01-01T01:00:00Z</time>
      </trkpt>
      <trkpt lat="63.34898183" lon="10.48421617">
        <ele>165.051</ele>
        <time>1970-01-01T01:00:00Z</time>
      </trkpt>
      <trkpt lat="63.3489445" lon="10.484163">
        <ele>165.051</ele>
        <time>1970-01-01T01:00:00Z</time>
      </trkpt>
      <trkpt lat="63.34890817" lon="10.48411233">
        <ele>165.204</ele>
        <time>1970-01-01T01:00:00Z</time>
      </trkpt>
      <trkpt lat="63.348872" lon="10.484063">
        <ele>165.204</ele>
        <time>1970-01-01T01:00:00Z</time>
      </trkpt>
      <trkpt lat="63.34883633" lon="10.48401367">
        <ele>165.204</ele>
        <time>1970-01-01T01:00:00Z</time>
      </trkpt>
      <trkpt lat="63.34880067" lon="10.48396467">
        <ele>165.204</ele>
        <time>1970-01-01T01:00:00Z</time>
      </trkpt>
      <trkpt lat="63.348765" lon="10.48391617">
        <ele>165.204</ele>
        <time>1970-01-01T01:00:00Z</time>
      </trkpt>
      <trkpt lat="63.34872967" lon="10.483867">
        <ele>165.204</ele>
        <time>1970-01-01T01:00:00Z</time>
      </trkpt>
      <trkpt lat="63.3486945" lon="10.48381767">
        <ele>165.356</ele>
        <time>1970-01-01T01:00:00Z</time>
      </trkpt>
      <trkpt lat="63.3486595" lon="10.48376783">
        <ele>165.356</ele>
        <time>1970-01-01T01:00:00Z</time>
      </trkpt>
      <trkpt lat="63.34862467" lon="10.48371817">
        <ele>165.356</ele>
        <time>1970-01-01T01:00:00Z</time>
      </trkpt>
      <trkpt lat="63.34858967" lon="10.48366817">
        <ele>165.356</ele>
        <time>1970-01-01T01:00:00Z</time>
      </trkpt>
      <trkpt lat="63.3485545" lon="10.4836175">
        <ele>165.508</ele>
        <time>1970-01-01T01:00:00Z</time>
      </trkpt>
      <trkpt lat="63.34851933" lon="10.48356767">
        <ele>165.508</ele>
        <time>1970-01-01T01:00:00Z</time>
      </trkpt>
      <trkpt lat="63.34848433" lon="10.483519">
        <ele>165.508</ele>
        <time>1970-01-01T01:00:00Z</time>
      </trkpt>
      <trkpt lat="63.34844967" lon="10.48347233">
        <ele>165.508</ele>
        <time>1970-01-01T01:00:00Z</time>
      </trkpt>
      <trkpt lat="63.348415" lon="10.4834275">
        <ele>165.661</ele>
        <time>1970-01-01T01:00:00Z</time>
      </trkpt>
      <trkpt lat="63.34838033" lon="10.48338417">
        <ele>165.661</ele>
        <time>1970-01-01T01:00:00Z</time>
      </trkpt>
      <trkpt lat="63.34834517" lon="10.483342">
        <ele>165.813</ele>
        <time>1970-01-01T01:00:00Z</time>
      </trkpt>
      <trkpt lat="63.34831017" lon="10.48329983">
        <ele>165.813</ele>
        <time>1970-01-01T01:00:00Z</time>
      </trkpt>
      <trkpt lat="63.34827483" lon="10.483258">
        <ele>165.813</ele>
        <time>1970-01-01T01:00:00Z</time>
      </trkpt>
      <trkpt lat="63.3482395" lon="10.48321683">
        <ele>165.813</ele>
        <time>1970-01-01T01:00:00Z</time>
      </trkpt>
      <trkpt lat="63.34820383" lon="10.48317683">
        <ele>165.966</ele>
        <time>1970-01-01T01:00:00Z</time>
      </trkpt>
      <trkpt lat="63.3481675" lon="10.483138">
        <ele>165.966</ele>
        <time>1970-01-01T01:00:00Z</time>
      </trkpt>
      <trkpt lat="63.34813067" lon="10.48309917">
        <ele>166.118</ele>
        <time>1970-01-01T01:00:00Z</time>
      </trkpt>
      <trkpt lat="63.34809283" lon="10.48306">
        <ele>166.118</ele>
        <time>1970-01-01T01:00:00Z</time>
      </trkpt>
      <trkpt lat="63.34805483" lon="10.4830205">
        <ele>166.118</ele>
        <time>1970-01-01T01:00:00Z</time>
      </trkpt>
      <trkpt lat="63.34801667" lon="10.48298017">
        <ele>166.118</ele>
        <time>1970-01-01T01:00:00Z</time>
      </trkpt>
      <trkpt lat="63.34797833" lon="10.48293783">
        <ele>166.27</ele>
        <time>1970-01-01T01:00:00Z</time>
      </trkpt>
      <trkpt lat="63.34793967" lon="10.48289317">
        <ele>166.27</ele>
        <time>1970-01-01T01:00:00Z</time>
      </trkpt>
      <trkpt lat="63.34790033" lon="10.48284767">
        <ele>166.423</ele>
        <time>1970-01-01T01:00:00Z</time>
      </trkpt>
      <trkpt lat="63.34786" lon="10.48280133">
        <ele>166.423</ele>
        <time>1970-01-01T01:00:00Z</time>
      </trkpt>
      <trkpt lat="63.347818" lon="10.48275433">
        <ele>166.575</ele>
        <time>1970-01-01T01:00:00Z</time>
      </trkpt>
      <trkpt lat="63.347774" lon="10.4827065">
        <ele>166.575</ele>
        <time>1970-01-01T01:00:00Z</time>
      </trkpt>
      <trkpt lat="63.347728" lon="10.48265817">
        <ele>166.575</ele>
        <time>1970-01-01T01:00:00Z</time>
      </trkpt>
      <trkpt lat="63.34768083" lon="10.482609">
        <ele>166.575</ele>
        <time>1970-01-01T01:00:00Z</time>
      </trkpt>
      <trkpt lat="63.34763317" lon="10.482558">
        <ele>166.728</ele>
        <time>1970-01-01T01:00:00Z</time>
      </trkpt>
      <trkpt lat="63.34758517" lon="10.48250633">
        <ele>166.728</ele>
        <time>1970-01-01T01:00:00Z</time>
      </trkpt>
      <trkpt lat="63.34753733" lon="10.4824545">
        <ele>166.88</ele>
        <time>1970-01-01T01:00:00Z</time>
      </trkpt>
      <trkpt lat="63.3474895" lon="10.4824025">
        <ele>166.88</ele>
        <time>1970-01-01T01:00:00Z</time>
      </trkpt>
      <trkpt lat="63.34744233" lon="10.482348">
        <ele>166.88</ele>
        <time>1970-01-01T01:00:00Z</time>
      </trkpt>
      <trkpt lat="63.34739583" lon="10.48228967">
        <ele>166.88</ele>
        <time>1970-01-01T01:00:00Z</time>
      </trkpt>
      <trkpt lat="63.34735" lon="10.48222633">
        <ele>167.032</ele>
        <time>1970-01-01T01:00:00Z</time>
      </trkpt>
      <trkpt lat="63.3473055" lon="10.48215783">
        <ele>167.032</ele>
        <time>1970-01-01T01:00:00Z</time>
      </trkpt>
      <trkpt lat="63.34726233" lon="10.48208483">
        <ele>167.032</ele>
        <time>1970-01-01T01:00:00Z</time>
      </trkpt>
      <trkpt lat="63.3472205" lon="10.48200867">
        <ele>167.032</ele>
        <time>1970-01-01T01:00:00Z</time>
      </trkpt>
      <trkpt lat="63.34717967" lon="10.48193033">
        <ele>167.032</ele>
        <time>1970-01-01T01:00:00Z</time>
      </trkpt>
      <trkpt lat="63.34714" lon="10.48184933">
        <ele>167.032</ele>
        <time>1970-01-01T01:00:00Z</time>
      </trkpt>
      <trkpt lat="63.347102" lon="10.48176583">
        <ele>167.185</ele>
        <time>1970-01-01T01:00:00Z</time>
      </trkpt>
      <trkpt lat="63.34706567" lon="10.48168033">
        <ele>167.185</ele>
        <time>1970-01-01T01:00:00Z</time>
      </trkpt>
      <trkpt lat="63.34703067" lon="10.48159233">
        <ele>167.185</ele>
        <time>1970-01-01T01:00:00Z</time>
      </trkpt>
      <trkpt lat="63.34699667" lon="10.4815025">
        <ele>167.185</ele>
        <time>1970-01-01T01:00:00Z</time>
      </trkpt>
      <trkpt lat="63.34696383" lon="10.48140983">
        <ele>167.185</ele>
        <time>1970-01-01T01:00:00Z</time>
      </trkpt>
      <trkpt lat="63.34693233" lon="10.48131467">
        <ele>167.185</ele>
        <time>1970-01-01T01:00:00Z</time>
      </trkpt>
      <trkpt lat="63.34690183" lon="10.48121567">
        <ele>167.337</ele>
        <time>1970-01-01T01:00:00Z</time>
      </trkpt>
      <trkpt lat="63.346872" lon="10.48111267">
        <ele>167.337</ele>
        <time>1970-01-01T01:00:00Z</time>
      </trkpt>
      <trkpt lat="63.3468435" lon="10.48100333">
        <ele>167.337</ele>
        <time>1970-01-01T01:00:00Z</time>
      </trkpt>
      <trkpt lat="63.34681633" lon="10.48088783">
        <ele>167.337</ele>
        <time>1970-01-01T01:00:00Z</time>
      </trkpt>
      <trkpt lat="63.34679167" lon="10.480764">
        <ele>167.337</ele>
        <time>1970-01-01T01:00:00Z</time>
      </trkpt>
      <trkpt lat="63.34677" lon="10.480631">
        <ele>167.337</ele>
        <time>1970-01-01T01:00:00Z</time>
      </trkpt>
      <trkpt lat="63.34675183" lon="10.48048683">
        <ele>167.337</ele>
        <time>1970-01-01T01:00:00Z</time>
      </trkpt>
      <trkpt lat="63.3467365" lon="10.4803315">
        <ele>167.337</ele>
        <time>1970-01-01T01:00:00Z</time>
      </trkpt>
      <trkpt lat="63.34672333" lon="10.4801655">
        <ele>167.337</ele>
        <time>1970-01-01T01:00:00Z</time>
      </trkpt>
      <trkpt lat="63.3467115" lon="10.47998967">
        <ele>167.337</ele>
        <time>1970-01-01T01:00:00Z</time>
      </trkpt>
      <trkpt lat="63.34670033" lon="10.479805">
        <ele>167.337</ele>
        <time>1970-01-01T01:00:00Z</time>
      </trkpt>
      <trkpt lat="63.34668783" lon="10.47961383">
        <ele>167.337</ele>
        <time>1970-01-01T01:00:00Z</time>
      </trkpt>
      <trkpt lat="63.34667383" lon="10.4794185">
        <ele>167.337</ele>
        <time>1970-01-01T01:00:00Z</time>
      </trkpt>
      <trkpt lat="63.34665833" lon="10.479222">
        <ele>167.337</ele>
        <time>1970-01-01T01:00:00Z</time>
      </trkpt>
      <trkpt lat="63.34664267" lon="10.47902733">
        <ele>167.185</ele>
        <time>1970-01-01T01:00:00Z</time>
      </trkpt>
      <trkpt lat="63.34662667" lon="10.478837">
        <ele>167.185</ele>
        <time>1970-01-01T01:00:00Z</time>
      </trkpt>
      <trkpt lat="63.34660967" lon="10.47865267">
        <ele>167.185</ele>
        <time>1970-01-01T01:00:00Z</time>
      </trkpt>
      <trkpt lat="63.34659167" lon="10.478474">
        <ele>167.185</ele>
        <time>1970-01-01T01:00:00Z</time>
      </trkpt>
      <trkpt lat="63.34657133" lon="10.478301">
        <ele>167.032</ele>
        <time>1970-01-01T01:00:00Z</time>
      </trkpt>
      <trkpt lat="63.34654767" lon="10.47813433">
        <ele>167.032</ele>
        <time>1970-01-01T01:00:00Z</time>
      </trkpt>
      <trkpt lat="63.34651983" lon="10.4779755">
        <ele>167.032</ele>
        <time>1970-01-01T01:00:00Z</time>
      </trkpt>
      <trkpt lat="63.34648717" lon="10.47782583">
        <ele>167.032</ele>
        <time>1970-01-01T01:00:00Z</time>
      </trkpt>
      <trkpt lat="63.34645233" lon="10.477684">
        <ele>166.88</ele>
        <time>1970-01-01T01:00:00Z</time>
      </trkpt>
      <trkpt lat="63.34641683" lon="10.47754867">
        <ele>166.88</ele>
        <time>1970-01-01T01:00:00Z</time>
      </trkpt>
      <trkpt lat="63.34638167" lon="10.47741767">
        <ele>166.88</ele>
        <time>1970-01-01T01:00:00Z</time>
      </trkpt>
      <trkpt lat="63.346346" lon="10.47729">
        <ele>166.88</ele>
        <time>1970-01-01T01:00:00Z</time>
      </trkpt>
      <trkpt lat="63.34631" lon="10.477164">
        <ele>166.728</ele>
        <time>1970-01-01T01:00:00Z</time>
      </trkpt>
      <trkpt lat="63.34627367" lon="10.47703733">
        <ele>166.728</ele>
        <time>1970-01-01T01:00:00Z</time>
      </trkpt>
      <trkpt lat="63.34623683" lon="10.4769085">
        <ele>166.575</ele>
        <time>1970-01-01T01:00:00Z</time>
      </trkpt>
      <trkpt lat="63.34619967" lon="10.47677683">
        <ele>166.575</ele>
        <time>1970-01-01T01:00:00Z</time>
      </trkpt>
      <trkpt lat="63.34616267" lon="10.47664167">
        <ele>166.575</ele>
        <time>1970-01-01T01:00:00Z</time>
      </trkpt>
      <trkpt lat="63.34612583" lon="10.47650433">
        <ele>166.575</ele>
        <time>1970-01-01T01:00:00Z</time>
      </trkpt>
      <trkpt lat="63.3460895" lon="10.47636633">
        <ele>166.423</ele>
        <time>1970-01-01T01:00:00Z</time>
      </trkpt>
      <trkpt lat="63.34605367" lon="10.47622833">
        <ele>166.423</ele>
        <time>1970-01-01T01:00:00Z</time>
      </trkpt>
      <trkpt lat="63.34601833" lon="10.47609067">
        <ele>166.27</ele>
        <time>1970-01-01T01:00:00Z</time>
      </trkpt>
      <trkpt lat="63.34598317" lon="10.47595317">
        <ele>166.27</ele>
        <time>1970-01-01T01:00:00Z</time>
      </trkpt>
      <trkpt lat="63.34594817" lon="10.47581567">
        <ele>166.27</ele>
        <time>1970-01-01T01:00:00Z</time>
      </trkpt>
      <trkpt lat="63.34591317" lon="10.47567867">
        <ele>166.27</ele>
        <time>1970-01-01T01:00:00Z</time>
      </trkpt>
      <trkpt lat="63.3458785" lon="10.47554233">
        <ele>166.118</ele>
        <time>1970-01-01T01:00:00Z</time>
      </trkpt>
      <trkpt lat="63.34584417" lon="10.47540733">
        <ele>166.118</ele>
        <time>1970-01-01T01:00:00Z</time>
      </trkpt>
      <trkpt lat="63.3458105" lon="10.475273">
        <ele>165.966</ele>
        <time>1970-01-01T01:00:00Z</time>
      </trkpt>
      <trkpt lat="63.345778" lon="10.47513917">
        <ele>165.966</ele>
        <time>1970-01-01T01:00:00Z</time>
      </trkpt>
      <trkpt lat="63.34574633" lon="10.475005">
        <ele>165.813</ele>
        <time>1970-01-01T01:00:00Z</time>
      </trkpt>
      <trkpt lat="63.345715" lon="10.47486983">
        <ele>165.813</ele>
        <time>1970-01-01T01:00:00Z</time>
      </trkpt>
      <trkpt lat="63.34568333" lon="10.47473283">
        <ele>165.661</ele>
        <time>1970-01-01T01:00:00Z</time>
      </trkpt>
      <trkpt lat="63.34565167" lon="10.47459417">
        <ele>165.661</ele>
        <time>1970-01-01T01:00:00Z</time>
      </trkpt>
      <trkpt lat="63.3456205" lon="10.47445467">
        <ele>165.661</ele>
        <time>1970-01-01T01:00:00Z</time>
      </trkpt>
      <trkpt lat="63.34559017" lon="10.47431517">
        <ele>165.661</ele>
        <time>1970-01-01T01:00:00Z</time>
      </trkpt>
      <trkpt lat="63.3455605" lon="10.47417667">
        <ele>165.508</ele>
        <time>1970-01-01T01:00:00Z</time>
      </trkpt>
      <trkpt lat="63.3455305" lon="10.47403983">
        <ele>165.508</ele>
        <time>1970-01-01T01:00:00Z</time>
      </trkpt>
      <trkpt lat="63.34550083" lon="10.47390383">
        <ele>165.356</ele>
        <time>1970-01-01T01:00:00Z</time>
      </trkpt>
      <trkpt lat="63.34547283" lon="10.473769">
        <ele>165.356</ele>
        <time>1970-01-01T01:00:00Z</time>
      </trkpt>
      <trkpt lat="63.3454485" lon="10.473634">
        <ele>165.204</ele>
        <time>1970-01-01T01:00:00Z</time>
      </trkpt>
      <trkpt lat="63.34542667" lon="10.47350083">
        <ele>165.204</ele>
        <time>1970-01-01T01:00:00Z</time>
      </trkpt>
      <trkpt lat="63.34540717" lon="10.47336883">
        <ele>165.051</ele>
        <time>1970-01-01T01:00:00Z</time>
      </trkpt>
      <trkpt lat="63.34539017" lon="10.47323933">
        <ele>165.051</ele>
        <time>1970-01-01T01:00:00Z</time>
      </trkpt>
      <trkpt lat="63.34537767" lon="10.473113">
        <ele>164.899</ele>
        <time>1970-01-01T01:00:00Z</time>
      </trkpt>
      <trkpt lat="63.34536833" lon="10.472991">
        <ele>164.899</ele>
        <time>1970-01-01T01:00:00Z</time>
      </trkpt>
      <trkpt lat="63.34536183" lon="10.47287483">
        <ele>164.899</ele>
        <time>1970-01-01T01:00:00Z</time>
      </trkpt>
      <trkpt lat="63.34535717" lon="10.47276633">
        <ele>164.899</ele>
        <time>1970-01-01T01:00:00Z</time>
      </trkpt>
      <trkpt lat="63.34535433" lon="10.47266633">
        <ele>164.746</ele>
        <time>1970-01-01T01:00:00Z</time>
      </trkpt>
      <trkpt lat="63.34535233" lon="10.472573">
        <ele>164.746</ele>
        <time>1970-01-01T01:00:00Z</time>
      </trkpt>
      <trkpt lat="63.34535033" lon="10.47248383">
        <ele>164.746</ele>
        <time>1970-01-01T01:00:00Z</time>
      </trkpt>
      <trkpt lat="63.34534767" lon="10.4723975">
        <ele>164.746</ele>
        <time>1970-01-01T01:00:00Z</time>
      </trkpt>
      <trkpt lat="63.34534467" lon="10.472314">
        <ele>164.594</ele>
        <time>1970-01-01T01:00:00Z</time>
      </trkpt>
      <trkpt lat="63.3453415" lon="10.47223283">
        <ele>164.594</ele>
        <time>1970-01-01T01:00:00Z</time>
      </trkpt>
      <trkpt lat="63.34533767" lon="10.472154">
        <ele>164.594</ele>
        <time>1970-01-01T01:00:00Z</time>
      </trkpt>
      <trkpt lat="63.34533283" lon="10.4720765">
        <ele>164.594</ele>
        <time>1970-01-01T01:00:00Z</time>
      </trkpt>
      <trkpt lat="63.34532683" lon="10.47199983">
        <ele>164.594</ele>
        <time>1970-01-01T01:00:00Z</time>
      </trkpt>
      <trkpt lat="63.34532033" lon="10.47192183">
        <ele>164.594</ele>
        <time>1970-01-01T01:00:00Z</time>
      </trkpt>
      <trkpt lat="63.34531317" lon="10.471843">
        <ele>164.594</ele>
        <time>1970-01-01T01:00:00Z</time>
      </trkpt>
      <trkpt lat="63.34530583" lon="10.471764">
        <ele>164.594</ele>
        <time>1970-01-01T01:00:00Z</time>
      </trkpt>
      <trkpt lat="63.34529733" lon="10.471687">
        <ele>164.594</ele>
        <time>1970-01-01T01:00:00Z</time>
      </trkpt>
      <trkpt lat="63.34528867" lon="10.47161017">
        <ele>164.594</ele>
        <time>1970-01-01T01:00:00Z</time>
      </trkpt>
      <trkpt lat="63.34527933" lon="10.471534">
        <ele>164.746</ele>
        <time>1970-01-01T01:00:00Z</time>
      </trkpt>
      <trkpt lat="63.34527067" lon="10.47145667">
        <ele>164.746</ele>
        <time>1970-01-01T01:00:00Z</time>
      </trkpt>
      <trkpt lat="63.34526167" lon="10.47137983">
        <ele>164.746</ele>
        <time>1970-01-01T01:00:00Z</time>
      </trkpt>
      <trkpt lat="63.34525233" lon="10.47130317">
        <ele>164.746</ele>
        <time>1970-01-01T01:00:00Z</time>
      </trkpt>
      <trkpt lat="63.34524233" lon="10.471227">
        <ele>164.899</ele>
        <time>1970-01-01T01:00:00Z</time>
      </trkpt>
      <trkpt lat="63.34523367" lon="10.47115083">
        <ele>164.899</ele>
        <time>1970-01-01T01:00:00Z</time>
      </trkpt>
      <trkpt lat="63.3452255" lon="10.47107533">
        <ele>165.051</ele>
        <time>1970-01-01T01:00:00Z</time>
      </trkpt>
      <trkpt lat="63.34521717" lon="10.47099983">
        <ele>165.051</ele>
        <time>1970-01-01T01:00:00Z</time>
      </trkpt>
      <trkpt lat="63.34520783" lon="10.47092433">
        <ele>165.204</ele>
        <time>1970-01-01T01:00:00Z</time>
      </trkpt>
      <trkpt lat="63.34519867" lon="10.4708475">
        <ele>165.204</ele>
        <time>1970-01-01T01:00:00Z</time>
      </trkpt>
      <trkpt lat="63.34518983" lon="10.47077017">
        <ele>165.204</ele>
        <time>1970-01-01T01:00:00Z</time>
      </trkpt>
      <trkpt lat="63.34518183" lon="10.47069233">
        <ele>165.204</ele>
        <time>1970-01-01T01:00:00Z</time>
      </trkpt>
      <trkpt lat="63.34517383" lon="10.47061483">
        <ele>165.356</ele>
        <time>1970-01-01T01:00:00Z</time>
      </trkpt>
      <trkpt lat="63.34516617" lon="10.47053717">
        <ele>165.356</ele>
        <time>1970-01-01T01:00:00Z</time>
      </trkpt>
      <trkpt lat="63.3451575" lon="10.4704605">
        <ele>165.508</ele>
        <time>1970-01-01T01:00:00Z</time>
      </trkpt>
      <trkpt lat="63.34514767" lon="10.47038467">
        <ele>165.508</ele>
        <time>1970-01-01T01:00:00Z</time>
      </trkpt>
      <trkpt lat="63.34513633" lon="10.47031067">
        <ele>165.661</ele>
        <time>1970-01-01T01:00:00Z</time>
      </trkpt>
      <trkpt lat="63.34512467" lon="10.4702365">
        <ele>165.661</ele>
        <time>1970-01-01T01:00:00Z</time>
      </trkpt>
      <trkpt lat="63.34511333" lon="10.47016217">
        <ele>165.813</ele>
        <time>1970-01-01T01:00:00Z</time>
      </trkpt>
      <trkpt lat="63.345103" lon="10.47008667">
        <ele>165.813</ele>
        <time>1970-01-01T01:00:00Z</time>
      </trkpt>
      <trkpt lat="63.345093" lon="10.47001133">
        <ele>166.118</ele>
        <time>1970-01-01T01:00:00Z</time>
      </trkpt>
      <trkpt lat="63.34508233" lon="10.46993667">
        <ele>166.118</ele>
        <time>1970-01-01T01:00:00Z</time>
      </trkpt>
      <trkpt lat="63.34507033" lon="10.46986317">
        <ele>166.27</ele>
        <time>1970-01-01T01:00:00Z</time>
      </trkpt>
      <trkpt lat="63.345057" lon="10.46978983">
        <ele>166.27</ele>
        <time>1970-01-01T01:00:00Z</time>
      </trkpt>
      <trkpt lat="63.34504367" lon="10.46971617">
        <ele>166.423</ele>
        <time>1970-01-01T01:00:00Z</time>
      </trkpt>
      <trkpt lat="63.34503033" lon="10.46964133">
        <ele>166.423</ele>
        <time>1970-01-01T01:00:00Z</time>
      </trkpt>
      <trkpt lat="63.34501683" lon="10.4695655">
        <ele>166.728</ele>
        <time>1970-01-01T01:00:00Z</time>
      </trkpt>
      <trkpt lat="63.34500317" lon="10.469488">
        <ele>166.728</ele>
        <time>1970-01-01T01:00:00Z</time>
      </trkpt>
      <trkpt lat="63.34498917" lon="10.4694095">
        <ele>166.88</ele>
        <time>1970-01-01T01:00:00Z</time>
      </trkpt>
      <trkpt lat="63.34497517" lon="10.46932967">
        <ele>166.88</ele>
        <time>1970-01-01T01:00:00Z</time>
      </trkpt>
      <trkpt lat="63.34496" lon="10.46924967">
        <ele>167.032</ele>
        <time>1970-01-01T01:00:00Z</time>
      </trkpt>
      <trkpt lat="63.34494417" lon="10.4691695">
        <ele>167.032</ele>
        <time>1970-01-01T01:00:00Z</time>
      </trkpt>
      <trkpt lat="63.34492817" lon="10.469089">
        <ele>167.185</ele>
        <time>1970-01-01T01:00:00Z</time>
      </trkpt>
      <trkpt lat="63.3449125" lon="10.4690085">
        <ele>167.185</ele>
        <time>1970-01-01T01:00:00Z</time>
      </trkpt>
      <trkpt lat="63.3448965" lon="10.4689275">
        <ele>167.49</ele>
        <time>1970-01-01T01:00:00Z</time>
      </trkpt>
      <trkpt lat="63.3448805" lon="10.46884567">
        <ele>167.49</ele>
        <time>1970-01-01T01:00:00Z</time>
      </trkpt>
      <trkpt lat="63.34486433" lon="10.46876233">
        <ele>167.642</ele>
        <time>1970-01-01T01:00:00Z</time>
      </trkpt>
      <trkpt lat="63.3448485" lon="10.4686785">
        <ele>167.642</ele>
        <time>1970-01-01T01:00:00Z</time>
      </trkpt>
      <trkpt lat="63.34483233" lon="10.46859483">
        <ele>167.794</ele>
        <time>1970-01-01T01:00:00Z</time>
      </trkpt>
      <trkpt lat="63.344816" lon="10.46851067">
        <ele>167.794</ele>
        <time>1970-01-01T01:00:00Z</time>
      </trkpt>
      <trkpt lat="63.34479917" lon="10.4684235">
        <ele>168.099</ele>
        <time>1970-01-01T01:00:00Z</time>
      </trkpt>
      <trkpt lat="63.34478167" lon="10.46833217">
        <ele>168.099</ele>
        <time>1970-01-01T01:00:00Z</time>
      </trkpt>
      <trkpt lat="63.3447635" lon="10.4682365">
        <ele>168.252</ele>
        <time>1970-01-01T01:00:00Z</time>
      </trkpt>
      <trkpt lat="63.3447445" lon="10.468136">
        <ele>168.252</ele>
        <time>1970-01-01T01:00:00Z</time>
      </trkpt>
      <trkpt lat="63.34472483" lon="10.4680305">
        <ele>168.404</ele>
        <time>1970-01-01T01:00:00Z</time>
      </trkpt>
      <trkpt lat="63.34470417" lon="10.467921">
        <ele>168.404</ele>
        <time>1970-01-01T01:00:00Z</time>
      </trkpt>
      <trkpt lat="63.34468317" lon="10.467809">
        <ele>168.556</ele>
        <time>1970-01-01T01:00:00Z</time>
      </trkpt>
      <trkpt lat="63.34466217" lon="10.46769517">
        <ele>168.556</ele>
        <time>1970-01-01T01:00:00Z</time>
      </trkpt>
      <trkpt lat="63.34464067" lon="10.46757867">
        <ele>168.709</ele>
        <time>1970-01-01T01:00:00Z</time>
      </trkpt>
      <trkpt lat="63.34461833" lon="10.46745767">
        <ele>168.709</ele>
        <time>1970-01-01T01:00:00Z</time>
      </trkpt>
      <trkpt lat="63.34459483" lon="10.46733217">
        <ele>168.861</ele>
        <time>1970-01-01T01:00:00Z</time>
      </trkpt>
      <trkpt lat="63.34457067" lon="10.46720217">
        <ele>168.861</ele>
        <time>1970-01-01T01:00:00Z</time>
      </trkpt>
      <trkpt lat="63.34454583" lon="10.46706933">
        <ele>168.861</ele>
        <time>1970-01-01T01:00:00Z</time>
      </trkpt>
      <trkpt lat="63.34452083" lon="10.46693417">
        <ele>168.861</ele>
        <time>1970-01-01T01:00:00Z</time>
      </trkpt>
      <trkpt lat="63.34449567" lon="10.46679767">
        <ele>169.014</ele>
        <time>1970-01-01T01:00:00Z</time>
      </trkpt>
      <trkpt lat="63.3444705" lon="10.4666615">
        <ele>169.014</ele>
        <time>1970-01-01T01:00:00Z</time>
      </trkpt>
      <trkpt lat="63.34444567" lon="10.46652833">
        <ele>169.014</ele>
        <time>1970-01-01T01:00:00Z</time>
      </trkpt>
      <trkpt lat="63.34442217" lon="10.466401">
        <ele>169.014</ele>
        <time>1970-01-01T01:00:00Z</time>
      </trkpt>
      <trkpt lat="63.3444005" lon="10.46627983">
        <ele>169.166</ele>
        <time>1970-01-01T01:00:00Z</time>
      </trkpt>
      <trkpt lat="63.34438033" lon="10.46616367">
        <ele>169.166</ele>
        <time>1970-01-01T01:00:00Z</time>
      </trkpt>
      <trkpt lat="63.3443605" lon="10.4660505">
        <ele>169.166</ele>
        <time>1970-01-01T01:00:00Z</time>
      </trkpt>
      <trkpt lat="63.34434067" lon="10.4659405">
        <ele>169.166</ele>
        <time>1970-01-01T01:00:00Z</time>
      </trkpt>
      <trkpt lat="63.344321" lon="10.46583283">
        <ele>169.318</ele>
        <time>1970-01-01T01:00:00Z</time>
      </trkpt>
      <trkpt lat="63.34430217" lon="10.4657275">
        <ele>169.318</ele>
        <time>1970-01-01T01:00:00Z</time>
      </trkpt>
      <trkpt lat="63.34428367" lon="10.46562317">
        <ele>169.318</ele>
        <time>1970-01-01T01:00:00Z</time>
      </trkpt>
      <trkpt lat="63.34426533" lon="10.46551933">
        <ele>169.318</ele>
        <time>1970-01-01T01:00:00Z</time>
      </trkpt>
      <trkpt lat="63.34424733" lon="10.46541517">
        <ele>169.471</ele>
        <time>1970-01-01T01:00:00Z</time>
      </trkpt>
      <trkpt lat="63.34422867" lon="10.46531">
        <ele>169.471</ele>
        <time>1970-01-01T01:00:00Z</time>
      </trkpt>
      <trkpt lat="63.34420967" lon="10.465204">
        <ele>169.471</ele>
        <time>1970-01-01T01:00:00Z</time>
      </trkpt>
      <trkpt lat="63.34419" lon="10.46509733">
        <ele>169.471</ele>
        <time>1970-01-01T01:00:00Z</time>
      </trkpt>
      <trkpt lat="63.34416983" lon="10.46499017">
        <ele>169.623</ele>
        <time>1970-01-01T01:00:00Z</time>
      </trkpt>
      <trkpt lat="63.34414983" lon="10.46488217">
        <ele>169.623</ele>
        <time>1970-01-01T01:00:00Z</time>
      </trkpt>
      <trkpt lat="63.34413017" lon="10.4647735">
        <ele>169.623</ele>
        <time>1970-01-01T01:00:00Z</time>
      </trkpt>
      <trkpt lat="63.344111" lon="10.46466383">
        <ele>169.623</ele>
        <time>1970-01-01T01:00:00Z</time>
      </trkpt>
      <trkpt lat="63.3440925" lon="10.46455317">
        <ele>169.776</ele>
        <time>1970-01-01T01:00:00Z</time>
      </trkpt>
      <trkpt lat="63.344074" lon="10.46444117">
        <ele>169.776</ele>
        <time>1970-01-01T01:00:00Z</time>
      </trkpt>
      <trkpt lat="63.3440555" lon="10.4643285">
        <ele>169.776</ele>
        <time>1970-01-01T01:00:00Z</time>
      </trkpt>
      <trkpt lat="63.34403717" lon="10.46421567">
        <ele>169.776</ele>
        <time>1970-01-01T01:00:00Z</time>
      </trkpt>
      <trkpt lat="63.34401917" lon="10.46410267">
        <ele>169.928</ele>
        <time>1970-01-01T01:00:00Z</time>
      </trkpt>
      <trkpt lat="63.344002" lon="10.4639885">
        <ele>169.928</ele>
        <time>1970-01-01T01:00:00Z</time>
      </trkpt>
      <trkpt lat="63.34398667" lon="10.46387167">
        <ele>169.928</ele>
        <time>1970-01-01T01:00:00Z</time>
      </trkpt>
      <trkpt lat="63.34397383" lon="10.46375167">
        <ele>169.928</ele>
        <time>1970-01-01T01:00:00Z</time>
      </trkpt>
      <trkpt lat="63.34396417" lon="10.46362833">
        <ele>169.928</ele>
        <time>1970-01-01T01:00:00Z</time>
      </trkpt>
      <trkpt lat="63.34395783" lon="10.463502">
        <ele>169.928</ele>
        <time>1970-01-01T01:00:00Z</time>
      </trkpt>
      <trkpt lat="63.34395517" lon="10.46337367">
        <ele>170.08</ele>
        <time>1970-01-01T01:00:00Z</time>
      </trkpt>
      <trkpt lat="63.34395467" lon="10.46324333">
        <ele>170.08</ele>
        <time>1970-01-01T01:00:00Z</time>
      </trkpt>
      <trkpt lat="63.34395667" lon="10.46311133">
        <ele>170.08</ele>
        <time>1970-01-01T01:00:00Z</time>
      </trkpt>
      <trkpt lat="63.34396033" lon="10.462978">
        <ele>170.08</ele>
        <time>1970-01-01T01:00:00Z</time>
      </trkpt>
      <trkpt lat="63.3439655" lon="10.46284333">
        <ele>170.233</ele>
        <time>1970-01-01T01:00:00Z</time>
      </trkpt>
      <trkpt lat="63.343971" lon="10.46270733">
        <ele>170.233</ele>
        <time>1970-01-01T01:00:00Z</time>
      </trkpt>
      <trkpt lat="63.34397667" lon="10.462571">
        <ele>170.233</ele>
        <time>1970-01-01T01:00:00Z</time>
      </trkpt>
      <trkpt lat="63.34398283" lon="10.46243567">
        <ele>170.233</ele>
        <time>1970-01-01T01:00:00Z</time>
      </trkpt>
      <trkpt lat="63.343989" lon="10.46230217">
        <ele>170.233</ele>
        <time>1970-01-01T01:00:00Z</time>
      </trkpt>
      <trkpt lat="63.34399433" lon="10.4621695">
        <ele>170.233</ele>
        <time>1970-01-01T01:00:00Z</time>
      </trkpt>
      <trkpt lat="63.34399883" lon="10.46203683">
        <ele>170.385</ele>
        <time>1970-01-01T01:00:00Z</time>
      </trkpt>
      <trkpt lat="63.34400283" lon="10.46190267">
        <ele>170.385</ele>
        <time>1970-01-01T01:00:00Z</time>
      </trkpt>
      <trkpt lat="63.3440075" lon="10.46176717">
        <ele>170.385</ele>
        <time>1970-01-01T01:00:00Z</time>
      </trkpt>
      <trkpt lat="63.34401233" lon="10.46163033">
        <ele>170.385</ele>
        <time>1970-01-01T01:00:00Z</time>
      </trkpt>
      <trkpt lat="63.34401733" lon="10.46149233">
        <ele>170.385</ele>
        <time>1970-01-01T01:00:00Z</time>
      </trkpt>
      <trkpt lat="63.344022" lon="10.46135317">
        <ele>170.385</ele>
        <time>1970-01-01T01:00:00Z</time>
      </trkpt>
      <trkpt lat="63.344027" lon="10.46121367">
        <ele>170.538</ele>
        <time>1970-01-01T01:00:00Z</time>
      </trkpt>
      <trkpt lat="63.34403283" lon="10.461074">
        <ele>170.538</ele>
        <time>1970-01-01T01:00:00Z</time>
      </trkpt>
      <trkpt lat="63.34404" lon="10.46093433">
        <ele>170.538</ele>
        <time>1970-01-01T01:00:00Z</time>
      </trkpt>
      <trkpt lat="63.34404883" lon="10.46079417">
        <ele>170.538</ele>
        <time>1970-01-01T01:00:00Z</time>
      </trkpt>
      <trkpt lat="63.34405917" lon="10.46065383">
        <ele>170.538</ele>
        <time>1970-01-01T01:00:00Z</time>
      </trkpt>
      <trkpt lat="63.344072" lon="10.46051383">
        <ele>170.538</ele>
        <time>1970-01-01T01:00:00Z</time>
      </trkpt>
      <trkpt lat="63.34408683" lon="10.46037433">
        <ele>170.538</ele>
        <time>1970-01-01T01:00:00Z</time>
      </trkpt>
      <trkpt lat="63.34410467" lon="10.46023717">
        <ele>170.538</ele>
        <time>1970-01-01T01:00:00Z</time>
      </trkpt>
      <trkpt lat="63.344125" lon="10.46010283">
        <ele>170.69</ele>
        <time>1970-01-01T01:00:00Z</time>
      </trkpt>
      <trkpt lat="63.34414817" lon="10.45997317">
        <ele>170.69</ele>
        <time>1970-01-01T01:00:00Z</time>
      </trkpt>
      <trkpt lat="63.34417333" lon="10.459847">
        <ele>170.69</ele>
        <time>1970-01-01T01:00:00Z</time>
      </trkpt>
      <trkpt lat="63.34420083" lon="10.459726">
        <ele>170.69</ele>
        <time>1970-01-01T01:00:00Z</time>
      </trkpt>
      <trkpt lat="63.34423" lon="10.45960833">
        <ele>170.69</ele>
        <time>1970-01-01T01:00:00Z</time>
      </trkpt>
      <trkpt lat="63.3442605" lon="10.45949433">
        <ele>170.69</ele>
        <time>1970-01-01T01:00:00Z</time>
      </trkpt>
      <trkpt lat="63.34429167" lon="10.4593845">
        <ele>170.69</ele>
        <time>1970-01-01T01:00:00Z</time>
      </trkpt>
      <trkpt lat="63.34432433" lon="10.459282">
        <ele>170.69</ele>
        <time>1970-01-01T01:00:00Z</time>
      </trkpt>
      <trkpt lat="63.3443575" lon="10.45918717">
        <ele>170.69</ele>
        <time>1970-01-01T01:00:00Z</time>
      </trkpt>
      <trkpt lat="63.34439017" lon="10.45909967">
        <ele>170.69</ele>
        <time>1970-01-01T01:00:00Z</time>
      </trkpt>
      <trkpt lat="63.344422" lon="10.459018">
        <ele>170.69</ele>
        <time>1970-01-01T01:00:00Z</time>
      </trkpt>
      <trkpt lat="63.3444535" lon="10.45894233">
        <ele>170.69</ele>
        <time>1970-01-01T01:00:00Z</time>
      </trkpt>
      <trkpt lat="63.34448533" lon="10.458872">
        <ele>170.842</ele>
        <time>1970-01-01T01:00:00Z</time>
      </trkpt>
      <trkpt lat="63.344518" lon="10.45880767">
        <ele>170.842</ele>
        <time>1970-01-01T01:00:00Z</time>
      </trkpt>
      <trkpt lat="63.3445515" lon="10.45874767">
        <ele>170.842</ele>
        <time>1970-01-01T01:00:00Z</time>
      </trkpt>
      <trkpt lat="63.3445855" lon="10.45869067">
        <ele>170.842</ele>
        <time>1970-01-01T01:00:00Z</time>
      </trkpt>
      <trkpt lat="63.34462033" lon="10.45863567">
        <ele>170.995</ele>
        <time>1970-01-01T01:00:00Z</time>
      </trkpt>
      <trkpt lat="63.3446565" lon="10.4585865">
        <ele>170.995</ele>
        <time>1970-01-01T01:00:00Z</time>
      </trkpt>
      <trkpt lat="63.34469383" lon="10.458542">
        <ele>170.995</ele>
        <time>1970-01-01T01:00:00Z</time>
      </trkpt>
      <trkpt lat="63.34473133" lon="10.45850067">
        <ele>170.995</ele>
        <time>1970-01-01T01:00:00Z</time>
      </trkpt>
      <trkpt lat="63.34476833" lon="10.4584585">
        <ele>171.147</ele>
        <time>1970-01-01T01:00:00Z</time>
      </trkpt>
      <trkpt lat="63.34480517" lon="10.45841617">
        <ele>171.147</ele>
        <time>1970-01-01T01:00:00Z</time>
      </trkpt>
      <trkpt lat="63.34484233" lon="10.45837483">
        <ele>171.3</ele>
        <time>1970-01-01T01:00:00Z</time>
      </trkpt>
      <trkpt lat="63.3448795" lon="10.45833417">
        <ele>171.3</ele>
        <time>1970-01-01T01:00:00Z</time>
      </trkpt>
      <trkpt lat="63.3449165" lon="10.45829383">
        <ele>171.3</ele>
        <time>1970-01-01T01:00:00Z</time>
      </trkpt>
      <trkpt lat="63.344953" lon="10.45825267">
        <ele>171.3</ele>
        <time>1970-01-01T01:00:00Z</time>
      </trkpt>
      <trkpt lat="63.34498883" lon="10.45820983">
        <ele>171.452</ele>
        <time>1970-01-01T01:00:00Z</time>
      </trkpt>
      <trkpt lat="63.345024" lon="10.4581665">
        <ele>171.452</ele>
        <time>1970-01-01T01:00:00Z</time>
      </trkpt>
      <trkpt lat="63.34505833" lon="10.45812217">
        <ele>171.604</ele>
        <time>1970-01-01T01:00:00Z</time>
      </trkpt>
      <trkpt lat="63.3450915" lon="10.45807733">
        <ele>171.604</ele>
        <time>1970-01-01T01:00:00Z</time>
      </trkpt>
      <trkpt lat="63.3451235" lon="10.45803117">
        <ele>171.757</ele>
        <time>1970-01-01T01:00:00Z</time>
      </trkpt>
      <trkpt lat="63.345155" lon="10.457985">
        <ele>171.757</ele>
        <time>1970-01-01T01:00:00Z</time>
      </trkpt>
      <trkpt lat="63.345186" lon="10.45793867">
        <ele>171.909</ele>
        <time>1970-01-01T01:00:00Z</time>
      </trkpt>
      <trkpt lat="63.34521683" lon="10.45789217">
        <ele>171.909</ele>
        <time>1970-01-01T01:00:00Z</time>
      </trkpt>
      <trkpt lat="63.34524717" lon="10.45784517">
        <ele>172.062</ele>
        <time>1970-01-01T01:00:00Z</time>
      </trkpt>
      <trkpt lat="63.3452765" lon="10.45779933">
        <ele>172.062</ele>
        <time>1970-01-01T01:00:00Z</time>
      </trkpt>
      <trkpt lat="63.34530433" lon="10.45775417">
        <ele>172.214</ele>
        <time>1970-01-01T01:00:00Z</time>
      </trkpt>
      <trkpt lat="63.34533117" lon="10.45771067">
        <ele>172.214</ele>
        <time>1970-01-01T01:00:00Z</time>
      </trkpt>
      <trkpt lat="63.34535733" lon="10.45766717">
        <ele>172.366</ele>
        <time>1970-01-01T01:00:00Z</time>
      </trkpt>
      <trkpt lat="63.34538267" lon="10.45762317">
        <ele>172.366</ele>
        <time>1970-01-01T01:00:00Z</time>
      </trkpt>
      <trkpt lat="63.34540717" lon="10.4575775">
        <ele>172.671</ele>
        <time>1970-01-01T01:00:00Z</time>
      </trkpt>
      <trkpt lat="63.34543083" lon="10.45753067">
        <ele>172.671</ele>
        <time>1970-01-01T01:00:00Z</time>
      </trkpt>
      <trkpt lat="63.34545467" lon="10.45748433">
        <ele>172.824</ele>
        <time>1970-01-01T01:00:00Z</time>
      </trkpt>
      <trkpt lat="63.34548017" lon="10.4574395">
        <ele>172.824</ele>
        <time>1970-01-01T01:00:00Z</time>
      </trkpt>
      <trkpt lat="63.345506" lon="10.4573945">
        <ele>172.976</ele>
        <time>1970-01-01T01:00:00Z</time>
      </trkpt>
      <trkpt lat="63.34553233" lon="10.45734833">
        <ele>172.976</ele>
        <time>1970-01-01T01:00:00Z</time>
      </trkpt>
      <trkpt lat="63.34555783" lon="10.4573015">
        <ele>173.281</ele>
        <time>1970-01-01T01:00:00Z</time>
      </trkpt>
      <trkpt lat="63.3455835" lon="10.45725583">
        <ele>173.281</ele>
        <time>1970-01-01T01:00:00Z</time>
      </trkpt>
      <trkpt lat="63.3456095" lon="10.45721267">
        <ele>173.433</ele>
        <time>1970-01-01T01:00:00Z</time>
      </trkpt>
      <trkpt lat="63.34563583" lon="10.45717067">
        <ele>173.433</ele>
        <time>1970-01-01T01:00:00Z</time>
      </trkpt>
      <trkpt lat="63.34566217" lon="10.45712867">
        <ele>173.738</ele>
        <time>1970-01-01T01:00:00Z</time>
      </trkpt>
      <trkpt lat="63.34568867" lon="10.45708667">
        <ele>173.738</ele>
        <time>1970-01-01T01:00:00Z</time>
      </trkpt>
      <trkpt lat="63.34571517" lon="10.4570445">
        <ele>173.891</ele>
        <time>1970-01-01T01:00:00Z</time>
      </trkpt>
      <trkpt lat="63.34574183" lon="10.45700267">
        <ele>173.891</ele>
        <time>1970-01-01T01:00:00Z</time>
      </trkpt>
      <trkpt lat="63.34576767" lon="10.45696">
        <ele>174.195</ele>
        <time>1970-01-01T01:00:00Z</time>
      </trkpt>
      <trkpt lat="63.34579367" lon="10.45691783">
        <ele>174.195</ele>
        <time>1970-01-01T01:00:00Z</time>
      </trkpt>
      <trkpt lat="63.3458195" lon="10.45687517">
        <ele>174.348</ele>
        <time>1970-01-01T01:00:00Z</time>
      </trkpt>
      <trkpt lat="63.34584583" lon="10.45683217">
        <ele>174.348</ele>
        <time>1970-01-01T01:00:00Z</time>
      </trkpt>
      <trkpt lat="63.34587233" lon="10.45678783">
        <ele>174.653</ele>
        <time>1970-01-01T01:00:00Z</time>
      </trkpt>
      <trkpt lat="63.345899" lon="10.45674317">
        <ele>174.653</ele>
        <time>1970-01-01T01:00:00Z</time>
      </trkpt>
      <trkpt lat="63.34592567" lon="10.45669867">
        <ele>174.957</ele>
        <time>1970-01-01T01:00:00Z</time>
      </trkpt>
      <trkpt lat="63.34595183" lon="10.45665433">
        <ele>174.957</ele>
        <time>1970-01-01T01:00:00Z</time>
      </trkpt>
      <trkpt lat="63.34597783" lon="10.45661033">
        <ele>175.262</ele>
        <time>1970-01-01T01:00:00Z</time>
      </trkpt>
      <trkpt lat="63.3460045" lon="10.45656817">
        <ele>175.262</ele>
        <time>1970-01-01T01:00:00Z</time>
      </trkpt>
      <trkpt lat="63.34603167" lon="10.456527">
        <ele>175.567</ele>
        <time>1970-01-01T01:00:00Z</time>
      </trkpt>
      <trkpt lat="63.34605883" lon="10.45648433">
        <ele>175.567</ele>
        <time>1970-01-01T01:00:00Z</time>
      </trkpt>
      <trkpt lat="63.34608633" lon="10.4564385">
        <ele>175.719</ele>
        <time>1970-01-01T01:00:00Z</time>
      </trkpt>
      <trkpt lat="63.34611333" lon="10.45638883">
        <ele>175.719</ele>
        <time>1970-01-01T01:00:00Z</time>
      </trkpt>
      <trkpt lat="63.3461405" lon="10.45633667">
        <ele>176.024</ele>
        <time>1970-01-01T01:00:00Z</time>
      </trkpt>
      <trkpt lat="63.3461675" lon="10.45628267">
        <ele>176.024</ele>
        <time>1970-01-01T01:00:00Z</time>
      </trkpt>
      <trkpt lat="63.34619483" lon="10.456227">
        <ele>176.329</ele>
        <time>1970-01-01T01:00:00Z</time>
      </trkpt>
      <trkpt lat="63.3462225" lon="10.456169">
        <ele>176.329</ele>
        <time>1970-01-01T01:00:00Z</time>
      </trkpt>
      <trkpt lat="63.34625117" lon="10.456108">
        <ele>176.634</ele>
        <time>1970-01-01T01:00:00Z</time>
      </trkpt>
      <trkpt lat="63.34628033" lon="10.456042">
        <ele>176.634</ele>
        <time>1970-01-01T01:00:00Z</time>
      </trkpt>
      <trkpt lat="63.34630983" lon="10.45597067">
        <ele>176.939</ele>
        <time>1970-01-01T01:00:00Z</time>
      </trkpt>
      <trkpt lat="63.34633867" lon="10.455893">
        <ele>176.939</ele>
        <time>1970-01-01T01:00:00Z</time>
      </trkpt>
      <trkpt lat="63.346368" lon="10.4558095">
        <ele>177.243</ele>
        <time>1970-01-01T01:00:00Z</time>
      </trkpt>
      <trkpt lat="63.34639767" lon="10.45571833">
        <ele>177.243</ele>
        <time>1970-01-01T01:00:00Z</time>
      </trkpt>
      <trkpt lat="63.34642833" lon="10.455618">
        <ele>177.396</ele>
        <time>1970-01-01T01:00:00Z</time>
      </trkpt>
      <trkpt lat="63.34646017" lon="10.4555075">
        <ele>177.396</ele>
        <time>1970-01-01T01:00:00Z</time>
      </trkpt>
      <trkpt lat="63.346493" lon="10.455387">
        <ele>177.701</ele>
        <time>1970-01-01T01:00:00Z</time>
      </trkpt>
      <trkpt lat="63.34652717" lon="10.455258">
        <ele>177.701</ele>
        <time>1970-01-01T01:00:00Z</time>
      </trkpt>
      <trkpt lat="63.3465605" lon="10.45511633">
        <ele>178.005</ele>
        <time>1970-01-01T01:00:00Z</time>
      </trkpt>
      <trkpt lat="63.34659317" lon="10.4549645">
        <ele>178.005</ele>
        <time>1970-01-01T01:00:00Z</time>
      </trkpt>
      <trkpt lat="63.34661917" lon="10.45480117">
        <ele>178.158</ele>
        <time>1970-01-01T01:00:00Z</time>
      </trkpt>
      <trkpt lat="63.34663867" lon="10.454631">
        <ele>178.158</ele>
        <time>1970-01-01T01:00:00Z</time>
      </trkpt>
      <trkpt lat="63.34664783" lon="10.45445867">
        <ele>178.31</ele>
        <time>1970-01-01T01:00:00Z</time>
      </trkpt>
      <trkpt lat="63.3466345" lon="10.45426867">
        <ele>178.31</ele>
        <time>1970-01-01T01:00:00Z</time>
      </trkpt>
      <trkpt lat="63.3465875" lon="10.45406833">
        <ele>178.463</ele>
        <time>1970-01-01T01:00:00Z</time>
      </trkpt>
      <trkpt lat="63.34651983" lon="10.453865">
        <ele>178.463</ele>
        <time>1970-01-01T01:00:00Z</time>
      </trkpt>
      <trkpt lat="63.34644933" lon="10.45368183">
        <ele>178.615</ele>
        <time>1970-01-01T01:00:00Z</time>
      </trkpt>
      <trkpt lat="63.34639167" lon="10.4535145">
        <ele>178.615</ele>
        <time>1970-01-01T01:00:00Z</time>
      </trkpt>
      <trkpt lat="63.34633883" lon="10.4533475">
        <ele>178.615</ele>
        <time>1970-01-01T01:00:00Z</time>
      </trkpt>
      <trkpt lat="63.3462935" lon="10.45317317">
        <ele>178.615</ele>
        <time>1970-01-01T01:00:00Z</time>
      </trkpt>
      <trkpt lat="63.34625633" lon="10.452987">
        <ele>178.615</ele>
        <time>1970-01-01T01:00:00Z</time>
      </trkpt>
      <trkpt lat="63.34624017" lon="10.45278783">
        <ele>178.615</ele>
        <time>1970-01-01T01:00:00Z</time>
      </trkpt>
      <trkpt lat="63.34624583" lon="10.45258133">
        <ele>178.615</ele>
        <time>1970-01-01T01:00:00Z</time>
      </trkpt>
      <trkpt lat="63.346274" lon="10.4523785">
        <ele>178.615</ele>
        <time>1970-01-01T01:00:00Z</time>
      </trkpt>
      <trkpt lat="63.3463115" lon="10.4521845">
        <ele>178.463</ele>
        <time>1970-01-01T01:00:00Z</time>
      </trkpt>
      <trkpt lat="63.34635617" lon="10.45200017">
        <ele>178.463</ele>
        <time>1970-01-01T01:00:00Z</time>
      </trkpt>
      <trkpt lat="63.34640433" lon="10.45182167">
        <ele>178.31</ele>
        <time>1970-01-01T01:00:00Z</time>
      </trkpt>
      <trkpt lat="63.346455" lon="10.4516505">
        <ele>178.31</ele>
        <time>1970-01-01T01:00:00Z</time>
      </trkpt>
      <trkpt lat="63.3465075" lon="10.4514835">
        <ele>178.158</ele>
        <time>1970-01-01T01:00:00Z</time>
      </trkpt>
      <trkpt lat="63.34655933" lon="10.451318">
        <ele>178.158</ele>
        <time>1970-01-01T01:00:00Z</time>
      </trkpt>
      <trkpt lat="63.34661033" lon="10.45115283">
        <ele>178.005</ele>
        <time>1970-01-01T01:00:00Z</time>
      </trkpt>
      <trkpt lat="63.34666067" lon="10.45098883">
        <ele>178.005</ele>
        <time>1970-01-01T01:00:00Z</time>
      </trkpt>
      <trkpt lat="63.346711" lon="10.45082667">
        <ele>177.853</ele>
        <time>1970-01-01T01:00:00Z</time>
      </trkpt>
      <trkpt lat="63.346762" lon="10.45066583">
        <ele>177.853</ele>
        <time>1970-01-01T01:00:00Z</time>
      </trkpt>
      <trkpt lat="63.346814" lon="10.450506">
        <ele>177.701</ele>
        <time>1970-01-01T01:00:00Z</time>
      </trkpt>
      <trkpt lat="63.346867" lon="10.45034633">
        <ele>177.701</ele>
        <time>1970-01-01T01:00:00Z</time>
      </trkpt>
      <trkpt lat="63.34692067" lon="10.4501865">
        <ele>177.548</ele>
        <time>1970-01-01T01:00:00Z</time>
      </trkpt>
      <trkpt lat="63.34697417" lon="10.45002517">
        <ele>177.548</ele>
        <time>1970-01-01T01:00:00Z</time>
      </trkpt>
      <trkpt lat="63.34702633" lon="10.44986217">
        <ele>177.396</ele>
        <time>1970-01-01T01:00:00Z</time>
      </trkpt>
      <trkpt lat="63.34707817" lon="10.4496975">
        <ele>177.396</ele>
        <time>1970-01-01T01:00:00Z</time>
      </trkpt>
      <trkpt lat="63.347129" lon="10.44953283">
        <ele>177.243</ele>
        <time>1970-01-01T01:00:00Z</time>
      </trkpt>
      <trkpt lat="63.34718" lon="10.44936917">
        <ele>177.243</ele>
        <time>1970-01-01T01:00:00Z</time>
      </trkpt>
      <trkpt lat="63.34722983" lon="10.449207">
        <ele>177.091</ele>
        <time>1970-01-01T01:00:00Z</time>
      </trkpt>
      <trkpt lat="63.34727867" lon="10.4490465">
        <ele>177.091</ele>
        <time>1970-01-01T01:00:00Z</time>
      </trkpt>
      <trkpt lat="63.34732667" lon="10.4488865">
        <ele>176.939</ele>
        <time>1970-01-01T01:00:00Z</time>
      </trkpt>
      <trkpt lat="63.34737417" lon="10.44872467">
        <ele>176.939</ele>
        <time>1970-01-01T01:00:00Z</time>
      </trkpt>
      <trkpt lat="63.3474215" lon="10.44855933">
        <ele>176.786</ele>
        <time>1970-01-01T01:00:00Z</time>
      </trkpt>
      <trkpt lat="63.347468" lon="10.44838883">
        <ele>176.786</ele>
        <time>1970-01-01T01:00:00Z</time>
      </trkpt>
      <trkpt lat="63.347512" lon="10.44821233">
        <ele>176.634</ele>
        <time>1970-01-01T01:00:00Z</time>
      </trkpt>
      <trkpt lat="63.347553" lon="10.44803083">
        <ele>176.634</ele>
        <time>1970-01-01T01:00:00Z</time>
      </trkpt>
      <trkpt lat="63.34758883" lon="10.44784533">
        <ele>176.481</ele>
        <time>1970-01-01T01:00:00Z</time>
      </trkpt>
      <trkpt lat="63.3476195" lon="10.44765767">
        <ele>176.481</ele>
        <time>1970-01-01T01:00:00Z</time>
      </trkpt>
      <trkpt lat="63.347646" lon="10.447471">
        <ele>176.329</ele>
        <time>1970-01-01T01:00:00Z</time>
      </trkpt>
      <trkpt lat="63.3476715" lon="10.44728983">
        <ele>176.329</ele>
        <time>1970-01-01T01:00:00Z</time>
      </trkpt>
      <trkpt lat="63.3476995" lon="10.44711483">
        <ele>176.329</ele>
        <time>1970-01-01T01:00:00Z</time>
      </trkpt>
      <trkpt lat="63.347737" lon="10.44695067">
        <ele>176.329</ele>
        <time>1970-01-01T01:00:00Z</time>
      </trkpt>
      <trkpt lat="63.3477875" lon="10.4468045">
        <ele>176.177</ele>
        <time>1970-01-01T01:00:00Z</time>
      </trkpt>
      <trkpt lat="63.3478485" lon="10.44668783">
        <ele>176.177</ele>
        <time>1970-01-01T01:00:00Z</time>
      </trkpt>
      <trkpt lat="63.34791683" lon="10.44660383">
        <ele>175.872</ele>
        <time>1970-01-01T01:00:00Z</time>
      </trkpt>
      <trkpt lat="63.34798633" lon="10.44655117">
        <ele>175.872</ele>
        <time>1970-01-01T01:00:00Z</time>
      </trkpt>
      <trkpt lat="63.3480575" lon="10.446512">
        <ele>175.719</ele>
        <time>1970-01-01T01:00:00Z</time>
      </trkpt>
      <trkpt lat="63.34813167" lon="10.44649733">
        <ele>175.719</ele>
        <time>1970-01-01T01:00:00Z</time>
      </trkpt>
      <trkpt lat="63.34821683" lon="10.44651167">
        <ele>175.719</ele>
        <time>1970-01-01T01:00:00Z</time>
      </trkpt>
      <trkpt lat="63.34831283" lon="10.44654717">
        <ele>175.719</ele>
        <time>1970-01-01T01:00:00Z</time>
      </trkpt>
      <trkpt lat="63.34841533" lon="10.44658083">
        <ele>175.567</ele>
        <time>1970-01-01T01:00:00Z</time>
      </trkpt>
      <trkpt lat="63.34851767" lon="10.44659317">
        <ele>175.567</ele>
        <time>1970-01-01T01:00:00Z</time>
      </trkpt>
      <trkpt lat="63.3486225" lon="10.44659967">
        <ele>175.567</ele>
        <time>1970-01-01T01:00:00Z</time>
      </trkpt>
      <trkpt lat="63.3487305" lon="10.44659967">
        <ele>175.567</ele>
        <time>1970-01-01T01:00:00Z</time>
      </trkpt>
      <trkpt lat="63.34884117" lon="10.44659833">
        <ele>175.567</ele>
        <time>1970-01-01T01:00:00Z</time>
      </trkpt>
      <trkpt lat="63.348952" lon="10.44659333">
        <ele>175.567</ele>
        <time>1970-01-01T01:00:00Z</time>
      </trkpt>
      <trkpt lat="63.34906317" lon="10.44659133">
        <ele>175.567</ele>
        <time>1970-01-01T01:00:00Z</time>
      </trkpt>
      <trkpt lat="63.34917483" lon="10.44658883">
        <ele>175.567</ele>
        <time>1970-01-01T01:00:00Z</time>
      </trkpt>
      <trkpt lat="63.34928667" lon="10.44658583">
        <ele>175.415</ele>
        <time>1970-01-01T01:00:00Z</time>
      </trkpt>
      <trkpt lat="63.34939783" lon="10.44657933">
        <ele>175.415</ele>
        <time>1970-01-01T01:00:00Z</time>
      </trkpt>
      <trkpt lat="63.34950933" lon="10.446569">
        <ele>175.415</ele>
        <time>1970-01-01T01:00:00Z</time>
      </trkpt>
      <trkpt lat="63.34962067" lon="10.446552">
        <ele>175.415</ele>
        <time>1970-01-01T01:00:00Z</time>
      </trkpt>
      <trkpt lat="63.34972933" lon="10.446518">
        <ele>175.262</ele>
        <time>1970-01-01T01:00:00Z</time>
      </trkpt>
      <trkpt lat="63.34983317" lon="10.44646783">
        <ele>175.262</ele>
        <time>1970-01-01T01:00:00Z</time>
      </trkpt>
      <trkpt lat="63.3499255" lon="10.44637317">
        <ele>175.11</ele>
        <time>1970-01-01T01:00:00Z</time>
      </trkpt>
      <trkpt lat="63.3500025" lon="10.44624233">
        <ele>175.11</ele>
        <time>1970-01-01T01:00:00Z</time>
      </trkpt>
      <trkpt lat="63.35007283" lon="10.44610317">
        <ele>174.957</ele>
        <time>1970-01-01T01:00:00Z</time>
      </trkpt>
      <trkpt lat="63.350143" lon="10.44598817">
        <ele>174.957</ele>
        <time>1970-01-01T01:00:00Z</time>
      </trkpt>
      <trkpt lat="63.3502195" lon="10.4459025">
        <ele>174.805</ele>
        <time>1970-01-01T01:00:00Z</time>
      </trkpt>
      <trkpt lat="63.35029183" lon="10.44581567">
        <ele>174.805</ele>
        <time>1970-01-01T01:00:00Z</time>
      </trkpt>
      <trkpt lat="63.35035633" lon="10.44571333">
        <ele>174.653</ele>
        <time>1970-01-01T01:00:00Z</time>
      </trkpt>
      <trkpt lat="63.3504105" lon="10.44558967">
        <ele>174.653</ele>
        <time>1970-01-01T01:00:00Z</time>
      </trkpt>
      <trkpt lat="63.35045567" lon="10.44544533">
        <ele>174.348</ele>
        <time>1970-01-01T01:00:00Z</time>
      </trkpt>
      <trkpt lat="63.3504935" lon="10.44529367">
        <ele>174.348</ele>
        <time>1970-01-01T01:00:00Z</time>
      </trkpt>
      <trkpt lat="63.35052417" lon="10.44513483">
        <ele>174.043</ele>
        <time>1970-01-01T01:00:00Z</time>
      </trkpt>
      <trkpt lat="63.35055" lon="10.44497267">
        <ele>174.043</ele>
        <time>1970-01-01T01:00:00Z</time>
      </trkpt>
      <trkpt lat="63.35057233" lon="10.44480767">
        <ele>173.738</ele>
        <time>1970-01-01T01:00:00Z</time>
      </trkpt>
      <trkpt lat="63.350593" lon="10.444639">
        <ele>173.738</ele>
        <time>1970-01-01T01:00:00Z</time>
      </trkpt>
      <trkpt lat="63.35061267" lon="10.44446733">
        <ele>173.433</ele>
        <time>1970-01-01T01:00:00Z</time>
      </trkpt>
      <trkpt lat="63.3506325" lon="10.444293">
        <ele>173.433</ele>
        <time>1970-01-01T01:00:00Z</time>
      </trkpt>
      <trkpt lat="63.350653" lon="10.444117">
        <ele>172.976</ele>
        <time>1970-01-01T01:00:00Z</time>
      </trkpt>
      <trkpt lat="63.35067483" lon="10.44393833">
        <ele>172.976</ele>
        <time>1970-01-01T01:00:00Z</time>
      </trkpt>
      <trkpt lat="63.350699" lon="10.44375733">
        <ele>172.671</ele>
        <time>1970-01-01T01:00:00Z</time>
      </trkpt>
      <trkpt lat="63.35072667" lon="10.4435765">
        <ele>172.671</ele>
        <time>1970-01-01T01:00:00Z</time>
      </trkpt>
      <trkpt lat="63.35075833" lon="10.44339867">
        <ele>172.214</ele>
        <time>1970-01-01T01:00:00Z</time>
      </trkpt>
      <trkpt lat="63.35079433" lon="10.44322467">
        <ele>172.214</ele>
        <time>1970-01-01T01:00:00Z</time>
      </trkpt>
      <trkpt lat="63.350834" lon="10.4430555">
        <ele>171.909</ele>
        <time>1970-01-01T01:00:00Z</time>
      </trkpt>
      <trkpt lat="63.35087683" lon="10.4428895">
        <ele>171.909</ele>
        <time>1970-01-01T01:00:00Z</time>
      </trkpt>
      <trkpt lat="63.3509225" lon="10.442728">
        <ele>171.604</ele>
        <time>1970-01-01T01:00:00Z</time>
      </trkpt>
      <trkpt lat="63.35097033" lon="10.44257083">
        <ele>171.604</ele>
        <time>1970-01-01T01:00:00Z</time>
      </trkpt>
      <trkpt lat="63.35101867" lon="10.4424165">
        <ele>171.147</ele>
        <time>1970-01-01T01:00:00Z</time>
      </trkpt>
      <trkpt lat="63.3510665" lon="10.442264">
        <ele>171.147</ele>
        <time>1970-01-01T01:00:00Z</time>
      </trkpt>
      <trkpt lat="63.35111267" lon="10.44211167">
        <ele>170.842</ele>
        <time>1970-01-01T01:00:00Z</time>
      </trkpt>
      <trkpt lat="63.3511585" lon="10.44196033">
        <ele>170.842</ele>
        <time>1970-01-01T01:00:00Z</time>
      </trkpt>
      <trkpt lat="63.35120417" lon="10.44180967">
        <ele>170.385</ele>
        <time>1970-01-01T01:00:00Z</time>
      </trkpt>
      <trkpt lat="63.35124983" lon="10.44165933">
        <ele>170.385</ele>
        <time>1970-01-01T01:00:00Z</time>
      </trkpt>
      <trkpt lat="63.35129517" lon="10.44150867">
        <ele>170.08</ele>
        <time>1970-01-01T01:00:00Z</time>
      </trkpt>
      <trkpt lat="63.35134" lon="10.44135683">
        <ele>170.08</ele>
        <time>1970-01-01T01:00:00Z</time>
      </trkpt>
      <trkpt lat="63.35138483" lon="10.44120417">
        <ele>169.776</ele>
        <time>1970-01-01T01:00:00Z</time>
      </trkpt>
      <trkpt lat="63.35143017" lon="10.44105117">
        <ele>169.776</ele>
        <time>1970-01-01T01:00:00Z</time>
      </trkpt>
      <trkpt lat="63.35147717" lon="10.44089867">
        <ele>169.471</ele>
        <time>1970-01-01T01:00:00Z</time>
      </trkpt>
      <trkpt lat="63.35152617" lon="10.44074767">
        <ele>169.471</ele>
        <time>1970-01-01T01:00:00Z</time>
      </trkpt>
      <trkpt lat="63.35157733" lon="10.440598">
        <ele>169.014</ele>
        <time>1970-01-01T01:00:00Z</time>
      </trkpt>
      <trkpt lat="63.35163083" lon="10.440451">
        <ele>169.014</ele>
        <time>1970-01-01T01:00:00Z</time>
      </trkpt>
      <trkpt lat="63.3516875" lon="10.44030817">
        <ele>168.709</ele>
        <time>1970-01-01T01:00:00Z</time>
      </trkpt>
      <trkpt lat="63.351749" lon="10.440173">
        <ele>168.709</ele>
        <time>1970-01-01T01:00:00Z</time>
      </trkpt>
      <trkpt lat="63.35181533" lon="10.4400465">
        <ele>168.404</ele>
        <time>1970-01-01T01:00:00Z</time>
      </trkpt>
      <trkpt lat="63.35188683" lon="10.4399335">
        <ele>168.404</ele>
        <time>1970-01-01T01:00:00Z</time>
      </trkpt>
      <trkpt lat="63.3519625" lon="10.43983733">
        <ele>168.099</ele>
        <time>1970-01-01T01:00:00Z</time>
      </trkpt>
      <trkpt lat="63.35204233" lon="10.439763">
        <ele>168.099</ele>
        <time>1970-01-01T01:00:00Z</time>
      </trkpt>
      <trkpt lat="63.3521245" lon="10.43970783">
        <ele>167.794</ele>
        <time>1970-01-01T01:00:00Z</time>
      </trkpt>
      <trkpt lat="63.35220767" lon="10.439677">
        <ele>167.794</ele>
        <time>1970-01-01T01:00:00Z</time>
      </trkpt>
      <trkpt lat="63.352294" lon="10.43967817">
        <ele>167.49</ele>
        <time>1970-01-01T01:00:00Z</time>
      </trkpt>
      <trkpt lat="63.3523825" lon="10.43970683">
        <ele>167.49</ele>
        <time>1970-01-01T01:00:00Z</time>
      </trkpt>
      <trkpt lat="63.35247183" lon="10.43975133">
        <ele>167.185</ele>
        <time>1970-01-01T01:00:00Z</time>
      </trkpt>
      <trkpt lat="63.35255767" lon="10.43980117">
        <ele>167.185</ele>
        <time>1970-01-01T01:00:00Z</time>
      </trkpt>
      <trkpt lat="63.35264" lon="10.43986183">
        <ele>166.88</ele>
        <time>1970-01-01T01:00:00Z</time>
      </trkpt>
      <trkpt lat="63.35272017" lon="10.43993667">
        <ele>166.88</ele>
        <time>1970-01-01T01:00:00Z</time>
      </trkpt>
      <trkpt lat="63.35279967" lon="10.4400235">
        <ele>166.575</ele>
        <time>1970-01-01T01:00:00Z</time>
      </trkpt>
      <trkpt lat="63.35288083" lon="10.44011867">
        <ele>166.575</ele>
        <time>1970-01-01T01:00:00Z</time>
      </trkpt>
      <trkpt lat="63.35296217" lon="10.44022533">
        <ele>166.27</ele>
        <time>1970-01-01T01:00:00Z</time>
      </trkpt>
      <trkpt lat="63.35304333" lon="10.44034117">
        <ele>166.27</ele>
        <time>1970-01-01T01:00:00Z</time>
      </trkpt>
      <trkpt lat="63.353121" lon="10.44046967">
        <ele>165.966</ele>
        <time>1970-01-01T01:00:00Z</time>
      </trkpt>
      <trkpt lat="63.353198" lon="10.44059983">
        <ele>165.966</ele>
        <time>1970-01-01T01:00:00Z</time>
      </trkpt>
      <trkpt lat="63.3532745" lon="10.4407325">
        <ele>165.661</ele>
        <time>1970-01-01T01:00:00Z</time>
      </trkpt>
      <trkpt lat="63.35335233" lon="10.44086217">
        <ele>165.661</ele>
        <time>1970-01-01T01:00:00Z</time>
      </trkpt>
      <trkpt lat="63.35343267" lon="10.44098567">
        <ele>165.356</ele>
        <time>1970-01-01T01:00:00Z</time>
      </trkpt>
      <trkpt lat="63.35351567" lon="10.4411015">
        <ele>165.356</ele>
        <time>1970-01-01T01:00:00Z</time>
      </trkpt>
      <trkpt lat="63.35360217" lon="10.44120733">
        <ele>165.051</ele>
        <time>1970-01-01T01:00:00Z</time>
      </trkpt>
      <trkpt lat="63.35369033" lon="10.44130833">
        <ele>165.051</ele>
        <time>1970-01-01T01:00:00Z</time>
      </trkpt>
      <trkpt lat="63.35378067" lon="10.4414085">
        <ele>164.594</ele>
        <time>1970-01-01T01:00:00Z</time>
      </trkpt>
      <trkpt lat="63.3538735" lon="10.44151183">
        <ele>164.594</ele>
        <time>1970-01-01T01:00:00Z</time>
      </trkpt>
      <trkpt lat="63.353967" lon="10.44162833">
        <ele>164.137</ele>
        <time>1970-01-01T01:00:00Z</time>
      </trkpt>
      <trkpt lat="63.35406083" lon="10.4417555">
        <ele>164.137</ele>
        <time>1970-01-01T01:00:00Z</time>
      </trkpt>
      <trkpt lat="63.35415433" lon="10.441891">
        <ele>163.68</ele>
        <time>1970-01-01T01:00:00Z</time>
      </trkpt>
      <trkpt lat="63.3542415" lon="10.4420455">
        <ele>163.68</ele>
        <time>1970-01-01T01:00:00Z</time>
      </trkpt>
      <trkpt lat="63.3543255" lon="10.44221883">
        <ele>163.222</ele>
        <time>1970-01-01T01:00:00Z</time>
      </trkpt>
      <trkpt lat="63.35440467" lon="10.44240367">
        <ele>163.222</ele>
        <time>1970-01-01T01:00:00Z</time>
      </trkpt>
      <trkpt lat="63.35449183" lon="10.442569">
        <ele>162.613</ele>
        <time>1970-01-01T01:00:00Z</time>
      </trkpt>
      <trkpt lat="63.35459017" lon="10.4427025">
        <ele>162.613</ele>
        <time>1970-01-01T01:00:00Z</time>
      </trkpt>
      <trkpt lat="63.35469983" lon="10.442801">
        <ele>162.156</ele>
        <time>1970-01-01T01:00:00Z</time>
      </trkpt>
      <trkpt lat="63.35481683" lon="10.44287617">
        <ele>162.156</ele>
        <time>1970-01-01T01:00:00Z</time>
      </trkpt>
      <trkpt lat="63.35493633" lon="10.4429215">
        <ele>161.546</ele>
        <time>1970-01-01T01:00:00Z</time>
      </trkpt>
      <trkpt lat="63.35505367" lon="10.442944">
        <ele>161.546</ele>
        <time>1970-01-01T01:00:00Z</time>
      </trkpt>
      <trkpt lat="63.35516183" lon="10.44292883">
        <ele>160.936</ele>
        <time>1970-01-01T01:00:00Z</time>
      </trkpt>
      <trkpt lat="63.355261" lon="10.44289333">
        <ele>160.936</ele>
        <time>1970-01-01T01:00:00Z</time>
      </trkpt>
      <trkpt lat="63.35535617" lon="10.44283833">
        <ele>160.327</ele>
        <time>1970-01-01T01:00:00Z</time>
      </trkpt>
      <trkpt lat="63.3554555" lon="10.44278317">
        <ele>160.327</ele>
        <time>1970-01-01T01:00:00Z</time>
      </trkpt>
      <trkpt lat="63.35555483" lon="10.44272117">
        <ele>159.565</ele>
        <time>1970-01-01T01:00:00Z</time>
      </trkpt>
      <trkpt lat="63.35565583" lon="10.4426515">
        <ele>159.565</ele>
        <time>1970-01-01T01:00:00Z</time>
      </trkpt>
      <trkpt lat="63.35575383" lon="10.44255617">
        <ele>158.955</ele>
        <time>1970-01-01T01:00:00Z</time>
      </trkpt>
      <trkpt lat="63.35584833" lon="10.44243017">
        <ele>158.955</ele>
        <time>1970-01-01T01:00:00Z</time>
      </trkpt>
      <trkpt lat="63.35593583" lon="10.44227183">
        <ele>158.346</ele>
        <time>1970-01-01T01:00:00Z</time>
      </trkpt>
      <trkpt lat="63.35602083" lon="10.442096">
        <ele>158.346</ele>
        <time>1970-01-01T01:00:00Z</time>
      </trkpt>
      <trkpt lat="63.3561055" lon="10.44191467">
        <ele>157.584</ele>
        <time>1970-01-01T01:00:00Z</time>
      </trkpt>
      <trkpt lat="63.35619233" lon="10.44173483">
        <ele>157.584</ele>
        <time>1970-01-01T01:00:00Z</time>
      </trkpt>
      <trkpt lat="63.35627883" lon="10.44156267">
        <ele>156.822</ele>
        <time>1970-01-01T01:00:00Z</time>
      </trkpt>
      <trkpt lat="63.35636567" lon="10.44140217">
        <ele>156.822</ele>
        <time>1970-01-01T01:00:00Z</time>
      </trkpt>
      <trkpt lat="63.35645367" lon="10.44125983">
        <ele>156.059</ele>
        <time>1970-01-01T01:00:00Z</time>
      </trkpt>
      <trkpt lat="63.35654467" lon="10.44113967">
        <ele>156.059</ele>
        <time>1970-01-01T01:00:00Z</time>
      </trkpt>
      <trkpt lat="63.356638" lon="10.441044">
        <ele>155.297</ele>
        <time>1970-01-01T01:00:00Z</time>
      </trkpt>
      <trkpt lat="63.35673317" lon="10.440972">
        <ele>155.297</ele>
        <time>1970-01-01T01:00:00Z</time>
      </trkpt>
      <trkpt lat="63.35682867" lon="10.44092467">
        <ele>154.535</ele>
        <time>1970-01-01T01:00:00Z</time>
      </trkpt>
      <trkpt lat="63.35692283" lon="10.4408915">
        <ele>154.535</ele>
        <time>1970-01-01T01:00:00Z</time>
      </trkpt>
      <trkpt lat="63.35701567" lon="10.440859">
        <ele>153.773</ele>
        <time>1970-01-01T01:00:00Z</time>
      </trkpt>
      <trkpt lat="63.35710783" lon="10.44081533">
        <ele>153.773</ele>
        <time>1970-01-01T01:00:00Z</time>
      </trkpt>
      <trkpt lat="63.35720217" lon="10.44077217">
        <ele>152.859</ele>
        <time>1970-01-01T01:00:00Z</time>
      </trkpt>
      <trkpt lat="63.35729933" lon="10.44074417">
        <ele>152.859</ele>
        <time>1970-01-01T01:00:00Z</time>
      </trkpt>
      <trkpt lat="63.35739733" lon="10.44075433">
        <ele>152.097</ele>
        <time>1970-01-01T01:00:00Z</time>
      </trkpt>
      <trkpt lat="63.35749283" lon="10.4407955">
        <ele>152.097</ele>
        <time>1970-01-01T01:00:00Z</time>
      </trkpt>
      <trkpt lat="63.35758383" lon="10.44085767">
        <ele>151.335</ele>
        <time>1970-01-01T01:00:00Z</time>
      </trkpt>
      <trkpt lat="63.3576715" lon="10.44091733">
        <ele>151.335</ele>
        <time>1970-01-01T01:00:00Z</time>
      </trkpt>
      <trkpt lat="63.35775767" lon="10.44097233">
        <ele>150.573</ele>
        <time>1970-01-01T01:00:00Z</time>
      </trkpt>
      <trkpt lat="63.357843" lon="10.44102367">
        <ele>150.573</ele>
        <time>1970-01-01T01:00:00Z</time>
      </trkpt>
      <trkpt lat="63.35792783" lon="10.4410735">
        <ele>149.811</ele>
        <time>1970-01-01T01:00:00Z</time>
      </trkpt>
      <trkpt lat="63.358012" lon="10.44112317">
        <ele>149.811</ele>
        <time>1970-01-01T01:00:00Z</time>
      </trkpt>
      <trkpt lat="63.35809633" lon="10.441172">
        <ele>149.049</ele>
        <time>1970-01-01T01:00:00Z</time>
      </trkpt>
      <trkpt lat="63.3581815" lon="10.44122017">
        <ele>149.049</ele>
        <time>1970-01-01T01:00:00Z</time>
      </trkpt>
      <trkpt lat="63.35826717" lon="10.44126817">
        <ele>148.287</ele>
        <time>1970-01-01T01:00:00Z</time>
      </trkpt>
      <trkpt lat="63.3583535" lon="10.44131967">
        <ele>148.287</ele>
        <time>1970-01-01T01:00:00Z</time>
      </trkpt>
      <trkpt lat="63.35844" lon="10.44137383">
        <ele>147.525</ele>
        <time>1970-01-01T01:00:00Z</time>
      </trkpt>
      <trkpt lat="63.35852733" lon="10.44142767">
        <ele>147.525</ele>
        <time>1970-01-01T01:00:00Z</time>
      </trkpt>
      <trkpt lat="63.358615" lon="10.44147867">
        <ele>146.763</ele>
        <time>1970-01-01T01:00:00Z</time>
      </trkpt>
      <trkpt lat="63.3587035" lon="10.4415265">
        <ele>146.763</ele>
        <time>1970-01-01T01:00:00Z</time>
      </trkpt>
      <trkpt lat="63.3587915" lon="10.441575">
        <ele>146.001</ele>
        <time>1970-01-01T01:00:00Z</time>
      </trkpt>
      <trkpt lat="63.3588795" lon="10.44162333">
        <ele>146.001</ele>
        <time>1970-01-01T01:00:00Z</time>
      </trkpt>
      <trkpt lat="63.35896683" lon="10.44167217">
        <ele>145.391</ele>
        <time>1970-01-01T01:00:00Z</time>
      </trkpt>
      <trkpt lat="63.35905417" lon="10.441721">
        <ele>145.391</ele>
        <time>1970-01-01T01:00:00Z</time>
      </trkpt>
      <trkpt lat="63.35914067" lon="10.441772">
        <ele>144.629</ele>
        <time>1970-01-01T01:00:00Z</time>
      </trkpt>
      <trkpt lat="63.35922683" lon="10.44182717">
        <ele>144.629</ele>
        <time>1970-01-01T01:00:00Z</time>
      </trkpt>
      <trkpt lat="63.35931217" lon="10.441887">
        <ele>144.02</ele>
        <time>1970-01-01T01:00:00Z</time>
      </trkpt>
      <trkpt lat="63.35939733" lon="10.441952">
        <ele>144.02</ele>
        <time>1970-01-01T01:00:00Z</time>
      </trkpt>
      <trkpt lat="63.35948233" lon="10.4420205">
        <ele>143.258</ele>
        <time>1970-01-01T01:00:00Z</time>
      </trkpt>
      <trkpt lat="63.35956717" lon="10.44209183">
        <ele>143.258</ele>
        <time>1970-01-01T01:00:00Z</time>
      </trkpt>
      <trkpt lat="63.3596515" lon="10.442166">
        <ele>142.648</ele>
        <time>1970-01-01T01:00:00Z</time>
      </trkpt>
      <trkpt lat="63.3597355" lon="10.4422435">
        <ele>142.648</ele>
        <time>1970-01-01T01:00:00Z</time>
      </trkpt>
      <trkpt lat="63.35981917" lon="10.44232483">
        <ele>142.039</ele>
        <time>1970-01-01T01:00:00Z</time>
      </trkpt>
      <trkpt lat="63.35990233" lon="10.44240983">
        <ele>142.039</ele>
        <time>1970-01-01T01:00:00Z</time>
      </trkpt>
      <trkpt lat="63.3599845" lon="10.442499">
        <ele>141.277</ele>
        <time>1970-01-01T01:00:00Z</time>
      </trkpt>
      <trkpt lat="63.36006517" lon="10.4425905">
        <ele>141.277</ele>
        <time>1970-01-01T01:00:00Z</time>
      </trkpt>
      <trkpt lat="63.36014467" lon="10.44268167">
        <ele>140.667</ele>
        <time>1970-01-01T01:00:00Z</time>
      </trkpt>
      <trkpt lat="63.36022267" lon="10.44277017">
        <ele>140.667</ele>
        <time>1970-01-01T01:00:00Z</time>
      </trkpt>
      <trkpt lat="63.36029867" lon="10.44285583">
        <ele>140.057</ele>
        <time>1970-01-01T01:00:00Z</time>
      </trkpt>
      <trkpt lat="63.36037167" lon="10.44293933">
        <ele>140.057</ele>
        <time>1970-01-01T01:00:00Z</time>
      </trkpt>
      <trkpt lat="63.36044167" lon="10.4430205">
        <ele>139.448</ele>
        <time>1970-01-01T01:00:00Z</time>
      </trkpt>
      <trkpt lat="63.36050833" lon="10.44309967">
        <ele>139.448</ele>
        <time>1970-01-01T01:00:00Z</time>
      </trkpt>
      <trkpt lat="63.360572" lon="10.4431755">
        <ele>138.838</ele>
        <time>1970-01-01T01:00:00Z</time>
      </trkpt>
      <trkpt lat="63.360633" lon="10.44324783">
        <ele>138.838</ele>
        <time>1970-01-01T01:00:00Z</time>
      </trkpt>
      <trkpt lat="63.3606915" lon="10.44331733">
        <ele>138.381</ele>
        <time>1970-01-01T01:00:00Z</time>
      </trkpt>
      <trkpt lat="63.36074767" lon="10.44338367">
        <ele>138.381</ele>
        <time>1970-01-01T01:00:00Z</time>
      </trkpt>
      <trkpt lat="63.360801" lon="10.44344633">
        <ele>137.771</ele>
        <time>1970-01-01T01:00:00Z</time>
      </trkpt>
      <trkpt lat="63.3608515" lon="10.44350433">
        <ele>137.771</ele>
        <time>1970-01-01T01:00:00Z</time>
      </trkpt>
      <trkpt lat="63.36089917" lon="10.44355833">
        <ele>137.314</ele>
        <time>1970-01-01T01:00:00Z</time>
      </trkpt>
      <trkpt lat="63.36094433" lon="10.4436095">
        <ele>137.314</ele>
        <time>1970-01-01T01:00:00Z</time>
      </trkpt>
      <trkpt lat="63.360987" lon="10.44365967">
        <ele>136.857</ele>
        <time>1970-01-01T01:00:00Z</time>
      </trkpt>
      <trkpt lat="63.361028" lon="10.443709">
        <ele>136.857</ele>
        <time>1970-01-01T01:00:00Z</time>
      </trkpt>
      <trkpt lat="63.36106767" lon="10.44375717">
        <ele>136.552</ele>
        <time>1970-01-01T01:00:00Z</time>
      </trkpt>
      <trkpt lat="63.3611065" lon="10.44380333">
        <ele>136.552</ele>
        <time>1970-01-01T01:00:00Z</time>
      </trkpt>
      <trkpt lat="63.36114517" lon="10.4438475">
        <ele>136.095</ele>
        <time>1970-01-01T01:00:00Z</time>
      </trkpt>
      <trkpt lat="63.36118367" lon="10.44389133">
        <ele>136.095</ele>
        <time>1970-01-01T01:00:00Z</time>
      </trkpt>
      <trkpt lat="63.36122217" lon="10.443936">
        <ele>135.79</ele>
        <time>1970-01-01T01:00:00Z</time>
      </trkpt>
      <trkpt lat="63.3612605" lon="10.44398033">
        <ele>135.79</ele>
        <time>1970-01-01T01:00:00Z</time>
      </trkpt>
      <trkpt lat="63.36129917" lon="10.44402333">
        <ele>135.485</ele>
        <time>1970-01-01T01:00:00Z</time>
      </trkpt>
      <trkpt lat="63.36133783" lon="10.44406567">
        <ele>135.485</ele>
        <time>1970-01-01T01:00:00Z</time>
      </trkpt>
      <trkpt lat="63.36137583" lon="10.44410867">
        <ele>135.18</ele>
        <time>1970-01-01T01:00:00Z</time>
      </trkpt>
      <trkpt lat="63.36141367" lon="10.44415233">
        <ele>135.18</ele>
        <time>1970-01-01T01:00:00Z</time>
      </trkpt>
      <trkpt lat="63.36145117" lon="10.444196">
        <ele>134.876</ele>
        <time>1970-01-01T01:00:00Z</time>
      </trkpt>
      <trkpt lat="63.3614885" lon="10.44423883">
        <ele>134.876</ele>
        <time>1970-01-01T01:00:00Z</time>
      </trkpt>
      <trkpt lat="63.36152567" lon="10.44428133">
        <ele>134.723</ele>
        <time>1970-01-01T01:00:00Z</time>
      </trkpt>
      <trkpt lat="63.36156283" lon="10.44432417">
        <ele>134.723</ele>
        <time>1970-01-01T01:00:00Z</time>
      </trkpt>
      <trkpt lat="63.36159983" lon="10.44436783">
        <ele>134.418</ele>
        <time>1970-01-01T01:00:00Z</time>
      </trkpt>
      <trkpt lat="63.36163717" lon="10.44441083">
        <ele>134.418</ele>
        <time>1970-01-01T01:00:00Z</time>
      </trkpt>
      <trkpt lat="63.361675" lon="10.44445267">
        <ele>134.266</ele>
        <time>1970-01-01T01:00:00Z</time>
      </trkpt>
      <trkpt lat="63.3617135" lon="10.44449367">
        <ele>134.266</ele>
        <time>1970-01-01T01:00:00Z</time>
      </trkpt>
      <trkpt lat="63.3617525" lon="10.44453367">
        <ele>134.114</ele>
        <time>1970-01-01T01:00:00Z</time>
      </trkpt>
      <trkpt lat="63.36179183" lon="10.4445725">
        <ele>134.114</ele>
        <time>1970-01-01T01:00:00Z</time>
      </trkpt>
      <trkpt lat="63.36183133" lon="10.44461067">
        <ele>133.961</ele>
        <time>1970-01-01T01:00:00Z</time>
      </trkpt>
      <trkpt lat="63.36187117" lon="10.44464783">
        <ele>133.961</ele>
        <time>1970-01-01T01:00:00Z</time>
      </trkpt>
      <trkpt lat="63.3619115" lon="10.44468367">
        <ele>133.809</ele>
        <time>1970-01-01T01:00:00Z</time>
      </trkpt>
      <trkpt lat="63.361952" lon="10.4447175">
        <ele>133.809</ele>
        <time>1970-01-01T01:00:00Z</time>
      </trkpt>
      <trkpt lat="63.3619925" lon="10.44474933">
        <ele>133.656</ele>
        <time>1970-01-01T01:00:00Z</time>
      </trkpt>
      <trkpt lat="63.36203333" lon="10.44477883">
        <ele>133.656</ele>
        <time>1970-01-01T01:00:00Z</time>
      </trkpt>
      <trkpt lat="63.36207467" lon="10.44480683">
        <ele>133.656</ele>
        <time>1970-01-01T01:00:00Z</time>
      </trkpt>
      <trkpt lat="63.36211633" lon="10.44483433">
        <ele>133.656</ele>
        <time>1970-01-01T01:00:00Z</time>
      </trkpt>
      <trkpt lat="63.36215833" lon="10.44486117">
        <ele>133.504</ele>
        <time>1970-01-01T01:00:00Z</time>
      </trkpt>
      <trkpt lat="63.36220083" lon="10.44488617">
        <ele>133.504</ele>
        <time>1970-01-01T01:00:00Z</time>
      </trkpt>
      <trkpt lat="63.362244" lon="10.44490933">
        <ele>133.504</ele>
        <time>1970-01-01T01:00:00Z</time>
      </trkpt>
      <trkpt lat="63.36228767" lon="10.44493083">
        <ele>133.504</ele>
        <time>1970-01-01T01:00:00Z</time>
      </trkpt>
      <trkpt lat="63.36233133" lon="10.444951">
        <ele>133.504</ele>
        <time>1970-01-01T01:00:00Z</time>
      </trkpt>
      <trkpt lat="63.362375" lon="10.44497083">
        <ele>133.504</ele>
        <time>1970-01-01T01:00:00Z</time>
      </trkpt>
      <trkpt lat="63.36241833" lon="10.4449915">
        <ele>133.352</ele>
        <time>1970-01-01T01:00:00Z</time>
      </trkpt>
      <trkpt lat="63.3624615" lon="10.44501117">
        <ele>133.352</ele>
        <time>1970-01-01T01:00:00Z</time>
      </trkpt>
      <trkpt lat="63.36250467" lon="10.44502783">
        <ele>133.352</ele>
        <time>1970-01-01T01:00:00Z</time>
      </trkpt>
      <trkpt lat="63.36254833" lon="10.44504117">
        <ele>133.352</ele>
        <time>1970-01-01T01:00:00Z</time>
      </trkpt>
      <trkpt lat="63.3625925" lon="10.44505233">
        <ele>133.352</ele>
        <time>1970-01-01T01:00:00Z</time>
      </trkpt>
      <trkpt lat="63.36263667" lon="10.4450625">
        <ele>133.352</ele>
        <time>1970-01-01T01:00:00Z</time>
      </trkpt>
      <trkpt lat="63.36268117" lon="10.445071">
        <ele>133.352</ele>
        <time>1970-01-01T01:00:00Z</time>
      </trkpt>
      <trkpt lat="63.36272567" lon="10.445079">
        <ele>133.352</ele>
        <time>1970-01-01T01:00:00Z</time>
      </trkpt>
      <trkpt lat="63.36277017" lon="10.4450855">
        <ele>133.352</ele>
        <time>1970-01-01T01:00:00Z</time>
      </trkpt>
      <trkpt lat="63.36281467" lon="10.44509">
        <ele>133.352</ele>
        <time>1970-01-01T01:00:00Z</time>
      </trkpt>
      <trkpt lat="63.36285917" lon="10.44509183">
        <ele>133.352</ele>
        <time>1970-01-01T01:00:00Z</time>
      </trkpt>
      <trkpt lat="63.362904" lon="10.44509133">
        <ele>133.352</ele>
        <time>1970-01-01T01:00:00Z</time>
      </trkpt>
      <trkpt lat="63.36294917" lon="10.44508817">
        <ele>133.352</ele>
        <time>1970-01-01T01:00:00Z</time>
      </trkpt>
      <trkpt lat="63.36299467" lon="10.44508233">
        <ele>133.352</ele>
        <time>1970-01-01T01:00:00Z</time>
      </trkpt>
      <trkpt lat="63.3630405" lon="10.44507467">
        <ele>133.504</ele>
        <time>1970-01-01T01:00:00Z</time>
      </trkpt>
      <trkpt lat="63.3630865" lon="10.4450665">
        <ele>133.504</ele>
        <time>1970-01-01T01:00:00Z</time>
      </trkpt>
      <trkpt lat="63.36313233" lon="10.44505717">
        <ele>133.504</ele>
        <time>1970-01-01T01:00:00Z</time>
      </trkpt>
      <trkpt lat="63.36317817" lon="10.44504667">
        <ele>133.504</ele>
        <time>1970-01-01T01:00:00Z</time>
      </trkpt>
      <trkpt lat="63.36322383" lon="10.445034">
        <ele>133.504</ele>
        <time>1970-01-01T01:00:00Z</time>
      </trkpt>
      <trkpt lat="63.36326917" lon="10.445019">
        <ele>133.504</ele>
        <time>1970-01-01T01:00:00Z</time>
      </trkpt>
      <trkpt lat="63.36331383" lon="10.44500217">
        <ele>133.504</ele>
        <time>1970-01-01T01:00:00Z</time>
      </trkpt>
      <trkpt lat="63.36335733" lon="10.4449845">
        <ele>133.504</ele>
        <time>1970-01-01T01:00:00Z</time>
      </trkpt>
      <trkpt lat="63.36339933" lon="10.44496517">
        <ele>133.656</ele>
        <time>1970-01-01T01:00:00Z</time>
      </trkpt>
      <trkpt lat="63.36343983" lon="10.444944">
        <ele>133.656</ele>
        <time>1970-01-01T01:00:00Z</time>
      </trkpt>
      <trkpt lat="63.36347933" lon="10.444923">
        <ele>133.656</ele>
        <time>1970-01-01T01:00:00Z</time>
      </trkpt>
      <trkpt lat="63.36351817" lon="10.44490433">
        <ele>133.656</ele>
        <time>1970-01-01T01:00:00Z</time>
      </trkpt>
      <trkpt lat="63.36355617" lon="10.44488667">
        <ele>133.656</ele>
        <time>1970-01-01T01:00:00Z</time>
      </trkpt>
      <trkpt lat="63.363594" lon="10.44486667">
        <ele>133.656</ele>
        <time>1970-01-01T01:00:00Z</time>
      </trkpt>
      <trkpt lat="63.363632" lon="10.44484383">
        <ele>133.809</ele>
        <time>1970-01-01T01:00:00Z</time>
      </trkpt>
      <trkpt lat="63.36367017" lon="10.44482183">
        <ele>133.809</ele>
        <time>1970-01-01T01:00:00Z</time>
      </trkpt>
      <trkpt lat="63.36370833" lon="10.444801">
        <ele>133.809</ele>
        <time>1970-01-01T01:00:00Z</time>
      </trkpt>
      <trkpt lat="63.36374583" lon="10.444781">
        <ele>133.809</ele>
        <time>1970-01-01T01:00:00Z</time>
      </trkpt>
      <trkpt lat="63.363782" lon="10.44475833">
        <ele>133.809</ele>
        <time>1970-01-01T01:00:00Z</time>
      </trkpt>
      <trkpt lat="63.36381683" lon="10.444735">
        <ele>133.809</ele>
        <time>1970-01-01T01:00:00Z</time>
      </trkpt>
      <trkpt lat="63.3638505" lon="10.44471183">
        <ele>133.809</ele>
        <time>1970-01-01T01:00:00Z</time>
      </trkpt>
      <trkpt lat="63.36388383" lon="10.44469067">
        <ele>133.809</ele>
        <time>1970-01-01T01:00:00Z</time>
      </trkpt>
      <trkpt lat="63.36391683" lon="10.444671">
        <ele>133.961</ele>
        <time>1970-01-01T01:00:00Z</time>
      </trkpt>
      <trkpt lat="63.36394933" lon="10.44465033">
        <ele>133.961</ele>
        <time>1970-01-01T01:00:00Z</time>
      </trkpt>
      <trkpt lat="63.36398183" lon="10.444629">
        <ele>133.961</ele>
        <time>1970-01-01T01:00:00Z</time>
      </trkpt>
      <trkpt lat="63.36401467" lon="10.4446075">
        <ele>133.961</ele>
        <time>1970-01-01T01:00:00Z</time>
      </trkpt>
      <trkpt lat="63.36404817" lon="10.44458767">
        <ele>133.961</ele>
        <time>1970-01-01T01:00:00Z</time>
      </trkpt>
      <trkpt lat="63.36408217" lon="10.44456933">
        <ele>133.961</ele>
        <time>1970-01-01T01:00:00Z</time>
      </trkpt>
      <trkpt lat="63.36411667" lon="10.44455133">
        <ele>133.961</ele>
        <time>1970-01-01T01:00:00Z</time>
      </trkpt>
      <trkpt lat="63.36415117" lon="10.44453267">
        <ele>133.961</ele>
        <time>1970-01-01T01:00:00Z</time>
      </trkpt>
      <trkpt lat="63.36418483" lon="10.44451183">
        <ele>134.114</ele>
        <time>1970-01-01T01:00:00Z</time>
      </trkpt>
      <trkpt lat="63.364218" lon="10.44449">
        <ele>134.114</ele>
        <time>1970-01-01T01:00:00Z</time>
      </trkpt>
      <trkpt lat="63.36425133" lon="10.4444685">
        <ele>134.114</ele>
        <time>1970-01-01T01:00:00Z</time>
      </trkpt>
      <trkpt lat="63.36428467" lon="10.44444833">
        <ele>134.114</ele>
        <time>1970-01-01T01:00:00Z</time>
      </trkpt>
      <trkpt lat="63.36431717" lon="10.4444285">
        <ele>134.114</ele>
        <time>1970-01-01T01:00:00Z</time>
      </trkpt>
      <trkpt lat="63.36434867" lon="10.44440833">
        <ele>134.114</ele>
        <time>1970-01-01T01:00:00Z</time>
      </trkpt>
      <trkpt lat="63.3643795" lon="10.4443875">
        <ele>134.114</ele>
        <time>1970-01-01T01:00:00Z</time>
      </trkpt>
      <trkpt lat="63.36441083" lon="10.444368">
        <ele>134.114</ele>
        <time>1970-01-01T01:00:00Z</time>
      </trkpt>
      <trkpt lat="63.36444267" lon="10.44434933">
        <ele>134.266</ele>
        <time>1970-01-01T01:00:00Z</time>
      </trkpt>
      <trkpt lat="63.36447417" lon="10.44433067">
        <ele>134.266</ele>
        <time>1970-01-01T01:00:00Z</time>
      </trkpt>
      <trkpt lat="63.36450517" lon="10.4443105">
        <ele>134.266</ele>
        <time>1970-01-01T01:00:00Z</time>
      </trkpt>
      <trkpt lat="63.36453583" lon="10.44429033">
        <ele>134.266</ele>
        <time>1970-01-01T01:00:00Z</time>
      </trkpt>
      <trkpt lat="63.36456617" lon="10.44427067">
        <ele>134.266</ele>
        <time>1970-01-01T01:00:00Z</time>
      </trkpt>
      <trkpt lat="63.3645965" lon="10.444251">
        <ele>134.266</ele>
        <time>1970-01-01T01:00:00Z</time>
      </trkpt>
      <trkpt lat="63.364627" lon="10.44423033">
        <ele>134.418</ele>
        <time>1970-01-01T01:00:00Z</time>
      </trkpt>
      <trkpt lat="63.36465733" lon="10.44421">
        <ele>134.418</ele>
        <time>1970-01-01T01:00:00Z</time>
      </trkpt>
      <trkpt lat="63.364687" lon="10.44419033">
        <ele>134.418</ele>
        <time>1970-01-01T01:00:00Z</time>
      </trkpt>
      <trkpt lat="63.364716" lon="10.444172">
        <ele>134.418</ele>
        <time>1970-01-01T01:00:00Z</time>
      </trkpt>
      <trkpt lat="63.364744" lon="10.4441565">
        <ele>134.418</ele>
        <time>1970-01-01T01:00:00Z</time>
      </trkpt>
      <trkpt lat="63.364771" lon="10.44414167">
        <ele>134.418</ele>
        <time>1970-01-01T01:00:00Z</time>
      </trkpt>
      <trkpt lat="63.36479717" lon="10.44412833">
        <ele>134.571</ele>
        <time>1970-01-01T01:00:00Z</time>
      </trkpt>
      <trkpt lat="63.36482233" lon="10.44411833">
        <ele>134.571</ele>
        <time>1970-01-01T01:00:00Z</time>
      </trkpt>
      <trkpt lat="63.36484633" lon="10.44411367">
        <ele>134.571</ele>
        <time>1970-01-01T01:00:00Z</time>
      </trkpt>
      <trkpt lat="63.364868" lon="10.44411317">
        <ele>134.571</ele>
        <time>1970-01-01T01:00:00Z</time>
      </trkpt>
      <trkpt lat="63.3648855" lon="10.4441115">
        <ele>134.571</ele>
        <time>1970-01-01T01:00:00Z</time>
      </trkpt>
      <trkpt lat="63.3648955" lon="10.44411233">
        <ele>134.571</ele>
        <time>1970-01-01T01:00:00Z</time>
      </trkpt>
      <trkpt lat="63.3648995" lon="10.4441135">
        <ele>134.723</ele>
        <time>1970-01-01T01:00:00Z</time>
      </trkpt>
      <trkpt lat="63.3648995" lon="10.44411567">
        <ele>134.723</ele>
        <time>1970-01-01T01:00:00Z</time>
      </trkpt>
      <trkpt lat="63.36489983" lon="10.44411467">
        <ele>134.723</ele>
        <time>1970-01-01T01:00:00Z</time>
      </trkpt>
      <trkpt lat="63.3648985" lon="10.444116">
        <ele>134.723</ele>
        <time>1970-01-01T01:00:00Z</time>
      </trkpt>
      <trkpt lat="63.36489667" lon="10.44411733">
        <ele>134.723</ele>
        <time>1970-01-01T01:00:00Z</time>
      </trkpt>
      <trkpt lat="63.36489417" lon="10.4441195">
        <ele>134.723</ele>
        <time>1970-01-01T01:00:00Z</time>
      </trkpt>
      <trkpt lat="63.36489333" lon="10.44412017">
        <ele>134.723</ele>
        <time>1970-01-01T01:00:00Z</time>
      </trkpt>
      <trkpt lat="63.36489283" lon="10.44412033">
        <ele>134.723</ele>
        <time>1970-01-01T01:00:00Z</time>
      </trkpt>
      <trkpt lat="63.36489233" lon="10.44412017">
        <ele>134.723</ele>
        <time>1970-01-01T01:00:00Z</time>
      </trkpt>
      <trkpt lat="63.364892" lon="10.44411917">
        <ele>134.723</ele>
        <time>1970-01-01T01:00:00Z</time>
      </trkpt>
      <trkpt lat="63.3648915" lon="10.44411783">
        <ele>134.876</ele>
        <time>1970-01-01T01:00:00Z</time>
      </trkpt>
      <trkpt lat="63.36489117" lon="10.44411633">
        <ele>134.876</ele>
        <time>1970-01-01T01:00:00Z</time>
      </trkpt>
      <trkpt lat="63.36489067" lon="10.44411467">
        <ele>134.876</ele>
        <time>1970-01-01T01:00:00Z</time>
      </trkpt>
      <trkpt lat="63.36489033" lon="10.444113">
        <ele>134.876</ele>
        <time>1970-01-01T01:00:00Z</time>
      </trkpt>
      <trkpt lat="63.36489" lon="10.444112">
        <ele>134.876</ele>
        <time>1970-01-01T01:00:00Z</time>
      </trkpt>
      <trkpt lat="63.36488983" lon="10.4441115">
        <ele>134.876</ele>
        <time>1970-01-01T01:00:00Z</time>
      </trkpt>
      <trkpt lat="63.36489" lon="10.44411167">
        <ele>134.876</ele>
        <time>1970-01-01T01:00:00Z</time>
      </trkpt>
      <trkpt lat="63.36489017" lon="10.44411217">
        <ele>134.876</ele>
        <time>1970-01-01T01:00:00Z</time>
      </trkpt>
      <trkpt lat="63.36489" lon="10.4441125">
        <ele>134.876</ele>
        <time>1970-01-01T01:00:00Z</time>
      </trkpt>
      <trkpt lat="63.36488967" lon="10.44411233">
        <ele>134.876</ele>
        <time>1970-01-01T01:00:00Z</time>
      </trkpt>
      <trkpt lat="63.364889" lon="10.4441115">
        <ele>135.028</ele>
        <time>1970-01-01T01:00:00Z</time>
      </trkpt>
      <trkpt lat="63.36488833" lon="10.44411017">
        <ele>135.028</ele>
        <time>1970-01-01T01:00:00Z</time>
      </trkpt>
      <trkpt lat="63.364888" lon="10.44410817">
        <ele>135.028</ele>
        <time>1970-01-01T01:00:00Z</time>
      </trkpt>
      <trkpt lat="63.3648875" lon="10.44410683">
        <ele>135.028</ele>
        <time>1970-01-01T01:00:00Z</time>
      </trkpt>
      <trkpt lat="63.364888" lon="10.444106">
        <ele>135.028</ele>
        <time>1970-01-01T01:00:00Z</time>
      </trkpt>
      <trkpt lat="63.36488867" lon="10.44410617">
        <ele>135.028</ele>
        <time>1970-01-01T01:00:00Z</time>
      </trkpt>
      <trkpt lat="63.36488917" lon="10.44410583">
        <ele>135.028</ele>
        <time>1970-01-01T01:00:00Z</time>
      </trkpt>
      <trkpt lat="63.364889" lon="10.44410583">
        <ele>135.028</ele>
        <time>1970-01-01T01:00:00Z</time>
      </trkpt>
      <trkpt lat="63.36488867" lon="10.444105">
        <ele>135.028</ele>
        <time>1970-01-01T01:00:00Z</time>
      </trkpt>
      <trkpt lat="63.3648885" lon="10.4441045">
        <ele>135.028</ele>
        <time>1970-01-01T01:00:00Z</time>
      </trkpt>
      <trkpt lat="63.36489033" lon="10.44410283">
        <ele>135.18</ele>
        <time>1970-01-01T01:00:00Z</time>
      </trkpt>
      <trkpt lat="63.364892" lon="10.44410117">
        <ele>135.18</ele>
        <time>1970-01-01T01:00:00Z</time>
      </trkpt>
      <trkpt lat="63.36489417" lon="10.44409983">
        <ele>135.18</ele>
        <time>1970-01-01T01:00:00Z</time>
      </trkpt>
      <trkpt lat="63.3648945" lon="10.44410017">
        <ele>135.18</ele>
        <time>1970-01-01T01:00:00Z</time>
      </trkpt>
      <trkpt lat="63.36489517" lon="10.4441015">
        <ele>135.18</ele>
        <time>1970-01-01T01:00:00Z</time>
      </trkpt>
      <trkpt lat="63.364896" lon="10.4441025">
        <ele>135.18</ele>
        <time>1970-01-01T01:00:00Z</time>
      </trkpt>
      <trkpt lat="63.36489683" lon="10.44410367">
        <ele>135.18</ele>
        <time>1970-01-01T01:00:00Z</time>
      </trkpt>
      <trkpt lat="63.364896" lon="10.444105">
        <ele>135.18</ele>
        <time>1970-01-01T01:00:00Z</time>
      </trkpt>
      <trkpt lat="63.3648945" lon="10.44410583">
        <ele>135.18</ele>
        <time>1970-01-01T01:00:00Z</time>
      </trkpt>
      <trkpt lat="63.36489283" lon="10.44410667">
        <ele>135.18</ele>
        <time>1970-01-01T01:00:00Z</time>
      </trkpt>
      <trkpt lat="63.36489233" lon="10.444106">
        <ele>135.18</ele>
        <time>1970-01-01T01:00:00Z</time>
      </trkpt>
      <trkpt lat="63.36489217" lon="10.44410533">
        <ele>135.18</ele>
        <time>1970-01-01T01:00:00Z</time>
      </trkpt>
      <trkpt lat="63.36489233" lon="10.444104">
        <ele>135.18</ele>
        <time>1970-01-01T01:00:00Z</time>
      </trkpt>
      <trkpt lat="63.3648925" lon="10.44410317">
        <ele>135.18</ele>
        <time>1970-01-01T01:00:00Z</time>
      </trkpt>
      <trkpt lat="63.3648925" lon="10.44410217">
        <ele>135.333</ele>
        <time>1970-01-01T01:00:00Z</time>
      </trkpt>
      <trkpt lat="63.3648925" lon="10.44410133">
        <ele>135.333</ele>
        <time>1970-01-01T01:00:00Z</time>
      </trkpt>
      <trkpt lat="63.3648925" lon="10.44410033">
        <ele>135.333</ele>
        <time>1970-01-01T01:00:00Z</time>
      </trkpt>
      <trkpt lat="63.36489233" lon="10.44409933">
        <ele>135.333</ele>
        <time>1970-01-01T01:00:00Z</time>
      </trkpt>
      <trkpt lat="63.36489217" lon="10.44409833">
        <ele>135.333</ele>
        <time>1970-01-01T01:00:00Z</time>
      </trkpt>
      <trkpt lat="63.364892" lon="10.44409767">
        <ele>135.333</ele>
        <time>1970-01-01T01:00:00Z</time>
      </trkpt>
      <trkpt lat="63.364892" lon="10.44409733">
        <ele>135.333</ele>
        <time>1970-01-01T01:00:00Z</time>
      </trkpt>
      <trkpt lat="63.364892" lon="10.44409733">
        <ele>135.333</ele>
        <time>1970-01-01T01:00:00Z</time>
      </trkpt>
      <trkpt lat="63.36489183" lon="10.44409717">
        <ele>135.333</ele>
        <time>1970-01-01T01:00:00Z</time>
      </trkpt>
      <trkpt lat="63.36489167" lon="10.4440965">
        <ele>135.333</ele>
        <time>1970-01-01T01:00:00Z</time>
      </trkpt>
      <trkpt lat="63.36489117" lon="10.44409633">
        <ele>135.333</ele>
        <time>1970-01-01T01:00:00Z</time>
      </trkpt>
      <trkpt lat="63.36489067" lon="10.444096">
        <ele>135.333</ele>
        <time>1970-01-01T01:00:00Z</time>
      </trkpt>
      <trkpt lat="63.36489033" lon="10.44409617">
        <ele>135.333</ele>
        <time>1970-01-01T01:00:00Z</time>
      </trkpt>
      <trkpt lat="63.36489033" lon="10.44409583">
        <ele>135.333</ele>
        <time>1970-01-01T01:00:00Z</time>
      </trkpt>
      <trkpt lat="63.36489017" lon="10.44409567">
        <ele>135.485</ele>
        <time>1970-01-01T01:00:00Z</time>
      </trkpt>
      <trkpt lat="63.36489017" lon="10.444095">
        <ele>135.485</ele>
        <time>1970-01-01T01:00:00Z</time>
      </trkpt>
      <trkpt lat="63.36489017" lon="10.44409417">
        <ele>135.485</ele>
        <time>1970-01-01T01:00:00Z</time>
      </trkpt>
      <trkpt lat="63.36489" lon="10.44409367">
        <ele>135.485</ele>
        <time>1970-01-01T01:00:00Z</time>
      </trkpt>
      <trkpt lat="63.36489" lon="10.4440935">
        <ele>135.485</ele>
        <time>1970-01-01T01:00:00Z</time>
      </trkpt>
      <trkpt lat="63.36488983" lon="10.44409367">
        <ele>135.485</ele>
        <time>1970-01-01T01:00:00Z</time>
      </trkpt>
      <trkpt lat="63.36488983" lon="10.44409333">
        <ele>135.485</ele>
        <time>1970-01-01T01:00:00Z</time>
      </trkpt>
      <trkpt lat="63.36488983" lon="10.444093">
        <ele>135.485</ele>
        <time>1970-01-01T01:00:00Z</time>
      </trkpt>
      <trkpt lat="63.36488983" lon="10.4440925">
        <ele>135.485</ele>
        <time>1970-01-01T01:00:00Z</time>
      </trkpt>
      <trkpt lat="63.36488983" lon="10.44409233">
        <ele>135.485</ele>
        <time>1970-01-01T01:00:00Z</time>
      </trkpt>
      <trkpt lat="63.36489017" lon="10.44409233">
        <ele>135.485</ele>
        <time>1970-01-01T01:00:00Z</time>
      </trkpt>
      <trkpt lat="63.3648905" lon="10.44409233">
        <ele>135.485</ele>
        <time>1970-01-01T01:00:00Z</time>
      </trkpt>
      <trkpt lat="63.36489083" lon="10.4440925">
        <ele>135.485</ele>
        <time>1970-01-01T01:00:00Z</time>
      </trkpt>
      <trkpt lat="63.36489117" lon="10.4440925">
        <ele>135.485</ele>
        <time>1970-01-01T01:00:00Z</time>
      </trkpt>
      <trkpt lat="63.3648915" lon="10.44409267">
        <ele>135.485</ele>
        <time>1970-01-01T01:00:00Z</time>
      </trkpt>
      <trkpt lat="63.36489183" lon="10.444093">
        <ele>135.485</ele>
        <time>1970-01-01T01:00:00Z</time>
      </trkpt>
      <trkpt lat="63.36489233" lon="10.44409367">
        <ele>135.485</ele>
        <time>1970-01-01T01:00:00Z</time>
      </trkpt>
      <trkpt lat="63.36489283" lon="10.44409417">
        <ele>135.485</ele>
        <time>1970-01-01T01:00:00Z</time>
      </trkpt>
      <trkpt lat="63.36489333" lon="10.44409483">
        <ele>135.485</ele>
        <time>1970-01-01T01:00:00Z</time>
      </trkpt>
      <trkpt lat="63.36489367" lon="10.4440955">
        <ele>135.485</ele>
        <time>1970-01-01T01:00:00Z</time>
      </trkpt>
      <trkpt lat="63.364894" lon="10.44409617">
        <ele>135.485</ele>
        <time>1970-01-01T01:00:00Z</time>
      </trkpt>
      <trkpt lat="63.36489417" lon="10.44409667">
        <ele>135.485</ele>
        <time>1970-01-01T01:00:00Z</time>
      </trkpt>
      <trkpt lat="63.36489433" lon="10.44409717">
        <ele>135.485</ele>
        <time>1970-01-01T01:00:00Z</time>
      </trkpt>
      <trkpt lat="63.3648945" lon="10.44409783">
        <ele>135.485</ele>
        <time>1970-01-01T01:00:00Z</time>
      </trkpt>
      <trkpt lat="63.36489483" lon="10.44409867">
        <ele>135.485</ele>
        <time>1970-01-01T01:00:00Z</time>
      </trkpt>
      <trkpt lat="63.36489533" lon="10.4440995">
        <ele>135.485</ele>
        <time>1970-01-01T01:00:00Z</time>
      </trkpt>
      <trkpt lat="63.36489567" lon="10.4441">
        <ele>135.485</ele>
        <time>1970-01-01T01:00:00Z</time>
      </trkpt>
      <trkpt lat="63.36489583" lon="10.4441005">
        <ele>135.485</ele>
        <time>1970-01-01T01:00:00Z</time>
      </trkpt>
      <trkpt lat="63.364896" lon="10.44410083">
        <ele>135.485</ele>
        <time>1970-01-01T01:00:00Z</time>
      </trkpt>
      <trkpt lat="63.36489617" lon="10.44410083">
        <ele>135.485</ele>
        <time>1970-01-01T01:00:00Z</time>
      </trkpt>
      <trkpt lat="63.36489633" lon="10.4441005">
        <ele>135.485</ele>
        <time>1970-01-01T01:00:00Z</time>
      </trkpt>
      <trkpt lat="63.3648965" lon="10.44409983">
        <ele>135.485</ele>
        <time>1970-01-01T01:00:00Z</time>
      </trkpt>
      <trkpt lat="63.3648965" lon="10.4440995">
        <ele>135.485</ele>
        <time>1970-01-01T01:00:00Z</time>
      </trkpt>
      <trkpt lat="63.3648965" lon="10.444099">
        <ele>135.485</ele>
        <time>1970-01-01T01:00:00Z</time>
      </trkpt>
      <trkpt lat="63.36489633" lon="10.444099">
        <ele>135.485</ele>
        <time>1970-01-01T01:00:00Z</time>
      </trkpt>
      <trkpt lat="63.36489617" lon="10.44409883">
        <ele>135.485</ele>
        <time>1970-01-01T01:00:00Z</time>
      </trkpt>
      <trkpt lat="63.36489583" lon="10.444099">
        <ele>135.485</ele>
        <time>1970-01-01T01:00:00Z</time>
      </trkpt>
      <trkpt lat="63.36489567" lon="10.44409917">
        <ele>135.485</ele>
        <time>1970-01-01T01:00:00Z</time>
      </trkpt>
      <trkpt lat="63.36489567" lon="10.44409933">
        <ele>135.638</ele>
        <time>1970-01-01T01:00:00Z</time>
      </trkpt>
      <trkpt lat="63.36489567" lon="10.44409933">
        <ele>135.638</ele>
        <time>1970-01-01T01:00:00Z</time>
      </trkpt>
      <trkpt lat="63.36489583" lon="10.44409933">
        <ele>135.638</ele>
        <time>1970-01-01T01:00:00Z</time>
      </trkpt>
      <trkpt lat="63.36489583" lon="10.44409883">
        <ele>135.638</ele>
        <time>1970-01-01T01:00:00Z</time>
      </trkpt>
      <trkpt lat="63.36489567" lon="10.44409817">
        <ele>135.638</ele>
        <time>1970-01-01T01:00:00Z</time>
      </trkpt>
      <trkpt lat="63.36489533" lon="10.44409767">
        <ele>135.638</ele>
        <time>1970-01-01T01:00:00Z</time>
      </trkpt>
      <trkpt lat="63.364895" lon="10.44409733">
        <ele>135.638</ele>
        <time>1970-01-01T01:00:00Z</time>
      </trkpt>
      <trkpt lat="63.36489483" lon="10.444097">
        <ele>135.638</ele>
        <time>1970-01-01T01:00:00Z</time>
      </trkpt>
      <trkpt lat="63.36489483" lon="10.444097">
        <ele>135.79</ele>
        <time>1970-01-01T01:00:00Z</time>
      </trkpt>
      <trkpt lat="63.36489483" lon="10.44409683">
        <ele>135.79</ele>
        <time>1970-01-01T01:00:00Z</time>
      </trkpt>
      <trkpt lat="63.36489517" lon="10.44409683">
        <ele>135.79</ele>
        <time>1970-01-01T01:00:00Z</time>
      </trkpt>
      <trkpt lat="63.3648955" lon="10.44409683">
        <ele>135.79</ele>
        <time>1970-01-01T01:00:00Z</time>
      </trkpt>
      <trkpt lat="63.36489583" lon="10.4440965">
        <ele>135.79</ele>
        <time>1970-01-01T01:00:00Z</time>
      </trkpt>
      <trkpt lat="63.36489583" lon="10.444096">
        <ele>135.79</ele>
        <time>1970-01-01T01:00:00Z</time>
      </trkpt>
      <trkpt lat="63.36489617" lon="10.44409533">
        <ele>135.79</ele>
        <time>1970-01-01T01:00:00Z</time>
      </trkpt>
      <trkpt lat="63.3648965" lon="10.44409467">
        <ele>135.79</ele>
        <time>1970-01-01T01:00:00Z</time>
      </trkpt>
      <trkpt lat="63.36489683" lon="10.444094">
        <ele>135.942</ele>
        <time>1970-01-01T01:00:00Z</time>
      </trkpt>
      <trkpt lat="63.36489733" lon="10.44409333">
        <ele>135.942</ele>
        <time>1970-01-01T01:00:00Z</time>
      </trkpt>
      <trkpt lat="63.36489783" lon="10.444093">
        <ele>135.942</ele>
        <time>1970-01-01T01:00:00Z</time>
      </trkpt>
      <trkpt lat="63.36489817" lon="10.44409283">
        <ele>135.942</ele>
        <time>1970-01-01T01:00:00Z</time>
      </trkpt>
      <trkpt lat="63.36489833" lon="10.44409267">
        <ele>135.942</ele>
        <time>1970-01-01T01:00:00Z</time>
      </trkpt>
      <trkpt lat="63.3648985" lon="10.4440925">
        <ele>135.942</ele>
        <time>1970-01-01T01:00:00Z</time>
      </trkpt>
      <trkpt lat="63.36489867" lon="10.4440925">
        <ele>135.942</ele>
        <time>1970-01-01T01:00:00Z</time>
      </trkpt>
      <trkpt lat="63.36489883" lon="10.44409233">
        <ele>135.942</ele>
        <time>1970-01-01T01:00:00Z</time>
      </trkpt>
      <trkpt lat="63.36489867" lon="10.4440925">
        <ele>135.942</ele>
        <time>1970-01-01T01:00:00Z</time>
      </trkpt>
      <trkpt lat="63.36489867" lon="10.44409267">
        <ele>135.942</ele>
        <time>1970-01-01T01:00:00Z</time>
      </trkpt>
      <trkpt lat="63.3648985" lon="10.444093">
        <ele>135.942</ele>
        <time>1970-01-01T01:00:00Z</time>
      </trkpt>
      <trkpt lat="63.3648985" lon="10.44409367">
        <ele>135.942</ele>
        <time>1970-01-01T01:00:00Z</time>
      </trkpt>
      <trkpt lat="63.36489867" lon="10.444094">
        <ele>135.942</ele>
        <time>1970-01-01T01:00:00Z</time>
      </trkpt>
      <trkpt lat="63.36489867" lon="10.4440945">
        <ele>135.942</ele>
        <time>1970-01-01T01:00:00Z</time>
      </trkpt>
      <trkpt lat="63.36489867" lon="10.44409483">
        <ele>135.942</ele>
        <time>1970-01-01T01:00:00Z</time>
      </trkpt>
      <trkpt lat="63.3648985" lon="10.444095">
        <ele>135.942</ele>
        <time>1970-01-01T01:00:00Z</time>
      </trkpt>
      <trkpt lat="63.364898" lon="10.44409483">
        <ele>135.79</ele>
        <time>1970-01-01T01:00:00Z</time>
      </trkpt>
      <trkpt lat="63.36489733" lon="10.44409433">
        <ele>135.79</ele>
        <time>1970-01-01T01:00:00Z</time>
      </trkpt>
      <trkpt lat="63.36489667" lon="10.4440935">
        <ele>135.79</ele>
        <time>1970-01-01T01:00:00Z</time>
      </trkpt>
      <trkpt lat="63.36489617" lon="10.44409283">
        <ele>135.79</ele>
        <time>1970-01-01T01:00:00Z</time>
      </trkpt>
      <trkpt lat="63.36489583" lon="10.44409233">
        <ele>135.79</ele>
        <time>1970-01-01T01:00:00Z</time>
      </trkpt>
      <trkpt lat="63.36489533" lon="10.4440915">
        <ele>135.79</ele>
        <time>1970-01-01T01:00:00Z</time>
      </trkpt>
      <trkpt lat="63.3648945" lon="10.44409">
        <ele>135.79</ele>
        <time>1970-01-01T01:00:00Z</time>
      </trkpt>
      <trkpt lat="63.36489367" lon="10.444088">
        <ele>135.79</ele>
        <time>1970-01-01T01:00:00Z</time>
      </trkpt>
      <trkpt lat="63.36489317" lon="10.44408667">
        <ele>135.79</ele>
        <time>1970-01-01T01:00:00Z</time>
      </trkpt>
      <trkpt lat="63.36489283" lon="10.44408633">
        <ele>135.79</ele>
        <time>1970-01-01T01:00:00Z</time>
      </trkpt>
      <trkpt lat="63.36489283" lon="10.44408633">
        <ele>135.79</ele>
        <time>1970-01-01T01:00:00Z</time>
      </trkpt>
      <trkpt lat="63.36489283" lon="10.44408617">
        <ele>135.79</ele>
        <time>1970-01-01T01:00:00Z</time>
      </trkpt>
      <trkpt lat="63.36489267" lon="10.444086">
        <ele>135.638</ele>
        <time>1970-01-01T01:00:00Z</time>
      </trkpt>
      <trkpt lat="63.36489233" lon="10.4440855">
        <ele>135.638</ele>
        <time>1970-01-01T01:00:00Z</time>
      </trkpt>
      <trkpt lat="63.364892" lon="10.44408483">
        <ele>135.638</ele>
        <time>1970-01-01T01:00:00Z</time>
      </trkpt>
      <trkpt lat="63.36489167" lon="10.44408417">
        <ele>135.638</ele>
        <time>1970-01-01T01:00:00Z</time>
      </trkpt>
      <trkpt lat="63.36489133" lon="10.4440835">
        <ele>135.638</ele>
        <time>1970-01-01T01:00:00Z</time>
      </trkpt>
      <trkpt lat="63.364891" lon="10.44408283">
        <ele>135.638</ele>
        <time>1970-01-01T01:00:00Z</time>
      </trkpt>
      <trkpt lat="63.36489083" lon="10.44408217">
        <ele>135.638</ele>
        <time>1970-01-01T01:00:00Z</time>
      </trkpt>
      <trkpt lat="63.36489083" lon="10.444082">
        <ele>135.638</ele>
        <time>1970-01-01T01:00:00Z</time>
      </trkpt>
      <trkpt lat="63.36489067" lon="10.444082">
        <ele>135.638</ele>
        <time>1970-01-01T01:00:00Z</time>
      </trkpt>
      <trkpt lat="63.3648905" lon="10.44408233">
        <ele>135.638</ele>
        <time>1970-01-01T01:00:00Z</time>
      </trkpt>
      <trkpt lat="63.36489033" lon="10.4440825">
        <ele>135.638</ele>
        <time>1970-01-01T01:00:00Z</time>
      </trkpt>
      <trkpt lat="63.3648905" lon="10.44408267">
        <ele>135.638</ele>
        <time>1970-01-01T01:00:00Z</time>
      </trkpt>
      <trkpt lat="63.3648905" lon="10.44408267">
        <ele>135.638</ele>
        <time>1970-01-01T01:00:00Z</time>
      </trkpt>
      <trkpt lat="63.3648905" lon="10.44408283">
        <ele>135.638</ele>
        <time>1970-01-01T01:00:00Z</time>
      </trkpt>
      <trkpt lat="63.3648905" lon="10.444083">
        <ele>135.638</ele>
        <time>1970-01-01T01:00:00Z</time>
      </trkpt>
      <trkpt lat="63.3648905" lon="10.44408333">
        <ele>135.638</ele>
        <time>1970-01-01T01:00:00Z</time>
      </trkpt>
      <trkpt lat="63.3648905" lon="10.4440835">
        <ele>135.485</ele>
        <time>1970-01-01T01:00:00Z</time>
      </trkpt>
      <trkpt lat="63.3648905" lon="10.4440835">
        <ele>135.485</ele>
        <time>1970-01-01T01:00:00Z</time>
      </trkpt>
      <trkpt lat="63.36489033" lon="10.44408333">
        <ele>135.485</ele>
        <time>1970-01-01T01:00:00Z</time>
      </trkpt>
      <trkpt lat="63.36489" lon="10.4440835">
        <ele>135.485</ele>
        <time>1970-01-01T01:00:00Z</time>
      </trkpt>
      <trkpt lat="63.36488983" lon="10.44408317">
        <ele>135.485</ele>
        <time>1970-01-01T01:00:00Z</time>
      </trkpt>
      <trkpt lat="63.3648895" lon="10.44408267">
        <ele>135.485</ele>
        <time>1970-01-01T01:00:00Z</time>
      </trkpt>
      <trkpt lat="63.36488917" lon="10.44408183">
        <ele>135.485</ele>
        <time>1970-01-01T01:00:00Z</time>
      </trkpt>
      <trkpt lat="63.364889" lon="10.44408167">
        <ele>135.485</ele>
        <time>1970-01-01T01:00:00Z</time>
      </trkpt>
      <trkpt lat="63.36488883" lon="10.4440815">
        <ele>135.485</ele>
        <time>1970-01-01T01:00:00Z</time>
      </trkpt>
      <trkpt lat="63.36488883" lon="10.44408133">
        <ele>135.485</ele>
        <time>1970-01-01T01:00:00Z</time>
      </trkpt>
      <trkpt lat="63.36488833" lon="10.44408083">
        <ele>135.485</ele>
        <time>1970-01-01T01:00:00Z</time>
      </trkpt>
      <trkpt lat="63.36488767" lon="10.44408017">
        <ele>135.485</ele>
        <time>1970-01-01T01:00:00Z</time>
      </trkpt>
      <trkpt lat="63.364887" lon="10.4440795">
        <ele>135.485</ele>
        <time>1970-01-01T01:00:00Z</time>
      </trkpt>
      <trkpt lat="63.3648865" lon="10.44407917">
        <ele>135.485</ele>
        <time>1970-01-01T01:00:00Z</time>
      </trkpt>
      <trkpt lat="63.364886" lon="10.44407917">
        <ele>135.485</ele>
        <time>1970-01-01T01:00:00Z</time>
      </trkpt>
      <trkpt lat="63.36488567" lon="10.444079">
        <ele>135.485</ele>
        <time>1970-01-01T01:00:00Z</time>
      </trkpt>
      <trkpt lat="63.36488533" lon="10.44407883">
        <ele>135.485</ele>
        <time>1970-01-01T01:00:00Z</time>
      </trkpt>
      <trkpt lat="63.364885" lon="10.4440785">
        <ele>135.485</ele>
        <time>1970-01-01T01:00:00Z</time>
      </trkpt>
      <trkpt lat="63.36488467" lon="10.44407783">
        <ele>135.485</ele>
        <time>1970-01-01T01:00:00Z</time>
      </trkpt>
      <trkpt lat="63.36488417" lon="10.44407667">
        <ele>135.485</ele>
        <time>1970-01-01T01:00:00Z</time>
      </trkpt>
      <trkpt lat="63.36488367" lon="10.4440755">
        <ele>135.485</ele>
        <time>1970-01-01T01:00:00Z</time>
      </trkpt>
      <trkpt lat="63.36488333" lon="10.44407433">
        <ele>135.485</ele>
        <time>1970-01-01T01:00:00Z</time>
      </trkpt>
      <trkpt lat="63.364883" lon="10.44407367">
        <ele>135.333</ele>
        <time>1970-01-01T01:00:00Z</time>
      </trkpt>
      <trkpt lat="63.36488317" lon="10.44407333">
        <ele>135.333</ele>
        <time>1970-01-01T01:00:00Z</time>
      </trkpt>
      <trkpt lat="63.36488383" lon="10.4440745">
        <ele>135.333</ele>
        <time>1970-01-01T01:00:00Z</time>
      </trkpt>
      <trkpt lat="63.3648845" lon="10.44407667">
        <ele>135.333</ele>
        <time>1970-01-01T01:00:00Z</time>
      </trkpt>
      <trkpt lat="63.36488567" lon="10.44407767">
        <ele>135.333</ele>
        <time>1970-01-01T01:00:00Z</time>
      </trkpt>
      <trkpt lat="63.36488633" lon="10.44407783">
        <ele>135.333</ele>
        <time>1970-01-01T01:00:00Z</time>
      </trkpt>
      <trkpt lat="63.36488733" lon="10.4440765">
        <ele>135.333</ele>
        <time>1970-01-01T01:00:00Z</time>
      </trkpt>
      <trkpt lat="63.36488917" lon="10.44407583">
        <ele>135.333</ele>
        <time>1970-01-01T01:00:00Z</time>
      </trkpt>
      <trkpt lat="63.3648915" lon="10.444075">
        <ele>135.333</ele>
        <time>1970-01-01T01:00:00Z</time>
      </trkpt>
      <trkpt lat="63.36489367" lon="10.444075">
        <ele>135.333</ele>
        <time>1970-01-01T01:00:00Z</time>
      </trkpt>
      <trkpt lat="63.36489433" lon="10.4440755">
        <ele>135.333</ele>
        <time>1970-01-01T01:00:00Z</time>
      </trkpt>
      <trkpt lat="63.3648945" lon="10.44407567">
        <ele>135.333</ele>
        <time>1970-01-01T01:00:00Z</time>
      </trkpt>
      <trkpt lat="63.36489467" lon="10.44407583">
        <ele>135.333</ele>
        <time>1970-01-01T01:00:00Z</time>
      </trkpt>
      <trkpt lat="63.36489467" lon="10.44407567">
        <ele>135.333</ele>
        <time>1970-01-01T01:00:00Z</time>
      </trkpt>
      <trkpt lat="63.364895" lon="10.44407567">
        <ele>135.18</ele>
        <time>1970-01-01T01:00:00Z</time>
      </trkpt>
      <trkpt lat="63.364895" lon="10.44407517">
        <ele>135.18</ele>
        <time>1970-01-01T01:00:00Z</time>
      </trkpt>
      <trkpt lat="63.36489467" lon="10.444075">
        <ele>135.18</ele>
        <time>1970-01-01T01:00:00Z</time>
      </trkpt>
      <trkpt lat="63.36489433" lon="10.44407467">
        <ele>135.18</ele>
        <time>1970-01-01T01:00:00Z</time>
      </trkpt>
      <trkpt lat="63.364894" lon="10.44407417">
        <ele>135.18</ele>
        <time>1970-01-01T01:00:00Z</time>
      </trkpt>
      <trkpt lat="63.364894" lon="10.444074">
        <ele>135.18</ele>
        <time>1970-01-01T01:00:00Z</time>
      </trkpt>
      <trkpt lat="63.36489417" lon="10.44407383">
        <ele>135.18</ele>
        <time>1970-01-01T01:00:00Z</time>
      </trkpt>
      <trkpt lat="63.36489417" lon="10.4440735">
        <ele>135.18</ele>
        <time>1970-01-01T01:00:00Z</time>
      </trkpt>
      <trkpt lat="63.36489417" lon="10.44407317">
        <ele>135.18</ele>
        <time>1970-01-01T01:00:00Z</time>
      </trkpt>
      <trkpt lat="63.36489467" lon="10.444073">
        <ele>135.18</ele>
        <time>1970-01-01T01:00:00Z</time>
      </trkpt>
      <trkpt lat="63.36489667" lon="10.44407183">
        <ele>135.028</ele>
        <time>1970-01-01T01:00:00Z</time>
      </trkpt>
      <trkpt lat="63.364902" lon="10.44407">
        <ele>135.028</ele>
        <time>1970-01-01T01:00:00Z</time>
      </trkpt>
      <trkpt lat="63.3649095" lon="10.44406767">
        <ele>135.028</ele>
        <time>1970-01-01T01:00:00Z</time>
      </trkpt>
      <trkpt lat="63.36491767" lon="10.44406383">
        <ele>135.028</ele>
        <time>1970-01-01T01:00:00Z</time>
      </trkpt>
      <trkpt lat="63.3649255" lon="10.44405667">
        <ele>135.028</ele>
        <time>1970-01-01T01:00:00Z</time>
      </trkpt>
      <trkpt lat="63.36493483" lon="10.44404767">
        <ele>135.028</ele>
        <time>1970-01-01T01:00:00Z</time>
      </trkpt>
      <trkpt lat="63.36494633" lon="10.44403933">
        <ele>135.028</ele>
        <time>1970-01-01T01:00:00Z</time>
      </trkpt>
      <trkpt lat="63.3649595" lon="10.4440345">
        <ele>135.028</ele>
        <time>1970-01-01T01:00:00Z</time>
      </trkpt>
      <trkpt lat="63.36497283" lon="10.4440305">
        <ele>135.028</ele>
        <time>1970-01-01T01:00:00Z</time>
      </trkpt>
      <trkpt lat="63.36498667" lon="10.44402383">
        <ele>135.028</ele>
        <time>1970-01-01T01:00:00Z</time>
      </trkpt>
      <trkpt lat="63.36500133" lon="10.44401233">
        <ele>135.028</ele>
        <time>1970-01-01T01:00:00Z</time>
      </trkpt>
      <trkpt lat="63.36501667" lon="10.44399767">
        <ele>135.028</ele>
        <time>1970-01-01T01:00:00Z</time>
      </trkpt>
      <trkpt lat="63.36503317" lon="10.44397967">
        <ele>135.028</ele>
        <time>1970-01-01T01:00:00Z</time>
      </trkpt>
      <trkpt lat="63.365052" lon="10.44395933">
        <ele>135.028</ele>
        <time>1970-01-01T01:00:00Z</time>
      </trkpt>
      <trkpt lat="63.365073" lon="10.4439355">
        <ele>135.028</ele>
        <time>1970-01-01T01:00:00Z</time>
      </trkpt>
      <trkpt lat="63.365096" lon="10.44391183">
        <ele>135.028</ele>
        <time>1970-01-01T01:00:00Z</time>
      </trkpt>
      <trkpt lat="63.3651205" lon="10.44389017">
        <ele>135.028</ele>
        <time>1970-01-01T01:00:00Z</time>
      </trkpt>
      <trkpt lat="63.3651465" lon="10.44387083">
        <ele>135.028</ele>
        <time>1970-01-01T01:00:00Z</time>
      </trkpt>
      <trkpt lat="63.3651735" lon="10.44385083">
        <ele>134.876</ele>
        <time>1970-01-01T01:00:00Z</time>
      </trkpt>
      <trkpt lat="63.36520133" lon="10.443828">
        <ele>134.876</ele>
        <time>1970-01-01T01:00:00Z</time>
      </trkpt>
      <trkpt lat="63.3652305" lon="10.44380383">
        <ele>134.876</ele>
        <time>1970-01-01T01:00:00Z</time>
      </trkpt>
      <trkpt lat="63.36526133" lon="10.44378267">
        <ele>134.876</ele>
        <time>1970-01-01T01:00:00Z</time>
      </trkpt>
      <trkpt lat="63.36529433" lon="10.44376467">
        <ele>134.876</ele>
        <time>1970-01-01T01:00:00Z</time>
      </trkpt>
      <trkpt lat="63.36532883" lon="10.44374783">
        <ele>134.876</ele>
        <time>1970-01-01T01:00:00Z</time>
      </trkpt>
      <trkpt lat="63.3653645" lon="10.44372817">
        <ele>134.876</ele>
        <time>1970-01-01T01:00:00Z</time>
      </trkpt>
      <trkpt lat="63.36540117" lon="10.44370617">
        <ele>134.876</ele>
        <time>1970-01-01T01:00:00Z</time>
      </trkpt>
      <trkpt lat="63.36543867" lon="10.443683">
        <ele>134.876</ele>
        <time>1970-01-01T01:00:00Z</time>
      </trkpt>
      <trkpt lat="63.36547717" lon="10.44366083">
        <ele>134.876</ele>
        <time>1970-01-01T01:00:00Z</time>
      </trkpt>
      <trkpt lat="63.36551667" lon="10.44364083">
        <ele>134.876</ele>
        <time>1970-01-01T01:00:00Z</time>
      </trkpt>
      <trkpt lat="63.3655565" lon="10.443621">
        <ele>134.876</ele>
        <time>1970-01-01T01:00:00Z</time>
      </trkpt>
      <trkpt lat="63.3655965" lon="10.44360033">
        <ele>134.876</ele>
        <time>1970-01-01T01:00:00Z</time>
      </trkpt>
      <trkpt lat="63.36563633" lon="10.4435775">
        <ele>134.876</ele>
        <time>1970-01-01T01:00:00Z</time>
      </trkpt>
      <trkpt lat="63.36567633" lon="10.44355317">
        <ele>134.876</ele>
        <time>1970-01-01T01:00:00Z</time>
      </trkpt>
      <trkpt lat="63.36571633" lon="10.4435285">
        <ele>134.876</ele>
        <time>1970-01-01T01:00:00Z</time>
      </trkpt>
      <trkpt lat="63.3657565" lon="10.44350267">
        <ele>134.876</ele>
        <time>1970-01-01T01:00:00Z</time>
      </trkpt>
      <trkpt lat="63.3657965" lon="10.44347683">
        <ele>134.876</ele>
        <time>1970-01-01T01:00:00Z</time>
      </trkpt>
      <trkpt lat="63.36583667" lon="10.44345167">
        <ele>135.028</ele>
        <time>1970-01-01T01:00:00Z</time>
      </trkpt>
      <trkpt lat="63.36587667" lon="10.44342717">
        <ele>135.028</ele>
        <time>1970-01-01T01:00:00Z</time>
      </trkpt>
      <trkpt lat="63.36591667" lon="10.44340283">
        <ele>135.028</ele>
        <time>1970-01-01T01:00:00Z</time>
      </trkpt>
      <trkpt lat="63.36595683" lon="10.44337767">
        <ele>135.028</ele>
        <time>1970-01-01T01:00:00Z</time>
      </trkpt>
      <trkpt lat="63.36599767" lon="10.44335233">
        <ele>135.028</ele>
        <time>1970-01-01T01:00:00Z</time>
      </trkpt>
      <trkpt lat="63.3660395" lon="10.44332633">
        <ele>135.028</ele>
        <time>1970-01-01T01:00:00Z</time>
      </trkpt>
      <trkpt lat="63.36608183" lon="10.4433">
        <ele>135.028</ele>
        <time>1970-01-01T01:00:00Z</time>
      </trkpt>
      <trkpt lat="63.36612483" lon="10.44327317">
        <ele>135.028</ele>
        <time>1970-01-01T01:00:00Z</time>
      </trkpt>
      <trkpt lat="63.366168" lon="10.44324667">
        <ele>135.18</ele>
        <time>1970-01-01T01:00:00Z</time>
      </trkpt>
      <trkpt lat="63.3662115" lon="10.44321967">
        <ele>135.18</ele>
        <time>1970-01-01T01:00:00Z</time>
      </trkpt>
      <trkpt lat="63.366255" lon="10.44319233">
        <ele>135.18</ele>
        <time>1970-01-01T01:00:00Z</time>
      </trkpt>
      <trkpt lat="63.36629883" lon="10.44316467">
        <ele>135.18</ele>
        <time>1970-01-01T01:00:00Z</time>
      </trkpt>
      <trkpt lat="63.36634317" lon="10.44313833">
        <ele>135.18</ele>
        <time>1970-01-01T01:00:00Z</time>
      </trkpt>
      <trkpt lat="63.36638783" lon="10.44311267">
        <ele>135.18</ele>
        <time>1970-01-01T01:00:00Z</time>
      </trkpt>
      <trkpt lat="63.36643267" lon="10.44308717">
        <ele>135.333</ele>
        <time>1970-01-01T01:00:00Z</time>
      </trkpt>
      <trkpt lat="63.36647767" lon="10.44305983">
        <ele>135.333</ele>
        <time>1970-01-01T01:00:00Z</time>
      </trkpt>
      <trkpt lat="63.36652283" lon="10.44303017">
        <ele>135.333</ele>
        <time>1970-01-01T01:00:00Z</time>
      </trkpt>
      <trkpt lat="63.36656817" lon="10.44299983">
        <ele>135.333</ele>
        <time>1970-01-01T01:00:00Z</time>
      </trkpt>
      <trkpt lat="63.36661367" lon="10.4429705">
        <ele>135.333</ele>
        <time>1970-01-01T01:00:00Z</time>
      </trkpt>
      <trkpt lat="63.36665933" lon="10.44294267">
        <ele>135.333</ele>
        <time>1970-01-01T01:00:00Z</time>
      </trkpt>
      <trkpt lat="63.36670567" lon="10.4429155">
        <ele>135.485</ele>
        <time>1970-01-01T01:00:00Z</time>
      </trkpt>
      <trkpt lat="63.36675283" lon="10.44288717">
        <ele>135.485</ele>
        <time>1970-01-01T01:00:00Z</time>
      </trkpt>
      <trkpt lat="63.36680133" lon="10.44285633">
        <ele>135.485</ele>
        <time>1970-01-01T01:00:00Z</time>
      </trkpt>
      <trkpt lat="63.36685133" lon="10.44282267">
        <ele>135.485</ele>
        <time>1970-01-01T01:00:00Z</time>
      </trkpt>
      <trkpt lat="63.36690267" lon="10.442787">
        <ele>135.485</ele>
        <time>1970-01-01T01:00:00Z</time>
      </trkpt>
      <trkpt lat="63.36695533" lon="10.4427515">
        <ele>135.485</ele>
        <time>1970-01-01T01:00:00Z</time>
      </trkpt>
      <trkpt lat="63.36700917" lon="10.44271633">
        <ele>135.638</ele>
        <time>1970-01-01T01:00:00Z</time>
      </trkpt>
      <trkpt lat="63.3670645" lon="10.44268183">
        <ele>135.638</ele>
        <time>1970-01-01T01:00:00Z</time>
      </trkpt>
      <trkpt lat="63.3671205" lon="10.442646">
        <ele>135.638</ele>
        <time>1970-01-01T01:00:00Z</time>
      </trkpt>
      <trkpt lat="63.3671775" lon="10.4426115">
        <ele>135.638</ele>
        <time>1970-01-01T01:00:00Z</time>
      </trkpt>
      <trkpt lat="63.367235" lon="10.44257767">
        <ele>135.638</ele>
        <time>1970-01-01T01:00:00Z</time>
      </trkpt>
      <trkpt lat="63.36729283" lon="10.44254417">
        <ele>135.638</ele>
        <time>1970-01-01T01:00:00Z</time>
      </trkpt>
      <trkpt lat="63.36735" lon="10.44250883">
        <ele>135.79</ele>
        <time>1970-01-01T01:00:00Z</time>
      </trkpt>
      <trkpt lat="63.36740633" lon="10.44247167">
        <ele>135.79</ele>
        <time>1970-01-01T01:00:00Z</time>
      </trkpt>
      <trkpt lat="63.36746133" lon="10.44243517">
        <ele>135.79</ele>
        <time>1970-01-01T01:00:00Z</time>
      </trkpt>
      <trkpt lat="63.36751533" lon="10.44239917">
        <ele>135.79</ele>
        <time>1970-01-01T01:00:00Z</time>
      </trkpt>
      <trkpt lat="63.367568" lon="10.44236367">
        <ele>135.79</ele>
        <time>1970-01-01T01:00:00Z</time>
      </trkpt>
      <trkpt lat="63.36761967" lon="10.44232883">
        <ele>135.79</ele>
        <time>1970-01-01T01:00:00Z</time>
      </trkpt>
      <trkpt lat="63.36767033" lon="10.4422945">
        <ele>135.942</ele>
        <time>1970-01-01T01:00:00Z</time>
      </trkpt>
      <trkpt lat="63.36772" lon="10.442261">
        <ele>135.942</ele>
        <time>1970-01-01T01:00:00Z</time>
      </trkpt>
      <trkpt lat="63.36776933" lon="10.44222817">
        <ele>135.942</ele>
        <time>1970-01-01T01:00:00Z</time>
      </trkpt>
      <trkpt lat="63.36781817" lon="10.442196">
        <ele>135.942</ele>
        <time>1970-01-01T01:00:00Z</time>
      </trkpt>
      <trkpt lat="63.36786683" lon="10.44216333">
        <ele>136.095</ele>
        <time>1970-01-01T01:00:00Z</time>
      </trkpt>
      <trkpt lat="63.36791533" lon="10.44212833">
        <ele>136.095</ele>
        <time>1970-01-01T01:00:00Z</time>
      </trkpt>
      <trkpt lat="63.36796417" lon="10.44209017">
        <ele>136.095</ele>
        <time>1970-01-01T01:00:00Z</time>
      </trkpt>
      <trkpt lat="63.36801317" lon="10.44204883">
        <ele>136.095</ele>
        <time>1970-01-01T01:00:00Z</time>
      </trkpt>
      <trkpt lat="63.36806283" lon="10.44200417">
        <ele>136.247</ele>
        <time>1970-01-01T01:00:00Z</time>
      </trkpt>
      <trkpt lat="63.3681135" lon="10.44195633">
        <ele>136.247</ele>
        <time>1970-01-01T01:00:00Z</time>
      </trkpt>
      <trkpt lat="63.36816633" lon="10.44190417">
        <ele>136.4</ele>
        <time>1970-01-01T01:00:00Z</time>
      </trkpt>
      <trkpt lat="63.368221" lon="10.4418465">
        <ele>136.4</ele>
        <time>1970-01-01T01:00:00Z</time>
      </trkpt>
      <trkpt lat="63.36827767" lon="10.441783">
        <ele>136.4</ele>
        <time>1970-01-01T01:00:00Z</time>
      </trkpt>
      <trkpt lat="63.36833567" lon="10.44171333">
        <ele>136.4</ele>
        <time>1970-01-01T01:00:00Z</time>
      </trkpt>
      <trkpt lat="63.36839517" lon="10.44163733">
        <ele>136.4</ele>
        <time>1970-01-01T01:00:00Z</time>
      </trkpt>
      <trkpt lat="63.36845517" lon="10.44155367">
        <ele>136.4</ele>
        <time>1970-01-01T01:00:00Z</time>
      </trkpt>
      <trkpt lat="63.36851633" lon="10.44146233">
        <ele>136.4</ele>
        <time>1970-01-01T01:00:00Z</time>
      </trkpt>
      <trkpt lat="63.36857817" lon="10.44136233">
        <ele>136.4</ele>
        <time>1970-01-01T01:00:00Z</time>
      </trkpt>
      <trkpt lat="63.368641" lon="10.441253">
        <ele>136.4</ele>
        <time>1970-01-01T01:00:00Z</time>
      </trkpt>
      <trkpt lat="63.36870383" lon="10.44113333">
        <ele>136.4</ele>
        <time>1970-01-01T01:00:00Z</time>
      </trkpt>
      <trkpt lat="63.36876667" lon="10.441003">
        <ele>136.4</ele>
        <time>1970-01-01T01:00:00Z</time>
      </trkpt>
      <trkpt lat="63.36882967" lon="10.44086233">
        <ele>136.4</ele>
        <time>1970-01-01T01:00:00Z</time>
      </trkpt>
      <trkpt lat="63.368894" lon="10.44071183">
        <ele>136.4</ele>
        <time>1970-01-01T01:00:00Z</time>
      </trkpt>
      <trkpt lat="63.36896033" lon="10.44055133">
        <ele>136.4</ele>
        <time>1970-01-01T01:00:00Z</time>
      </trkpt>
      <trkpt lat="63.36902917" lon="10.44038183">
        <ele>136.247</ele>
        <time>1970-01-01T01:00:00Z</time>
      </trkpt>
      <trkpt lat="63.3690975" lon="10.44019517">
        <ele>136.247</ele>
        <time>1970-01-01T01:00:00Z</time>
      </trkpt>
      <trkpt lat="63.36916583" lon="10.43999433">
        <ele>136.247</ele>
        <time>1970-01-01T01:00:00Z</time>
      </trkpt>
      <trkpt lat="63.36923283" lon="10.43977533">
        <ele>136.247</ele>
        <time>1970-01-01T01:00:00Z</time>
      </trkpt>
      <trkpt lat="63.36930383" lon="10.43955183">
        <ele>135.942</ele>
        <time>1970-01-01T01:00:00Z</time>
      </trkpt>
      <trkpt lat="63.36937867" lon="10.43932267">
        <ele>135.942</ele>
        <time>1970-01-01T01:00:00Z</time>
      </trkpt>
      <trkpt lat="63.36945717" lon="10.43909017">
        <ele>135.79</ele>
        <time>1970-01-01T01:00:00Z</time>
      </trkpt>
      <trkpt lat="63.3695375" lon="10.438851">
        <ele>135.79</ele>
        <time>1970-01-01T01:00:00Z</time>
      </trkpt>
      <trkpt lat="63.3696195" lon="10.43860717">
        <ele>135.485</ele>
        <time>1970-01-01T01:00:00Z</time>
      </trkpt>
      <trkpt lat="63.36970367" lon="10.43836117">
        <ele>135.485</ele>
        <time>1970-01-01T01:00:00Z</time>
      </trkpt>
      <trkpt lat="63.36978967" lon="10.43811383">
        <ele>135.028</ele>
        <time>1970-01-01T01:00:00Z</time>
      </trkpt>
      <trkpt lat="63.369877" lon="10.43786533">
        <ele>135.028</ele>
        <time>1970-01-01T01:00:00Z</time>
      </trkpt>
      <trkpt lat="63.369967" lon="10.43761867">
        <ele>134.571</ele>
        <time>1970-01-01T01:00:00Z</time>
      </trkpt>
      <trkpt lat="63.37005983" lon="10.43737417">
        <ele>134.571</ele>
        <time>1970-01-01T01:00:00Z</time>
      </trkpt>
      <trkpt lat="63.3701555" lon="10.4371325">
        <ele>134.114</ele>
        <time>1970-01-01T01:00:00Z</time>
      </trkpt>
      <trkpt lat="63.37025367" lon="10.4368935">
        <ele>134.114</ele>
        <time>1970-01-01T01:00:00Z</time>
      </trkpt>
      <trkpt lat="63.3703545" lon="10.4366585">
        <ele>133.504</ele>
        <time>1970-01-01T01:00:00Z</time>
      </trkpt>
      <trkpt lat="63.37045817" lon="10.4364295">
        <ele>133.504</ele>
        <time>1970-01-01T01:00:00Z</time>
      </trkpt>
      <trkpt lat="63.37056483" lon="10.43620717">
        <ele>132.894</ele>
        <time>1970-01-01T01:00:00Z</time>
      </trkpt>
      <trkpt lat="63.37067367" lon="10.43599033">
        <ele>132.894</ele>
        <time>1970-01-01T01:00:00Z</time>
      </trkpt>
      <trkpt lat="63.370784" lon="10.43577733">
        <ele>132.285</ele>
        <time>1970-01-01T01:00:00Z</time>
      </trkpt>
      <trkpt lat="63.37089467" lon="10.43556633">
        <ele>132.285</ele>
        <time>1970-01-01T01:00:00Z</time>
      </trkpt>
      <trkpt lat="63.37100583" lon="10.43536033">
        <ele>131.523</ele>
        <time>1970-01-01T01:00:00Z</time>
      </trkpt>
      <trkpt lat="63.37111683" lon="10.43515967">
        <ele>131.523</ele>
        <time>1970-01-01T01:00:00Z</time>
      </trkpt>
      <trkpt lat="63.37122667" lon="10.434963">
        <ele>130.913</ele>
        <time>1970-01-01T01:00:00Z</time>
      </trkpt>
      <trkpt lat="63.37133417" lon="10.43476783">
        <ele>130.913</ele>
        <time>1970-01-01T01:00:00Z</time>
      </trkpt>
      <trkpt lat="63.3714395" lon="10.4345735">
        <ele>130.151</ele>
        <time>1970-01-01T01:00:00Z</time>
      </trkpt>
      <trkpt lat="63.371543" lon="10.434382">
        <ele>130.151</ele>
        <time>1970-01-01T01:00:00Z</time>
      </trkpt>
      <trkpt lat="63.37164467" lon="10.43419417">
        <ele>129.389</ele>
        <time>1970-01-01T01:00:00Z</time>
      </trkpt>
      <trkpt lat="63.37174483" lon="10.43401017">
        <ele>129.389</ele>
        <time>1970-01-01T01:00:00Z</time>
      </trkpt>
      <trkpt lat="63.37184367" lon="10.43382933">
        <ele>128.627</ele>
        <time>1970-01-01T01:00:00Z</time>
      </trkpt>
      <trkpt lat="63.37194133" lon="10.4336515">
        <ele>128.627</ele>
        <time>1970-01-01T01:00:00Z</time>
      </trkpt>
      <trkpt lat="63.372038" lon="10.433477">
        <ele>128.018</ele>
        <time>1970-01-01T01:00:00Z</time>
      </trkpt>
      <trkpt lat="63.37213367" lon="10.4333055">
        <ele>128.018</ele>
        <time>1970-01-01T01:00:00Z</time>
      </trkpt>
      <trkpt lat="63.372228" lon="10.433137">
        <ele>127.256</ele>
        <time>1970-01-01T01:00:00Z</time>
      </trkpt>
      <trkpt lat="63.37232083" lon="10.4329705">
        <ele>127.256</ele>
        <time>1970-01-01T01:00:00Z</time>
      </trkpt>
      <trkpt lat="63.37241183" lon="10.432806">
        <ele>126.646</ele>
        <time>1970-01-01T01:00:00Z</time>
      </trkpt>
      <trkpt lat="63.37250133" lon="10.4326435">
        <ele>126.646</ele>
        <time>1970-01-01T01:00:00Z</time>
      </trkpt>
      <trkpt lat="63.37258917" lon="10.43248167">
        <ele>125.884</ele>
        <time>1970-01-01T01:00:00Z</time>
      </trkpt>
      <trkpt lat="63.372676" lon="10.43232083">
        <ele>125.884</ele>
        <time>1970-01-01T01:00:00Z</time>
      </trkpt>
      <trkpt lat="63.37276217" lon="10.43216183">
        <ele>125.274</ele>
        <time>1970-01-01T01:00:00Z</time>
      </trkpt>
      <trkpt lat="63.372848" lon="10.43200533">
        <ele>125.274</ele>
        <time>1970-01-01T01:00:00Z</time>
      </trkpt>
      <trkpt lat="63.37293367" lon="10.431851">
        <ele>124.512</ele>
        <time>1970-01-01T01:00:00Z</time>
      </trkpt>
      <trkpt lat="63.37301883" lon="10.4316975">
        <ele>124.512</ele>
        <time>1970-01-01T01:00:00Z</time>
      </trkpt>
      <trkpt lat="63.37310367" lon="10.43154433">
        <ele>123.903</ele>
        <time>1970-01-01T01:00:00Z</time>
      </trkpt>
      <trkpt lat="63.37318817" lon="10.431392">
        <ele>123.903</ele>
        <time>1970-01-01T01:00:00Z</time>
      </trkpt>
      <trkpt lat="63.37327217" lon="10.431242">
        <ele>123.293</ele>
        <time>1970-01-01T01:00:00Z</time>
      </trkpt>
      <trkpt lat="63.37335717" lon="10.43109617">
        <ele>123.293</ele>
        <time>1970-01-01T01:00:00Z</time>
      </trkpt>
      <trkpt lat="63.37344383" lon="10.4309555">
        <ele>122.683</ele>
        <time>1970-01-01T01:00:00Z</time>
      </trkpt>
      <trkpt lat="63.37353333" lon="10.43082083">
        <ele>122.683</ele>
        <time>1970-01-01T01:00:00Z</time>
      </trkpt>
      <trkpt lat="63.3736255" lon="10.430694">
        <ele>122.074</ele>
        <time>1970-01-01T01:00:00Z</time>
      </trkpt>
      <trkpt lat="63.37372" lon="10.430576">
        <ele>122.074</ele>
        <time>1970-01-01T01:00:00Z</time>
      </trkpt>
      <trkpt lat="63.37381617" lon="10.4304665">
        <ele>121.464</ele>
        <time>1970-01-01T01:00:00Z</time>
      </trkpt>
      <trkpt lat="63.3739145" lon="10.430369">
        <ele>121.464</ele>
        <time>1970-01-01T01:00:00Z</time>
      </trkpt>
      <trkpt lat="63.37401483" lon="10.43028417">
        <ele>121.007</ele>
        <time>1970-01-01T01:00:00Z</time>
      </trkpt>
      <trkpt lat="63.37411767" lon="10.4302165">
        <ele>121.007</ele>
        <time>1970-01-01T01:00:00Z</time>
      </trkpt>
      <trkpt lat="63.37422083" lon="10.43016">
        <ele>120.397</ele>
        <time>1970-01-01T01:00:00Z</time>
      </trkpt>
      <trkpt lat="63.37432467" lon="10.43011683">
        <ele>120.397</ele>
        <time>1970-01-01T01:00:00Z</time>
      </trkpt>
      <trkpt lat="63.37442917" lon="10.430085">
        <ele>119.788</ele>
        <time>1970-01-01T01:00:00Z</time>
      </trkpt>
      <trkpt lat="63.374535" lon="10.430067">
        <ele>119.788</ele>
        <time>1970-01-01T01:00:00Z</time>
      </trkpt>
      <trkpt lat="63.3746405" lon="10.43005983">
        <ele>119.331</ele>
        <time>1970-01-01T01:00:00Z</time>
      </trkpt>
      <trkpt lat="63.37474467" lon="10.43006233">
        <ele>119.331</ele>
        <time>1970-01-01T01:00:00Z</time>
      </trkpt>
      <trkpt lat="63.3748475" lon="10.4300745">
        <ele>118.721</ele>
        <time>1970-01-01T01:00:00Z</time>
      </trkpt>
      <trkpt lat="63.37494867" lon="10.43009533">
        <ele>118.721</ele>
        <time>1970-01-01T01:00:00Z</time>
      </trkpt>
      <trkpt lat="63.37504867" lon="10.4301235">
        <ele>118.264</ele>
        <time>1970-01-01T01:00:00Z</time>
      </trkpt>
      <trkpt lat="63.37514667" lon="10.43016">
        <ele>118.264</ele>
        <time>1970-01-01T01:00:00Z</time>
      </trkpt>
      <trkpt lat="63.3752425" lon="10.43020433">
        <ele>117.807</ele>
        <time>1970-01-01T01:00:00Z</time>
      </trkpt>
      <trkpt lat="63.375336" lon="10.43025733">
        <ele>117.807</ele>
        <time>1970-01-01T01:00:00Z</time>
      </trkpt>
      <trkpt lat="63.37542733" lon="10.430318">
        <ele>117.349</ele>
        <time>1970-01-01T01:00:00Z</time>
      </trkpt>
      <trkpt lat="63.3755165" lon="10.430387">
        <ele>117.349</ele>
        <time>1970-01-01T01:00:00Z</time>
      </trkpt>
      <trkpt lat="63.37560333" lon="10.430464">
        <ele>116.892</ele>
        <time>1970-01-01T01:00:00Z</time>
      </trkpt>
      <trkpt lat="63.3756875" lon="10.43054883">
        <ele>116.892</ele>
        <time>1970-01-01T01:00:00Z</time>
      </trkpt>
      <trkpt lat="63.37576883" lon="10.43064217">
        <ele>116.435</ele>
        <time>1970-01-01T01:00:00Z</time>
      </trkpt>
      <trkpt lat="63.37584633" lon="10.43074283">
        <ele>116.435</ele>
        <time>1970-01-01T01:00:00Z</time>
      </trkpt>
      <trkpt lat="63.3759205" lon="10.43084967">
        <ele>115.978</ele>
        <time>1970-01-01T01:00:00Z</time>
      </trkpt>
      <trkpt lat="63.37599183" lon="10.43096117">
        <ele>115.978</ele>
        <time>1970-01-01T01:00:00Z</time>
      </trkpt>
      <trkpt lat="63.37606067" lon="10.4310765">
        <ele>115.521</ele>
        <time>1970-01-01T01:00:00Z</time>
      </trkpt>
      <trkpt lat="63.37612733" lon="10.43119433">
        <ele>115.521</ele>
        <time>1970-01-01T01:00:00Z</time>
      </trkpt>
      <trkpt lat="63.3761925" lon="10.4313125">
        <ele>115.063</ele>
        <time>1970-01-01T01:00:00Z</time>
      </trkpt>
      <trkpt lat="63.37625667" lon="10.43142967">
        <ele>115.063</ele>
        <time>1970-01-01T01:00:00Z</time>
      </trkpt>
      <trkpt lat="63.37631967" lon="10.43154517">
        <ele>114.759</ele>
        <time>1970-01-01T01:00:00Z</time>
      </trkpt>
      <trkpt lat="63.376382" lon="10.43165833">
        <ele>114.759</ele>
        <time>1970-01-01T01:00:00Z</time>
      </trkpt>
      <trkpt lat="63.37644333" lon="10.43177033">
        <ele>114.301</ele>
        <time>1970-01-01T01:00:00Z</time>
      </trkpt>
      <trkpt lat="63.376504" lon="10.43188233">
        <ele>114.301</ele>
        <time>1970-01-01T01:00:00Z</time>
      </trkpt>
      <trkpt lat="63.37656367" lon="10.43199467">
        <ele>113.997</ele>
        <time>1970-01-01T01:00:00Z</time>
      </trkpt>
      <trkpt lat="63.376623" lon="10.43210683">
        <ele>113.997</ele>
        <time>1970-01-01T01:00:00Z</time>
      </trkpt>
      <trkpt lat="63.376682" lon="10.43221767">
        <ele>113.539</ele>
        <time>1970-01-01T01:00:00Z</time>
      </trkpt>
      <trkpt lat="63.37674133" lon="10.4323275">
        <ele>113.539</ele>
        <time>1970-01-01T01:00:00Z</time>
      </trkpt>
      <trkpt lat="63.37680133" lon="10.43243483">
        <ele>113.235</ele>
        <time>1970-01-01T01:00:00Z</time>
      </trkpt>
      <trkpt lat="63.37686183" lon="10.4325415">
        <ele>113.235</ele>
        <time>1970-01-01T01:00:00Z</time>
      </trkpt>
      <trkpt lat="63.37692167" lon="10.43264883">
        <ele>112.93</ele>
        <time>1970-01-01T01:00:00Z</time>
      </trkpt>
      <trkpt lat="63.37698083" lon="10.43275817">
        <ele>112.93</ele>
        <time>1970-01-01T01:00:00Z</time>
      </trkpt>
      <trkpt lat="63.37704" lon="10.43286767">
        <ele>112.625</ele>
        <time>1970-01-01T01:00:00Z</time>
      </trkpt>
      <trkpt lat="63.3771" lon="10.4329755">
        <ele>112.625</ele>
        <time>1970-01-01T01:00:00Z</time>
      </trkpt>
      <trkpt lat="63.377161" lon="10.43308033">
        <ele>112.32</ele>
        <time>1970-01-01T01:00:00Z</time>
      </trkpt>
      <trkpt lat="63.377223" lon="10.43318233">
        <ele>112.32</ele>
        <time>1970-01-01T01:00:00Z</time>
      </trkpt>
      <trkpt lat="63.3772855" lon="10.43327983">
        <ele>112.015</ele>
        <time>1970-01-01T01:00:00Z</time>
      </trkpt>
      <trkpt lat="63.37734867" lon="10.43337283">
        <ele>112.015</ele>
        <time>1970-01-01T01:00:00Z</time>
      </trkpt>
      <trkpt lat="63.377412" lon="10.43346217">
        <ele>111.863</ele>
        <time>1970-01-01T01:00:00Z</time>
      </trkpt>
      <trkpt lat="63.37747567" lon="10.43354967">
        <ele>111.863</ele>
        <time>1970-01-01T01:00:00Z</time>
      </trkpt>
      <trkpt lat="63.377539" lon="10.43363617">
        <ele>111.558</ele>
        <time>1970-01-01T01:00:00Z</time>
      </trkpt>
      <trkpt lat="63.37760267" lon="10.43372033">
        <ele>111.558</ele>
        <time>1970-01-01T01:00:00Z</time>
      </trkpt>
      <trkpt lat="63.37766667" lon="10.4338015">
        <ele>111.406</ele>
        <time>1970-01-01T01:00:00Z</time>
      </trkpt>
      <trkpt lat="63.37773083" lon="10.43387933">
        <ele>111.406</ele>
        <time>1970-01-01T01:00:00Z</time>
      </trkpt>
      <trkpt lat="63.37779517" lon="10.43395467">
        <ele>111.101</ele>
        <time>1970-01-01T01:00:00Z</time>
      </trkpt>
      <trkpt lat="63.37786" lon="10.43402833">
        <ele>111.101</ele>
        <time>1970-01-01T01:00:00Z</time>
      </trkpt>
      <trkpt lat="63.37792533" lon="10.43409983">
        <ele>110.949</ele>
        <time>1970-01-01T01:00:00Z</time>
      </trkpt>
      <trkpt lat="63.37799167" lon="10.43416867">
        <ele>110.949</ele>
        <time>1970-01-01T01:00:00Z</time>
      </trkpt>
      <trkpt lat="63.37805883" lon="10.43423467">
        <ele>110.796</ele>
        <time>1970-01-01T01:00:00Z</time>
      </trkpt>
      <trkpt lat="63.378127" lon="10.434298">
        <ele>110.796</ele>
        <time>1970-01-01T01:00:00Z</time>
      </trkpt>
      <trkpt lat="63.37819617" lon="10.43435933">
        <ele>110.491</ele>
        <time>1970-01-01T01:00:00Z</time>
      </trkpt>
      <trkpt lat="63.37826633" lon="10.43441867">
        <ele>110.491</ele>
        <time>1970-01-01T01:00:00Z</time>
      </trkpt>
      <trkpt lat="63.37833717" lon="10.43447583">
        <ele>110.339</ele>
        <time>1970-01-01T01:00:00Z</time>
      </trkpt>
      <trkpt lat="63.3784085" lon="10.43453033">
        <ele>110.339</ele>
        <time>1970-01-01T01:00:00Z</time>
      </trkpt>
      <trkpt lat="63.37848017" lon="10.43458117">
        <ele>110.187</ele>
        <time>1970-01-01T01:00:00Z</time>
      </trkpt>
      <trkpt lat="63.37855217" lon="10.43462983">
        <ele>110.187</ele>
        <time>1970-01-01T01:00:00Z</time>
      </trkpt>
      <trkpt lat="63.37862483" lon="10.43467767">
        <ele>110.034</ele>
        <time>1970-01-01T01:00:00Z</time>
      </trkpt>
      <trkpt lat="63.37869783" lon="10.43472433">
        <ele>110.034</ele>
        <time>1970-01-01T01:00:00Z</time>
      </trkpt>
      <trkpt lat="63.37877117" lon="10.43476833">
        <ele>109.729</ele>
        <time>1970-01-01T01:00:00Z</time>
      </trkpt>
      <trkpt lat="63.37884467" lon="10.43481083">
        <ele>109.729</ele>
        <time>1970-01-01T01:00:00Z</time>
      </trkpt>
      <trkpt lat="63.37891833" lon="10.43485217">
        <ele>109.577</ele>
        <time>1970-01-01T01:00:00Z</time>
      </trkpt>
      <trkpt lat="63.37899233" lon="10.43489217">
        <ele>109.577</ele>
        <time>1970-01-01T01:00:00Z</time>
      </trkpt>
      <trkpt lat="63.37906683" lon="10.43493">
        <ele>109.425</ele>
        <time>1970-01-01T01:00:00Z</time>
      </trkpt>
      <trkpt lat="63.379142" lon="10.434966">
        <ele>109.425</ele>
        <time>1970-01-01T01:00:00Z</time>
      </trkpt>
      <trkpt lat="63.379218" lon="10.43500067">
        <ele>109.272</ele>
        <time>1970-01-01T01:00:00Z</time>
      </trkpt>
      <trkpt lat="63.3792945" lon="10.435035">
        <ele>109.272</ele>
        <time>1970-01-01T01:00:00Z</time>
      </trkpt>
      <trkpt lat="63.379372" lon="10.43506867">
        <ele>108.967</ele>
        <time>1970-01-01T01:00:00Z</time>
      </trkpt>
      <trkpt lat="63.3794505" lon="10.43510067">
        <ele>108.967</ele>
        <time>1970-01-01T01:00:00Z</time>
      </trkpt>
      <trkpt lat="63.37953" lon="10.4351295">
        <ele>108.815</ele>
        <time>1970-01-01T01:00:00Z</time>
      </trkpt>
      <trkpt lat="63.37961" lon="10.4351555">
        <ele>108.815</ele>
        <time>1970-01-01T01:00:00Z</time>
      </trkpt>
      <trkpt lat="63.37969" lon="10.435179">
        <ele>108.663</ele>
        <time>1970-01-01T01:00:00Z</time>
      </trkpt>
      <trkpt lat="63.37977017" lon="10.43520067">
        <ele>108.663</ele>
        <time>1970-01-01T01:00:00Z</time>
      </trkpt>
      <trkpt lat="63.37985" lon="10.43522133">
        <ele>108.358</ele>
        <time>1970-01-01T01:00:00Z</time>
      </trkpt>
      <trkpt lat="63.37992983" lon="10.43524117">
        <ele>108.358</ele>
        <time>1970-01-01T01:00:00Z</time>
      </trkpt>
      <trkpt lat="63.3800095" lon="10.43526">
        <ele>108.205</ele>
        <time>1970-01-01T01:00:00Z</time>
      </trkpt>
      <trkpt lat="63.38008883" lon="10.43527567">
        <ele>108.205</ele>
        <time>1970-01-01T01:00:00Z</time>
      </trkpt>
      <trkpt lat="63.38016817" lon="10.43528783">
        <ele>108.053</ele>
        <time>1970-01-01T01:00:00Z</time>
      </trkpt>
      <trkpt lat="63.38024733" lon="10.43529717">
        <ele>108.053</ele>
        <time>1970-01-01T01:00:00Z</time>
      </trkpt>
      <trkpt lat="63.38032633" lon="10.43530567">
        <ele>107.748</ele>
        <time>1970-01-01T01:00:00Z</time>
      </trkpt>
      <trkpt lat="63.38040517" lon="10.43531383">
        <ele>107.748</ele>
        <time>1970-01-01T01:00:00Z</time>
      </trkpt>
      <trkpt lat="63.380484" lon="10.43532017">
        <ele>107.596</ele>
        <time>1970-01-01T01:00:00Z</time>
      </trkpt>
      <trkpt lat="63.380563" lon="10.43532467">
        <ele>107.596</ele>
        <time>1970-01-01T01:00:00Z</time>
      </trkpt>
      <trkpt lat="63.38064167" lon="10.4353275">
        <ele>107.443</ele>
        <time>1970-01-01T01:00:00Z</time>
      </trkpt>
      <trkpt lat="63.38072" lon="10.43532917">
        <ele>107.443</ele>
        <time>1970-01-01T01:00:00Z</time>
      </trkpt>
      <trkpt lat="63.38079817" lon="10.435329">
        <ele>107.138</ele>
        <time>1970-01-01T01:00:00Z</time>
      </trkpt>
      <trkpt lat="63.380876" lon="10.435328">
        <ele>107.138</ele>
        <time>1970-01-01T01:00:00Z</time>
      </trkpt>
      <trkpt lat="63.38095333" lon="10.43532667">
        <ele>106.986</ele>
        <time>1970-01-01T01:00:00Z</time>
      </trkpt>
      <trkpt lat="63.38103033" lon="10.43532567">
        <ele>106.986</ele>
        <time>1970-01-01T01:00:00Z</time>
      </trkpt>
      <trkpt lat="63.38110717" lon="10.435324">
        <ele>106.834</ele>
        <time>1970-01-01T01:00:00Z</time>
      </trkpt>
      <trkpt lat="63.381184" lon="10.43532083">
        <ele>106.834</ele>
        <time>1970-01-01T01:00:00Z</time>
      </trkpt>
      <trkpt lat="63.38126067" lon="10.43531683">
        <ele>106.681</ele>
        <time>1970-01-01T01:00:00Z</time>
      </trkpt>
      <trkpt lat="63.38133733" lon="10.43531217">
        <ele>106.681</ele>
        <time>1970-01-01T01:00:00Z</time>
      </trkpt>
      <trkpt lat="63.38141367" lon="10.435307">
        <ele>106.529</ele>
        <time>1970-01-01T01:00:00Z</time>
      </trkpt>
      <trkpt lat="63.38149" lon="10.43530083">
        <ele>106.529</ele>
        <time>1970-01-01T01:00:00Z</time>
      </trkpt>
      <trkpt lat="63.38156617" lon="10.43529383">
        <ele>106.376</ele>
        <time>1970-01-01T01:00:00Z</time>
      </trkpt>
      <trkpt lat="63.38164267" lon="10.4352865">
        <ele>106.376</ele>
        <time>1970-01-01T01:00:00Z</time>
      </trkpt>
      <trkpt lat="63.38171967" lon="10.43527783">
        <ele>106.224</ele>
        <time>1970-01-01T01:00:00Z</time>
      </trkpt>
      <trkpt lat="63.38179733" lon="10.43526767">
        <ele>106.224</ele>
        <time>1970-01-01T01:00:00Z</time>
      </trkpt>
      <trkpt lat="63.38187467" lon="10.435255">
        <ele>106.072</ele>
        <time>1970-01-01T01:00:00Z</time>
      </trkpt>
      <trkpt lat="63.381951" lon="10.43523967">
        <ele>106.072</ele>
        <time>1970-01-01T01:00:00Z</time>
      </trkpt>
      <trkpt lat="63.38202583" lon="10.4352215">
        <ele>105.919</ele>
        <time>1970-01-01T01:00:00Z</time>
      </trkpt>
      <trkpt lat="63.3820995" lon="10.43520033">
        <ele>105.919</ele>
        <time>1970-01-01T01:00:00Z</time>
      </trkpt>
      <trkpt lat="63.38217117" lon="10.43517483">
        <ele>105.767</ele>
        <time>1970-01-01T01:00:00Z</time>
      </trkpt>
      <trkpt lat="63.382241" lon="10.43514183">
        <ele>105.767</ele>
        <time>1970-01-01T01:00:00Z</time>
      </trkpt>
      <trkpt lat="63.38230867" lon="10.435101">
        <ele>105.614</ele>
        <time>1970-01-01T01:00:00Z</time>
      </trkpt>
      <trkpt lat="63.38237533" lon="10.43505567">
        <ele>105.614</ele>
        <time>1970-01-01T01:00:00Z</time>
      </trkpt>
      <trkpt lat="63.38244133" lon="10.43501133">
        <ele>105.462</ele>
        <time>1970-01-01T01:00:00Z</time>
      </trkpt>
      <trkpt lat="63.38250767" lon="10.43497217">
        <ele>105.462</ele>
        <time>1970-01-01T01:00:00Z</time>
      </trkpt>
      <trkpt lat="63.38257483" lon="10.4349445">
        <ele>105.31</ele>
        <time>1970-01-01T01:00:00Z</time>
      </trkpt>
      <trkpt lat="63.382642" lon="10.43493883">
        <ele>105.31</ele>
        <time>1970-01-01T01:00:00Z</time>
      </trkpt>
      <trkpt lat="63.38270783" lon="10.43495533">
        <ele>105.157</ele>
        <time>1970-01-01T01:00:00Z</time>
      </trkpt>
      <trkpt lat="63.3827725" lon="10.43498733">
        <ele>105.157</ele>
        <time>1970-01-01T01:00:00Z</time>
      </trkpt>
      <trkpt lat="63.38283683" lon="10.43502283">
        <ele>105.005</ele>
        <time>1970-01-01T01:00:00Z</time>
      </trkpt>
      <trkpt lat="63.38290133" lon="10.4350575">
        <ele>105.005</ele>
        <time>1970-01-01T01:00:00Z</time>
      </trkpt>
      <trkpt lat="63.3829655" lon="10.43508717">
        <ele>105.005</ele>
        <time>1970-01-01T01:00:00Z</time>
      </trkpt>
      <trkpt lat="63.38302883" lon="10.43510833">
        <ele>105.005</ele>
        <time>1970-01-01T01:00:00Z</time>
      </trkpt>
      <trkpt lat="63.38309133" lon="10.43512017">
        <ele>104.852</ele>
        <time>1970-01-01T01:00:00Z</time>
      </trkpt>
      <trkpt lat="63.3831535" lon="10.43512467">
        <ele>104.852</ele>
        <time>1970-01-01T01:00:00Z</time>
      </trkpt>
      <trkpt lat="63.383216" lon="10.43512383">
        <ele>104.7</ele>
        <time>1970-01-01T01:00:00Z</time>
      </trkpt>
      <trkpt lat="63.38327933" lon="10.4351195">
        <ele>104.7</ele>
        <time>1970-01-01T01:00:00Z</time>
      </trkpt>
      <trkpt lat="63.38334283" lon="10.435114">
        <ele>104.7</ele>
        <time>1970-01-01T01:00:00Z</time>
      </trkpt>
      <trkpt lat="63.38340633" lon="10.435108">
        <ele>104.7</ele>
        <time>1970-01-01T01:00:00Z</time>
      </trkpt>
      <trkpt lat="63.38346983" lon="10.43510133">
        <ele>104.548</ele>
        <time>1970-01-01T01:00:00Z</time>
      </trkpt>
      <trkpt lat="63.3835335" lon="10.435094">
        <ele>104.548</ele>
        <time>1970-01-01T01:00:00Z</time>
      </trkpt>
      <trkpt lat="63.38359733" lon="10.43508767">
        <ele>104.548</ele>
        <time>1970-01-01T01:00:00Z</time>
      </trkpt>
      <trkpt lat="63.38366133" lon="10.4350835">
        <ele>104.548</ele>
        <time>1970-01-01T01:00:00Z</time>
      </trkpt>
      <trkpt lat="63.383725" lon="10.43508067">
        <ele>104.395</ele>
        <time>1970-01-01T01:00:00Z</time>
      </trkpt>
      <trkpt lat="63.38378867" lon="10.43507717">
        <ele>104.395</ele>
        <time>1970-01-01T01:00:00Z</time>
      </trkpt>
      <trkpt lat="63.38385217" lon="10.43507217">
        <ele>104.395</ele>
        <time>1970-01-01T01:00:00Z</time>
      </trkpt>
      <trkpt lat="63.38391567" lon="10.43506583">
        <ele>104.395</ele>
        <time>1970-01-01T01:00:00Z</time>
      </trkpt>
      <trkpt lat="63.38397917" lon="10.4350585">
        <ele>104.243</ele>
        <time>1970-01-01T01:00:00Z</time>
      </trkpt>
      <trkpt lat="63.38404283" lon="10.43505067">
        <ele>104.243</ele>
        <time>1970-01-01T01:00:00Z</time>
      </trkpt>
      <trkpt lat="63.38410667" lon="10.43504317">
        <ele>104.243</ele>
        <time>1970-01-01T01:00:00Z</time>
      </trkpt>
      <trkpt lat="63.38417033" lon="10.43503533">
        <ele>104.243</ele>
        <time>1970-01-01T01:00:00Z</time>
      </trkpt>
      <trkpt lat="63.384234" lon="10.43502733">
        <ele>104.09</ele>
        <time>1970-01-01T01:00:00Z</time>
      </trkpt>
      <trkpt lat="63.38429783" lon="10.435019">
        <ele>104.09</ele>
        <time>1970-01-01T01:00:00Z</time>
      </trkpt>
      <trkpt lat="63.38436167" lon="10.43501067">
        <ele>104.09</ele>
        <time>1970-01-01T01:00:00Z</time>
      </trkpt>
      <trkpt lat="63.38442533" lon="10.43500283">
        <ele>104.09</ele>
        <time>1970-01-01T01:00:00Z</time>
      </trkpt>
      <trkpt lat="63.38448917" lon="10.43499567">
        <ele>104.09</ele>
        <time>1970-01-01T01:00:00Z</time>
      </trkpt>
      <trkpt lat="63.38455333" lon="10.43498883">
        <ele>104.09</ele>
        <time>1970-01-01T01:00:00Z</time>
      </trkpt>
      <trkpt lat="63.38461767" lon="10.4349825">
        <ele>103.938</ele>
        <time>1970-01-01T01:00:00Z</time>
      </trkpt>
      <trkpt lat="63.38468233" lon="10.43497583">
        <ele>103.938</ele>
        <time>1970-01-01T01:00:00Z</time>
      </trkpt>
      <trkpt lat="63.384747" lon="10.43496817">
        <ele>103.938</ele>
        <time>1970-01-01T01:00:00Z</time>
      </trkpt>
      <trkpt lat="63.38481217" lon="10.4349595">
        <ele>103.938</ele>
        <time>1970-01-01T01:00:00Z</time>
      </trkpt>
      <trkpt lat="63.3848775" lon="10.43495017">
        <ele>103.938</ele>
        <time>1970-01-01T01:00:00Z</time>
      </trkpt>
      <trkpt lat="63.38494317" lon="10.4349415">
        <ele>103.938</ele>
        <time>1970-01-01T01:00:00Z</time>
      </trkpt>
      <trkpt lat="63.38500917" lon="10.43493367">
        <ele>103.938</ele>
        <time>1970-01-01T01:00:00Z</time>
      </trkpt>
      <trkpt lat="63.38507517" lon="10.434928">
        <ele>103.938</ele>
        <time>1970-01-01T01:00:00Z</time>
      </trkpt>
      <trkpt lat="63.38514133" lon="10.434925">
        <ele>103.938</ele>
        <time>1970-01-01T01:00:00Z</time>
      </trkpt>
      <trkpt lat="63.38520717" lon="10.4349225">
        <ele>103.938</ele>
        <time>1970-01-01T01:00:00Z</time>
      </trkpt>
      <trkpt lat="63.385273" lon="10.4349185">
        <ele>103.938</ele>
        <time>1970-01-01T01:00:00Z</time>
      </trkpt>
      <trkpt lat="63.38533867" lon="10.43491167">
        <ele>103.938</ele>
        <time>1970-01-01T01:00:00Z</time>
      </trkpt>
      <trkpt lat="63.38540417" lon="10.43490467">
        <ele>103.938</ele>
        <time>1970-01-01T01:00:00Z</time>
      </trkpt>
      <trkpt lat="63.3854695" lon="10.43489767">
        <ele>103.938</ele>
        <time>1970-01-01T01:00:00Z</time>
      </trkpt>
      <trkpt lat="63.38553433" lon="10.43489117">
        <ele>103.938</ele>
        <time>1970-01-01T01:00:00Z</time>
      </trkpt>
      <trkpt lat="63.38559867" lon="10.4348835">
        <ele>103.938</ele>
        <time>1970-01-01T01:00:00Z</time>
      </trkpt>
      <trkpt lat="63.38566283" lon="10.434877">
        <ele>103.938</ele>
        <time>1970-01-01T01:00:00Z</time>
      </trkpt>
      <trkpt lat="63.38572667" lon="10.43487133">
        <ele>103.938</ele>
        <time>1970-01-01T01:00:00Z</time>
      </trkpt>
      <trkpt lat="63.38579033" lon="10.43486683">
        <ele>103.938</ele>
        <time>1970-01-01T01:00:00Z</time>
      </trkpt>
      <trkpt lat="63.38585367" lon="10.43486217">
        <ele>103.938</ele>
        <time>1970-01-01T01:00:00Z</time>
      </trkpt>
      <trkpt lat="63.38591683" lon="10.43485667">
        <ele>103.938</ele>
        <time>1970-01-01T01:00:00Z</time>
      </trkpt>
      <trkpt lat="63.38597983" lon="10.4348505">
        <ele>103.938</ele>
        <time>1970-01-01T01:00:00Z</time>
      </trkpt>
      <trkpt lat="63.3860425" lon="10.4348435">
        <ele>103.938</ele>
        <time>1970-01-01T01:00:00Z</time>
      </trkpt>
      <trkpt lat="63.38610517" lon="10.43483583">
        <ele>103.938</ele>
        <time>1970-01-01T01:00:00Z</time>
      </trkpt>
      <trkpt lat="63.38616767" lon="10.434828">
        <ele>103.938</ele>
        <time>1970-01-01T01:00:00Z</time>
      </trkpt>
      <trkpt lat="63.38623033" lon="10.43482133">
        <ele>103.938</ele>
        <time>1970-01-01T01:00:00Z</time>
      </trkpt>
      <trkpt lat="63.38629317" lon="10.43481517">
        <ele>103.938</ele>
        <time>1970-01-01T01:00:00Z</time>
      </trkpt>
      <trkpt lat="63.386356" lon="10.43480933">
        <ele>103.938</ele>
        <time>1970-01-01T01:00:00Z</time>
      </trkpt>
      <trkpt lat="63.38641867" lon="10.43480283">
        <ele>104.09</ele>
        <time>1970-01-01T01:00:00Z</time>
      </trkpt>
      <trkpt lat="63.38648083" lon="10.43479683">
        <ele>104.09</ele>
        <time>1970-01-01T01:00:00Z</time>
      </trkpt>
      <trkpt lat="63.38654267" lon="10.43479117">
        <ele>104.09</ele>
        <time>1970-01-01T01:00:00Z</time>
      </trkpt>
      <trkpt lat="63.38660417" lon="10.43478483">
        <ele>104.09</ele>
        <time>1970-01-01T01:00:00Z</time>
      </trkpt>
      <trkpt lat="63.38666567" lon="10.43477817">
        <ele>104.09</ele>
        <time>1970-01-01T01:00:00Z</time>
      </trkpt>
      <trkpt lat="63.38672683" lon="10.43477233">
        <ele>104.09</ele>
        <time>1970-01-01T01:00:00Z</time>
      </trkpt>
      <trkpt lat="63.3867875" lon="10.43476717">
        <ele>104.243</ele>
        <time>1970-01-01T01:00:00Z</time>
      </trkpt>
      <trkpt lat="63.38684783" lon="10.43476083">
        <ele>104.243</ele>
        <time>1970-01-01T01:00:00Z</time>
      </trkpt>
      <trkpt lat="63.38690783" lon="10.43475383">
        <ele>104.243</ele>
        <time>1970-01-01T01:00:00Z</time>
      </trkpt>
      <trkpt lat="63.386968" lon="10.4347475">
        <ele>104.243</ele>
        <time>1970-01-01T01:00:00Z</time>
      </trkpt>
      <trkpt lat="63.38702817" lon="10.43474233">
        <ele>104.395</ele>
        <time>1970-01-01T01:00:00Z</time>
      </trkpt>
      <trkpt lat="63.38708817" lon="10.434737">
        <ele>104.395</ele>
        <time>1970-01-01T01:00:00Z</time>
      </trkpt>
      <trkpt lat="63.38714733" lon="10.43473067">
        <ele>104.395</ele>
        <time>1970-01-01T01:00:00Z</time>
      </trkpt>
      <trkpt lat="63.3872055" lon="10.4347235">
        <ele>104.395</ele>
        <time>1970-01-01T01:00:00Z</time>
      </trkpt>
      <trkpt lat="63.38726233" lon="10.434717">
        <ele>104.395</ele>
        <time>1970-01-01T01:00:00Z</time>
      </trkpt>
      <trkpt lat="63.387318" lon="10.43471167">
        <ele>104.395</ele>
        <time>1970-01-01T01:00:00Z</time>
      </trkpt>
      <trkpt lat="63.3873715" lon="10.43470667">
        <ele>104.548</ele>
        <time>1970-01-01T01:00:00Z</time>
      </trkpt>
      <trkpt lat="63.3874235" lon="10.4347015">
        <ele>104.548</ele>
        <time>1970-01-01T01:00:00Z</time>
      </trkpt>
      <trkpt lat="63.38747367" lon="10.43469567">
        <ele>104.548</ele>
        <time>1970-01-01T01:00:00Z</time>
      </trkpt>
      <trkpt lat="63.387522" lon="10.43469033">
        <ele>104.548</ele>
        <time>1970-01-01T01:00:00Z</time>
      </trkpt>
      <trkpt lat="63.38756833" lon="10.43468483">
        <ele>104.7</ele>
        <time>1970-01-01T01:00:00Z</time>
      </trkpt>
      <trkpt lat="63.38761217" lon="10.4346775">
        <ele>104.7</ele>
        <time>1970-01-01T01:00:00Z</time>
      </trkpt>
      <trkpt lat="63.387653" lon="10.43466417">
        <ele>104.7</ele>
        <time>1970-01-01T01:00:00Z</time>
      </trkpt>
      <trkpt lat="63.38769017" lon="10.4346445">
        <ele>104.7</ele>
        <time>1970-01-01T01:00:00Z</time>
      </trkpt>
      <trkpt lat="63.3877245" lon="10.43462267">
        <ele>104.852</ele>
        <time>1970-01-01T01:00:00Z</time>
      </trkpt>
      <trkpt lat="63.38775717" lon="10.43460783">
        <ele>104.852</ele>
        <time>1970-01-01T01:00:00Z</time>
      </trkpt>
      <trkpt lat="63.38778817" lon="10.434606">
        <ele>104.852</ele>
        <time>1970-01-01T01:00:00Z</time>
      </trkpt>
      <trkpt lat="63.38781667" lon="10.43461867">
        <ele>104.852</ele>
        <time>1970-01-01T01:00:00Z</time>
      </trkpt>
      <trkpt lat="63.38784317" lon="10.43463833">
        <ele>105.005</ele>
        <time>1970-01-01T01:00:00Z</time>
      </trkpt>
      <trkpt lat="63.3878695" lon="10.434658">
        <ele>105.005</ele>
        <time>1970-01-01T01:00:00Z</time>
      </trkpt>
      <trkpt lat="63.38789717" lon="10.43466983">
        <ele>105.005</ele>
        <time>1970-01-01T01:00:00Z</time>
      </trkpt>
      <trkpt lat="63.38792633" lon="10.434676">
        <ele>105.005</ele>
        <time>1970-01-01T01:00:00Z</time>
      </trkpt>
      <trkpt lat="63.38795817" lon="10.4346795">
        <ele>105.157</ele>
        <time>1970-01-01T01:00:00Z</time>
      </trkpt>
      <trkpt lat="63.38799217" lon="10.434685">
        <ele>105.157</ele>
        <time>1970-01-01T01:00:00Z</time>
      </trkpt>
      <trkpt lat="63.38802833" lon="10.43469383">
        <ele>105.157</ele>
        <time>1970-01-01T01:00:00Z</time>
      </trkpt>
      <trkpt lat="63.388066" lon="10.4347035">
        <ele>105.157</ele>
        <time>1970-01-01T01:00:00Z</time>
      </trkpt>
      <trkpt lat="63.388105" lon="10.43471267">
        <ele>105.31</ele>
        <time>1970-01-01T01:00:00Z</time>
      </trkpt>
      <trkpt lat="63.38814517" lon="10.43472067">
        <ele>105.31</ele>
        <time>1970-01-01T01:00:00Z</time>
      </trkpt>
      <trkpt lat="63.38818667" lon="10.434728">
        <ele>105.31</ele>
        <time>1970-01-01T01:00:00Z</time>
      </trkpt>
      <trkpt lat="63.38822867" lon="10.4347345">
        <ele>105.31</ele>
        <time>1970-01-01T01:00:00Z</time>
      </trkpt>
      <trkpt lat="63.388271" lon="10.43474033">
        <ele>105.462</ele>
        <time>1970-01-01T01:00:00Z</time>
      </trkpt>
      <trkpt lat="63.388313" lon="10.434745">
        <ele>105.462</ele>
        <time>1970-01-01T01:00:00Z</time>
      </trkpt>
      <trkpt lat="63.388355" lon="10.43475">
        <ele>105.614</ele>
        <time>1970-01-01T01:00:00Z</time>
      </trkpt>
      <trkpt lat="63.388397" lon="10.43475683">
        <ele>105.614</ele>
        <time>1970-01-01T01:00:00Z</time>
      </trkpt>
      <trkpt lat="63.3884395" lon="10.43476583">
        <ele>105.767</ele>
        <time>1970-01-01T01:00:00Z</time>
      </trkpt>
      <trkpt lat="63.3884815" lon="10.434777">
        <ele>105.767</ele>
        <time>1970-01-01T01:00:00Z</time>
      </trkpt>
      <trkpt lat="63.3885235" lon="10.434788">
        <ele>105.767</ele>
        <time>1970-01-01T01:00:00Z</time>
      </trkpt>
      <trkpt lat="63.38856533" lon="10.43479917">
        <ele>105.767</ele>
        <time>1970-01-01T01:00:00Z</time>
      </trkpt>
      <trkpt lat="63.3886085" lon="10.43480783">
        <ele>105.919</ele>
        <time>1970-01-01T01:00:00Z</time>
      </trkpt>
      <trkpt lat="63.3886525" lon="10.43481533">
        <ele>105.919</ele>
        <time>1970-01-01T01:00:00Z</time>
      </trkpt>
      <trkpt lat="63.3886965" lon="10.43482283">
        <ele>106.072</ele>
        <time>1970-01-01T01:00:00Z</time>
      </trkpt>
      <trkpt lat="63.38873983" lon="10.43483067">
        <ele>106.072</ele>
        <time>1970-01-01T01:00:00Z</time>
      </trkpt>
      <trkpt lat="63.388782" lon="10.43483767">
        <ele>106.224</ele>
        <time>1970-01-01T01:00:00Z</time>
      </trkpt>
      <trkpt lat="63.38882333" lon="10.43484367">
        <ele>106.224</ele>
        <time>1970-01-01T01:00:00Z</time>
      </trkpt>
      <trkpt lat="63.38886417" lon="10.4348495">
        <ele>106.376</ele>
        <time>1970-01-01T01:00:00Z</time>
      </trkpt>
      <trkpt lat="63.3889045" lon="10.43485517">
        <ele>106.376</ele>
        <time>1970-01-01T01:00:00Z</time>
      </trkpt>
      <trkpt lat="63.388945" lon="10.434859">
        <ele>106.376</ele>
        <time>1970-01-01T01:00:00Z</time>
      </trkpt>
      <trkpt lat="63.3889855" lon="10.43486">
        <ele>106.376</ele>
        <time>1970-01-01T01:00:00Z</time>
      </trkpt>
      <trkpt lat="63.38902567" lon="10.43486017">
        <ele>106.529</ele>
        <time>1970-01-01T01:00:00Z</time>
      </trkpt>
      <trkpt lat="63.3890655" lon="10.43486083">
        <ele>106.529</ele>
        <time>1970-01-01T01:00:00Z</time>
      </trkpt>
      <trkpt lat="63.38910517" lon="10.43486183">
        <ele>106.681</ele>
        <time>1970-01-01T01:00:00Z</time>
      </trkpt>
      <trkpt lat="63.38914483" lon="10.43486033">
        <ele>106.681</ele>
        <time>1970-01-01T01:00:00Z</time>
      </trkpt>
      <trkpt lat="63.3891845" lon="10.434858">
        <ele>106.834</ele>
        <time>1970-01-01T01:00:00Z</time>
      </trkpt>
      <trkpt lat="63.38922383" lon="10.434855">
        <ele>106.834</ele>
        <time>1970-01-01T01:00:00Z</time>
      </trkpt>
      <trkpt lat="63.38926233" lon="10.43485283">
        <ele>106.986</ele>
        <time>1970-01-01T01:00:00Z</time>
      </trkpt>
      <trkpt lat="63.38930017" lon="10.434851">
        <ele>106.986</ele>
        <time>1970-01-01T01:00:00Z</time>
      </trkpt>
      <trkpt lat="63.38933783" lon="10.434849">
        <ele>107.138</ele>
        <time>1970-01-01T01:00:00Z</time>
      </trkpt>
      <trkpt lat="63.38937533" lon="10.434847">
        <ele>107.138</ele>
        <time>1970-01-01T01:00:00Z</time>
      </trkpt>
      <trkpt lat="63.3894125" lon="10.43484317">
        <ele>107.291</ele>
        <time>1970-01-01T01:00:00Z</time>
      </trkpt>
      <trkpt lat="63.389449" lon="10.43483783">
        <ele>107.291</ele>
        <time>1970-01-01T01:00:00Z</time>
      </trkpt>
      <trkpt lat="63.38948467" lon="10.43482967">
        <ele>107.443</ele>
        <time>1970-01-01T01:00:00Z</time>
      </trkpt>
      <trkpt lat="63.38951967" lon="10.43481983">
        <ele>107.443</ele>
        <time>1970-01-01T01:00:00Z</time>
      </trkpt>
      <trkpt lat="63.38955483" lon="10.43481117">
        <ele>107.596</ele>
        <time>1970-01-01T01:00:00Z</time>
      </trkpt>
      <trkpt lat="63.38959" lon="10.43480467">
        <ele>107.596</ele>
        <time>1970-01-01T01:00:00Z</time>
      </trkpt>
      <trkpt lat="63.38962417" lon="10.4347985">
        <ele>107.748</ele>
        <time>1970-01-01T01:00:00Z</time>
      </trkpt>
      <trkpt lat="63.38965617" lon="10.43479">
        <ele>107.748</ele>
        <time>1970-01-01T01:00:00Z</time>
      </trkpt>
      <trkpt lat="63.38968717" lon="10.43478033">
        <ele>108.053</ele>
        <time>1970-01-01T01:00:00Z</time>
      </trkpt>
      <trkpt lat="63.3897175" lon="10.43476867">
        <ele>108.053</ele>
        <time>1970-01-01T01:00:00Z</time>
      </trkpt>
      <trkpt lat="63.38974867" lon="10.43475683">
        <ele>108.205</ele>
        <time>1970-01-01T01:00:00Z</time>
      </trkpt>
      <trkpt lat="63.38977933" lon="10.434743">
        <ele>108.205</ele>
        <time>1970-01-01T01:00:00Z</time>
      </trkpt>
      <trkpt lat="63.38980933" lon="10.43472917">
        <ele>108.358</ele>
        <time>1970-01-01T01:00:00Z</time>
      </trkpt>
      <trkpt lat="63.389837" lon="10.434713">
        <ele>108.358</ele>
        <time>1970-01-01T01:00:00Z</time>
      </trkpt>
      <trkpt lat="63.3898635" lon="10.4346975">
        <ele>108.663</ele>
        <time>1970-01-01T01:00:00Z</time>
      </trkpt>
      <trkpt lat="63.3898885" lon="10.43468183">
        <ele>108.663</ele>
        <time>1970-01-01T01:00:00Z</time>
      </trkpt>
      <trkpt lat="63.3899145" lon="10.43466683">
        <ele>108.967</ele>
        <time>1970-01-01T01:00:00Z</time>
      </trkpt>
      <trkpt lat="63.38994067" lon="10.43465133">
        <ele>108.967</ele>
        <time>1970-01-01T01:00:00Z</time>
      </trkpt>
      <trkpt lat="63.38996783" lon="10.43463967">
        <ele>109.272</ele>
        <time>1970-01-01T01:00:00Z</time>
      </trkpt>
      <trkpt lat="63.3899935" lon="10.43462467">
        <ele>109.272</ele>
        <time>1970-01-01T01:00:00Z</time>
      </trkpt>
      <trkpt lat="63.39001833" lon="10.43460917">
        <ele>109.577</ele>
        <time>1970-01-01T01:00:00Z</time>
      </trkpt>
      <trkpt lat="63.3900415" lon="10.43458817">
        <ele>109.577</ele>
        <time>1970-01-01T01:00:00Z</time>
      </trkpt>
      <trkpt lat="63.39006517" lon="10.43457017">
        <ele>109.882</ele>
        <time>1970-01-01T01:00:00Z</time>
      </trkpt>
      <trkpt lat="63.39008933" lon="10.4345485">
        <ele>109.882</ele>
        <time>1970-01-01T01:00:00Z</time>
      </trkpt>
      <trkpt lat="63.39011483" lon="10.43452483">
        <ele>110.187</ele>
        <time>1970-01-01T01:00:00Z</time>
      </trkpt>
      <trkpt lat="63.39014067" lon="10.434502">
        <ele>110.187</ele>
        <time>1970-01-01T01:00:00Z</time>
      </trkpt>
      <trkpt lat="63.3901655" lon="10.43447917">
        <ele>110.491</ele>
        <time>1970-01-01T01:00:00Z</time>
      </trkpt>
      <trkpt lat="63.39019067" lon="10.4344585">
        <ele>110.491</ele>
        <time>1970-01-01T01:00:00Z</time>
      </trkpt>
      <trkpt lat="63.3902155" lon="10.434433">
        <ele>110.796</ele>
        <time>1970-01-01T01:00:00Z</time>
      </trkpt>
      <trkpt lat="63.39024033" lon="10.43440817">
        <ele>110.796</ele>
        <time>1970-01-01T01:00:00Z</time>
      </trkpt>
      <trkpt lat="63.39026517" lon="10.43438483">
        <ele>111.253</ele>
        <time>1970-01-01T01:00:00Z</time>
      </trkpt>
      <trkpt lat="63.39029117" lon="10.43436533">
        <ele>111.253</ele>
        <time>1970-01-01T01:00:00Z</time>
      </trkpt>
      <trkpt lat="63.39031883" lon="10.43434733">
        <ele>111.558</ele>
        <time>1970-01-01T01:00:00Z</time>
      </trkpt>
      <trkpt lat="63.39034717" lon="10.43432767">
        <ele>111.558</ele>
        <time>1970-01-01T01:00:00Z</time>
      </trkpt>
      <trkpt lat="63.39037517" lon="10.43430717">
        <ele>112.015</ele>
        <time>1970-01-01T01:00:00Z</time>
      </trkpt>
      <trkpt lat="63.39040233" lon="10.43428517">
        <ele>112.015</ele>
        <time>1970-01-01T01:00:00Z</time>
      </trkpt>
      <trkpt lat="63.390427" lon="10.43425717">
        <ele>112.473</ele>
        <time>1970-01-01T01:00:00Z</time>
      </trkpt>
      <trkpt lat="63.39045" lon="10.43422333">
        <ele>112.473</ele>
        <time>1970-01-01T01:00:00Z</time>
      </trkpt>
      <trkpt lat="63.39047267" lon="10.43418683">
        <ele>112.777</ele>
        <time>1970-01-01T01:00:00Z</time>
      </trkpt>
      <trkpt lat="63.39049567" lon="10.4341505">
        <ele>112.777</ele>
        <time>1970-01-01T01:00:00Z</time>
      </trkpt>
      <trkpt lat="63.39052" lon="10.4341145">
        <ele>113.235</ele>
        <time>1970-01-01T01:00:00Z</time>
      </trkpt>
      <trkpt lat="63.390546" lon="10.43408183">
        <ele>113.235</ele>
        <time>1970-01-01T01:00:00Z</time>
      </trkpt>
      <trkpt lat="63.3905735" lon="10.4340525">
        <ele>113.692</ele>
        <time>1970-01-01T01:00:00Z</time>
      </trkpt>
      <trkpt lat="63.39060133" lon="10.434028">
        <ele>113.692</ele>
        <time>1970-01-01T01:00:00Z</time>
      </trkpt>
      <trkpt lat="63.39062833" lon="10.43400383">
        <ele>114.149</ele>
        <time>1970-01-01T01:00:00Z</time>
      </trkpt>
      <trkpt lat="63.39065567" lon="10.43398083">
        <ele>114.149</ele>
        <time>1970-01-01T01:00:00Z</time>
      </trkpt>
      <trkpt lat="63.39068267" lon="10.43395833">
        <ele>114.606</ele>
        <time>1970-01-01T01:00:00Z</time>
      </trkpt>
      <trkpt lat="63.39071067" lon="10.43393683">
        <ele>114.606</ele>
        <time>1970-01-01T01:00:00Z</time>
      </trkpt>
      <trkpt lat="63.39073867" lon="10.433918">
        <ele>114.911</ele>
        <time>1970-01-01T01:00:00Z</time>
      </trkpt>
      <trkpt lat="63.39076683" lon="10.43390033">
        <ele>114.911</ele>
        <time>1970-01-01T01:00:00Z</time>
      </trkpt>
      <trkpt lat="63.3907945" lon="10.43388417">
        <ele>115.368</ele>
        <time>1970-01-01T01:00:00Z</time>
      </trkpt>
      <trkpt lat="63.3908215" lon="10.43386667">
        <ele>115.368</ele>
        <time>1970-01-01T01:00:00Z</time>
      </trkpt>
      <trkpt lat="63.39084733" lon="10.43384633">
        <ele>115.825</ele>
        <time>1970-01-01T01:00:00Z</time>
      </trkpt>
      <trkpt lat="63.39087283" lon="10.433825">
        <ele>115.825</ele>
        <time>1970-01-01T01:00:00Z</time>
      </trkpt>
      <trkpt lat="63.39089833" lon="10.43380433">
        <ele>116.13</ele>
        <time>1970-01-01T01:00:00Z</time>
      </trkpt>
      <trkpt lat="63.39092417" lon="10.4337885">
        <ele>116.13</ele>
        <time>1970-01-01T01:00:00Z</time>
      </trkpt>
      <trkpt lat="63.3909495" lon="10.43377567">
        <ele>116.587</ele>
        <time>1970-01-01T01:00:00Z</time>
      </trkpt>
      <trkpt lat="63.39097583" lon="10.4337745">
        <ele>116.587</ele>
        <time>1970-01-01T01:00:00Z</time>
      </trkpt>
      <trkpt lat="63.39100383" lon="10.43379117">
        <ele>116.892</ele>
        <time>1970-01-01T01:00:00Z</time>
      </trkpt>
      <trkpt lat="63.3910315" lon="10.43382933">
        <ele>116.892</ele>
        <time>1970-01-01T01:00:00Z</time>
      </trkpt>
      <trkpt lat="63.39105633" lon="10.43388483">
        <ele>117.197</ele>
        <time>1970-01-01T01:00:00Z</time>
      </trkpt>
      <trkpt lat="63.39107583" lon="10.43394983">
        <ele>117.197</ele>
        <time>1970-01-01T01:00:00Z</time>
      </trkpt>
      <trkpt lat="63.3910915" lon="10.4340185">
        <ele>117.654</ele>
        <time>1970-01-01T01:00:00Z</time>
      </trkpt>
      <trkpt lat="63.39110517" lon="10.434088">
        <ele>117.654</ele>
        <time>1970-01-01T01:00:00Z</time>
      </trkpt>
      <trkpt lat="63.3911195" lon="10.43415767">
        <ele>117.959</ele>
        <time>1970-01-01T01:00:00Z</time>
      </trkpt>
      <trkpt lat="63.39113467" lon="10.43422833">
        <ele>117.959</ele>
        <time>1970-01-01T01:00:00Z</time>
      </trkpt>
      <trkpt lat="63.39115117" lon="10.4342995">
        <ele>118.264</ele>
        <time>1970-01-01T01:00:00Z</time>
      </trkpt>
      <trkpt lat="63.3911685" lon="10.43437233">
        <ele>118.264</ele>
        <time>1970-01-01T01:00:00Z</time>
      </trkpt>
      <trkpt lat="63.39118733" lon="10.43444717">
        <ele>118.569</ele>
        <time>1970-01-01T01:00:00Z</time>
      </trkpt>
      <trkpt lat="63.39120667" lon="10.4345235">
        <ele>118.569</ele>
        <time>1970-01-01T01:00:00Z</time>
      </trkpt>
      <trkpt lat="63.39122733" lon="10.43459933">
        <ele>118.873</ele>
        <time>1970-01-01T01:00:00Z</time>
      </trkpt>
      <trkpt lat="63.39124867" lon="10.434675">
        <ele>118.873</ele>
        <time>1970-01-01T01:00:00Z</time>
      </trkpt>
      <trkpt lat="63.39127067" lon="10.43475017">
        <ele>119.178</ele>
        <time>1970-01-01T01:00:00Z</time>
      </trkpt>
      <trkpt lat="63.39129333" lon="10.43482583">
        <ele>119.178</ele>
        <time>1970-01-01T01:00:00Z</time>
      </trkpt>
      <trkpt lat="63.39131667" lon="10.43490067">
        <ele>119.483</ele>
        <time>1970-01-01T01:00:00Z</time>
      </trkpt>
      <trkpt lat="63.39134083" lon="10.43497467">
        <ele>119.483</ele>
        <time>1970-01-01T01:00:00Z</time>
      </trkpt>
      <trkpt lat="63.391366" lon="10.4350475">
        <ele>119.788</ele>
        <time>1970-01-01T01:00:00Z</time>
      </trkpt>
      <trkpt lat="63.39139267" lon="10.43511983">
        <ele>119.788</ele>
        <time>1970-01-01T01:00:00Z</time>
      </trkpt>
      <trkpt lat="63.39142033" lon="10.43519267">
        <ele>119.94</ele>
        <time>1970-01-01T01:00:00Z</time>
      </trkpt>
      <trkpt lat="63.39144883" lon="10.43526567">
        <ele>119.94</ele>
        <time>1970-01-01T01:00:00Z</time>
      </trkpt>
      <trkpt lat="63.39147717" lon="10.43533767">
        <ele>120.245</ele>
        <time>1970-01-01T01:00:00Z</time>
      </trkpt>
      <trkpt lat="63.39150583" lon="10.4354085">
        <ele>120.245</ele>
        <time>1970-01-01T01:00:00Z</time>
      </trkpt>
      <trkpt lat="63.39153417" lon="10.43547883">
        <ele>120.55</ele>
        <time>1970-01-01T01:00:00Z</time>
      </trkpt>
      <trkpt lat="63.39156317" lon="10.43554767">
        <ele>120.55</ele>
        <time>1970-01-01T01:00:00Z</time>
      </trkpt>
      <trkpt lat="63.39159317" lon="10.43561467">
        <ele>120.855</ele>
        <time>1970-01-01T01:00:00Z</time>
      </trkpt>
      <trkpt lat="63.391624" lon="10.4356805">
        <ele>120.855</ele>
        <time>1970-01-01T01:00:00Z</time>
      </trkpt>
      <trkpt lat="63.391655" lon="10.43574583">
        <ele>121.007</ele>
        <time>1970-01-01T01:00:00Z</time>
      </trkpt>
      <trkpt lat="63.391686" lon="10.435811">
        <ele>121.007</ele>
        <time>1970-01-01T01:00:00Z</time>
      </trkpt>
      <trkpt lat="63.39171767" lon="10.43587533">
        <ele>121.312</ele>
        <time>1970-01-01T01:00:00Z</time>
      </trkpt>
      <trkpt lat="63.39174983" lon="10.43593733">
        <ele>121.312</ele>
        <time>1970-01-01T01:00:00Z</time>
      </trkpt>
      <trkpt lat="63.39178267" lon="10.43599783">
        <ele>121.464</ele>
        <time>1970-01-01T01:00:00Z</time>
      </trkpt>
      <trkpt lat="63.3918165" lon="10.43605683">
        <ele>121.464</ele>
        <time>1970-01-01T01:00:00Z</time>
      </trkpt>
      <trkpt lat="63.391851" lon="10.4361155">
        <ele>121.769</ele>
        <time>1970-01-01T01:00:00Z</time>
      </trkpt>
      <trkpt lat="63.3918865" lon="10.43617233">
        <ele>121.769</ele>
        <time>1970-01-01T01:00:00Z</time>
      </trkpt>
      <trkpt lat="63.391923" lon="10.4362275">
        <ele>122.074</ele>
        <time>1970-01-01T01:00:00Z</time>
      </trkpt>
      <trkpt lat="63.39196083" lon="10.43628033">
        <ele>122.074</ele>
        <time>1970-01-01T01:00:00Z</time>
      </trkpt>
      <trkpt lat="63.3919995" lon="10.436333">
        <ele>122.226</ele>
        <time>1970-01-01T01:00:00Z</time>
      </trkpt>
      <trkpt lat="63.392039" lon="10.43638467">
        <ele>122.226</ele>
        <time>1970-01-01T01:00:00Z</time>
      </trkpt>
      <trkpt lat="63.3920795" lon="10.43643683">
        <ele>122.531</ele>
        <time>1970-01-01T01:00:00Z</time>
      </trkpt>
      <trkpt lat="63.3921215" lon="10.436488">
        <ele>122.531</ele>
        <time>1970-01-01T01:00:00Z</time>
      </trkpt>
      <trkpt lat="63.3921645" lon="10.43653933">
        <ele>122.683</ele>
        <time>1970-01-01T01:00:00Z</time>
      </trkpt>
      <trkpt lat="63.39220833" lon="10.43659083">
        <ele>122.683</ele>
        <time>1970-01-01T01:00:00Z</time>
      </trkpt>
      <trkpt lat="63.39225217" lon="10.4366425">
        <ele>122.988</ele>
        <time>1970-01-01T01:00:00Z</time>
      </trkpt>
      <trkpt lat="63.39229567" lon="10.43669433">
        <ele>122.988</ele>
        <time>1970-01-01T01:00:00Z</time>
      </trkpt>
      <trkpt lat="63.39233783" lon="10.43674367">
        <ele>123.141</ele>
        <time>1970-01-01T01:00:00Z</time>
      </trkpt>
      <trkpt lat="63.39238" lon="10.43679117">
        <ele>123.141</ele>
        <time>1970-01-01T01:00:00Z</time>
      </trkpt>
      <trkpt lat="63.39242217" lon="10.43683917">
        <ele>123.445</ele>
        <time>1970-01-01T01:00:00Z</time>
      </trkpt>
      <trkpt lat="63.3924645" lon="10.43688767">
        <ele>123.445</ele>
        <time>1970-01-01T01:00:00Z</time>
      </trkpt>
      <trkpt lat="63.39250583" lon="10.436937">
        <ele>123.598</ele>
        <time>1970-01-01T01:00:00Z</time>
      </trkpt>
      <trkpt lat="63.39254683" lon="10.436985">
        <ele>123.598</ele>
        <time>1970-01-01T01:00:00Z</time>
      </trkpt>
      <trkpt lat="63.39258817" lon="10.4370345">
        <ele>123.75</ele>
        <time>1970-01-01T01:00:00Z</time>
      </trkpt>
      <trkpt lat="63.3926305" lon="10.4370855">
        <ele>123.75</ele>
        <time>1970-01-01T01:00:00Z</time>
      </trkpt>
      <trkpt lat="63.392674" lon="10.43713767">
        <ele>123.903</ele>
        <time>1970-01-01T01:00:00Z</time>
      </trkpt>
      <trkpt lat="63.392719" lon="10.43719133">
        <ele>123.903</ele>
        <time>1970-01-01T01:00:00Z</time>
      </trkpt>
      <trkpt lat="63.3927655" lon="10.437246">
        <ele>124.208</ele>
        <time>1970-01-01T01:00:00Z</time>
      </trkpt>
      <trkpt lat="63.39281283" lon="10.43730217">
        <ele>124.208</ele>
        <time>1970-01-01T01:00:00Z</time>
      </trkpt>
      <trkpt lat="63.392861" lon="10.43735917">
        <ele>124.36</ele>
        <time>1970-01-01T01:00:00Z</time>
      </trkpt>
      <trkpt lat="63.3929095" lon="10.43741683">
        <ele>124.36</ele>
        <time>1970-01-01T01:00:00Z</time>
      </trkpt>
      <trkpt lat="63.39295867" lon="10.43747517">
        <ele>124.512</ele>
        <time>1970-01-01T01:00:00Z</time>
      </trkpt>
      <trkpt lat="63.39300833" lon="10.4375335">
        <ele>124.512</ele>
        <time>1970-01-01T01:00:00Z</time>
      </trkpt>
      <trkpt lat="63.39305883" lon="10.43759217">
        <ele>124.665</ele>
        <time>1970-01-01T01:00:00Z</time>
      </trkpt>
      <trkpt lat="63.39311" lon="10.43765083">
        <ele>124.665</ele>
        <time>1970-01-01T01:00:00Z</time>
      </trkpt>
      <trkpt lat="63.393162" lon="10.437711">
        <ele>124.665</ele>
        <time>1970-01-01T01:00:00Z</time>
      </trkpt>
      <trkpt lat="63.39321433" lon="10.437774">
        <ele>124.665</ele>
        <time>1970-01-01T01:00:00Z</time>
      </trkpt>
      <trkpt lat="63.39326717" lon="10.4378395">
        <ele>124.817</ele>
        <time>1970-01-01T01:00:00Z</time>
      </trkpt>
      <trkpt lat="63.39332033" lon="10.43790667">
        <ele>124.817</ele>
        <time>1970-01-01T01:00:00Z</time>
      </trkpt>
      <trkpt lat="63.3933745" lon="10.43797333">
        <ele>124.97</ele>
        <time>1970-01-01T01:00:00Z</time>
      </trkpt>
      <trkpt lat="63.3934285" lon="10.438039">
        <ele>124.97</ele>
        <time>1970-01-01T01:00:00Z</time>
      </trkpt>
      <trkpt lat="63.39348217" lon="10.438103">
        <ele>125.122</ele>
        <time>1970-01-01T01:00:00Z</time>
      </trkpt>
      <trkpt lat="63.3935345" lon="10.43816617">
        <ele>125.122</ele>
        <time>1970-01-01T01:00:00Z</time>
      </trkpt>
      <trkpt lat="63.39358567" lon="10.43822833">
        <ele>125.122</ele>
        <time>1970-01-01T01:00:00Z</time>
      </trkpt>
      <trkpt lat="63.39363533" lon="10.43828983">
        <ele>125.122</ele>
        <time>1970-01-01T01:00:00Z</time>
      </trkpt>
      <trkpt lat="63.393684" lon="10.43835">
        <ele>125.274</ele>
        <time>1970-01-01T01:00:00Z</time>
      </trkpt>
      <trkpt lat="63.39373183" lon="10.438408">
        <ele>125.274</ele>
        <time>1970-01-01T01:00:00Z</time>
      </trkpt>
      <trkpt lat="63.39377883" lon="10.43846433">
        <ele>125.427</ele>
        <time>1970-01-01T01:00:00Z</time>
      </trkpt>
      <trkpt lat="63.39382483" lon="10.43851983">
        <ele>125.427</ele>
        <time>1970-01-01T01:00:00Z</time>
      </trkpt>
      <trkpt lat="63.39387017" lon="10.43857533">
        <ele>125.427</ele>
        <time>1970-01-01T01:00:00Z</time>
      </trkpt>
      <trkpt lat="63.39391467" lon="10.43863083">
        <ele>125.427</ele>
        <time>1970-01-01T01:00:00Z</time>
      </trkpt>
      <trkpt lat="63.39395833" lon="10.438687">
        <ele>125.579</ele>
        <time>1970-01-01T01:00:00Z</time>
      </trkpt>
      <trkpt lat="63.39400083" lon="10.4387445">
        <ele>125.579</ele>
        <time>1970-01-01T01:00:00Z</time>
      </trkpt>
      <trkpt lat="63.39404233" lon="10.4388025">
        <ele>125.732</ele>
        <time>1970-01-01T01:00:00Z</time>
      </trkpt>
      <trkpt lat="63.39408333" lon="10.4388585">
        <ele>125.732</ele>
        <time>1970-01-01T01:00:00Z</time>
      </trkpt>
      <trkpt lat="63.3941235" lon="10.43891067">
        <ele>125.884</ele>
        <time>1970-01-01T01:00:00Z</time>
      </trkpt>
      <trkpt lat="63.394163" lon="10.4389595">
        <ele>125.884</ele>
        <time>1970-01-01T01:00:00Z</time>
      </trkpt>
      <trkpt lat="63.3942015" lon="10.43900567">
        <ele>125.884</ele>
        <time>1970-01-01T01:00:00Z</time>
      </trkpt>
      <trkpt lat="63.39423967" lon="10.43905067">
        <ele>125.884</ele>
        <time>1970-01-01T01:00:00Z</time>
      </trkpt>
      <trkpt lat="63.394277" lon="10.43909417">
        <ele>126.036</ele>
        <time>1970-01-01T01:00:00Z</time>
      </trkpt>
      <trkpt lat="63.39431333" lon="10.43913667">
        <ele>126.036</ele>
        <time>1970-01-01T01:00:00Z</time>
      </trkpt>
      <trkpt lat="63.39434883" lon="10.43917683">
        <ele>126.189</ele>
        <time>1970-01-01T01:00:00Z</time>
      </trkpt>
      <trkpt lat="63.3943835" lon="10.43921583">
        <ele>126.189</ele>
        <time>1970-01-01T01:00:00Z</time>
      </trkpt>
      <trkpt lat="63.3944175" lon="10.43925417">
        <ele>126.341</ele>
        <time>1970-01-01T01:00:00Z</time>
      </trkpt>
      <trkpt lat="63.394451" lon="10.43929333">
        <ele>126.341</ele>
        <time>1970-01-01T01:00:00Z</time>
      </trkpt>
      <trkpt lat="63.39448467" lon="10.43933133">
        <ele>126.494</ele>
        <time>1970-01-01T01:00:00Z</time>
      </trkpt>
      <trkpt lat="63.39451883" lon="10.43936733">
        <ele>126.494</ele>
        <time>1970-01-01T01:00:00Z</time>
      </trkpt>
      <trkpt lat="63.39455333" lon="10.439401">
        <ele>126.798</ele>
        <time>1970-01-01T01:00:00Z</time>
      </trkpt>
      <trkpt lat="63.3945875" lon="10.43943483">
        <ele>126.798</ele>
        <time>1970-01-01T01:00:00Z</time>
      </trkpt>
      <trkpt lat="63.394621" lon="10.43946983">
        <ele>126.951</ele>
        <time>1970-01-01T01:00:00Z</time>
      </trkpt>
      <trkpt lat="63.39465417" lon="10.43950633">
        <ele>126.951</ele>
        <time>1970-01-01T01:00:00Z</time>
      </trkpt>
      <trkpt lat="63.394687" lon="10.43954317">
        <ele>127.103</ele>
        <time>1970-01-01T01:00:00Z</time>
      </trkpt>
      <trkpt lat="63.39471983" lon="10.43958133">
        <ele>127.103</ele>
        <time>1970-01-01T01:00:00Z</time>
      </trkpt>
      <trkpt lat="63.39475217" lon="10.439621">
        <ele>127.256</ele>
        <time>1970-01-01T01:00:00Z</time>
      </trkpt>
      <trkpt lat="63.394784" lon="10.43966167">
        <ele>127.256</ele>
        <time>1970-01-01T01:00:00Z</time>
      </trkpt>
      <trkpt lat="63.39481583" lon="10.43970183">
        <ele>127.56</ele>
        <time>1970-01-01T01:00:00Z</time>
      </trkpt>
      <trkpt lat="63.394848" lon="10.43973983">
        <ele>127.56</ele>
        <time>1970-01-01T01:00:00Z</time>
      </trkpt>
      <trkpt lat="63.3948805" lon="10.43977733">
        <ele>127.713</ele>
        <time>1970-01-01T01:00:00Z</time>
      </trkpt>
      <trkpt lat="63.39491283" lon="10.43981517">
        <ele>127.713</ele>
        <time>1970-01-01T01:00:00Z</time>
      </trkpt>
      <trkpt lat="63.39494483" lon="10.439854">
        <ele>127.865</ele>
        <time>1970-01-01T01:00:00Z</time>
      </trkpt>
      <trkpt lat="63.39497683" lon="10.43989283">
        <ele>127.865</ele>
        <time>1970-01-01T01:00:00Z</time>
      </trkpt>
      <trkpt lat="63.39500883" lon="10.43993117">
        <ele>128.17</ele>
        <time>1970-01-01T01:00:00Z</time>
      </trkpt>
      <trkpt lat="63.39504083" lon="10.4399705">
        <ele>128.17</ele>
        <time>1970-01-01T01:00:00Z</time>
      </trkpt>
      <trkpt lat="63.39507283" lon="10.440011">
        <ele>128.322</ele>
        <time>1970-01-01T01:00:00Z</time>
      </trkpt>
      <trkpt lat="63.39510483" lon="10.44005317">
        <ele>128.322</ele>
        <time>1970-01-01T01:00:00Z</time>
      </trkpt>
      <trkpt lat="63.39513683" lon="10.44009617">
        <ele>128.627</ele>
        <time>1970-01-01T01:00:00Z</time>
      </trkpt>
      <trkpt lat="63.39516867" lon="10.44014033">
        <ele>128.627</ele>
        <time>1970-01-01T01:00:00Z</time>
      </trkpt>
      <trkpt lat="63.39520033" lon="10.4401855">
        <ele>128.78</ele>
        <time>1970-01-01T01:00:00Z</time>
      </trkpt>
      <trkpt lat="63.3952315" lon="10.44023167">
        <ele>128.78</ele>
        <time>1970-01-01T01:00:00Z</time>
      </trkpt>
      <trkpt lat="63.39526217" lon="10.4402795">
        <ele>129.084</ele>
        <time>1970-01-01T01:00:00Z</time>
      </trkpt>
      <trkpt lat="63.39529183" lon="10.440329">
        <ele>129.084</ele>
        <time>1970-01-01T01:00:00Z</time>
      </trkpt>
      <trkpt lat="63.39532183" lon="10.44038017">
        <ele>129.237</ele>
        <time>1970-01-01T01:00:00Z</time>
      </trkpt>
      <trkpt lat="63.39535183" lon="10.44043283">
        <ele>129.237</ele>
        <time>1970-01-01T01:00:00Z</time>
      </trkpt>
      <trkpt lat="63.39538167" lon="10.44048833">
        <ele>129.542</ele>
        <time>1970-01-01T01:00:00Z</time>
      </trkpt>
      <trkpt lat="63.39541017" lon="10.44054667">
        <ele>129.542</ele>
        <time>1970-01-01T01:00:00Z</time>
      </trkpt>
      <trkpt lat="63.3954375" lon="10.44060717">
        <ele>129.846</ele>
        <time>1970-01-01T01:00:00Z</time>
      </trkpt>
      <trkpt lat="63.3954645" lon="10.44066833">
        <ele>129.846</ele>
        <time>1970-01-01T01:00:00Z</time>
      </trkpt>
      <trkpt lat="63.395491" lon="10.44073033">
        <ele>129.999</ele>
        <time>1970-01-01T01:00:00Z</time>
      </trkpt>
      <trkpt lat="63.395517" lon="10.44079317">
        <ele>129.999</ele>
        <time>1970-01-01T01:00:00Z</time>
      </trkpt>
      <trkpt lat="63.3955425" lon="10.44085683">
        <ele>130.304</ele>
        <time>1970-01-01T01:00:00Z</time>
      </trkpt>
      <trkpt lat="63.3955675" lon="10.44092117">
        <ele>130.304</ele>
        <time>1970-01-01T01:00:00Z</time>
      </trkpt>
      <trkpt lat="63.39559167" lon="10.44098667">
        <ele>130.608</ele>
        <time>1970-01-01T01:00:00Z</time>
      </trkpt>
      <trkpt lat="63.39561517" lon="10.44105417">
        <ele>130.608</ele>
        <time>1970-01-01T01:00:00Z</time>
      </trkpt>
      <trkpt lat="63.395639" lon="10.44112217">
        <ele>130.761</ele>
        <time>1970-01-01T01:00:00Z</time>
      </trkpt>
      <trkpt lat="63.39566267" lon="10.441191">
        <ele>130.761</ele>
        <time>1970-01-01T01:00:00Z</time>
      </trkpt>
      <trkpt lat="63.395686" lon="10.44126017">
        <ele>131.066</ele>
        <time>1970-01-01T01:00:00Z</time>
      </trkpt>
      <trkpt lat="63.39570867" lon="10.44133033">
        <ele>131.066</ele>
        <time>1970-01-01T01:00:00Z</time>
      </trkpt>
      <trkpt lat="63.39573117" lon="10.44140133">
        <ele>131.37</ele>
        <time>1970-01-01T01:00:00Z</time>
      </trkpt>
      <trkpt lat="63.3957535" lon="10.44147267">
        <ele>131.37</ele>
        <time>1970-01-01T01:00:00Z</time>
      </trkpt>
      <trkpt lat="63.3957765" lon="10.44154433">
        <ele>131.523</ele>
        <time>1970-01-01T01:00:00Z</time>
      </trkpt>
      <trkpt lat="63.39580033" lon="10.44161633">
        <ele>131.523</ele>
        <time>1970-01-01T01:00:00Z</time>
      </trkpt>
      <trkpt lat="63.39582533" lon="10.441689">
        <ele>131.828</ele>
        <time>1970-01-01T01:00:00Z</time>
      </trkpt>
      <trkpt lat="63.39585033" lon="10.44176367">
        <ele>131.828</ele>
        <time>1970-01-01T01:00:00Z</time>
      </trkpt>
      <trkpt lat="63.3958755" lon="10.44183983">
        <ele>131.98</ele>
        <time>1970-01-01T01:00:00Z</time>
      </trkpt>
      <trkpt lat="63.395901" lon="10.44191833">
        <ele>131.98</ele>
        <time>1970-01-01T01:00:00Z</time>
      </trkpt>
      <trkpt lat="63.39592667" lon="10.44199783">
        <ele>132.285</ele>
        <time>1970-01-01T01:00:00Z</time>
      </trkpt>
      <trkpt lat="63.39595233" lon="10.44207867">
        <ele>132.285</ele>
        <time>1970-01-01T01:00:00Z</time>
      </trkpt>
      <trkpt lat="63.39597783" lon="10.44215967">
        <ele>132.59</ele>
        <time>1970-01-01T01:00:00Z</time>
      </trkpt>
      <trkpt lat="63.39600367" lon="10.442241">
        <ele>132.59</ele>
        <time>1970-01-01T01:00:00Z</time>
      </trkpt>
      <trkpt lat="63.39602983" lon="10.4423225">
        <ele>132.742</ele>
        <time>1970-01-01T01:00:00Z</time>
      </trkpt>
      <trkpt lat="63.39605617" lon="10.4424045">
        <ele>132.742</ele>
        <time>1970-01-01T01:00:00Z</time>
      </trkpt>
      <trkpt lat="63.39608267" lon="10.44248667">
        <ele>133.047</ele>
        <time>1970-01-01T01:00:00Z</time>
      </trkpt>
      <trkpt lat="63.3961095" lon="10.44256833">
        <ele>133.047</ele>
        <time>1970-01-01T01:00:00Z</time>
      </trkpt>
      <trkpt lat="63.3961365" lon="10.44264917">
        <ele>133.199</ele>
        <time>1970-01-01T01:00:00Z</time>
      </trkpt>
      <trkpt lat="63.39616383" lon="10.44272883">
        <ele>133.199</ele>
        <time>1970-01-01T01:00:00Z</time>
      </trkpt>
      <trkpt lat="63.39619167" lon="10.44280683">
        <ele>133.504</ele>
        <time>1970-01-01T01:00:00Z</time>
      </trkpt>
      <trkpt lat="63.39622017" lon="10.44288267">
        <ele>133.504</ele>
        <time>1970-01-01T01:00:00Z</time>
      </trkpt>
      <trkpt lat="63.396249" lon="10.44295767">
        <ele>133.656</ele>
        <time>1970-01-01T01:00:00Z</time>
      </trkpt>
      <trkpt lat="63.39627767" lon="10.443032">
        <ele>133.656</ele>
        <time>1970-01-01T01:00:00Z</time>
      </trkpt>
      <trkpt lat="63.3963065" lon="10.44310567">
        <ele>133.961</ele>
        <time>1970-01-01T01:00:00Z</time>
      </trkpt>
      <trkpt lat="63.3963365" lon="10.44317633">
        <ele>133.961</ele>
        <time>1970-01-01T01:00:00Z</time>
      </trkpt>
      <trkpt lat="63.3963675" lon="10.44324417">
        <ele>134.114</ele>
        <time>1970-01-01T01:00:00Z</time>
      </trkpt>
      <trkpt lat="63.3964" lon="10.4433085">
        <ele>134.114</ele>
        <time>1970-01-01T01:00:00Z</time>
      </trkpt>
      <trkpt lat="63.396433" lon="10.44337083">
        <ele>134.266</ele>
        <time>1970-01-01T01:00:00Z</time>
      </trkpt>
      <trkpt lat="63.39646683" lon="10.44343067">
        <ele>134.266</ele>
        <time>1970-01-01T01:00:00Z</time>
      </trkpt>
      <trkpt lat="63.39650117" lon="10.44348817">
        <ele>134.571</ele>
        <time>1970-01-01T01:00:00Z</time>
      </trkpt>
      <trkpt lat="63.39653617" lon="10.4435425">
        <ele>134.571</ele>
        <time>1970-01-01T01:00:00Z</time>
      </trkpt>
      <trkpt lat="63.39657217" lon="10.443594">
        <ele>134.723</ele>
        <time>1970-01-01T01:00:00Z</time>
      </trkpt>
      <trkpt lat="63.396609" lon="10.443643">
        <ele>134.723</ele>
        <time>1970-01-01T01:00:00Z</time>
      </trkpt>
      <trkpt lat="63.39664717" lon="10.44368967">
        <ele>135.028</ele>
        <time>1970-01-01T01:00:00Z</time>
      </trkpt>
      <trkpt lat="63.396686" lon="10.44373483">
        <ele>135.028</ele>
        <time>1970-01-01T01:00:00Z</time>
      </trkpt>
      <trkpt lat="63.3967255" lon="10.44377833">
        <ele>135.18</ele>
        <time>1970-01-01T01:00:00Z</time>
      </trkpt>
      <trkpt lat="63.3967655" lon="10.44381967">
        <ele>135.18</ele>
        <time>1970-01-01T01:00:00Z</time>
      </trkpt>
      <trkpt lat="63.39680567" lon="10.44385883">
        <ele>135.333</ele>
        <time>1970-01-01T01:00:00Z</time>
      </trkpt>
      <trkpt lat="63.39684583" lon="10.44389617">
        <ele>135.333</ele>
        <time>1970-01-01T01:00:00Z</time>
      </trkpt>
      <trkpt lat="63.39688633" lon="10.44393083">
        <ele>135.638</ele>
        <time>1970-01-01T01:00:00Z</time>
      </trkpt>
      <trkpt lat="63.39692717" lon="10.44396117">
        <ele>135.638</ele>
        <time>1970-01-01T01:00:00Z</time>
      </trkpt>
      <trkpt lat="63.39696833" lon="10.44398717">
        <ele>135.79</ele>
        <time>1970-01-01T01:00:00Z</time>
      </trkpt>
      <trkpt lat="63.39700917" lon="10.44401133">
        <ele>135.79</ele>
        <time>1970-01-01T01:00:00Z</time>
      </trkpt>
      <trkpt lat="63.39704967" lon="10.44403517">
        <ele>136.095</ele>
        <time>1970-01-01T01:00:00Z</time>
      </trkpt>
      <trkpt lat="63.39708983" lon="10.44405783">
        <ele>136.095</ele>
        <time>1970-01-01T01:00:00Z</time>
      </trkpt>
      <trkpt lat="63.39713017" lon="10.44407767">
        <ele>136.247</ele>
        <time>1970-01-01T01:00:00Z</time>
      </trkpt>
      <trkpt lat="63.39717083" lon="10.4440925">
        <ele>136.247</ele>
        <time>1970-01-01T01:00:00Z</time>
      </trkpt>
      <trkpt lat="63.39721133" lon="10.4441035">
        <ele>136.552</ele>
        <time>1970-01-01T01:00:00Z</time>
      </trkpt>
      <trkpt lat="63.39725183" lon="10.4441115">
        <ele>136.552</ele>
        <time>1970-01-01T01:00:00Z</time>
      </trkpt>
      <trkpt lat="63.39729233" lon="10.444118">
        <ele>136.704</ele>
        <time>1970-01-01T01:00:00Z</time>
      </trkpt>
      <trkpt lat="63.39733233" lon="10.4441225">
        <ele>136.704</ele>
        <time>1970-01-01T01:00:00Z</time>
      </trkpt>
      <trkpt lat="63.39737183" lon="10.4441245">
        <ele>137.009</ele>
        <time>1970-01-01T01:00:00Z</time>
      </trkpt>
      <trkpt lat="63.39741067" lon="10.44412467">
        <ele>137.009</ele>
        <time>1970-01-01T01:00:00Z</time>
      </trkpt>
      <trkpt lat="63.39744917" lon="10.444124">
        <ele>137.314</ele>
        <time>1970-01-01T01:00:00Z</time>
      </trkpt>
      <trkpt lat="63.39748733" lon="10.444123">
        <ele>137.314</ele>
        <time>1970-01-01T01:00:00Z</time>
      </trkpt>
      <trkpt lat="63.397525" lon="10.44411983">
        <ele>137.466</ele>
        <time>1970-01-01T01:00:00Z</time>
      </trkpt>
      <trkpt lat="63.397562" lon="10.44411317">
        <ele>137.466</ele>
        <time>1970-01-01T01:00:00Z</time>
      </trkpt>
      <trkpt lat="63.39759883" lon="10.444104">
        <ele>137.771</ele>
        <time>1970-01-01T01:00:00Z</time>
      </trkpt>
      <trkpt lat="63.39763517" lon="10.44409333">
        <ele>137.771</ele>
        <time>1970-01-01T01:00:00Z</time>
      </trkpt>
      <trkpt lat="63.3976715" lon="10.44408117">
        <ele>138.076</ele>
        <time>1970-01-01T01:00:00Z</time>
      </trkpt>
      <trkpt lat="63.39770783" lon="10.44406667">
        <ele>138.076</ele>
        <time>1970-01-01T01:00:00Z</time>
      </trkpt>
      <trkpt lat="63.39774433" lon="10.44404967">
        <ele>138.381</ele>
        <time>1970-01-01T01:00:00Z</time>
      </trkpt>
      <trkpt lat="63.39778083" lon="10.44402917">
        <ele>138.381</ele>
        <time>1970-01-01T01:00:00Z</time>
      </trkpt>
      <trkpt lat="63.397817" lon="10.44400517">
        <ele>138.533</ele>
        <time>1970-01-01T01:00:00Z</time>
      </trkpt>
      <trkpt lat="63.397853" lon="10.44397917">
        <ele>138.533</ele>
        <time>1970-01-01T01:00:00Z</time>
      </trkpt>
      <trkpt lat="63.39788883" lon="10.4439515">
        <ele>138.838</ele>
        <time>1970-01-01T01:00:00Z</time>
      </trkpt>
      <trkpt lat="63.39792433" lon="10.4439235">
        <ele>138.838</ele>
        <time>1970-01-01T01:00:00Z</time>
      </trkpt>
      <trkpt lat="63.39795983" lon="10.44389383">
        <ele>139.143</ele>
        <time>1970-01-01T01:00:00Z</time>
      </trkpt>
      <trkpt lat="63.39799533" lon="10.4438625">
        <ele>139.143</ele>
        <time>1970-01-01T01:00:00Z</time>
      </trkpt>
      <trkpt lat="63.39803017" lon="10.4438295">
        <ele>139.448</ele>
        <time>1970-01-01T01:00:00Z</time>
      </trkpt>
      <trkpt lat="63.39806483" lon="10.44379417">
        <ele>139.448</ele>
        <time>1970-01-01T01:00:00Z</time>
      </trkpt>
      <trkpt lat="63.3980995" lon="10.4437575">
        <ele>139.753</ele>
        <time>1970-01-01T01:00:00Z</time>
      </trkpt>
      <trkpt lat="63.3981345" lon="10.44371917">
        <ele>139.753</ele>
        <time>1970-01-01T01:00:00Z</time>
      </trkpt>
      <trkpt lat="63.398169" lon="10.44367967">
        <ele>140.057</ele>
        <time>1970-01-01T01:00:00Z</time>
      </trkpt>
      <trkpt lat="63.39820317" lon="10.44363833">
        <ele>140.057</ele>
        <time>1970-01-01T01:00:00Z</time>
      </trkpt>
      <trkpt lat="63.39823667" lon="10.44359517">
        <ele>140.362</ele>
        <time>1970-01-01T01:00:00Z</time>
      </trkpt>
      <trkpt lat="63.39826933" lon="10.4435495">
        <ele>140.362</ele>
        <time>1970-01-01T01:00:00Z</time>
      </trkpt>
      <trkpt lat="63.39830167" lon="10.44350267">
        <ele>140.667</ele>
        <time>1970-01-01T01:00:00Z</time>
      </trkpt>
      <trkpt lat="63.39833367" lon="10.4434555">
        <ele>140.667</ele>
        <time>1970-01-01T01:00:00Z</time>
      </trkpt>
      <trkpt lat="63.39836583" lon="10.44340967">
        <ele>140.972</ele>
        <time>1970-01-01T01:00:00Z</time>
      </trkpt>
      <trkpt lat="63.3983985" lon="10.443365">
        <ele>140.972</ele>
        <time>1970-01-01T01:00:00Z</time>
      </trkpt>
      <trkpt lat="63.3984305" lon="10.44331983">
        <ele>141.277</ele>
        <time>1970-01-01T01:00:00Z</time>
      </trkpt>
      <trkpt lat="63.39846233" lon="10.44327467">
        <ele>141.277</ele>
        <time>1970-01-01T01:00:00Z</time>
      </trkpt>
      <trkpt lat="63.3984945" lon="10.44323">
        <ele>141.581</ele>
        <time>1970-01-01T01:00:00Z</time>
      </trkpt>
      <trkpt lat="63.39852717" lon="10.44318683">
        <ele>141.581</ele>
        <time>1970-01-01T01:00:00Z</time>
      </trkpt>
      <trkpt lat="63.39856017" lon="10.44314417">
        <ele>141.886</ele>
        <time>1970-01-01T01:00:00Z</time>
      </trkpt>
      <trkpt lat="63.39859283" lon="10.44310183">
        <ele>141.886</ele>
        <time>1970-01-01T01:00:00Z</time>
      </trkpt>
      <trkpt lat="63.39862533" lon="10.44306017">
        <ele>142.191</ele>
        <time>1970-01-01T01:00:00Z</time>
      </trkpt>
      <trkpt lat="63.398658" lon="10.44301883">
        <ele>142.191</ele>
        <time>1970-01-01T01:00:00Z</time>
      </trkpt>
      <trkpt lat="63.39869117" lon="10.4429785">
        <ele>142.496</ele>
        <time>1970-01-01T01:00:00Z</time>
      </trkpt>
      <trkpt lat="63.39872467" lon="10.442938">
        <ele>142.496</ele>
        <time>1970-01-01T01:00:00Z</time>
      </trkpt>
      <trkpt lat="63.39875917" lon="10.44289917">
        <ele>142.801</ele>
        <time>1970-01-01T01:00:00Z</time>
      </trkpt>
      <trkpt lat="63.39879367" lon="10.44286233">
        <ele>142.801</ele>
        <time>1970-01-01T01:00:00Z</time>
      </trkpt>
      <trkpt lat="63.39882883" lon="10.44282833">
        <ele>143.105</ele>
        <time>1970-01-01T01:00:00Z</time>
      </trkpt>
      <trkpt lat="63.39886367" lon="10.442796">
        <ele>143.105</ele>
        <time>1970-01-01T01:00:00Z</time>
      </trkpt>
      <trkpt lat="63.39889867" lon="10.44276467">
        <ele>143.41</ele>
        <time>1970-01-01T01:00:00Z</time>
      </trkpt>
      <trkpt lat="63.3989335" lon="10.44273433">
        <ele>143.41</ele>
        <time>1970-01-01T01:00:00Z</time>
      </trkpt>
      <trkpt lat="63.398969" lon="10.4427055">
        <ele>143.715</ele>
        <time>1970-01-01T01:00:00Z</time>
      </trkpt>
      <trkpt lat="63.39900567" lon="10.44268067">
        <ele>143.715</ele>
        <time>1970-01-01T01:00:00Z</time>
      </trkpt>
      <trkpt lat="63.39904283" lon="10.44265933">
        <ele>144.02</ele>
        <time>1970-01-01T01:00:00Z</time>
      </trkpt>
      <trkpt lat="63.39908033" lon="10.442642">
        <ele>144.02</ele>
        <time>1970-01-01T01:00:00Z</time>
      </trkpt>
      <trkpt lat="63.3991175" lon="10.4426265">
        <ele>144.477</ele>
        <time>1970-01-01T01:00:00Z</time>
      </trkpt>
      <trkpt lat="63.399155" lon="10.44261333">
        <ele>144.477</ele>
        <time>1970-01-01T01:00:00Z</time>
      </trkpt>
      <trkpt lat="63.39919317" lon="10.442604">
        <ele>144.782</ele>
        <time>1970-01-01T01:00:00Z</time>
      </trkpt>
      <trkpt lat="63.39923183" lon="10.44259933">
        <ele>144.782</ele>
        <time>1970-01-01T01:00:00Z</time>
      </trkpt>
      <trkpt lat="63.39927117" lon="10.44260017">
        <ele>145.087</ele>
        <time>1970-01-01T01:00:00Z</time>
      </trkpt>
      <trkpt lat="63.39931033" lon="10.442603">
        <ele>145.087</ele>
        <time>1970-01-01T01:00:00Z</time>
      </trkpt>
      <trkpt lat="63.39934967" lon="10.44260783">
        <ele>145.391</ele>
        <time>1970-01-01T01:00:00Z</time>
      </trkpt>
      <trkpt lat="63.39938883" lon="10.44261383">
        <ele>145.391</ele>
        <time>1970-01-01T01:00:00Z</time>
      </trkpt>
      <trkpt lat="63.39942817" lon="10.4426225">
        <ele>145.696</ele>
        <time>1970-01-01T01:00:00Z</time>
      </trkpt>
      <trkpt lat="63.3994675" lon="10.4426355">
        <ele>145.696</ele>
        <time>1970-01-01T01:00:00Z</time>
      </trkpt>
      <trkpt lat="63.39950667" lon="10.442655">
        <ele>146.001</ele>
        <time>1970-01-01T01:00:00Z</time>
      </trkpt>
      <trkpt lat="63.39954533" lon="10.44268083">
        <ele>146.001</ele>
        <time>1970-01-01T01:00:00Z</time>
      </trkpt>
      <trkpt lat="63.39958417" lon="10.44270933">
        <ele>146.306</ele>
        <time>1970-01-01T01:00:00Z</time>
      </trkpt>
      <trkpt lat="63.3996225" lon="10.4427385">
        <ele>146.306</ele>
        <time>1970-01-01T01:00:00Z</time>
      </trkpt>
      <trkpt lat="63.3996605" lon="10.44277017">
        <ele>146.763</ele>
        <time>1970-01-01T01:00:00Z</time>
      </trkpt>
      <trkpt lat="63.3996975" lon="10.442806">
        <ele>146.763</ele>
        <time>1970-01-01T01:00:00Z</time>
      </trkpt>
      <trkpt lat="63.39973383" lon="10.4428455">
        <ele>147.068</ele>
        <time>1970-01-01T01:00:00Z</time>
      </trkpt>
      <trkpt lat="63.39976983" lon="10.44288867">
        <ele>147.068</ele>
        <time>1970-01-01T01:00:00Z</time>
      </trkpt>
      <trkpt lat="63.39980533" lon="10.44293467">
        <ele>147.373</ele>
        <time>1970-01-01T01:00:00Z</time>
      </trkpt>
      <trkpt lat="63.39984067" lon="10.44298383">
        <ele>147.373</ele>
        <time>1970-01-01T01:00:00Z</time>
      </trkpt>
      <trkpt lat="63.39987517" lon="10.4430365">
        <ele>147.677</ele>
        <time>1970-01-01T01:00:00Z</time>
      </trkpt>
      <trkpt lat="63.39990867" lon="10.443093">
        <ele>147.677</ele>
        <time>1970-01-01T01:00:00Z</time>
      </trkpt>
      <trkpt lat="63.39994083" lon="10.44315417">
        <ele>147.982</ele>
        <time>1970-01-01T01:00:00Z</time>
      </trkpt>
      <trkpt lat="63.39997233" lon="10.4432165">
        <ele>147.982</ele>
        <time>1970-01-01T01:00:00Z</time>
      </trkpt>
      <trkpt lat="63.40000283" lon="10.44327867">
        <ele>148.287</ele>
        <time>1970-01-01T01:00:00Z</time>
      </trkpt>
      <trkpt lat="63.4000325" lon="10.4433415">
        <ele>148.287</ele>
        <time>1970-01-01T01:00:00Z</time>
      </trkpt>
      <trkpt lat="63.4000615" lon="10.44340467">
        <ele>148.592</ele>
        <time>1970-01-01T01:00:00Z</time>
      </trkpt>
      <trkpt lat="63.40009067" lon="10.443469">
        <ele>148.592</ele>
        <time>1970-01-01T01:00:00Z</time>
      </trkpt>
      <trkpt lat="63.40012033" lon="10.443534">
        <ele>148.897</ele>
        <time>1970-01-01T01:00:00Z</time>
      </trkpt>
      <trkpt lat="63.40015067" lon="10.44360117">
        <ele>148.897</ele>
        <time>1970-01-01T01:00:00Z</time>
      </trkpt>
      <trkpt lat="63.4001815" lon="10.4436695">
        <ele>149.201</ele>
        <time>1970-01-01T01:00:00Z</time>
      </trkpt>
      <trkpt lat="63.40021283" lon="10.44373883">
        <ele>149.201</ele>
        <time>1970-01-01T01:00:00Z</time>
      </trkpt>
      <trkpt lat="63.40024433" lon="10.443808">
        <ele>149.354</ele>
        <time>1970-01-01T01:00:00Z</time>
      </trkpt>
      <trkpt lat="63.40027583" lon="10.44387733">
        <ele>149.354</ele>
        <time>1970-01-01T01:00:00Z</time>
      </trkpt>
      <trkpt lat="63.40030717" lon="10.4439465">
        <ele>149.659</ele>
        <time>1970-01-01T01:00:00Z</time>
      </trkpt>
      <trkpt lat="63.40033817" lon="10.44401617">
        <ele>149.659</ele>
        <time>1970-01-01T01:00:00Z</time>
      </trkpt>
      <trkpt lat="63.40036983" lon="10.444085">
        <ele>149.963</ele>
        <time>1970-01-01T01:00:00Z</time>
      </trkpt>
      <trkpt lat="63.40040183" lon="10.44415317">
        <ele>149.963</ele>
        <time>1970-01-01T01:00:00Z</time>
      </trkpt>
      <trkpt lat="63.40043417" lon="10.44422">
        <ele>150.268</ele>
        <time>1970-01-01T01:00:00Z</time>
      </trkpt>
      <trkpt lat="63.40046567" lon="10.4442865">
        <ele>150.268</ele>
        <time>1970-01-01T01:00:00Z</time>
      </trkpt>
      <trkpt lat="63.40049617" lon="10.444351">
        <ele>150.421</ele>
        <time>1970-01-01T01:00:00Z</time>
      </trkpt>
      <trkpt lat="63.40052517" lon="10.44441383">
        <ele>150.421</ele>
        <time>1970-01-01T01:00:00Z</time>
      </trkpt>
      <trkpt lat="63.40055283" lon="10.44447483">
        <ele>150.725</ele>
        <time>1970-01-01T01:00:00Z</time>
      </trkpt>
      <trkpt lat="63.40057917" lon="10.44453417">
        <ele>150.725</ele>
        <time>1970-01-01T01:00:00Z</time>
      </trkpt>
      <trkpt lat="63.40060517" lon="10.444591">
        <ele>150.878</ele>
        <time>1970-01-01T01:00:00Z</time>
      </trkpt>
      <trkpt lat="63.40063067" lon="10.44464517">
        <ele>150.878</ele>
        <time>1970-01-01T01:00:00Z</time>
      </trkpt>
      <trkpt lat="63.40065583" lon="10.4446975">
        <ele>151.183</ele>
        <time>1970-01-01T01:00:00Z</time>
      </trkpt>
      <trkpt lat="63.40067967" lon="10.44474983">
        <ele>151.183</ele>
        <time>1970-01-01T01:00:00Z</time>
      </trkpt>
      <trkpt lat="63.40070133" lon="10.44480333">
        <ele>151.487</ele>
        <time>1970-01-01T01:00:00Z</time>
      </trkpt>
      <trkpt lat="63.400721" lon="10.44485683">
        <ele>151.487</ele>
        <time>1970-01-01T01:00:00Z</time>
      </trkpt>
      <trkpt lat="63.40073967" lon="10.4449105">
        <ele>151.64</ele>
        <time>1970-01-01T01:00:00Z</time>
      </trkpt>
      <trkpt lat="63.400758" lon="10.44496267">
        <ele>151.64</ele>
        <time>1970-01-01T01:00:00Z</time>
      </trkpt>
      <trkpt lat="63.40077567" lon="10.44501583">
        <ele>151.792</ele>
        <time>1970-01-01T01:00:00Z</time>
      </trkpt>
      <trkpt lat="63.400793" lon="10.445067">
        <ele>151.792</ele>
        <time>1970-01-01T01:00:00Z</time>
      </trkpt>
      <trkpt lat="63.40080967" lon="10.44511517">
        <ele>152.097</ele>
        <time>1970-01-01T01:00:00Z</time>
      </trkpt>
      <trkpt lat="63.40082483" lon="10.445156">
        <ele>152.097</ele>
        <time>1970-01-01T01:00:00Z</time>
      </trkpt>
      <trkpt lat="63.40083733" lon="10.44518883">
        <ele>152.249</ele>
        <time>1970-01-01T01:00:00Z</time>
      </trkpt>
      <trkpt lat="63.40084617" lon="10.445213">
        <ele>152.249</ele>
        <time>1970-01-01T01:00:00Z</time>
      </trkpt>
      <trkpt lat="63.40085083" lon="10.44522683">
        <ele>152.402</ele>
        <time>1970-01-01T01:00:00Z</time>
      </trkpt>
      <trkpt lat="63.400853" lon="10.4452325">
        <ele>152.402</ele>
        <time>1970-01-01T01:00:00Z</time>
      </trkpt>
      <trkpt lat="63.4008535" lon="10.4452325">
        <ele>152.707</ele>
        <time>1970-01-01T01:00:00Z</time>
      </trkpt>
      <trkpt lat="63.4008545" lon="10.4452335">
        <ele>152.707</ele>
        <time>1970-01-01T01:00:00Z</time>
      </trkpt>
      <trkpt lat="63.400855" lon="10.44523467">
        <ele>152.859</ele>
        <time>1970-01-01T01:00:00Z</time>
      </trkpt>
      <trkpt lat="63.4008545" lon="10.44523417">
        <ele>152.859</ele>
        <time>1970-01-01T01:00:00Z</time>
      </trkpt>
      <trkpt lat="63.40085333" lon="10.4452325">
        <ele>153.011</ele>
        <time>1970-01-01T01:00:00Z</time>
      </trkpt>
      <trkpt lat="63.4008525" lon="10.4452325">
        <ele>153.011</ele>
        <time>1970-01-01T01:00:00Z</time>
      </trkpt>
      <trkpt lat="63.40085317" lon="10.44523417">
        <ele>153.164</ele>
        <time>1970-01-01T01:00:00Z</time>
      </trkpt>
      <trkpt lat="63.40085383" lon="10.44523517">
        <ele>153.164</ele>
        <time>1970-01-01T01:00:00Z</time>
      </trkpt>
      <trkpt lat="63.4008535" lon="10.445234">
        <ele>153.469</ele>
        <time>1970-01-01T01:00:00Z</time>
      </trkpt>
      <trkpt lat="63.400853" lon="10.44523367">
        <ele>153.469</ele>
        <time>1970-01-01T01:00:00Z</time>
      </trkpt>
      <trkpt lat="63.4008525" lon="10.4452325">
        <ele>153.621</ele>
        <time>1970-01-01T01:00:00Z</time>
      </trkpt>
      <trkpt lat="63.40085217" lon="10.4452315">
        <ele>153.621</ele>
        <time>1970-01-01T01:00:00Z</time>
      </trkpt>
      <trkpt lat="63.40085167" lon="10.44522933">
        <ele>153.773</ele>
        <time>1970-01-01T01:00:00Z</time>
      </trkpt>
      <trkpt lat="63.40085183" lon="10.44522833">
        <ele>153.773</ele>
        <time>1970-01-01T01:00:00Z</time>
      </trkpt>
      <trkpt lat="63.40085183" lon="10.44522783">
        <ele>153.926</ele>
        <time>1970-01-01T01:00:00Z</time>
      </trkpt>
      <trkpt lat="63.40085167" lon="10.44522817">
        <ele>153.926</ele>
        <time>1970-01-01T01:00:00Z</time>
      </trkpt>
      <trkpt lat="63.40085117" lon="10.44522867">
        <ele>154.078</ele>
        <time>1970-01-01T01:00:00Z</time>
      </trkpt>
      <trkpt lat="63.4008505" lon="10.44522917">
        <ele>154.078</ele>
        <time>1970-01-01T01:00:00Z</time>
      </trkpt>
      <trkpt lat="63.40084983" lon="10.4452295">
        <ele>154.231</ele>
        <time>1970-01-01T01:00:00Z</time>
      </trkpt>
      <trkpt lat="63.4008495" lon="10.44522967">
        <ele>154.231</ele>
        <time>1970-01-01T01:00:00Z</time>
      </trkpt>
      <trkpt lat="63.40084917" lon="10.44522967">
        <ele>154.383</ele>
        <time>1970-01-01T01:00:00Z</time>
      </trkpt>
      <trkpt lat="63.40084883" lon="10.44522917">
        <ele>154.383</ele>
        <time>1970-01-01T01:00:00Z</time>
      </trkpt>
      <trkpt lat="63.40084867" lon="10.44522867">
        <ele>154.535</ele>
        <time>1970-01-01T01:00:00Z</time>
      </trkpt>
      <trkpt lat="63.40084867" lon="10.44522767">
        <ele>154.535</ele>
        <time>1970-01-01T01:00:00Z</time>
      </trkpt>
      <trkpt lat="63.40084883" lon="10.4452265">
        <ele>154.688</ele>
        <time>1970-01-01T01:00:00Z</time>
      </trkpt>
      <trkpt lat="63.40084883" lon="10.44522517">
        <ele>154.688</ele>
        <time>1970-01-01T01:00:00Z</time>
      </trkpt>
      <trkpt lat="63.40084883" lon="10.44522417">
        <ele>154.84</ele>
        <time>1970-01-01T01:00:00Z</time>
      </trkpt>
      <trkpt lat="63.40084883" lon="10.44522333">
        <ele>154.84</ele>
        <time>1970-01-01T01:00:00Z</time>
      </trkpt>
      <trkpt lat="63.400849" lon="10.44522233">
        <ele>154.993</ele>
        <time>1970-01-01T01:00:00Z</time>
      </trkpt>
      <trkpt lat="63.40084917" lon="10.44522117">
        <ele>154.993</ele>
        <time>1970-01-01T01:00:00Z</time>
      </trkpt>
      <trkpt lat="63.4008495" lon="10.44521967">
        <ele>155.145</ele>
        <time>1970-01-01T01:00:00Z</time>
      </trkpt>
      <trkpt lat="63.40084983" lon="10.44521817">
        <ele>155.145</ele>
        <time>1970-01-01T01:00:00Z</time>
      </trkpt>
      <trkpt lat="63.40085" lon="10.44521683">
        <ele>155.145</ele>
        <time>1970-01-01T01:00:00Z</time>
      </trkpt>
      <trkpt lat="63.40085017" lon="10.4452155">
        <ele>155.145</ele>
        <time>1970-01-01T01:00:00Z</time>
      </trkpt>
      <trkpt lat="63.40085033" lon="10.44521417">
        <ele>155.297</ele>
        <time>1970-01-01T01:00:00Z</time>
      </trkpt>
      <trkpt lat="63.40085033" lon="10.44521267">
        <ele>155.297</ele>
        <time>1970-01-01T01:00:00Z</time>
      </trkpt>
      <trkpt lat="63.4008505" lon="10.44521133">
        <ele>155.45</ele>
        <time>1970-01-01T01:00:00Z</time>
      </trkpt>
      <trkpt lat="63.40085067" lon="10.44521">
        <ele>155.45</ele>
        <time>1970-01-01T01:00:00Z</time>
      </trkpt>
      <trkpt lat="63.400851" lon="10.44520883">
        <ele>155.602</ele>
        <time>1970-01-01T01:00:00Z</time>
      </trkpt>
      <trkpt lat="63.40085133" lon="10.44520767">
        <ele>155.602</ele>
        <time>1970-01-01T01:00:00Z</time>
      </trkpt>
      <trkpt lat="63.4008515" lon="10.44520667">
        <ele>155.602</ele>
        <time>1970-01-01T01:00:00Z</time>
      </trkpt>
      <trkpt lat="63.4008515" lon="10.44520567">
        <ele>155.602</ele>
        <time>1970-01-01T01:00:00Z</time>
      </trkpt>
      <trkpt lat="63.4008515" lon="10.44520483">
        <ele>155.755</ele>
        <time>1970-01-01T01:00:00Z</time>
      </trkpt>
      <trkpt lat="63.40085133" lon="10.44520367">
        <ele>155.755</ele>
        <time>1970-01-01T01:00:00Z</time>
      </trkpt>
      <trkpt lat="63.40085117" lon="10.44520233">
        <ele>155.907</ele>
        <time>1970-01-01T01:00:00Z</time>
      </trkpt>
      <trkpt lat="63.400851" lon="10.44520133">
        <ele>155.907</ele>
        <time>1970-01-01T01:00:00Z</time>
      </trkpt>
      <trkpt lat="63.400851" lon="10.445201">
        <ele>156.059</ele>
        <time>1970-01-01T01:00:00Z</time>
      </trkpt>
      <trkpt lat="63.40085117" lon="10.44520117">
        <ele>156.059</ele>
        <time>1970-01-01T01:00:00Z</time>
      </trkpt>
      <trkpt lat="63.400851" lon="10.44520133">
        <ele>156.212</ele>
        <time>1970-01-01T01:00:00Z</time>
      </trkpt>
      <trkpt lat="63.40085083" lon="10.44520133">
        <ele>156.212</ele>
        <time>1970-01-01T01:00:00Z</time>
      </trkpt>
      <trkpt lat="63.40085067" lon="10.44520167">
        <ele>156.364</ele>
        <time>1970-01-01T01:00:00Z</time>
      </trkpt>
      <trkpt lat="63.40085033" lon="10.445202">
        <ele>156.364</ele>
        <time>1970-01-01T01:00:00Z</time>
      </trkpt>
      <trkpt lat="63.40085017" lon="10.44520217">
        <ele>156.364</ele>
        <time>1970-01-01T01:00:00Z</time>
      </trkpt>
      <trkpt lat="63.40085" lon="10.44520217">
        <ele>156.364</ele>
        <time>1970-01-01T01:00:00Z</time>
      </trkpt>
      <trkpt lat="63.40084967" lon="10.44520217">
        <ele>156.517</ele>
        <time>1970-01-01T01:00:00Z</time>
      </trkpt>
      <trkpt lat="63.40084933" lon="10.44520183">
        <ele>156.517</ele>
        <time>1970-01-01T01:00:00Z</time>
      </trkpt>
      <trkpt lat="63.400849" lon="10.4452015">
        <ele>156.669</ele>
        <time>1970-01-01T01:00:00Z</time>
      </trkpt>
      <trkpt lat="63.40084867" lon="10.44520133">
        <ele>156.669</ele>
        <time>1970-01-01T01:00:00Z</time>
      </trkpt>
      <trkpt lat="63.4008485" lon="10.44520133">
        <ele>156.669</ele>
        <time>1970-01-01T01:00:00Z</time>
      </trkpt>
      <trkpt lat="63.4008485" lon="10.4452015">
        <ele>156.669</ele>
        <time>1970-01-01T01:00:00Z</time>
      </trkpt>
      <trkpt lat="63.40084833" lon="10.44520133">
        <ele>156.822</ele>
        <time>1970-01-01T01:00:00Z</time>
      </trkpt>
      <trkpt lat="63.40084833" lon="10.445201">
        <ele>156.822</ele>
        <time>1970-01-01T01:00:00Z</time>
      </trkpt>
      <trkpt lat="63.40084833" lon="10.44520033">
        <ele>156.822</ele>
        <time>1970-01-01T01:00:00Z</time>
      </trkpt>
      <trkpt lat="63.40084833" lon="10.44519983">
        <ele>156.822</ele>
        <time>1970-01-01T01:00:00Z</time>
      </trkpt>
      <trkpt lat="63.40084833" lon="10.4451995">
        <ele>156.974</ele>
        <time>1970-01-01T01:00:00Z</time>
      </trkpt>
      <trkpt lat="63.40084833" lon="10.44519933">
        <ele>156.974</ele>
        <time>1970-01-01T01:00:00Z</time>
      </trkpt>
      <trkpt lat="63.40084833" lon="10.44519917">
        <ele>156.974</ele>
        <time>1970-01-01T01:00:00Z</time>
      </trkpt>
      <trkpt lat="63.4008485" lon="10.445199">
        <ele>156.974</ele>
        <time>1970-01-01T01:00:00Z</time>
      </trkpt>
      <trkpt lat="63.40084867" lon="10.44519883">
        <ele>157.126</ele>
        <time>1970-01-01T01:00:00Z</time>
      </trkpt>
      <trkpt lat="63.40084883" lon="10.44519867">
        <ele>157.126</ele>
        <time>1970-01-01T01:00:00Z</time>
      </trkpt>
      <trkpt lat="63.400849" lon="10.44519867">
        <ele>157.126</ele>
        <time>1970-01-01T01:00:00Z</time>
      </trkpt>
      <trkpt lat="63.400849" lon="10.4451985">
        <ele>157.126</ele>
        <time>1970-01-01T01:00:00Z</time>
      </trkpt>
      <trkpt lat="63.40084917" lon="10.4451985">
        <ele>157.279</ele>
        <time>1970-01-01T01:00:00Z</time>
      </trkpt>
      <trkpt lat="63.40084933" lon="10.44519833">
        <ele>157.279</ele>
        <time>1970-01-01T01:00:00Z</time>
      </trkpt>
      <trkpt lat="63.40084933" lon="10.44519783">
        <ele>157.279</ele>
        <time>1970-01-01T01:00:00Z</time>
      </trkpt>
      <trkpt lat="63.40084933" lon="10.44519717">
        <ele>157.279</ele>
        <time>1970-01-01T01:00:00Z</time>
      </trkpt>
      <trkpt lat="63.40084933" lon="10.4451965">
        <ele>157.279</ele>
        <time>1970-01-01T01:00:00Z</time>
      </trkpt>
      <trkpt lat="63.40084933" lon="10.445196">
        <ele>157.279</ele>
        <time>1970-01-01T01:00:00Z</time>
      </trkpt>
      <trkpt lat="63.40084933" lon="10.4451955">
        <ele>157.431</ele>
        <time>1970-01-01T01:00:00Z</time>
      </trkpt>
      <trkpt lat="63.40084933" lon="10.44519483">
        <ele>157.431</ele>
        <time>1970-01-01T01:00:00Z</time>
      </trkpt>
      <trkpt lat="63.40084933" lon="10.44519433">
        <ele>157.431</ele>
        <time>1970-01-01T01:00:00Z</time>
      </trkpt>
      <trkpt lat="63.40084917" lon="10.44519383">
        <ele>157.431</ele>
        <time>1970-01-01T01:00:00Z</time>
      </trkpt>
      <trkpt lat="63.40084917" lon="10.44519333">
        <ele>157.431</ele>
        <time>1970-01-01T01:00:00Z</time>
      </trkpt>
      <trkpt lat="63.40084917" lon="10.4451925">
        <ele>157.431</ele>
        <time>1970-01-01T01:00:00Z</time>
      </trkpt>
      <trkpt lat="63.400849" lon="10.44519133">
        <ele>157.584</ele>
        <time>1970-01-01T01:00:00Z</time>
      </trkpt>
      <trkpt lat="63.40084883" lon="10.4451905">
        <ele>157.584</ele>
        <time>1970-01-01T01:00:00Z</time>
      </trkpt>
      <trkpt lat="63.40084883" lon="10.44518967">
        <ele>157.584</ele>
        <time>1970-01-01T01:00:00Z</time>
      </trkpt>
      <trkpt lat="63.40084867" lon="10.44518917">
        <ele>157.584</ele>
        <time>1970-01-01T01:00:00Z</time>
      </trkpt>
      <trkpt lat="63.40084867" lon="10.44518933">
        <ele>157.584</ele>
        <time>1970-01-01T01:00:00Z</time>
      </trkpt>
      <trkpt lat="63.4008485" lon="10.44518983">
        <ele>157.584</ele>
        <time>1970-01-01T01:00:00Z</time>
      </trkpt>
      <trkpt lat="63.4008485" lon="10.44519067">
        <ele>157.736</ele>
        <time>1970-01-01T01:00:00Z</time>
      </trkpt>
      <trkpt lat="63.4008485" lon="10.44519117">
        <ele>157.736</ele>
        <time>1970-01-01T01:00:00Z</time>
      </trkpt>
      <trkpt lat="63.40084867" lon="10.44519167">
        <ele>157.736</ele>
        <time>1970-01-01T01:00:00Z</time>
      </trkpt>
      <trkpt lat="63.40084867" lon="10.44519217">
        <ele>157.736</ele>
        <time>1970-01-01T01:00:00Z</time>
      </trkpt>
      <trkpt lat="63.40084867" lon="10.44519233">
        <ele>157.736</ele>
        <time>1970-01-01T01:00:00Z</time>
      </trkpt>
      <trkpt lat="63.4008485" lon="10.44519233">
        <ele>157.736</ele>
        <time>1970-01-01T01:00:00Z</time>
      </trkpt>
      <trkpt lat="63.4008485" lon="10.445192">
        <ele>157.736</ele>
        <time>1970-01-01T01:00:00Z</time>
      </trkpt>
      <trkpt lat="63.4008485" lon="10.4451915">
        <ele>157.736</ele>
        <time>1970-01-01T01:00:00Z</time>
      </trkpt>
      <trkpt lat="63.4008485" lon="10.44519117">
        <ele>157.888</ele>
        <time>1970-01-01T01:00:00Z</time>
      </trkpt>
      <trkpt lat="63.40084833" lon="10.445191">
        <ele>157.888</ele>
        <time>1970-01-01T01:00:00Z</time>
      </trkpt>
      <trkpt lat="63.40084817" lon="10.44519067">
        <ele>157.888</ele>
        <time>1970-01-01T01:00:00Z</time>
      </trkpt>
      <trkpt lat="63.400848" lon="10.44519017">
        <ele>157.888</ele>
        <time>1970-01-01T01:00:00Z</time>
      </trkpt>
      <trkpt lat="63.400848" lon="10.4451895">
        <ele>157.888</ele>
        <time>1970-01-01T01:00:00Z</time>
      </trkpt>
      <trkpt lat="63.400848" lon="10.44518883">
        <ele>157.888</ele>
        <time>1970-01-01T01:00:00Z</time>
      </trkpt>
      <trkpt lat="63.400848" lon="10.44518817">
        <ele>158.041</ele>
        <time>1970-01-01T01:00:00Z</time>
      </trkpt>
      <trkpt lat="63.40084817" lon="10.44518717">
        <ele>158.041</ele>
        <time>1970-01-01T01:00:00Z</time>
      </trkpt>
      <trkpt lat="63.40084817" lon="10.44518617">
        <ele>158.041</ele>
        <time>1970-01-01T01:00:00Z</time>
      </trkpt>
      <trkpt lat="63.40084833" lon="10.44518533">
        <ele>158.041</ele>
        <time>1970-01-01T01:00:00Z</time>
      </trkpt>
      <trkpt lat="63.4008485" lon="10.44518433">
        <ele>158.193</ele>
        <time>1970-01-01T01:00:00Z</time>
      </trkpt>
      <trkpt lat="63.4008485" lon="10.44518333">
        <ele>158.193</ele>
        <time>1970-01-01T01:00:00Z</time>
      </trkpt>
      <trkpt lat="63.40084867" lon="10.4451825">
        <ele>158.193</ele>
        <time>1970-01-01T01:00:00Z</time>
      </trkpt>
      <trkpt lat="63.40084883" lon="10.44518167">
        <ele>158.193</ele>
        <time>1970-01-01T01:00:00Z</time>
      </trkpt>
      <trkpt lat="63.400849" lon="10.44518067">
        <ele>158.346</ele>
        <time>1970-01-01T01:00:00Z</time>
      </trkpt>
      <trkpt lat="63.40084917" lon="10.44518">
        <ele>158.346</ele>
        <time>1970-01-01T01:00:00Z</time>
      </trkpt>
      <trkpt lat="63.40084933" lon="10.44517933">
        <ele>158.346</ele>
        <time>1970-01-01T01:00:00Z</time>
      </trkpt>
      <trkpt lat="63.40084933" lon="10.445179">
        <ele>158.346</ele>
        <time>1970-01-01T01:00:00Z</time>
      </trkpt>
      <trkpt lat="63.4008495" lon="10.4451785">
        <ele>158.498</ele>
        <time>1970-01-01T01:00:00Z</time>
      </trkpt>
      <trkpt lat="63.4008495" lon="10.44517817">
        <ele>158.498</ele>
        <time>1970-01-01T01:00:00Z</time>
      </trkpt>
      <trkpt lat="63.40084967" lon="10.44517767">
        <ele>158.498</ele>
        <time>1970-01-01T01:00:00Z</time>
      </trkpt>
      <trkpt lat="63.40084983" lon="10.445177">
        <ele>158.498</ele>
        <time>1970-01-01T01:00:00Z</time>
      </trkpt>
      <trkpt lat="63.40084983" lon="10.44517617">
        <ele>158.65</ele>
        <time>1970-01-01T01:00:00Z</time>
      </trkpt>
      <trkpt lat="63.40085" lon="10.4451755">
        <ele>158.65</ele>
        <time>1970-01-01T01:00:00Z</time>
      </trkpt>
      <trkpt lat="63.40085" lon="10.445175">
        <ele>158.65</ele>
        <time>1970-01-01T01:00:00Z</time>
      </trkpt>
      <trkpt lat="63.40085" lon="10.445175">
        <ele>158.65</ele>
        <time>1970-01-01T01:00:00Z</time>
      </trkpt>
      <trkpt lat="63.40085" lon="10.445175">
        <ele>158.803</ele>
        <time>1970-01-01T01:00:00Z</time>
      </trkpt>
      <trkpt lat="63.40084983" lon="10.44517517">
        <ele>158.803</ele>
        <time>1970-01-01T01:00:00Z</time>
      </trkpt>
      <trkpt lat="63.40084983" lon="10.44517533">
        <ele>158.955</ele>
        <time>1970-01-01T01:00:00Z</time>
      </trkpt>
      <trkpt lat="63.40084967" lon="10.44517583">
        <ele>158.955</ele>
        <time>1970-01-01T01:00:00Z</time>
      </trkpt>
      <trkpt lat="63.4008495" lon="10.44517633">
        <ele>158.955</ele>
        <time>1970-01-01T01:00:00Z</time>
      </trkpt>
      <trkpt lat="63.4008495" lon="10.44517667">
        <ele>158.955</ele>
        <time>1970-01-01T01:00:00Z</time>
      </trkpt>
      <trkpt lat="63.4008495" lon="10.44517683">
        <ele>159.108</ele>
        <time>1970-01-01T01:00:00Z</time>
      </trkpt>
      <trkpt lat="63.40085033" lon="10.44517833">
        <ele>159.108</ele>
        <time>1970-01-01T01:00:00Z</time>
      </trkpt>
      <trkpt lat="63.40085083" lon="10.44518017">
        <ele>159.26</ele>
        <time>1970-01-01T01:00:00Z</time>
      </trkpt>
      <trkpt lat="63.40085083" lon="10.44518217">
        <ele>159.26</ele>
        <time>1970-01-01T01:00:00Z</time>
      </trkpt>
      <trkpt lat="63.40084983" lon="10.445183">
        <ele>159.26</ele>
        <time>1970-01-01T01:00:00Z</time>
      </trkpt>
      <trkpt lat="63.40084917" lon="10.44518383">
        <ele>159.26</ele>
        <time>1970-01-01T01:00:00Z</time>
      </trkpt>
      <trkpt lat="63.40084917" lon="10.445185">
        <ele>159.412</ele>
        <time>1970-01-01T01:00:00Z</time>
      </trkpt>
      <trkpt lat="63.40084867" lon="10.44518633">
        <ele>159.412</ele>
        <time>1970-01-01T01:00:00Z</time>
      </trkpt>
      <trkpt lat="63.40084817" lon="10.44518783">
        <ele>159.412</ele>
        <time>1970-01-01T01:00:00Z</time>
      </trkpt>
      <trkpt lat="63.40084767" lon="10.44518917">
        <ele>159.412</ele>
        <time>1970-01-01T01:00:00Z</time>
      </trkpt>
      <trkpt lat="63.4008475" lon="10.44519">
        <ele>159.412</ele>
        <time>1970-01-01T01:00:00Z</time>
      </trkpt>
      <trkpt lat="63.40084733" lon="10.44519083">
        <ele>159.412</ele>
        <time>1970-01-01T01:00:00Z</time>
      </trkpt>
      <trkpt lat="63.400847" lon="10.4451915">
        <ele>159.565</ele>
        <time>1970-01-01T01:00:00Z</time>
      </trkpt>
      <trkpt lat="63.40084667" lon="10.445192">
        <ele>159.565</ele>
        <time>1970-01-01T01:00:00Z</time>
      </trkpt>
      <trkpt lat="63.40084667" lon="10.4451925">
        <ele>159.565</ele>
        <time>1970-01-01T01:00:00Z</time>
      </trkpt>
      <trkpt lat="63.4008485" lon="10.44519617">
        <ele>159.565</ele>
        <time>1970-01-01T01:00:00Z</time>
      </trkpt>
      <trkpt lat="63.40085183" lon="10.4452015">
        <ele>159.565</ele>
        <time>1970-01-01T01:00:00Z</time>
      </trkpt>
      <trkpt lat="63.40085817" lon="10.4452115">
        <ele>159.565</ele>
        <time>1970-01-01T01:00:00Z</time>
      </trkpt>
      <trkpt lat="63.40086533" lon="10.4452225">
        <ele>159.565</ele>
        <time>1970-01-01T01:00:00Z</time>
      </trkpt>
      <trkpt lat="63.40087417" lon="10.4452365">
        <ele>159.565</ele>
        <time>1970-01-01T01:00:00Z</time>
      </trkpt>
      <trkpt lat="63.40088367" lon="10.44525033">
        <ele>159.565</ele>
        <time>1970-01-01T01:00:00Z</time>
      </trkpt>
      <trkpt lat="63.400895" lon="10.44526483">
        <ele>159.565</ele>
        <time>1970-01-01T01:00:00Z</time>
      </trkpt>
      <trkpt lat="63.40090783" lon="10.445283">
        <ele>159.565</ele>
        <time>1970-01-01T01:00:00Z</time>
      </trkpt>
      <trkpt lat="63.40092233" lon="10.445306">
        <ele>159.565</ele>
        <time>1970-01-01T01:00:00Z</time>
      </trkpt>
      <trkpt lat="63.40093917" lon="10.44533433">
        <ele>159.717</ele>
        <time>1970-01-01T01:00:00Z</time>
      </trkpt>
      <trkpt lat="63.40095833" lon="10.44536717">
        <ele>159.717</ele>
        <time>1970-01-01T01:00:00Z</time>
      </trkpt>
      <trkpt lat="63.40097917" lon="10.44540583">
        <ele>159.717</ele>
        <time>1970-01-01T01:00:00Z</time>
      </trkpt>
      <trkpt lat="63.40100033" lon="10.445451">
        <ele>159.717</ele>
        <time>1970-01-01T01:00:00Z</time>
      </trkpt>
      <trkpt lat="63.40102183" lon="10.44550033">
        <ele>159.717</ele>
        <time>1970-01-01T01:00:00Z</time>
      </trkpt>
      <trkpt lat="63.40104417" lon="10.445552">
        <ele>159.717</ele>
        <time>1970-01-01T01:00:00Z</time>
      </trkpt>
      <trkpt lat="63.40106783" lon="10.44560383">
        <ele>159.717</ele>
        <time>1970-01-01T01:00:00Z</time>
      </trkpt>
      <trkpt lat="63.4010925" lon="10.44565717">
        <ele>159.717</ele>
        <time>1970-01-01T01:00:00Z</time>
      </trkpt>
      <trkpt lat="63.401118" lon="10.44571233">
        <ele>159.717</ele>
        <time>1970-01-01T01:00:00Z</time>
      </trkpt>
      <trkpt lat="63.401144" lon="10.44577017">
        <ele>159.717</ele>
        <time>1970-01-01T01:00:00Z</time>
      </trkpt>
      <trkpt lat="63.40117033" lon="10.44583">
        <ele>159.717</ele>
        <time>1970-01-01T01:00:00Z</time>
      </trkpt>
      <trkpt lat="63.401197" lon="10.44589167">
        <ele>159.717</ele>
        <time>1970-01-01T01:00:00Z</time>
      </trkpt>
      <trkpt lat="63.401225" lon="10.44595317">
        <ele>159.717</ele>
        <time>1970-01-01T01:00:00Z</time>
      </trkpt>
      <trkpt lat="63.401254" lon="10.44601467">
        <ele>159.717</ele>
        <time>1970-01-01T01:00:00Z</time>
      </trkpt>
      <trkpt lat="63.40128367" lon="10.4460765">
        <ele>159.717</ele>
        <time>1970-01-01T01:00:00Z</time>
      </trkpt>
      <trkpt lat="63.401313" lon="10.44614">
        <ele>159.717</ele>
        <time>1970-01-01T01:00:00Z</time>
      </trkpt>
      <trkpt lat="63.401343" lon="10.44620433">
        <ele>159.717</ele>
        <time>1970-01-01T01:00:00Z</time>
      </trkpt>
      <trkpt lat="63.4013735" lon="10.44626817">
        <ele>159.717</ele>
        <time>1970-01-01T01:00:00Z</time>
      </trkpt>
      <trkpt lat="63.40140367" lon="10.44633067">
        <ele>159.717</ele>
        <time>1970-01-01T01:00:00Z</time>
      </trkpt>
      <trkpt lat="63.40143217" lon="10.446391">
        <ele>159.717</ele>
        <time>1970-01-01T01:00:00Z</time>
      </trkpt>
      <trkpt lat="63.40145933" lon="10.44644767">
        <ele>159.717</ele>
        <time>1970-01-01T01:00:00Z</time>
      </trkpt>
      <trkpt lat="63.4014865" lon="10.4465">
        <ele>159.717</ele>
        <time>1970-01-01T01:00:00Z</time>
      </trkpt>
      <trkpt lat="63.4015145" lon="10.44654767">
        <ele>159.87</ele>
        <time>1970-01-01T01:00:00Z</time>
      </trkpt>
      <trkpt lat="63.401544" lon="10.4465905">
        <ele>159.87</ele>
        <time>1970-01-01T01:00:00Z</time>
      </trkpt>
      <trkpt lat="63.40157483" lon="10.44662883">
        <ele>159.87</ele>
        <time>1970-01-01T01:00:00Z</time>
      </trkpt>
      <trkpt lat="63.40160717" lon="10.44666083">
        <ele>159.87</ele>
        <time>1970-01-01T01:00:00Z</time>
      </trkpt>
      <trkpt lat="63.4016405" lon="10.44668933">
        <ele>159.87</ele>
        <time>1970-01-01T01:00:00Z</time>
      </trkpt>
      <trkpt lat="63.40167467" lon="10.44671717">
        <ele>159.87</ele>
        <time>1970-01-01T01:00:00Z</time>
      </trkpt>
      <trkpt lat="63.4017105" lon="10.44674633">
        <ele>159.717</ele>
        <time>1970-01-01T01:00:00Z</time>
      </trkpt>
      <trkpt lat="63.401749" lon="10.4467755">
        <ele>159.717</ele>
        <time>1970-01-01T01:00:00Z</time>
      </trkpt>
      <trkpt lat="63.401791" lon="10.44680167">
        <ele>159.717</ele>
        <time>1970-01-01T01:00:00Z</time>
      </trkpt>
      <trkpt lat="63.4018365" lon="10.44682517">
        <ele>159.717</ele>
        <time>1970-01-01T01:00:00Z</time>
      </trkpt>
      <trkpt lat="63.40188517" lon="10.446845">
        <ele>159.717</ele>
        <time>1970-01-01T01:00:00Z</time>
      </trkpt>
      <trkpt lat="63.40193667" lon="10.44685967">
        <ele>159.717</ele>
        <time>1970-01-01T01:00:00Z</time>
      </trkpt>
      <trkpt lat="63.40199067" lon="10.446868">
        <ele>159.717</ele>
        <time>1970-01-01T01:00:00Z</time>
      </trkpt>
      <trkpt lat="63.4020465" lon="10.446869">
        <ele>159.717</ele>
        <time>1970-01-01T01:00:00Z</time>
      </trkpt>
      <trkpt lat="63.40210433" lon="10.4468625">
        <ele>159.565</ele>
        <time>1970-01-01T01:00:00Z</time>
      </trkpt>
      <trkpt lat="63.40216483" lon="10.44684583">
        <ele>159.565</ele>
        <time>1970-01-01T01:00:00Z</time>
      </trkpt>
      <trkpt lat="63.40222767" lon="10.44682067">
        <ele>159.565</ele>
        <time>1970-01-01T01:00:00Z</time>
      </trkpt>
      <trkpt lat="63.40229217" lon="10.446789">
        <ele>159.565</ele>
        <time>1970-01-01T01:00:00Z</time>
      </trkpt>
      <trkpt lat="63.40235817" lon="10.44675317">
        <ele>159.412</ele>
        <time>1970-01-01T01:00:00Z</time>
      </trkpt>
      <trkpt lat="63.40242583" lon="10.44671317">
        <ele>159.412</ele>
        <time>1970-01-01T01:00:00Z</time>
      </trkpt>
      <trkpt lat="63.40249583" lon="10.44666967">
        <ele>159.26</ele>
        <time>1970-01-01T01:00:00Z</time>
      </trkpt>
      <trkpt lat="63.40256783" lon="10.44662483">
        <ele>159.26</ele>
        <time>1970-01-01T01:00:00Z</time>
      </trkpt>
      <trkpt lat="63.40264217" lon="10.44658017">
        <ele>159.26</ele>
        <time>1970-01-01T01:00:00Z</time>
      </trkpt>
      <trkpt lat="63.40271867" lon="10.44653633">
        <ele>159.26</ele>
        <time>1970-01-01T01:00:00Z</time>
      </trkpt>
      <trkpt lat="63.40279717" lon="10.446493">
        <ele>159.108</ele>
        <time>1970-01-01T01:00:00Z</time>
      </trkpt>
      <trkpt lat="63.4028775" lon="10.4464535">
        <ele>159.108</ele>
        <time>1970-01-01T01:00:00Z</time>
      </trkpt>
      <trkpt lat="63.40296017" lon="10.44642117">
        <ele>158.955</ele>
        <time>1970-01-01T01:00:00Z</time>
      </trkpt>
      <trkpt lat="63.4030445" lon="10.44640033">
        <ele>158.955</ele>
        <time>1970-01-01T01:00:00Z</time>
      </trkpt>
      <trkpt lat="63.40313033" lon="10.44639967">
        <ele>158.65</ele>
        <time>1970-01-01T01:00:00Z</time>
      </trkpt>
      <trkpt lat="63.40321617" lon="10.4464185">
        <ele>158.65</ele>
        <time>1970-01-01T01:00:00Z</time>
      </trkpt>
      <trkpt lat="63.4033" lon="10.44645933">
        <ele>158.498</ele>
        <time>1970-01-01T01:00:00Z</time>
      </trkpt>
      <trkpt lat="63.40338083" lon="10.4465105">
        <ele>158.498</ele>
        <time>1970-01-01T01:00:00Z</time>
      </trkpt>
      <trkpt lat="63.4034585" lon="10.446572">
        <ele>158.346</ele>
        <time>1970-01-01T01:00:00Z</time>
      </trkpt>
      <trkpt lat="63.40353217" lon="10.44664367">
        <ele>158.346</ele>
        <time>1970-01-01T01:00:00Z</time>
      </trkpt>
      <trkpt lat="63.40360117" lon="10.44672917">
        <ele>158.193</ele>
        <time>1970-01-01T01:00:00Z</time>
      </trkpt>
      <trkpt lat="63.40366683" lon="10.44682333">
        <ele>158.193</ele>
        <time>1970-01-01T01:00:00Z</time>
      </trkpt>
      <trkpt lat="63.40373067" lon="10.4469165">
        <ele>158.041</ele>
        <time>1970-01-01T01:00:00Z</time>
      </trkpt>
      <trkpt lat="63.40379383" lon="10.4470025">
        <ele>158.041</ele>
        <time>1970-01-01T01:00:00Z</time>
      </trkpt>
      <trkpt lat="63.40385533" lon="10.44708383">
        <ele>157.736</ele>
        <time>1970-01-01T01:00:00Z</time>
      </trkpt>
      <trkpt lat="63.40391567" lon="10.44716333">
        <ele>157.736</ele>
        <time>1970-01-01T01:00:00Z</time>
      </trkpt>
      <trkpt lat="63.4039745" lon="10.4472425">
        <ele>157.584</ele>
        <time>1970-01-01T01:00:00Z</time>
      </trkpt>
      <trkpt lat="63.40403283" lon="10.447318">
        <ele>157.584</ele>
        <time>1970-01-01T01:00:00Z</time>
      </trkpt>
      <trkpt lat="63.4040905" lon="10.447389">
        <ele>157.431</ele>
        <time>1970-01-01T01:00:00Z</time>
      </trkpt>
      <trkpt lat="63.40414683" lon="10.447457">
        <ele>157.431</ele>
        <time>1970-01-01T01:00:00Z</time>
      </trkpt>
      <trkpt lat="63.40420183" lon="10.44752517">
        <ele>157.279</ele>
        <time>1970-01-01T01:00:00Z</time>
      </trkpt>
      <trkpt lat="63.40425583" lon="10.44759567">
        <ele>157.279</ele>
        <time>1970-01-01T01:00:00Z</time>
      </trkpt>
      <trkpt lat="63.40431067" lon="10.44766617">
        <ele>157.126</ele>
        <time>1970-01-01T01:00:00Z</time>
      </trkpt>
      <trkpt lat="63.40436667" lon="10.44773583">
        <ele>157.126</ele>
        <time>1970-01-01T01:00:00Z</time>
      </trkpt>
      <trkpt lat="63.40442467" lon="10.44780333">
        <ele>156.974</ele>
        <time>1970-01-01T01:00:00Z</time>
      </trkpt>
      <trkpt lat="63.40448383" lon="10.4478695">
        <ele>156.974</ele>
        <time>1970-01-01T01:00:00Z</time>
      </trkpt>
      <trkpt lat="63.404544" lon="10.447935">
        <ele>156.822</ele>
        <time>1970-01-01T01:00:00Z</time>
      </trkpt>
      <trkpt lat="63.40460517" lon="10.44799983">
        <ele>156.822</ele>
        <time>1970-01-01T01:00:00Z</time>
      </trkpt>
      <trkpt lat="63.40466733" lon="10.448064">
        <ele>156.669</ele>
        <time>1970-01-01T01:00:00Z</time>
      </trkpt>
      <trkpt lat="63.40473117" lon="10.44812633">
        <ele>156.669</ele>
        <time>1970-01-01T01:00:00Z</time>
      </trkpt>
      <trkpt lat="63.40479567" lon="10.44818833">
        <ele>156.364</ele>
        <time>1970-01-01T01:00:00Z</time>
      </trkpt>
      <trkpt lat="63.40486083" lon="10.448251">
        <ele>156.364</ele>
        <time>1970-01-01T01:00:00Z</time>
      </trkpt>
      <trkpt lat="63.4049255" lon="10.44831733">
        <ele>156.212</ele>
        <time>1970-01-01T01:00:00Z</time>
      </trkpt>
      <trkpt lat="63.40498967" lon="10.44838667">
        <ele>156.212</ele>
        <time>1970-01-01T01:00:00Z</time>
      </trkpt>
      <trkpt lat="63.40505317" lon="10.44845933">
        <ele>156.059</ele>
        <time>1970-01-01T01:00:00Z</time>
      </trkpt>
      <trkpt lat="63.40511517" lon="10.4485345">
        <ele>156.059</ele>
        <time>1970-01-01T01:00:00Z</time>
      </trkpt>
      <trkpt lat="63.4051745" lon="10.44861567">
        <ele>155.755</ele>
        <time>1970-01-01T01:00:00Z</time>
      </trkpt>
      <trkpt lat="63.40523083" lon="10.44870067">
        <ele>155.755</ele>
        <time>1970-01-01T01:00:00Z</time>
      </trkpt>
      <trkpt lat="63.40528467" lon="10.44878967">
        <ele>155.602</ele>
        <time>1970-01-01T01:00:00Z</time>
      </trkpt>
      <trkpt lat="63.40533667" lon="10.44887917">
        <ele>155.602</ele>
        <time>1970-01-01T01:00:00Z</time>
      </trkpt>
      <trkpt lat="63.40538683" lon="10.44897167">
        <ele>155.45</ele>
        <time>1970-01-01T01:00:00Z</time>
      </trkpt>
      <trkpt lat="63.40543417" lon="10.4490675">
        <ele>155.45</ele>
        <time>1970-01-01T01:00:00Z</time>
      </trkpt>
      <trkpt lat="63.4054795" lon="10.44916533">
        <ele>155.145</ele>
        <time>1970-01-01T01:00:00Z</time>
      </trkpt>
      <trkpt lat="63.40552283" lon="10.4492645">
        <ele>155.145</ele>
        <time>1970-01-01T01:00:00Z</time>
      </trkpt>
      <trkpt lat="63.40556467" lon="10.44936483">
        <ele>154.993</ele>
        <time>1970-01-01T01:00:00Z</time>
      </trkpt>
      <trkpt lat="63.405605" lon="10.4494665">
        <ele>154.993</ele>
        <time>1970-01-01T01:00:00Z</time>
      </trkpt>
      <trkpt lat="63.40564383" lon="10.449571">
        <ele>154.84</ele>
        <time>1970-01-01T01:00:00Z</time>
      </trkpt>
      <trkpt lat="63.40568067" lon="10.44967967">
        <ele>154.84</ele>
        <time>1970-01-01T01:00:00Z</time>
      </trkpt>
      <trkpt lat="63.405714" lon="10.44979417">
        <ele>154.688</ele>
        <time>1970-01-01T01:00:00Z</time>
      </trkpt>
      <trkpt lat="63.405743" lon="10.44991333">
        <ele>154.688</ele>
        <time>1970-01-01T01:00:00Z</time>
      </trkpt>
      <trkpt lat="63.40576717" lon="10.45003583">
        <ele>154.535</ele>
        <time>1970-01-01T01:00:00Z</time>
      </trkpt>
      <trkpt lat="63.40578683" lon="10.450159">
        <ele>154.535</ele>
        <time>1970-01-01T01:00:00Z</time>
      </trkpt>
      <trkpt lat="63.40580433" lon="10.45028117">
        <ele>154.383</ele>
        <time>1970-01-01T01:00:00Z</time>
      </trkpt>
      <trkpt lat="63.405822" lon="10.45040133">
        <ele>154.383</ele>
        <time>1970-01-01T01:00:00Z</time>
      </trkpt>
      <trkpt lat="63.40584" lon="10.45051967">
        <ele>154.231</ele>
        <time>1970-01-01T01:00:00Z</time>
      </trkpt>
      <trkpt lat="63.405858" lon="10.45063633">
        <ele>154.231</ele>
        <time>1970-01-01T01:00:00Z</time>
      </trkpt>
      <trkpt lat="63.40587567" lon="10.4507505">
        <ele>154.231</ele>
        <time>1970-01-01T01:00:00Z</time>
      </trkpt>
      <trkpt lat="63.40589483" lon="10.4508605">
        <ele>154.231</ele>
        <time>1970-01-01T01:00:00Z</time>
      </trkpt>
      <trkpt lat="63.4059165" lon="10.450964">
        <ele>154.078</ele>
        <time>1970-01-01T01:00:00Z</time>
      </trkpt>
      <trkpt lat="63.40594117" lon="10.45106083">
        <ele>154.078</ele>
        <time>1970-01-01T01:00:00Z</time>
      </trkpt>
      <trkpt lat="63.40596833" lon="10.451151">
        <ele>154.078</ele>
        <time>1970-01-01T01:00:00Z</time>
      </trkpt>
      <trkpt lat="63.40599867" lon="10.45123583">
        <ele>154.078</ele>
        <time>1970-01-01T01:00:00Z</time>
      </trkpt>
      <trkpt lat="63.4060275" lon="10.45132167">
        <ele>153.926</ele>
        <time>1970-01-01T01:00:00Z</time>
      </trkpt>
      <trkpt lat="63.40605183" lon="10.45141317">
        <ele>153.926</ele>
        <time>1970-01-01T01:00:00Z</time>
      </trkpt>
      <trkpt lat="63.40606883" lon="10.45151283">
        <ele>153.926</ele>
        <time>1970-01-01T01:00:00Z</time>
      </trkpt>
      <trkpt lat="63.406079" lon="10.4516115">
        <ele>153.926</ele>
        <time>1970-01-01T01:00:00Z</time>
      </trkpt>
      <trkpt lat="63.40608167" lon="10.451703">
        <ele>153.926</ele>
        <time>1970-01-01T01:00:00Z</time>
      </trkpt>
      <trkpt lat="63.40607783" lon="10.45178367">
        <ele>153.926</ele>
        <time>1970-01-01T01:00:00Z</time>
      </trkpt>
      <trkpt lat="63.4060695" lon="10.45185617">
        <ele>153.773</ele>
        <time>1970-01-01T01:00:00Z</time>
      </trkpt>
      <trkpt lat="63.40606033" lon="10.45192383">
        <ele>153.773</ele>
        <time>1970-01-01T01:00:00Z</time>
      </trkpt>
      <trkpt lat="63.406051" lon="10.45198883">
        <ele>153.926</ele>
        <time>1970-01-01T01:00:00Z</time>
      </trkpt>
      <trkpt lat="63.40604267" lon="10.4520515">
        <ele>153.926</ele>
        <time>1970-01-01T01:00:00Z</time>
      </trkpt>
      <trkpt lat="63.40603567" lon="10.45211217">
        <ele>153.926</ele>
        <time>1970-01-01T01:00:00Z</time>
      </trkpt>
      <trkpt lat="63.40602983" lon="10.452171">
        <ele>153.926</ele>
        <time>1970-01-01T01:00:00Z</time>
      </trkpt>
      <trkpt lat="63.40602517" lon="10.45222917">
        <ele>153.926</ele>
        <time>1970-01-01T01:00:00Z</time>
      </trkpt>
      <trkpt lat="63.40602033" lon="10.45228617">
        <ele>153.926</ele>
        <time>1970-01-01T01:00:00Z</time>
      </trkpt>
      <trkpt lat="63.40601583" lon="10.45234267">
        <ele>154.078</ele>
        <time>1970-01-01T01:00:00Z</time>
      </trkpt>
      <trkpt lat="63.40600983" lon="10.45239883">
        <ele>154.078</ele>
        <time>1970-01-01T01:00:00Z</time>
      </trkpt>
      <trkpt lat="63.40600367" lon="10.452454">
        <ele>154.078</ele>
        <time>1970-01-01T01:00:00Z</time>
      </trkpt>
      <trkpt lat="63.40599567" lon="10.45250833">
        <ele>154.078</ele>
        <time>1970-01-01T01:00:00Z</time>
      </trkpt>
      <trkpt lat="63.40598817" lon="10.45256133">
        <ele>154.078</ele>
        <time>1970-01-01T01:00:00Z</time>
      </trkpt>
      <trkpt lat="63.4059815" lon="10.45261467">
        <ele>154.078</ele>
        <time>1970-01-01T01:00:00Z</time>
      </trkpt>
      <trkpt lat="63.40597433" lon="10.45266933">
        <ele>154.231</ele>
        <time>1970-01-01T01:00:00Z</time>
      </trkpt>
      <trkpt lat="63.4059665" lon="10.45272633">
        <ele>154.231</ele>
        <time>1970-01-01T01:00:00Z</time>
      </trkpt>
      <trkpt lat="63.405958" lon="10.452785">
        <ele>154.383</ele>
        <time>1970-01-01T01:00:00Z</time>
      </trkpt>
      <trkpt lat="63.40595167" lon="10.45284483">
        <ele>154.383</ele>
        <time>1970-01-01T01:00:00Z</time>
      </trkpt>
      <trkpt lat="63.4059465" lon="10.45290467">
        <ele>154.383</ele>
        <time>1970-01-01T01:00:00Z</time>
      </trkpt>
      <trkpt lat="63.40594183" lon="10.45296433">
        <ele>154.383</ele>
        <time>1970-01-01T01:00:00Z</time>
      </trkpt>
      <trkpt lat="63.40593567" lon="10.45302283">
        <ele>154.535</ele>
        <time>1970-01-01T01:00:00Z</time>
      </trkpt>
      <trkpt lat="63.40592883" lon="10.45308133">
        <ele>154.535</ele>
        <time>1970-01-01T01:00:00Z</time>
      </trkpt>
      <trkpt lat="63.40592083" lon="10.4531395">
        <ele>154.535</ele>
        <time>1970-01-01T01:00:00Z</time>
      </trkpt>
      <trkpt lat="63.40591233" lon="10.453198">
        <ele>154.535</ele>
        <time>1970-01-01T01:00:00Z</time>
      </trkpt>
      <trkpt lat="63.40590383" lon="10.45325767">
        <ele>154.688</ele>
        <time>1970-01-01T01:00:00Z</time>
      </trkpt>
      <trkpt lat="63.40589567" lon="10.45331833">
        <ele>154.688</ele>
        <time>1970-01-01T01:00:00Z</time>
      </trkpt>
      <trkpt lat="63.40588817" lon="10.45337933">
        <ele>154.84</ele>
        <time>1970-01-01T01:00:00Z</time>
      </trkpt>
      <trkpt lat="63.40588167" lon="10.453439">
        <ele>154.84</ele>
        <time>1970-01-01T01:00:00Z</time>
      </trkpt>
      <trkpt lat="63.4058755" lon="10.45349733">
        <ele>154.84</ele>
        <time>1970-01-01T01:00:00Z</time>
      </trkpt>
      <trkpt lat="63.4058695" lon="10.4535545">
        <ele>154.84</ele>
        <time>1970-01-01T01:00:00Z</time>
      </trkpt>
      <trkpt lat="63.405863" lon="10.45361117">
        <ele>154.993</ele>
        <time>1970-01-01T01:00:00Z</time>
      </trkpt>
      <trkpt lat="63.40585633" lon="10.4536675">
        <ele>154.993</ele>
        <time>1970-01-01T01:00:00Z</time>
      </trkpt>
      <trkpt lat="63.40584867" lon="10.45372417">
        <ele>155.145</ele>
        <time>1970-01-01T01:00:00Z</time>
      </trkpt>
      <trkpt lat="63.40584083" lon="10.45378117">
        <ele>155.145</ele>
        <time>1970-01-01T01:00:00Z</time>
      </trkpt>
      <trkpt lat="63.4058335" lon="10.45383883">
        <ele>155.297</ele>
        <time>1970-01-01T01:00:00Z</time>
      </trkpt>
      <trkpt lat="63.40582717" lon="10.453897">
        <ele>155.297</ele>
        <time>1970-01-01T01:00:00Z</time>
      </trkpt>
      <trkpt lat="63.40582167" lon="10.45395567">
        <ele>155.45</ele>
        <time>1970-01-01T01:00:00Z</time>
      </trkpt>
      <trkpt lat="63.40581633" lon="10.454014">
        <ele>155.45</ele>
        <time>1970-01-01T01:00:00Z</time>
      </trkpt>
      <trkpt lat="63.40581067" lon="10.45407233">
        <ele>155.602</ele>
        <time>1970-01-01T01:00:00Z</time>
      </trkpt>
      <trkpt lat="63.40580433" lon="10.45413083">
        <ele>155.602</ele>
        <time>1970-01-01T01:00:00Z</time>
      </trkpt>
      <trkpt lat="63.40579717" lon="10.45418967">
        <ele>155.755</ele>
        <time>1970-01-01T01:00:00Z</time>
      </trkpt>
      <trkpt lat="63.40579033" lon="10.45424783">
        <ele>155.755</ele>
        <time>1970-01-01T01:00:00Z</time>
      </trkpt>
      <trkpt lat="63.405784" lon="10.454306">
        <ele>155.907</ele>
        <time>1970-01-01T01:00:00Z</time>
      </trkpt>
      <trkpt lat="63.40577817" lon="10.45436317">
        <ele>155.907</ele>
        <time>1970-01-01T01:00:00Z</time>
      </trkpt>
      <trkpt lat="63.40577217" lon="10.45441967">
        <ele>156.059</ele>
        <time>1970-01-01T01:00:00Z</time>
      </trkpt>
      <trkpt lat="63.4057655" lon="10.45447617">
        <ele>156.059</ele>
        <time>1970-01-01T01:00:00Z</time>
      </trkpt>
      <trkpt lat="63.4057585" lon="10.45453317">
        <ele>156.212</ele>
        <time>1970-01-01T01:00:00Z</time>
      </trkpt>
      <trkpt lat="63.405752" lon="10.45459117">
        <ele>156.212</ele>
        <time>1970-01-01T01:00:00Z</time>
      </trkpt>
      <trkpt lat="63.40574617" lon="10.45464883">
        <ele>156.364</ele>
        <time>1970-01-01T01:00:00Z</time>
      </trkpt>
      <trkpt lat="63.40574" lon="10.454708">
        <ele>156.364</ele>
        <time>1970-01-01T01:00:00Z</time>
      </trkpt>
      <trkpt lat="63.40573267" lon="10.45476767">
        <ele>156.517</ele>
        <time>1970-01-01T01:00:00Z</time>
      </trkpt>
      <trkpt lat="63.4057245" lon="10.45482817">
        <ele>156.517</ele>
        <time>1970-01-01T01:00:00Z</time>
      </trkpt>
      <trkpt lat="63.40571617" lon="10.454887">
        <ele>156.669</ele>
        <time>1970-01-01T01:00:00Z</time>
      </trkpt>
      <trkpt lat="63.40570733" lon="10.45494517">
        <ele>156.669</ele>
        <time>1970-01-01T01:00:00Z</time>
      </trkpt>
      <trkpt lat="63.405698" lon="10.45500317">
        <ele>156.974</ele>
        <time>1970-01-01T01:00:00Z</time>
      </trkpt>
      <trkpt lat="63.40568767" lon="10.45506233">
        <ele>156.974</ele>
        <time>1970-01-01T01:00:00Z</time>
      </trkpt>
      <trkpt lat="63.40567667" lon="10.45512167">
        <ele>157.126</ele>
        <time>1970-01-01T01:00:00Z</time>
      </trkpt>
      <trkpt lat="63.405665" lon="10.45518067">
        <ele>157.126</ele>
        <time>1970-01-01T01:00:00Z</time>
      </trkpt>
      <trkpt lat="63.40565317" lon="10.45523817">
        <ele>157.431</ele>
        <time>1970-01-01T01:00:00Z</time>
      </trkpt>
      <trkpt lat="63.40564083" lon="10.45529433">
        <ele>157.431</ele>
        <time>1970-01-01T01:00:00Z</time>
      </trkpt>
      <trkpt lat="63.40562817" lon="10.4553495">
        <ele>157.584</ele>
        <time>1970-01-01T01:00:00Z</time>
      </trkpt>
      <trkpt lat="63.40561517" lon="10.45540317">
        <ele>157.584</ele>
        <time>1970-01-01T01:00:00Z</time>
      </trkpt>
      <trkpt lat="63.40560233" lon="10.45545667">
        <ele>157.888</ele>
        <time>1970-01-01T01:00:00Z</time>
      </trkpt>
      <trkpt lat="63.40559" lon="10.45551067">
        <ele>157.888</ele>
        <time>1970-01-01T01:00:00Z</time>
      </trkpt>
      <trkpt lat="63.40557767" lon="10.4555655">
        <ele>158.041</ele>
        <time>1970-01-01T01:00:00Z</time>
      </trkpt>
      <trkpt lat="63.405565" lon="10.45561933">
        <ele>158.041</ele>
        <time>1970-01-01T01:00:00Z</time>
      </trkpt>
      <trkpt lat="63.40555167" lon="10.45567233">
        <ele>158.346</ele>
        <time>1970-01-01T01:00:00Z</time>
      </trkpt>
      <trkpt lat="63.40553783" lon="10.4557255">
        <ele>158.346</ele>
        <time>1970-01-01T01:00:00Z</time>
      </trkpt>
      <trkpt lat="63.4055235" lon="10.4557795">
        <ele>158.498</ele>
        <time>1970-01-01T01:00:00Z</time>
      </trkpt>
      <trkpt lat="63.40550967" lon="10.45583467">
        <ele>158.498</ele>
        <time>1970-01-01T01:00:00Z</time>
      </trkpt>
      <trkpt lat="63.40549683" lon="10.455891">
        <ele>158.803</ele>
        <time>1970-01-01T01:00:00Z</time>
      </trkpt>
      <trkpt lat="63.40548483" lon="10.45594917">
        <ele>158.803</ele>
        <time>1970-01-01T01:00:00Z</time>
      </trkpt>
      <trkpt lat="63.40547317" lon="10.45600933">
        <ele>159.108</ele>
        <time>1970-01-01T01:00:00Z</time>
      </trkpt>
      <trkpt lat="63.40546233" lon="10.45607233">
        <ele>159.108</ele>
        <time>1970-01-01T01:00:00Z</time>
      </trkpt>
      <trkpt lat="63.4054525" lon="10.45613767">
        <ele>159.26</ele>
        <time>1970-01-01T01:00:00Z</time>
      </trkpt>
      <trkpt lat="63.40544267" lon="10.4562055">
        <ele>159.26</ele>
        <time>1970-01-01T01:00:00Z</time>
      </trkpt>
      <trkpt lat="63.40543267" lon="10.45627367">
        <ele>159.565</ele>
        <time>1970-01-01T01:00:00Z</time>
      </trkpt>
      <trkpt lat="63.4054225" lon="10.4563425">
        <ele>159.565</ele>
        <time>1970-01-01T01:00:00Z</time>
      </trkpt>
      <trkpt lat="63.40541283" lon="10.4564115">
        <ele>159.717</ele>
        <time>1970-01-01T01:00:00Z</time>
      </trkpt>
      <trkpt lat="63.40540383" lon="10.4564815">
        <ele>159.717</ele>
        <time>1970-01-01T01:00:00Z</time>
      </trkpt>
      <trkpt lat="63.40539517" lon="10.45655217">
        <ele>160.022</ele>
        <time>1970-01-01T01:00:00Z</time>
      </trkpt>
      <trkpt lat="63.40538583" lon="10.45662317">
        <ele>160.022</ele>
        <time>1970-01-01T01:00:00Z</time>
      </trkpt>
      <trkpt lat="63.40537617" lon="10.45669467">
        <ele>160.327</ele>
        <time>1970-01-01T01:00:00Z</time>
      </trkpt>
      <trkpt lat="63.40536683" lon="10.4567665">
        <ele>160.327</ele>
        <time>1970-01-01T01:00:00Z</time>
      </trkpt>
      <trkpt lat="63.40535867" lon="10.45684017">
        <ele>160.479</ele>
        <time>1970-01-01T01:00:00Z</time>
      </trkpt>
      <trkpt lat="63.40535117" lon="10.45691583">
        <ele>160.479</ele>
        <time>1970-01-01T01:00:00Z</time>
      </trkpt>
      <trkpt lat="63.405344" lon="10.456994">
        <ele>160.784</ele>
        <time>1970-01-01T01:00:00Z</time>
      </trkpt>
      <trkpt lat="63.40533683" lon="10.45707317">
        <ele>160.784</ele>
        <time>1970-01-01T01:00:00Z</time>
      </trkpt>
      <trkpt lat="63.40532967" lon="10.45715317">
        <ele>161.089</ele>
        <time>1970-01-01T01:00:00Z</time>
      </trkpt>
      <trkpt lat="63.40532233" lon="10.457234">
        <ele>161.089</ele>
        <time>1970-01-01T01:00:00Z</time>
      </trkpt>
      <trkpt lat="63.4053145" lon="10.45731433">
        <ele>161.241</ele>
        <time>1970-01-01T01:00:00Z</time>
      </trkpt>
      <trkpt lat="63.40530617" lon="10.45739433">
        <ele>161.241</ele>
        <time>1970-01-01T01:00:00Z</time>
      </trkpt>
      <trkpt lat="63.40529767" lon="10.457473">
        <ele>161.546</ele>
        <time>1970-01-01T01:00:00Z</time>
      </trkpt>
      <trkpt lat="63.4052895" lon="10.45755133">
        <ele>161.546</ele>
        <time>1970-01-01T01:00:00Z</time>
      </trkpt>
      <trkpt lat="63.405281" lon="10.45762917">
        <ele>161.851</ele>
        <time>1970-01-01T01:00:00Z</time>
      </trkpt>
      <trkpt lat="63.40527217" lon="10.45770617">
        <ele>161.851</ele>
        <time>1970-01-01T01:00:00Z</time>
      </trkpt>
      <trkpt lat="63.40526367" lon="10.45778333">
        <ele>162.003</ele>
        <time>1970-01-01T01:00:00Z</time>
      </trkpt>
      <trkpt lat="63.40525533" lon="10.45786067">
        <ele>162.003</ele>
        <time>1970-01-01T01:00:00Z</time>
      </trkpt>
      <trkpt lat="63.40524683" lon="10.457938">
        <ele>162.308</ele>
        <time>1970-01-01T01:00:00Z</time>
      </trkpt>
      <trkpt lat="63.40523767" lon="10.45801517">
        <ele>162.308</ele>
        <time>1970-01-01T01:00:00Z</time>
      </trkpt>
      <trkpt lat="63.40522833" lon="10.458093">
        <ele>162.613</ele>
        <time>1970-01-01T01:00:00Z</time>
      </trkpt>
      <trkpt lat="63.40521933" lon="10.45817167">
        <ele>162.613</ele>
        <time>1970-01-01T01:00:00Z</time>
      </trkpt>
      <trkpt lat="63.4052105" lon="10.4582515">
        <ele>162.918</ele>
        <time>1970-01-01T01:00:00Z</time>
      </trkpt>
      <trkpt lat="63.40520183" lon="10.45833133">
        <ele>162.918</ele>
        <time>1970-01-01T01:00:00Z</time>
      </trkpt>
      <trkpt lat="63.40519367" lon="10.45841117">
        <ele>163.07</ele>
        <time>1970-01-01T01:00:00Z</time>
      </trkpt>
      <trkpt lat="63.4051855" lon="10.45849083">
        <ele>163.07</ele>
        <time>1970-01-01T01:00:00Z</time>
      </trkpt>
      <trkpt lat="63.405177" lon="10.45857067">
        <ele>163.375</ele>
        <time>1970-01-01T01:00:00Z</time>
      </trkpt>
      <trkpt lat="63.40516817" lon="10.45865083">
        <ele>163.375</ele>
        <time>1970-01-01T01:00:00Z</time>
      </trkpt>
      <trkpt lat="63.405159" lon="10.458732">
        <ele>163.68</ele>
        <time>1970-01-01T01:00:00Z</time>
      </trkpt>
      <trkpt lat="63.40514983" lon="10.45881467">
        <ele>163.68</ele>
        <time>1970-01-01T01:00:00Z</time>
      </trkpt>
      <trkpt lat="63.4051405" lon="10.45889867">
        <ele>163.984</ele>
        <time>1970-01-01T01:00:00Z</time>
      </trkpt>
      <trkpt lat="63.405131" lon="10.45898333">
        <ele>163.984</ele>
        <time>1970-01-01T01:00:00Z</time>
      </trkpt>
      <trkpt lat="63.4051215" lon="10.45906783">
        <ele>164.137</ele>
        <time>1970-01-01T01:00:00Z</time>
      </trkpt>
      <trkpt lat="63.40511183" lon="10.45915183">
        <ele>164.137</ele>
        <time>1970-01-01T01:00:00Z</time>
      </trkpt>
      <trkpt lat="63.40510217" lon="10.4592355">
        <ele>164.442</ele>
        <time>1970-01-01T01:00:00Z</time>
      </trkpt>
      <trkpt lat="63.4050915" lon="10.459318">
        <ele>164.442</ele>
        <time>1970-01-01T01:00:00Z</time>
      </trkpt>
      <trkpt lat="63.40508017" lon="10.45939933">
        <ele>164.746</ele>
        <time>1970-01-01T01:00:00Z</time>
      </trkpt>
      <trkpt lat="63.405068" lon="10.45947983">
        <ele>164.746</ele>
        <time>1970-01-01T01:00:00Z</time>
      </trkpt>
      <trkpt lat="63.40505483" lon="10.45955983">
        <ele>165.051</ele>
        <time>1970-01-01T01:00:00Z</time>
      </trkpt>
      <trkpt lat="63.40504" lon="10.459639">
        <ele>165.051</ele>
        <time>1970-01-01T01:00:00Z</time>
      </trkpt>
      <trkpt lat="63.40502333" lon="10.459717">
        <ele>165.204</ele>
        <time>1970-01-01T01:00:00Z</time>
      </trkpt>
      <trkpt lat="63.40500533" lon="10.4597945">
        <ele>165.204</ele>
        <time>1970-01-01T01:00:00Z</time>
      </trkpt>
      <trkpt lat="63.40498567" lon="10.459872">
        <ele>165.508</ele>
        <time>1970-01-01T01:00:00Z</time>
      </trkpt>
      <trkpt lat="63.404964" lon="10.45994883">
        <ele>165.508</ele>
        <time>1970-01-01T01:00:00Z</time>
      </trkpt>
      <trkpt lat="63.40494017" lon="10.46002433">
        <ele>165.813</ele>
        <time>1970-01-01T01:00:00Z</time>
      </trkpt>
      <trkpt lat="63.40491433" lon="10.46009867">
        <ele>165.813</ele>
        <time>1970-01-01T01:00:00Z</time>
      </trkpt>
      <trkpt lat="63.40488683" lon="10.46017217">
        <ele>165.966</ele>
        <time>1970-01-01T01:00:00Z</time>
      </trkpt>
      <trkpt lat="63.40485817" lon="10.46024583">
        <ele>165.966</ele>
        <time>1970-01-01T01:00:00Z</time>
      </trkpt>
      <trkpt lat="63.40482917" lon="10.46032067">
        <ele>166.27</ele>
        <time>1970-01-01T01:00:00Z</time>
      </trkpt>
      <trkpt lat="63.4048005" lon="10.46039733">
        <ele>166.27</ele>
        <time>1970-01-01T01:00:00Z</time>
      </trkpt>
      <trkpt lat="63.40477367" lon="10.46047583">
        <ele>166.423</ele>
        <time>1970-01-01T01:00:00Z</time>
      </trkpt>
      <trkpt lat="63.404749" lon="10.4605565">
        <ele>166.423</ele>
        <time>1970-01-01T01:00:00Z</time>
      </trkpt>
      <trkpt lat="63.40472883" lon="10.46064017">
        <ele>166.728</ele>
        <time>1970-01-01T01:00:00Z</time>
      </trkpt>
      <trkpt lat="63.40471383" lon="10.46072783">
        <ele>166.728</ele>
        <time>1970-01-01T01:00:00Z</time>
      </trkpt>
      <trkpt lat="63.40470617" lon="10.4608205">
        <ele>166.88</ele>
        <time>1970-01-01T01:00:00Z</time>
      </trkpt>
      <trkpt lat="63.40470683" lon="10.46091733">
        <ele>166.88</ele>
        <time>1970-01-01T01:00:00Z</time>
      </trkpt>
      <trkpt lat="63.4047165" lon="10.461016">
        <ele>167.032</ele>
        <time>1970-01-01T01:00:00Z</time>
      </trkpt>
      <trkpt lat="63.40473483" lon="10.46111117">
        <ele>167.032</ele>
        <time>1970-01-01T01:00:00Z</time>
      </trkpt>
      <trkpt lat="63.40476017" lon="10.4611985">
        <ele>167.185</ele>
        <time>1970-01-01T01:00:00Z</time>
      </trkpt>
      <trkpt lat="63.40478967" lon="10.46128133">
        <ele>167.185</ele>
        <time>1970-01-01T01:00:00Z</time>
      </trkpt>
      <trkpt lat="63.40482083" lon="10.46136133">
        <ele>167.49</ele>
        <time>1970-01-01T01:00:00Z</time>
      </trkpt>
      <trkpt lat="63.4048525" lon="10.46144233">
        <ele>167.49</ele>
        <time>1970-01-01T01:00:00Z</time>
      </trkpt>
      <trkpt lat="63.40488383" lon="10.461523">
        <ele>167.642</ele>
        <time>1970-01-01T01:00:00Z</time>
      </trkpt>
      <trkpt lat="63.40491533" lon="10.4616065">
        <ele>167.642</ele>
        <time>1970-01-01T01:00:00Z</time>
      </trkpt>
      <trkpt lat="63.40494617" lon="10.46169283">
        <ele>167.794</ele>
        <time>1970-01-01T01:00:00Z</time>
      </trkpt>
      <trkpt lat="63.40497667" lon="10.461782">
        <ele>167.794</ele>
        <time>1970-01-01T01:00:00Z</time>
      </trkpt>
      <trkpt lat="63.40500667" lon="10.46187467">
        <ele>167.947</ele>
        <time>1970-01-01T01:00:00Z</time>
      </trkpt>
      <trkpt lat="63.405037" lon="10.461971">
        <ele>167.947</ele>
        <time>1970-01-01T01:00:00Z</time>
      </trkpt>
      <trkpt lat="63.40506783" lon="10.4620705">
        <ele>167.947</ele>
        <time>1970-01-01T01:00:00Z</time>
      </trkpt>
      <trkpt lat="63.405099" lon="10.46217317">
        <ele>167.947</ele>
        <time>1970-01-01T01:00:00Z</time>
      </trkpt>
      <trkpt lat="63.40513" lon="10.46227933">
        <ele>168.099</ele>
        <time>1970-01-01T01:00:00Z</time>
      </trkpt>
      <trkpt lat="63.4051615" lon="10.46238867">
        <ele>168.099</ele>
        <time>1970-01-01T01:00:00Z</time>
      </trkpt>
      <trkpt lat="63.4051935" lon="10.46250133">
        <ele>168.099</ele>
        <time>1970-01-01T01:00:00Z</time>
      </trkpt>
      <trkpt lat="63.40522517" lon="10.46261883">
        <ele>168.099</ele>
        <time>1970-01-01T01:00:00Z</time>
      </trkpt>
      <trkpt lat="63.40525583" lon="10.46274117">
        <ele>168.252</ele>
        <time>1970-01-01T01:00:00Z</time>
      </trkpt>
      <trkpt lat="63.40528533" lon="10.4628675">
        <ele>168.252</ele>
        <time>1970-01-01T01:00:00Z</time>
      </trkpt>
      <trkpt lat="63.40531417" lon="10.46299617">
        <ele>168.252</ele>
        <time>1970-01-01T01:00:00Z</time>
      </trkpt>
      <trkpt lat="63.4053425" lon="10.46312717">
        <ele>168.252</ele>
        <time>1970-01-01T01:00:00Z</time>
      </trkpt>
      <trkpt lat="63.40537033" lon="10.46325983">
        <ele>168.252</ele>
        <time>1970-01-01T01:00:00Z</time>
      </trkpt>
      <trkpt lat="63.40539733" lon="10.4633945">
        <ele>168.252</ele>
        <time>1970-01-01T01:00:00Z</time>
      </trkpt>
      <trkpt lat="63.4054235" lon="10.46353117">
        <ele>168.252</ele>
        <time>1970-01-01T01:00:00Z</time>
      </trkpt>
      <trkpt lat="63.4054485" lon="10.4636705">
        <ele>168.252</ele>
        <time>1970-01-01T01:00:00Z</time>
      </trkpt>
      <trkpt lat="63.40547183" lon="10.46381333">
        <ele>168.252</ele>
        <time>1970-01-01T01:00:00Z</time>
      </trkpt>
      <trkpt lat="63.40549317" lon="10.46396017">
        <ele>168.252</ele>
        <time>1970-01-01T01:00:00Z</time>
      </trkpt>
      <trkpt lat="63.405513" lon="10.46411083">
        <ele>168.099</ele>
        <time>1970-01-01T01:00:00Z</time>
      </trkpt>
      <trkpt lat="63.40553117" lon="10.46426567">
        <ele>168.099</ele>
        <time>1970-01-01T01:00:00Z</time>
      </trkpt>
      <trkpt lat="63.40554883" lon="10.4644245">
        <ele>168.099</ele>
        <time>1970-01-01T01:00:00Z</time>
      </trkpt>
      <trkpt lat="63.4055655" lon="10.46458767">
        <ele>168.099</ele>
        <time>1970-01-01T01:00:00Z</time>
      </trkpt>
      <trkpt lat="63.405582" lon="10.4647545">
        <ele>167.947</ele>
        <time>1970-01-01T01:00:00Z</time>
      </trkpt>
      <trkpt lat="63.40559783" lon="10.46492433">
        <ele>167.947</ele>
        <time>1970-01-01T01:00:00Z</time>
      </trkpt>
      <trkpt lat="63.4056125" lon="10.4650965">
        <ele>167.794</ele>
        <time>1970-01-01T01:00:00Z</time>
      </trkpt>
      <trkpt lat="63.40562667" lon="10.4652705">
        <ele>167.794</ele>
        <time>1970-01-01T01:00:00Z</time>
      </trkpt>
      <trkpt lat="63.40563967" lon="10.46544617">
        <ele>167.642</ele>
        <time>1970-01-01T01:00:00Z</time>
      </trkpt>
      <trkpt lat="63.40565183" lon="10.46562333">
        <ele>167.642</ele>
        <time>1970-01-01T01:00:00Z</time>
      </trkpt>
      <trkpt lat="63.40566317" lon="10.46580067">
        <ele>167.49</ele>
        <time>1970-01-01T01:00:00Z</time>
      </trkpt>
      <trkpt lat="63.40567517" lon="10.465976">
        <ele>167.49</ele>
        <time>1970-01-01T01:00:00Z</time>
      </trkpt>
      <trkpt lat="63.405688" lon="10.46614783">
        <ele>167.337</ele>
        <time>1970-01-01T01:00:00Z</time>
      </trkpt>
      <trkpt lat="63.405702" lon="10.46631517">
        <ele>167.337</ele>
        <time>1970-01-01T01:00:00Z</time>
      </trkpt>
      <trkpt lat="63.405717" lon="10.46647817">
        <ele>167.185</ele>
        <time>1970-01-01T01:00:00Z</time>
      </trkpt>
      <trkpt lat="63.40573317" lon="10.46663667">
        <ele>167.185</ele>
        <time>1970-01-01T01:00:00Z</time>
      </trkpt>
      <trkpt lat="63.40575317" lon="10.4667895">
        <ele>167.032</ele>
        <time>1970-01-01T01:00:00Z</time>
      </trkpt>
      <trkpt lat="63.40577717" lon="10.46693667">
        <ele>167.032</ele>
        <time>1970-01-01T01:00:00Z</time>
      </trkpt>
      <trkpt lat="63.4058055" lon="10.467078">
        <ele>166.728</ele>
        <time>1970-01-01T01:00:00Z</time>
      </trkpt>
      <trkpt lat="63.40583633" lon="10.46721283">
        <ele>166.728</ele>
        <time>1970-01-01T01:00:00Z</time>
      </trkpt>
      <trkpt lat="63.40586983" lon="10.46734267">
        <ele>166.575</ele>
        <time>1970-01-01T01:00:00Z</time>
      </trkpt>
      <trkpt lat="63.4059055" lon="10.46746817">
        <ele>166.575</ele>
        <time>1970-01-01T01:00:00Z</time>
      </trkpt>
      <trkpt lat="63.40594117" lon="10.467593">
        <ele>166.423</ele>
        <time>1970-01-01T01:00:00Z</time>
      </trkpt>
      <trkpt lat="63.40597667" lon="10.46771683">
        <ele>166.423</ele>
        <time>1970-01-01T01:00:00Z</time>
      </trkpt>
      <trkpt lat="63.40601183" lon="10.467841">
        <ele>166.118</ele>
        <time>1970-01-01T01:00:00Z</time>
      </trkpt>
      <trkpt lat="63.406047" lon="10.4679645">
        <ele>166.118</ele>
        <time>1970-01-01T01:00:00Z</time>
      </trkpt>
      <trkpt lat="63.406082" lon="10.46808833">
        <ele>165.966</ele>
        <time>1970-01-01T01:00:00Z</time>
      </trkpt>
      <trkpt lat="63.40611667" lon="10.46821267">
        <ele>165.966</ele>
        <time>1970-01-01T01:00:00Z</time>
      </trkpt>
      <trkpt lat="63.4061505" lon="10.46833767">
        <ele>165.813</ele>
        <time>1970-01-01T01:00:00Z</time>
      </trkpt>
      <trkpt lat="63.40618383" lon="10.46846233">
        <ele>165.813</ele>
        <time>1970-01-01T01:00:00Z</time>
      </trkpt>
      <trkpt lat="63.406217" lon="10.468585">
        <ele>165.508</ele>
        <time>1970-01-01T01:00:00Z</time>
      </trkpt>
      <trkpt lat="63.40625" lon="10.4687045">
        <ele>165.508</ele>
        <time>1970-01-01T01:00:00Z</time>
      </trkpt>
      <trkpt lat="63.4062825" lon="10.468821">
        <ele>165.356</ele>
        <time>1970-01-01T01:00:00Z</time>
      </trkpt>
      <trkpt lat="63.40631367" lon="10.46893583">
        <ele>165.356</ele>
        <time>1970-01-01T01:00:00Z</time>
      </trkpt>
      <trkpt lat="63.40634467" lon="10.46904883">
        <ele>165.051</ele>
        <time>1970-01-01T01:00:00Z</time>
      </trkpt>
      <trkpt lat="63.40637533" lon="10.46916067">
        <ele>165.051</ele>
        <time>1970-01-01T01:00:00Z</time>
      </trkpt>
      <trkpt lat="63.40640633" lon="10.4692705">
        <ele>164.899</ele>
        <time>1970-01-01T01:00:00Z</time>
      </trkpt>
      <trkpt lat="63.40643683" lon="10.46937917">
        <ele>164.899</ele>
        <time>1970-01-01T01:00:00Z</time>
      </trkpt>
      <trkpt lat="63.406466" lon="10.46948783">
        <ele>164.594</ele>
        <time>1970-01-01T01:00:00Z</time>
      </trkpt>
      <trkpt lat="63.40649367" lon="10.46959683">
        <ele>164.594</ele>
        <time>1970-01-01T01:00:00Z</time>
      </trkpt>
      <trkpt lat="63.40652117" lon="10.46970517">
        <ele>164.442</ele>
        <time>1970-01-01T01:00:00Z</time>
      </trkpt>
      <trkpt lat="63.40654867" lon="10.46981217">
        <ele>164.442</ele>
        <time>1970-01-01T01:00:00Z</time>
      </trkpt>
      <trkpt lat="63.4065765" lon="10.46991717">
        <ele>164.137</ele>
        <time>1970-01-01T01:00:00Z</time>
      </trkpt>
      <trkpt lat="63.40660383" lon="10.470021">
        <ele>164.137</ele>
        <time>1970-01-01T01:00:00Z</time>
      </trkpt>
      <trkpt lat="63.4066315" lon="10.47012267">
        <ele>163.984</ele>
        <time>1970-01-01T01:00:00Z</time>
      </trkpt>
      <trkpt lat="63.40665933" lon="10.4702225">
        <ele>163.984</ele>
        <time>1970-01-01T01:00:00Z</time>
      </trkpt>
      <trkpt lat="63.40668633" lon="10.47032067">
        <ele>163.68</ele>
        <time>1970-01-01T01:00:00Z</time>
      </trkpt>
      <trkpt lat="63.406712" lon="10.4704185">
        <ele>163.68</ele>
        <time>1970-01-01T01:00:00Z</time>
      </trkpt>
      <trkpt lat="63.40673783" lon="10.47051383">
        <ele>163.527</ele>
        <time>1970-01-01T01:00:00Z</time>
      </trkpt>
      <trkpt lat="63.40676467" lon="10.47060517">
        <ele>163.527</ele>
        <time>1970-01-01T01:00:00Z</time>
      </trkpt>
      <trkpt lat="63.40679383" lon="10.47069117">
        <ele>163.222</ele>
        <time>1970-01-01T01:00:00Z</time>
      </trkpt>
      <trkpt lat="63.40682483" lon="10.47077417">
        <ele>163.222</ele>
        <time>1970-01-01T01:00:00Z</time>
      </trkpt>
      <trkpt lat="63.406858" lon="10.47085367">
        <ele>163.07</ele>
        <time>1970-01-01T01:00:00Z</time>
      </trkpt>
      <trkpt lat="63.406892" lon="10.47093083">
        <ele>163.07</ele>
        <time>1970-01-01T01:00:00Z</time>
      </trkpt>
      <trkpt lat="63.40692633" lon="10.47100517">
        <ele>162.918</ele>
        <time>1970-01-01T01:00:00Z</time>
      </trkpt>
      <trkpt lat="63.40696083" lon="10.47107567">
        <ele>162.918</ele>
        <time>1970-01-01T01:00:00Z</time>
      </trkpt>
      <trkpt lat="63.4069965" lon="10.47113967">
        <ele>162.765</ele>
        <time>1970-01-01T01:00:00Z</time>
      </trkpt>
      <trkpt lat="63.40703417" lon="10.4711965">
        <ele>162.765</ele>
        <time>1970-01-01T01:00:00Z</time>
      </trkpt>
      <trkpt lat="63.40707383" lon="10.47124733">
        <ele>162.613</ele>
        <time>1970-01-01T01:00:00Z</time>
      </trkpt>
      <trkpt lat="63.4071145" lon="10.4712935">
        <ele>162.613</ele>
        <time>1970-01-01T01:00:00Z</time>
      </trkpt>
      <trkpt lat="63.40715633" lon="10.47133517">
        <ele>162.46</ele>
        <time>1970-01-01T01:00:00Z</time>
      </trkpt>
      <trkpt lat="63.40719833" lon="10.47137267">
        <ele>162.46</ele>
        <time>1970-01-01T01:00:00Z</time>
      </trkpt>
      <trkpt lat="63.4072415" lon="10.47140483">
        <ele>162.308</ele>
        <time>1970-01-01T01:00:00Z</time>
      </trkpt>
      <trkpt lat="63.40728567" lon="10.47143033">
        <ele>162.308</ele>
        <time>1970-01-01T01:00:00Z</time>
      </trkpt>
      <trkpt lat="63.407331" lon="10.4714505">
        <ele>162.156</ele>
        <time>1970-01-01T01:00:00Z</time>
      </trkpt>
      <trkpt lat="63.40737683" lon="10.471467">
        <ele>162.156</ele>
        <time>1970-01-01T01:00:00Z</time>
      </trkpt>
      <trkpt lat="63.40742317" lon="10.471483">
        <ele>162.003</ele>
        <time>1970-01-01T01:00:00Z</time>
      </trkpt>
      <trkpt lat="63.40746983" lon="10.47150017">
        <ele>162.003</ele>
        <time>1970-01-01T01:00:00Z</time>
      </trkpt>
      <trkpt lat="63.40751683" lon="10.47151783">
        <ele>161.851</ele>
        <time>1970-01-01T01:00:00Z</time>
      </trkpt>
      <trkpt lat="63.4075645" lon="10.47153483">
        <ele>161.851</ele>
        <time>1970-01-01T01:00:00Z</time>
      </trkpt>
      <trkpt lat="63.4076125" lon="10.471551">
        <ele>161.851</ele>
        <time>1970-01-01T01:00:00Z</time>
      </trkpt>
      <trkpt lat="63.40766067" lon="10.47156767">
        <ele>161.851</ele>
        <time>1970-01-01T01:00:00Z</time>
      </trkpt>
      <trkpt lat="63.407709" lon="10.47158517">
        <ele>161.698</ele>
        <time>1970-01-01T01:00:00Z</time>
      </trkpt>
      <trkpt lat="63.40775767" lon="10.47160467">
        <ele>161.698</ele>
        <time>1970-01-01T01:00:00Z</time>
      </trkpt>
      <trkpt lat="63.407806" lon="10.47162483">
        <ele>161.546</ele>
        <time>1970-01-01T01:00:00Z</time>
      </trkpt>
      <trkpt lat="63.40785417" lon="10.47164417">
        <ele>161.546</ele>
        <time>1970-01-01T01:00:00Z</time>
      </trkpt>
      <trkpt lat="63.407902" lon="10.471661">
        <ele>161.394</ele>
        <time>1970-01-01T01:00:00Z</time>
      </trkpt>
      <trkpt lat="63.4079505" lon="10.47167567">
        <ele>161.394</ele>
        <time>1970-01-01T01:00:00Z</time>
      </trkpt>
      <trkpt lat="63.40799967" lon="10.47168933">
        <ele>161.394</ele>
        <time>1970-01-01T01:00:00Z</time>
      </trkpt>
      <trkpt lat="63.40804917" lon="10.47170333">
        <ele>161.394</ele>
        <time>1970-01-01T01:00:00Z</time>
      </trkpt>
      <trkpt lat="63.40809833" lon="10.4717185">
        <ele>161.241</ele>
        <time>1970-01-01T01:00:00Z</time>
      </trkpt>
      <trkpt lat="63.4081475" lon="10.47173433">
        <ele>161.241</ele>
        <time>1970-01-01T01:00:00Z</time>
      </trkpt>
      <trkpt lat="63.40819667" lon="10.47175033">
        <ele>161.241</ele>
        <time>1970-01-01T01:00:00Z</time>
      </trkpt>
      <trkpt lat="63.408246" lon="10.4717665">
        <ele>161.241</ele>
        <time>1970-01-01T01:00:00Z</time>
      </trkpt>
      <trkpt lat="63.408295" lon="10.47178383">
        <ele>161.089</ele>
        <time>1970-01-01T01:00:00Z</time>
      </trkpt>
      <trkpt lat="63.40834383" lon="10.4718035">
        <ele>161.089</ele>
        <time>1970-01-01T01:00:00Z</time>
      </trkpt>
      <trkpt lat="63.4083925" lon="10.471824">
        <ele>161.089</ele>
        <time>1970-01-01T01:00:00Z</time>
      </trkpt>
      <trkpt lat="63.40844233" lon="10.47184467">
        <ele>161.089</ele>
        <time>1970-01-01T01:00:00Z</time>
      </trkpt>
      <trkpt lat="63.40849267" lon="10.47186483">
        <ele>160.936</ele>
        <time>1970-01-01T01:00:00Z</time>
      </trkpt>
      <trkpt lat="63.40854333" lon="10.471885">
        <ele>160.936</ele>
        <time>1970-01-01T01:00:00Z</time>
      </trkpt>
      <trkpt lat="63.40859333" lon="10.47190533">
        <ele>160.936</ele>
        <time>1970-01-01T01:00:00Z</time>
      </trkpt>
      <trkpt lat="63.40864317" lon="10.471925">
        <ele>160.936</ele>
        <time>1970-01-01T01:00:00Z</time>
      </trkpt>
      <trkpt lat="63.4086935" lon="10.4719425">
        <ele>160.784</ele>
        <time>1970-01-01T01:00:00Z</time>
      </trkpt>
      <trkpt lat="63.40874467" lon="10.47195917">
        <ele>160.784</ele>
        <time>1970-01-01T01:00:00Z</time>
      </trkpt>
      <trkpt lat="63.4087965" lon="10.4719765">
        <ele>160.784</ele>
        <time>1970-01-01T01:00:00Z</time>
      </trkpt>
      <trkpt lat="63.40884917" lon="10.47199567">
        <ele>160.784</ele>
        <time>1970-01-01T01:00:00Z</time>
      </trkpt>
      <trkpt lat="63.40890283" lon="10.472016">
        <ele>160.632</ele>
        <time>1970-01-01T01:00:00Z</time>
      </trkpt>
      <trkpt lat="63.40895767" lon="10.47203717">
        <ele>160.632</ele>
        <time>1970-01-01T01:00:00Z</time>
      </trkpt>
      <trkpt lat="63.40901367" lon="10.4720585">
        <ele>160.479</ele>
        <time>1970-01-01T01:00:00Z</time>
      </trkpt>
      <trkpt lat="63.4090705" lon="10.47208">
        <ele>160.479</ele>
        <time>1970-01-01T01:00:00Z</time>
      </trkpt>
      <trkpt lat="63.40912867" lon="10.4721015">
        <ele>160.479</ele>
        <time>1970-01-01T01:00:00Z</time>
      </trkpt>
      <trkpt lat="63.40918817" lon="10.47212267">
        <ele>160.479</ele>
        <time>1970-01-01T01:00:00Z</time>
      </trkpt>
      <trkpt lat="63.40924917" lon="10.47214567">
        <ele>160.327</ele>
        <time>1970-01-01T01:00:00Z</time>
      </trkpt>
      <trkpt lat="63.40931117" lon="10.4721695">
        <ele>160.327</ele>
        <time>1970-01-01T01:00:00Z</time>
      </trkpt>
      <trkpt lat="63.40937367" lon="10.47219383">
        <ele>160.174</ele>
        <time>1970-01-01T01:00:00Z</time>
      </trkpt>
      <trkpt lat="63.40943617" lon="10.47221617">
        <ele>160.174</ele>
        <time>1970-01-01T01:00:00Z</time>
      </trkpt>
      <trkpt lat="63.40949883" lon="10.472236">
        <ele>160.174</ele>
        <time>1970-01-01T01:00:00Z</time>
      </trkpt>
      <trkpt lat="63.40956133" lon="10.47225533">
        <ele>160.174</ele>
        <time>1970-01-01T01:00:00Z</time>
      </trkpt>
      <trkpt lat="63.40962317" lon="10.472276">
        <ele>160.022</ele>
        <time>1970-01-01T01:00:00Z</time>
      </trkpt>
      <trkpt lat="63.409685" lon="10.472298">
        <ele>160.022</ele>
        <time>1970-01-01T01:00:00Z</time>
      </trkpt>
      <trkpt lat="63.40974717" lon="10.47232033">
        <ele>159.87</ele>
        <time>1970-01-01T01:00:00Z</time>
      </trkpt>
      <trkpt lat="63.40981067" lon="10.47234167">
        <ele>159.87</ele>
        <time>1970-01-01T01:00:00Z</time>
      </trkpt>
      <trkpt lat="63.40987417" lon="10.47236617">
        <ele>159.717</ele>
        <time>1970-01-01T01:00:00Z</time>
      </trkpt>
      <trkpt lat="63.40993717" lon="10.47239283">
        <ele>159.717</ele>
        <time>1970-01-01T01:00:00Z</time>
      </trkpt>
      <trkpt lat="63.40999833" lon="10.47242217">
        <ele>159.565</ele>
        <time>1970-01-01T01:00:00Z</time>
      </trkpt>
      <trkpt lat="63.41005667" lon="10.47245167">
        <ele>159.565</ele>
        <time>1970-01-01T01:00:00Z</time>
      </trkpt>
      <trkpt lat="63.41011217" lon="10.4724825">
        <ele>159.412</ele>
        <time>1970-01-01T01:00:00Z</time>
      </trkpt>
      <trkpt lat="63.41016467" lon="10.472521">
        <ele>159.412</ele>
        <time>1970-01-01T01:00:00Z</time>
      </trkpt>
      <trkpt lat="63.410214" lon="10.47257533">
        <ele>159.26</ele>
        <time>1970-01-01T01:00:00Z</time>
      </trkpt>
      <trkpt lat="63.41025683" lon="10.47265533">
        <ele>159.26</ele>
        <time>1970-01-01T01:00:00Z</time>
      </trkpt>
      <trkpt lat="63.410289" lon="10.47275633">
        <ele>159.108</ele>
        <time>1970-01-01T01:00:00Z</time>
      </trkpt>
      <trkpt lat="63.41030433" lon="10.472871">
        <ele>159.108</ele>
        <time>1970-01-01T01:00:00Z</time>
      </trkpt>
      <trkpt lat="63.41030467" lon="10.47298567">
        <ele>158.955</ele>
        <time>1970-01-01T01:00:00Z</time>
      </trkpt>
      <trkpt lat="63.4102975" lon="10.47310017">
        <ele>158.955</ele>
        <time>1970-01-01T01:00:00Z</time>
      </trkpt>
      <trkpt lat="63.41028967" lon="10.473214">
        <ele>158.803</ele>
        <time>1970-01-01T01:00:00Z</time>
      </trkpt>
      <trkpt lat="63.4102835" lon="10.473331">
        <ele>158.803</ele>
        <time>1970-01-01T01:00:00Z</time>
      </trkpt>
      <trkpt lat="63.410277" lon="10.47344967">
        <ele>158.65</ele>
        <time>1970-01-01T01:00:00Z</time>
      </trkpt>
      <trkpt lat="63.410272" lon="10.47356967">
        <ele>158.65</ele>
        <time>1970-01-01T01:00:00Z</time>
      </trkpt>
      <trkpt lat="63.41026917" lon="10.47368967">
        <ele>158.65</ele>
        <time>1970-01-01T01:00:00Z</time>
      </trkpt>
      <trkpt lat="63.41026867" lon="10.47380883">
        <ele>158.65</ele>
        <time>1970-01-01T01:00:00Z</time>
      </trkpt>
      <trkpt lat="63.41026917" lon="10.47392733">
        <ele>158.498</ele>
        <time>1970-01-01T01:00:00Z</time>
      </trkpt>
      <trkpt lat="63.41026867" lon="10.474046">
        <ele>158.498</ele>
        <time>1970-01-01T01:00:00Z</time>
      </trkpt>
      <trkpt lat="63.41026633" lon="10.474165">
        <ele>158.346</ele>
        <time>1970-01-01T01:00:00Z</time>
      </trkpt>
      <trkpt lat="63.41026183" lon="10.47428333">
        <ele>158.346</ele>
        <time>1970-01-01T01:00:00Z</time>
      </trkpt>
      <trkpt lat="63.41025617" lon="10.47440083">
        <ele>158.193</ele>
        <time>1970-01-01T01:00:00Z</time>
      </trkpt>
      <trkpt lat="63.41024917" lon="10.47451833">
        <ele>158.193</ele>
        <time>1970-01-01T01:00:00Z</time>
      </trkpt>
      <trkpt lat="63.41024183" lon="10.47463717">
        <ele>158.041</ele>
        <time>1970-01-01T01:00:00Z</time>
      </trkpt>
      <trkpt lat="63.41023417" lon="10.47475433">
        <ele>158.041</ele>
        <time>1970-01-01T01:00:00Z</time>
      </trkpt>
      <trkpt lat="63.41022717" lon="10.47486633">
        <ele>157.888</ele>
        <time>1970-01-01T01:00:00Z</time>
      </trkpt>
      <trkpt lat="63.41022117" lon="10.474971">
        <ele>157.888</ele>
        <time>1970-01-01T01:00:00Z</time>
      </trkpt>
      <trkpt lat="63.41021633" lon="10.47506767">
        <ele>157.736</ele>
        <time>1970-01-01T01:00:00Z</time>
      </trkpt>
      <trkpt lat="63.41021333" lon="10.47515267">
        <ele>157.736</ele>
        <time>1970-01-01T01:00:00Z</time>
      </trkpt>
      <trkpt lat="63.4102135" lon="10.47522383">
        <ele>157.584</ele>
        <time>1970-01-01T01:00:00Z</time>
      </trkpt>
      <trkpt lat="63.41022" lon="10.4752795">
        <ele>157.584</ele>
        <time>1970-01-01T01:00:00Z</time>
      </trkpt>
      <trkpt lat="63.41023767" lon="10.47532283">
        <ele>157.431</ele>
        <time>1970-01-01T01:00:00Z</time>
      </trkpt>
      <trkpt lat="63.41026567" lon="10.47535567">
        <ele>157.431</ele>
        <time>1970-01-01T01:00:00Z</time>
      </trkpt>
      <trkpt lat="63.41030017" lon="10.47538267">
        <ele>157.279</ele>
        <time>1970-01-01T01:00:00Z</time>
      </trkpt>
      <trkpt lat="63.4103335" lon="10.4754095">
        <ele>157.279</ele>
        <time>1970-01-01T01:00:00Z</time>
      </trkpt>
      <trkpt lat="63.41036567" lon="10.47543783">
        <ele>156.974</ele>
        <time>1970-01-01T01:00:00Z</time>
      </trkpt>
      <trkpt lat="63.410397" lon="10.47546867">
        <ele>156.974</ele>
        <time>1970-01-01T01:00:00Z</time>
      </trkpt>
      <trkpt lat="63.410429" lon="10.4754995">
        <ele>156.822</ele>
        <time>1970-01-01T01:00:00Z</time>
      </trkpt>
      <trkpt lat="63.41046183" lon="10.47553">
        <ele>156.822</ele>
        <time>1970-01-01T01:00:00Z</time>
      </trkpt>
      <trkpt lat="63.41049717" lon="10.4755575">
        <ele>156.669</ele>
        <time>1970-01-01T01:00:00Z</time>
      </trkpt>
      <trkpt lat="63.41053383" lon="10.47557833">
        <ele>156.669</ele>
        <time>1970-01-01T01:00:00Z</time>
      </trkpt>
      <trkpt lat="63.41057233" lon="10.47559033">
        <ele>156.364</ele>
        <time>1970-01-01T01:00:00Z</time>
      </trkpt>
      <trkpt lat="63.41061183" lon="10.47559333">
        <ele>156.364</ele>
        <time>1970-01-01T01:00:00Z</time>
      </trkpt>
      <trkpt lat="63.41065333" lon="10.47559033">
        <ele>156.212</ele>
        <time>1970-01-01T01:00:00Z</time>
      </trkpt>
      <trkpt lat="63.4106965" lon="10.4755895">
        <ele>156.212</ele>
        <time>1970-01-01T01:00:00Z</time>
      </trkpt>
      <trkpt lat="63.41074083" lon="10.47559917">
        <ele>155.907</ele>
        <time>1970-01-01T01:00:00Z</time>
      </trkpt>
      <trkpt lat="63.41078333" lon="10.47562933">
        <ele>155.907</ele>
        <time>1970-01-01T01:00:00Z</time>
      </trkpt>
      <trkpt lat="63.410823" lon="10.4756795">
        <ele>155.755</ele>
        <time>1970-01-01T01:00:00Z</time>
      </trkpt>
      <trkpt lat="63.41086167" lon="10.47574083">
        <ele>155.755</ele>
        <time>1970-01-01T01:00:00Z</time>
      </trkpt>
      <trkpt lat="63.41090167" lon="10.47580117">
        <ele>155.45</ele>
        <time>1970-01-01T01:00:00Z</time>
      </trkpt>
      <trkpt lat="63.41094483" lon="10.4758545">
        <ele>155.45</ele>
        <time>1970-01-01T01:00:00Z</time>
      </trkpt>
      <trkpt lat="63.41099067" lon="10.47590167">
        <ele>155.145</ele>
        <time>1970-01-01T01:00:00Z</time>
      </trkpt>
      <trkpt lat="63.4110385" lon="10.475946">
        <ele>155.145</ele>
        <time>1970-01-01T01:00:00Z</time>
      </trkpt>
      <trkpt lat="63.41108783" lon="10.4759915">
        <ele>154.993</ele>
        <time>1970-01-01T01:00:00Z</time>
      </trkpt>
      <trkpt lat="63.41113783" lon="10.47603867">
        <ele>154.993</ele>
        <time>1970-01-01T01:00:00Z</time>
      </trkpt>
      <trkpt lat="63.4111885" lon="10.47608733">
        <ele>154.688</ele>
        <time>1970-01-01T01:00:00Z</time>
      </trkpt>
      <trkpt lat="63.41123983" lon="10.47613433">
        <ele>154.688</ele>
        <time>1970-01-01T01:00:00Z</time>
      </trkpt>
      <trkpt lat="63.4112915" lon="10.476181">
        <ele>154.535</ele>
        <time>1970-01-01T01:00:00Z</time>
      </trkpt>
      <trkpt lat="63.411344" lon="10.47622683">
        <ele>154.535</ele>
        <time>1970-01-01T01:00:00Z</time>
      </trkpt>
      <trkpt lat="63.41139733" lon="10.47627317">
        <ele>154.231</ele>
        <time>1970-01-01T01:00:00Z</time>
      </trkpt>
      <trkpt lat="63.41145083" lon="10.47632183">
        <ele>154.231</ele>
        <time>1970-01-01T01:00:00Z</time>
      </trkpt>
      <trkpt lat="63.41150417" lon="10.47637233">
        <ele>153.926</ele>
        <time>1970-01-01T01:00:00Z</time>
      </trkpt>
      <trkpt lat="63.41155717" lon="10.47642317">
        <ele>153.926</ele>
        <time>1970-01-01T01:00:00Z</time>
      </trkpt>
      <trkpt lat="63.411609" lon="10.47647183">
        <ele>153.621</ele>
        <time>1970-01-01T01:00:00Z</time>
      </trkpt>
      <trkpt lat="63.411659" lon="10.47651717">
        <ele>153.621</ele>
        <time>1970-01-01T01:00:00Z</time>
      </trkpt>
      <trkpt lat="63.4117055" lon="10.47655917">
        <ele>153.316</ele>
        <time>1970-01-01T01:00:00Z</time>
      </trkpt>
      <trkpt lat="63.4117475" lon="10.47659717">
        <ele>153.316</ele>
        <time>1970-01-01T01:00:00Z</time>
      </trkpt>
      <trkpt lat="63.41178333" lon="10.47663133">
        <ele>153.011</ele>
        <time>1970-01-01T01:00:00Z</time>
      </trkpt>
      <trkpt lat="63.41181317" lon="10.47665783">
        <ele>153.011</ele>
        <time>1970-01-01T01:00:00Z</time>
      </trkpt>
      <trkpt lat="63.41183817" lon="10.47667217">
        <ele>152.707</ele>
        <time>1970-01-01T01:00:00Z</time>
      </trkpt>
      <trkpt lat="63.41186133" lon="10.47667083">
        <ele>152.707</ele>
        <time>1970-01-01T01:00:00Z</time>
      </trkpt>
      <trkpt lat="63.41188283" lon="10.4766515">
        <ele>152.402</ele>
        <time>1970-01-01T01:00:00Z</time>
      </trkpt>
      <trkpt lat="63.41190367" lon="10.476616">
        <ele>152.402</ele>
        <time>1970-01-01T01:00:00Z</time>
      </trkpt>
      <trkpt lat="63.411924" lon="10.476569">
        <ele>152.097</ele>
        <time>1970-01-01T01:00:00Z</time>
      </trkpt>
      <trkpt lat="63.41194533" lon="10.47651917">
        <ele>152.097</ele>
        <time>1970-01-01T01:00:00Z</time>
      </trkpt>
      <trkpt lat="63.41196767" lon="10.47646817">
        <ele>151.792</ele>
        <time>1970-01-01T01:00:00Z</time>
      </trkpt>
      <trkpt lat="63.41199083" lon="10.47641533">
        <ele>151.792</ele>
        <time>1970-01-01T01:00:00Z</time>
      </trkpt>
      <trkpt lat="63.41201467" lon="10.47635967">
        <ele>151.64</ele>
        <time>1970-01-01T01:00:00Z</time>
      </trkpt>
      <trkpt lat="63.4120395" lon="10.47630183">
        <ele>151.64</ele>
        <time>1970-01-01T01:00:00Z</time>
      </trkpt>
      <trkpt lat="63.412065" lon="10.47624317">
        <ele>151.335</ele>
        <time>1970-01-01T01:00:00Z</time>
      </trkpt>
      <trkpt lat="63.41209133" lon="10.476184">
        <ele>151.335</ele>
        <time>1970-01-01T01:00:00Z</time>
      </trkpt>
      <trkpt lat="63.41211783" lon="10.47612467">
        <ele>151.03</ele>
        <time>1970-01-01T01:00:00Z</time>
      </trkpt>
      <trkpt lat="63.41214467" lon="10.4760655">
        <ele>151.03</ele>
        <time>1970-01-01T01:00:00Z</time>
      </trkpt>
      <trkpt lat="63.41217117" lon="10.4760065">
        <ele>150.725</ele>
        <time>1970-01-01T01:00:00Z</time>
      </trkpt>
      <trkpt lat="63.41219817" lon="10.47594717">
        <ele>150.725</ele>
        <time>1970-01-01T01:00:00Z</time>
      </trkpt>
      <trkpt lat="63.41222567" lon="10.47588767">
        <ele>150.573</ele>
        <time>1970-01-01T01:00:00Z</time>
      </trkpt>
      <trkpt lat="63.41225367" lon="10.47582717">
        <ele>150.573</ele>
        <time>1970-01-01T01:00:00Z</time>
      </trkpt>
      <trkpt lat="63.41228183" lon="10.47576467">
        <ele>150.268</ele>
        <time>1970-01-01T01:00:00Z</time>
      </trkpt>
      <trkpt lat="63.41230967" lon="10.47569933">
        <ele>150.268</ele>
        <time>1970-01-01T01:00:00Z</time>
      </trkpt>
      <trkpt lat="63.41233783" lon="10.475632">
        <ele>149.963</ele>
        <time>1970-01-01T01:00:00Z</time>
      </trkpt>
      <trkpt lat="63.41236683" lon="10.4755645">
        <ele>149.963</ele>
        <time>1970-01-01T01:00:00Z</time>
      </trkpt>
      <trkpt lat="63.412397" lon="10.47549633">
        <ele>149.811</ele>
        <time>1970-01-01T01:00:00Z</time>
      </trkpt>
      <trkpt lat="63.41242783" lon="10.47542683">
        <ele>149.811</ele>
        <time>1970-01-01T01:00:00Z</time>
      </trkpt>
      <trkpt lat="63.41245917" lon="10.47535583">
        <ele>149.506</ele>
        <time>1970-01-01T01:00:00Z</time>
      </trkpt>
      <trkpt lat="63.41249067" lon="10.47528333">
        <ele>149.506</ele>
        <time>1970-01-01T01:00:00Z</time>
      </trkpt>
      <trkpt lat="63.41252267" lon="10.4752095">
        <ele>149.354</ele>
        <time>1970-01-01T01:00:00Z</time>
      </trkpt>
      <trkpt lat="63.41255467" lon="10.47513567">
        <ele>149.354</ele>
        <time>1970-01-01T01:00:00Z</time>
      </trkpt>
      <trkpt lat="63.41258617" lon="10.4750635">
        <ele>149.049</ele>
        <time>1970-01-01T01:00:00Z</time>
      </trkpt>
      <trkpt lat="63.412617" lon="10.47499533">
        <ele>149.049</ele>
        <time>1970-01-01T01:00:00Z</time>
      </trkpt>
      <trkpt lat="63.4126465" lon="10.47493317">
        <ele>148.744</ele>
        <time>1970-01-01T01:00:00Z</time>
      </trkpt>
      <trkpt lat="63.41267483" lon="10.47487533">
        <ele>148.744</ele>
        <time>1970-01-01T01:00:00Z</time>
      </trkpt>
      <trkpt lat="63.4127015" lon="10.47482">
        <ele>148.592</ele>
        <time>1970-01-01T01:00:00Z</time>
      </trkpt>
      <trkpt lat="63.41272567" lon="10.474765">
        <ele>148.592</ele>
        <time>1970-01-01T01:00:00Z</time>
      </trkpt>
      <trkpt lat="63.4127465" lon="10.47470967">
        <ele>148.287</ele>
        <time>1970-01-01T01:00:00Z</time>
      </trkpt>
      <trkpt lat="63.412765" lon="10.47465617">
        <ele>148.287</ele>
        <time>1970-01-01T01:00:00Z</time>
      </trkpt>
      <trkpt lat="63.4127835" lon="10.47460433">
        <ele>148.135</ele>
        <time>1970-01-01T01:00:00Z</time>
      </trkpt>
      <trkpt lat="63.41280317" lon="10.47455517">
        <ele>148.135</ele>
        <time>1970-01-01T01:00:00Z</time>
      </trkpt>
      <trkpt lat="63.412822" lon="10.47450433">
        <ele>147.982</ele>
        <time>1970-01-01T01:00:00Z</time>
      </trkpt>
      <trkpt lat="63.412836" lon="10.47444767">
        <ele>147.982</ele>
        <time>1970-01-01T01:00:00Z</time>
      </trkpt>
      <trkpt lat="63.41284433" lon="10.4743845">
        <ele>147.83</ele>
        <time>1970-01-01T01:00:00Z</time>
      </trkpt>
      <trkpt lat="63.41284583" lon="10.47431633">
        <ele>147.83</ele>
        <time>1970-01-01T01:00:00Z</time>
      </trkpt>
      <trkpt lat="63.412841" lon="10.474246">
        <ele>147.677</ele>
        <time>1970-01-01T01:00:00Z</time>
      </trkpt>
      <trkpt lat="63.41283283" lon="10.47417433">
        <ele>147.677</ele>
        <time>1970-01-01T01:00:00Z</time>
      </trkpt>
      <trkpt lat="63.41282383" lon="10.47410283">
        <ele>147.525</ele>
        <time>1970-01-01T01:00:00Z</time>
      </trkpt>
      <trkpt lat="63.41281667" lon="10.4740315">
        <ele>147.525</ele>
        <time>1970-01-01T01:00:00Z</time>
      </trkpt>
      <trkpt lat="63.41281033" lon="10.473959">
        <ele>147.373</ele>
        <time>1970-01-01T01:00:00Z</time>
      </trkpt>
      <trkpt lat="63.41280483" lon="10.47388467">
        <ele>147.373</ele>
        <time>1970-01-01T01:00:00Z</time>
      </trkpt>
      <trkpt lat="63.41279983" lon="10.47380883">
        <ele>147.22</ele>
        <time>1970-01-01T01:00:00Z</time>
      </trkpt>
      <trkpt lat="63.41279533" lon="10.47373417">
        <ele>147.22</ele>
        <time>1970-01-01T01:00:00Z</time>
      </trkpt>
      <trkpt lat="63.4127905" lon="10.47365933">
        <ele>147.068</ele>
        <time>1970-01-01T01:00:00Z</time>
      </trkpt>
      <trkpt lat="63.41278467" lon="10.47358383">
        <ele>147.068</ele>
        <time>1970-01-01T01:00:00Z</time>
      </trkpt>
      <trkpt lat="63.4127785" lon="10.473506">
        <ele>146.915</ele>
        <time>1970-01-01T01:00:00Z</time>
      </trkpt>
      <trkpt lat="63.41277217" lon="10.47342583">
        <ele>146.915</ele>
        <time>1970-01-01T01:00:00Z</time>
      </trkpt>
      <trkpt lat="63.4127665" lon="10.47334533">
        <ele>146.763</ele>
        <time>1970-01-01T01:00:00Z</time>
      </trkpt>
      <trkpt lat="63.41276067" lon="10.47326467">
        <ele>146.763</ele>
        <time>1970-01-01T01:00:00Z</time>
      </trkpt>
      <trkpt lat="63.41275583" lon="10.47318467">
        <ele>146.611</ele>
        <time>1970-01-01T01:00:00Z</time>
      </trkpt>
      <trkpt lat="63.41275167" lon="10.47310383">
        <ele>146.611</ele>
        <time>1970-01-01T01:00:00Z</time>
      </trkpt>
      <trkpt lat="63.41274733" lon="10.4730225">
        <ele>146.458</ele>
        <time>1970-01-01T01:00:00Z</time>
      </trkpt>
      <trkpt lat="63.41274167" lon="10.47294083">
        <ele>146.458</ele>
        <time>1970-01-01T01:00:00Z</time>
      </trkpt>
      <trkpt lat="63.412735" lon="10.47285917">
        <ele>146.306</ele>
        <time>1970-01-01T01:00:00Z</time>
      </trkpt>
      <trkpt lat="63.4127285" lon="10.47277717">
        <ele>146.306</ele>
        <time>1970-01-01T01:00:00Z</time>
      </trkpt>
      <trkpt lat="63.41272217" lon="10.47269533">
        <ele>146.306</ele>
        <time>1970-01-01T01:00:00Z</time>
      </trkpt>
      <trkpt lat="63.41271633" lon="10.47261383">
        <ele>146.306</ele>
        <time>1970-01-01T01:00:00Z</time>
      </trkpt>
      <trkpt lat="63.41271117" lon="10.47253267">
        <ele>146.153</ele>
        <time>1970-01-01T01:00:00Z</time>
      </trkpt>
      <trkpt lat="63.41270667" lon="10.472452">
        <ele>146.153</ele>
        <time>1970-01-01T01:00:00Z</time>
      </trkpt>
      <trkpt lat="63.412702" lon="10.47237233">
        <ele>146.001</ele>
        <time>1970-01-01T01:00:00Z</time>
      </trkpt>
      <trkpt lat="63.41269667" lon="10.4722945">
        <ele>146.001</ele>
        <time>1970-01-01T01:00:00Z</time>
      </trkpt>
      <trkpt lat="63.412691" lon="10.47221933">
        <ele>146.001</ele>
        <time>1970-01-01T01:00:00Z</time>
      </trkpt>
      <trkpt lat="63.4126855" lon="10.4721465">
        <ele>146.001</ele>
        <time>1970-01-01T01:00:00Z</time>
      </trkpt>
      <trkpt lat="63.41267983" lon="10.47207583">
        <ele>145.849</ele>
        <time>1970-01-01T01:00:00Z</time>
      </trkpt>
      <trkpt lat="63.4126735" lon="10.472007">
        <ele>145.849</ele>
        <time>1970-01-01T01:00:00Z</time>
      </trkpt>
      <trkpt lat="63.41266583" lon="10.471943">
        <ele>145.696</ele>
        <time>1970-01-01T01:00:00Z</time>
      </trkpt>
      <trkpt lat="63.41265667" lon="10.47188683">
        <ele>145.696</ele>
        <time>1970-01-01T01:00:00Z</time>
      </trkpt>
      <trkpt lat="63.41264283" lon="10.47184617">
        <ele>145.696</ele>
        <time>1970-01-01T01:00:00Z</time>
      </trkpt>
      <trkpt lat="63.41262333" lon="10.47182417">
        <ele>145.696</ele>
        <time>1970-01-01T01:00:00Z</time>
      </trkpt>
      <trkpt lat="63.41260067" lon="10.47181917">
        <ele>145.544</ele>
        <time>1970-01-01T01:00:00Z</time>
      </trkpt>
      <trkpt lat="63.41257833" lon="10.47182133">
        <ele>145.544</ele>
        <time>1970-01-01T01:00:00Z</time>
      </trkpt>
      <trkpt lat="63.41255833" lon="10.47182333">
        <ele>145.391</ele>
        <time>1970-01-01T01:00:00Z</time>
      </trkpt>
      <trkpt lat="63.41253817" lon="10.47182617">
        <ele>145.391</ele>
        <time>1970-01-01T01:00:00Z</time>
      </trkpt>
      <trkpt lat="63.4125185" lon="10.4718295">
        <ele>145.391</ele>
        <time>1970-01-01T01:00:00Z</time>
      </trkpt>
      <trkpt lat="63.41249983" lon="10.47183467">
        <ele>145.391</ele>
        <time>1970-01-01T01:00:00Z</time>
      </trkpt>
      <trkpt lat="63.412484" lon="10.471841">
        <ele>145.239</ele>
        <time>1970-01-01T01:00:00Z</time>
      </trkpt>
      <trkpt lat="63.41247117" lon="10.47185333">
        <ele>145.239</ele>
        <time>1970-01-01T01:00:00Z</time>
      </trkpt>
      <trkpt lat="63.41246067" lon="10.4718735">
        <ele>145.087</ele>
        <time>1970-01-01T01:00:00Z</time>
      </trkpt>
      <trkpt lat="63.4124515" lon="10.471901">
        <ele>145.087</ele>
        <time>1970-01-01T01:00:00Z</time>
      </trkpt>
      <trkpt lat="63.41244483" lon="10.471933">
        <ele>145.087</ele>
        <time>1970-01-01T01:00:00Z</time>
      </trkpt>
      <trkpt lat="63.4124425" lon="10.47196733">
        <ele>145.087</ele>
        <time>1970-01-01T01:00:00Z</time>
      </trkpt>
      <trkpt lat="63.41244267" lon="10.4720005">
        <ele>144.934</ele>
        <time>1970-01-01T01:00:00Z</time>
      </trkpt>
      <trkpt lat="63.41244317" lon="10.472026">
        <ele>144.934</ele>
        <time>1970-01-01T01:00:00Z</time>
      </trkpt>
      <trkpt lat="63.41244183" lon="10.47203933">
        <ele>144.934</ele>
        <time>1970-01-01T01:00:00Z</time>
      </trkpt>
      <trkpt lat="63.41244167" lon="10.47204433">
        <ele>144.934</ele>
        <time>1970-01-01T01:00:00Z</time>
      </trkpt>
      <trkpt lat="63.41244267" lon="10.472048">
        <ele>144.782</ele>
        <time>1970-01-01T01:00:00Z</time>
      </trkpt>
      <trkpt lat="63.41244517" lon="10.47205233">
        <ele>144.782</ele>
        <time>1970-01-01T01:00:00Z</time>
      </trkpt>
      <trkpt lat="63.41244883" lon="10.472058">
        <ele>144.629</ele>
        <time>1970-01-01T01:00:00Z</time>
      </trkpt>
      <trkpt lat="63.41245317" lon="10.47206333">
        <ele>144.629</ele>
        <time>1970-01-01T01:00:00Z</time>
      </trkpt>
      <trkpt lat="63.4124575" lon="10.47207117">
        <ele>144.629</ele>
        <time>1970-01-01T01:00:00Z</time>
      </trkpt>
      <trkpt lat="63.4124605" lon="10.47207917">
        <ele>144.629</ele>
        <time>1970-01-01T01:00:00Z</time>
      </trkpt>
      <trkpt lat="63.41246317" lon="10.47208733">
        <ele>144.477</ele>
        <time>1970-01-01T01:00:00Z</time>
      </trkpt>
      <trkpt lat="63.412466" lon="10.47209717">
        <ele>144.477</ele>
        <time>1970-01-01T01:00:00Z</time>
      </trkpt>
      <trkpt lat="63.41246833" lon="10.4721065">
        <ele>144.477</ele>
        <time>1970-01-01T01:00:00Z</time>
      </trkpt>
      <trkpt lat="63.41247" lon="10.47211567">
        <ele>144.477</ele>
        <time>1970-01-01T01:00:00Z</time>
      </trkpt>
      <trkpt lat="63.41247083" lon="10.47212017">
        <ele>144.325</ele>
        <time>1970-01-01T01:00:00Z</time>
      </trkpt>
      <trkpt lat="63.4124715" lon="10.47212267">
        <ele>144.325</ele>
        <time>1970-01-01T01:00:00Z</time>
      </trkpt>
      <trkpt lat="63.412472" lon="10.472122">
        <ele>144.325</ele>
        <time>1970-01-01T01:00:00Z</time>
      </trkpt>
      <trkpt lat="63.4124725" lon="10.47212267">
        <ele>144.325</ele>
        <time>1970-01-01T01:00:00Z</time>
      </trkpt>
      <trkpt lat="63.4124725" lon="10.47212317">
        <ele>144.325</ele>
        <time>1970-01-01T01:00:00Z</time>
      </trkpt>
      <trkpt lat="63.41247283" lon="10.47212383">
        <ele>144.325</ele>
        <time>1970-01-01T01:00:00Z</time>
      </trkpt>
      <trkpt lat="63.41247317" lon="10.47212367">
        <ele>144.325</ele>
        <time>1970-01-01T01:00:00Z</time>
      </trkpt>
      <trkpt lat="63.4124735" lon="10.47212217">
        <ele>144.325</ele>
        <time>1970-01-01T01:00:00Z</time>
      </trkpt>
      <trkpt lat="63.412473" lon="10.4721235">
        <ele>144.325</ele>
        <time>1970-01-01T01:00:00Z</time>
      </trkpt>
      <trkpt lat="63.41247333" lon="10.4721245">
        <ele>144.325</ele>
        <time>1970-01-01T01:00:00Z</time>
      </trkpt>
      <trkpt lat="63.412475" lon="10.47212733">
        <ele>144.325</ele>
        <time>1970-01-01T01:00:00Z</time>
      </trkpt>
      <trkpt lat="63.41247783" lon="10.47212867">
        <ele>144.325</ele>
        <time>1970-01-01T01:00:00Z</time>
      </trkpt>
      <trkpt lat="63.41248067" lon="10.47212883">
        <ele>144.325</ele>
        <time>1970-01-01T01:00:00Z</time>
      </trkpt>
      <trkpt lat="63.41248267" lon="10.47212883">
        <ele>144.325</ele>
        <time>1970-01-01T01:00:00Z</time>
      </trkpt>
      <trkpt lat="63.41248467" lon="10.47212867">
        <ele>144.325</ele>
        <time>1970-01-01T01:00:00Z</time>
      </trkpt>
      <trkpt lat="63.4124865" lon="10.47213117">
        <ele>144.325</ele>
        <time>1970-01-01T01:00:00Z</time>
      </trkpt>
      <trkpt lat="63.41248883" lon="10.472136">
        <ele>144.325</ele>
        <time>1970-01-01T01:00:00Z</time>
      </trkpt>
      <trkpt lat="63.41249083" lon="10.47214017">
        <ele>144.325</ele>
        <time>1970-01-01T01:00:00Z</time>
      </trkpt>
    </trkseg>
  </trk>
</gpx>